LH506 / D-ABYP 7700 Squawk Report (19th of May, 2022)

Aircraft B748 Reg No. D-ABYP Age 8 years old
Model 747 Jet engines 4 First flight 16-05-14
Registered 26-06-14 Rollout N/A Delivered 28-06-14
Construction No. 37839 Line No. 1500 Series 830
ADSHEX 3C4B30 Airline name Lufthansa Owner N/A
Airfield based Frankfurt-Main~Hessen~D First tracked N/A

Flight history for D-ABYP

Route Flight No Date Playback
Licenciado Benito Juarez (MEX) - Frankfurt Main (FRA) LH499 2022-06-28 08:24:00
Frankfurt Main (FRA) - Licenciado Benito Juarez (MEX) LH498 2022-06-28 03:35:00
Licenciado Benito Juarez (MEX) - Frankfurt Main (FRA) LH499 2022-06-26 13:01:00
Frankfurt Main (FRA) - Licenciado Benito Juarez (MEX) LH498 2022-06-26 02:46:00
Ministro Pistarini (EZE) - Frankfurt Main (FRA) LH511 2022-06-25 12:24:00
Frankfurt Main (FRA) - Ministro Pistarini (EZE) LH510 2022-06-24 20:17:00
Washington Dulles International (IAD) - Frankfurt Main (FRA) LH419 2022-06-23 08:02:00
Frankfurt Main (FRA) - Washington Dulles International (IAD) LH418 2022-06-22 20:25:00
Miami Intl (MIA) - Frankfurt Main (FRA) LH463 2022-06-22 11:55:00
Frankfurt Main (FRA) - Miami Intl (MIA) LH462 2022-06-21 18:47:00
Washington Dulles International (IAD) - Frankfurt Main (FRA) LH419 2022-06-21 09:39:00
Frankfurt Main (FRA) - Washington Dulles International (IAD) LH418 2022-06-20 20:17:00
George Bush Intercontinental (IAH) - Frankfurt Main (FRA) LH441 2022-06-20 12:26:00
Frankfurt Main (FRA) - George Bush Intercontinental (IAH) LH440 2022-06-19 19:42:00
Licenciado Benito Juarez (MEX) - Frankfurt Main (FRA) LH499 2022-06-18 13:32:00
Frankfurt Main (FRA) - Licenciado Benito Juarez (MEX) LH498 2022-06-18 02:54:00
George Bush Intercontinental (IAH) - Frankfurt Main (FRA) LH441 2022-06-17 12:05:00
Frankfurt Main (FRA) - George Bush Intercontinental (IAH) LH440 2022-06-16 19:13:00
Chicago Ohare Intl (ORD) - Frankfurt Main (FRA) LH431 2022-06-16 09:06:00
Frankfurt Main (FRA) - Chicago Ohare Intl (ORD) LH430 2022-06-15 21:37:00
Time Lat Lon Altitude Heading Speed Vertical Rate
2022-05-19 23:39:43 GMT 50.046318 8.574739 0 292 11 0
2022-05-19 23:39:11 GMT 50.046822 8.577835 0 250 16 0
2022-05-19 23:39:09 GMT 50.046902 8.578170 0 250 15 0
2022-05-19 23:39:07 GMT 50.046925 8.578262 0 250 15 0
2022-05-19 23:39:05 GMT 50.046959 8.578443 0 253 14 0
2022-05-19 23:39:03 GMT 50.047009 8.578652 0 255 14 0
2022-05-19 23:39:01 GMT 50.047031 8.578745 0 258 14 0
2022-05-19 23:39:00 GMT 50.047073 8.579003 0 267 13 0
2022-05-19 23:38:58 GMT 50.047073 8.579003 0 270 13 0
2022-05-19 23:38:55 GMT 50.047089 8.579227 0 289 12 0
2022-05-19 23:38:54 GMT 50.047073 8.579347 0 300 12 0
2022-05-19 23:38:52 GMT 50.047031 8.579506 0 315 12 0
2022-05-19 23:38:49 GMT 50.046913 8.579690 0 331 12 0
2022-05-19 23:38:47 GMT 50.046833 8.579784 0 337 12 0
2022-05-19 23:38:45 GMT 50.046730 8.579834 0 340 12 0
2022-05-19 23:38:44 GMT 50.046600 8.579914 0 337 12 0
2022-05-19 23:38:39 GMT 50.046410 8.580015 0 337 12 0
2022-05-19 23:38:38 GMT 50.046379 8.580044 0 337 12 0
2022-05-19 23:38:36 GMT 50.046272 8.580105 0 337 12 0
2022-05-19 23:38:35 GMT 50.046215 8.580142 0 334 12 0
2022-05-19 23:38:34 GMT 50.046169 8.580174 0 331 12 0
2022-05-19 23:38:32 GMT 50.045952 8.580322 0 326 12 0
2022-05-19 23:38:30 GMT 50.045952 8.580322 0 320 12 0
2022-05-19 23:38:29 GMT 50.045902 8.580378 0 317 12 0
2022-05-19 23:38:26 GMT 50.045811 8.580489 0 303 12 0
2022-05-19 23:38:25 GMT 50.045773 8.580545 0 295 12 0
2022-05-19 23:38:24 GMT 50.045738 8.580619 0 286 12 0
2022-05-19 23:38:22 GMT 50.045704 8.580731 0 275 12 0
2022-05-19 23:38:21 GMT 50.045681 8.580823 0 270 12 0
2022-05-19 23:38:19 GMT 50.045692 8.581120 0 253 13 0
2022-05-19 23:38:16 GMT 50.045704 8.581213 0 253 14 0
2022-05-19 23:38:15 GMT 50.045715 8.581306 0 250 15 0
2022-05-19 23:38:13 GMT 50.045780 8.581569 0 250 16 0
2022-05-19 23:38:12 GMT 50.045834 8.581770 0 250 18 0
2022-05-19 23:38:09 GMT 50.045918 8.582129 0 250 19 0
2022-05-19 23:38:07 GMT 50.045948 8.582252 0 250 19 0
2022-05-19 23:38:05 GMT 50.046005 8.582475 0 250 20 0
2022-05-19 23:38:03 GMT 50.046066 8.582744 0 250 20 0
2022-05-19 23:37:59 GMT 50.046181 8.583254 0 250 21 0
2022-05-19 23:37:58 GMT 50.046322 8.583848 0 250 21 0
2022-05-19 23:37:55 GMT 50.046322 8.583848 0 250 22 0
2022-05-19 23:37:53 GMT 50.046391 8.584145 0 250 22 0
2022-05-19 23:37:50 GMT 50.046501 8.584587 0 250 23 0
2022-05-19 23:37:46 GMT 50.046692 8.585407 0 250 23 0
2022-05-19 23:37:43 GMT 50.046749 8.585630 0 250 22 0
2022-05-19 23:37:41 GMT 50.046833 8.585978 0 250 22 0
2022-05-19 23:37:40 GMT 50.046867 8.586112 0 250 22 0
2022-05-19 23:37:39 GMT 50.046902 8.586261 0 247 22 0
2022-05-19 23:37:38 GMT 50.046959 8.586484 0 247 21 0
2022-05-19 23:37:35 GMT 50.047031 8.586762 0 247 21 0
2022-05-19 23:37:34 GMT 50.047077 8.586910 0 247 21 0
2022-05-19 23:37:33 GMT 50.047119 8.587062 0 247 22 0
2022-05-19 23:37:31 GMT 50.047195 8.587337 0 247 22 0
2022-05-19 23:37:29 GMT 50.047276 8.587671 0 247 22 0
2022-05-19 23:37:20 GMT 50.047600 8.588952 0 250 21 0
2022-05-19 23:37:18 GMT 50.047661 8.589193 0 250 21 0
2022-05-19 23:37:17 GMT 50.047691 8.589339 0 250 21 0
2022-05-19 23:37:16 GMT 50.047718 8.589453 0 250 21 0
2022-05-19 23:37:14 GMT 50.047794 8.589791 0 250 20 0
2022-05-19 23:37:13 GMT 50.047821 8.589917 0 250 20 0
2022-05-19 23:37:11 GMT 50.047871 8.590102 0 250 20 0
2022-05-19 23:37:10 GMT 50.047916 8.590306 0 250 19 0
2022-05-19 23:37:08 GMT 50.047977 8.590568 0 250 19 0
2022-05-19 23:37:05 GMT 50.048042 8.590863 0 250 19 0
2022-05-19 23:37:04 GMT 50.048206 8.591525 0 250 18 0
2022-05-19 23:37:00 GMT 50.048252 8.591754 0 250 17 0
2022-05-19 23:36:58 GMT 50.048252 8.591754 0 250 17 0
2022-05-19 23:36:57 GMT 50.048286 8.591865 0 250 17 0
2022-05-19 23:36:56 GMT 50.048355 8.592194 0 253 17 0
2022-05-19 23:36:53 GMT 50.048401 8.592339 0 253 16 0
2022-05-19 23:36:50 GMT 50.048439 8.592589 0 264 16 0
2022-05-19 23:36:48 GMT 50.048462 8.592867 0 278 15 0
2022-05-19 23:36:45 GMT 50.048435 8.593188 0 298 15 0
2022-05-19 23:36:42 GMT 50.048355 8.593459 0 312 14 0
2022-05-19 23:36:41 GMT 50.048325 8.593536 0 317 14 0
2022-05-19 23:36:39 GMT 50.048126 8.593802 0 334 13 0
2022-05-19 23:36:37 GMT 50.048126 8.593802 0 334 13 0
2022-05-19 23:36:36 GMT 50.048031 8.593870 0 340 14 0
2022-05-19 23:36:34 GMT 50.047966 8.593911 0 340 14 0
2022-05-19 23:36:32 GMT 50.047840 8.593983 0 340 15 0
2022-05-19 23:36:28 GMT 50.047600 8.594109 0 340 16 0
2022-05-19 23:36:27 GMT 50.047531 8.594146 0 340 16 0
2022-05-19 23:36:26 GMT 50.047462 8.594185 0 340 17 0
2022-05-19 23:36:24 GMT 50.047291 8.594272 0 340 18 0
2022-05-19 23:36:23 GMT 50.047253 8.594296 0 340 18 0
2022-05-19 23:36:20 GMT 50.046997 8.594426 0 345 19 0
2022-05-19 23:36:19 GMT 50.046902 8.594482 0 345 20 0
2022-05-19 23:36:17 GMT 50.046741 8.594538 0 348 20 0
2022-05-19 23:36:16 GMT 50.046669 8.594556 0 351 20 0
2022-05-19 23:36:15 GMT 50.046387 8.594633 0 354 20 0
2022-05-19 23:36:13 GMT 50.046387 8.594633 0 354 19 0
2022-05-19 23:36:12 GMT 50.046215 8.594651 0 357 19 0
2022-05-19 23:36:10 GMT 50.046146 8.594651 0 357 19 0
2022-05-19 23:36:08 GMT 50.045948 8.594668 0 357 18 0
2022-05-19 23:36:07 GMT 50.045856 8.594668 0 357 18 0
2022-05-19 23:36:06 GMT 50.045704 8.594686 0 357 17 0
2022-05-19 23:36:04 GMT 50.045631 8.594688 0 357 17 0
2022-05-19 23:36:02 GMT 50.045483 8.594705 0 357 16 0
2022-05-19 23:36:01 GMT 50.045403 8.594705 0 357 16 0
2022-05-19 23:36:00 GMT 50.045341 8.594705 0 357 16 0
2022-05-19 23:35:59 GMT 50.045208 8.594706 0 0 15 0
2022-05-19 23:35:57 GMT 50.045128 8.594706 0 0 15 0
2022-05-19 23:35:54 GMT 50.044933 8.594724 0 5 13 0
2022-05-19 23:35:53 GMT 50.044819 8.594723 0 16 13 0
2022-05-19 23:35:47 GMT 50.044552 8.594575 0 50 12 0
2022-05-19 23:35:45 GMT 50.044472 8.594463 0 61 12 0
2022-05-19 23:35:41 GMT 50.044373 8.594182 0 70 14 0
2022-05-19 23:35:38 GMT 50.044304 8.593893 0 70 14 0
2022-05-19 23:35:36 GMT 50.044262 8.593684 0 70 14 0
2022-05-19 23:35:34 GMT 50.044224 8.593531 0 70 14 0
2022-05-19 23:35:33 GMT 50.044189 8.593406 0 70 15 0
2022-05-19 23:35:31 GMT 50.044155 8.593224 0 70 15 0
2022-05-19 23:35:30 GMT 50.044041 8.592756 0 70 17 0
2022-05-19 23:35:26 GMT 50.044041 8.592756 0 70 17 0
2022-05-19 23:35:25 GMT 50.043995 8.592573 0 70 17 0
2022-05-19 23:35:21 GMT 50.043888 8.592107 0 70 18 0
2022-05-19 23:35:19 GMT 50.043732 8.591399 0 70 18 0
2022-05-19 23:35:15 GMT 50.043697 8.591309 0 70 18 0
2022-05-19 23:35:13 GMT 50.043678 8.591197 0 70 18 0
2022-05-19 23:35:11 GMT 50.043617 8.590965 0 70 18 0
2022-05-19 23:35:10 GMT 50.043583 8.590839 0 70 19 0
2022-05-19 23:35:08 GMT 50.043530 8.590585 0 70 19 0
2022-05-19 23:35:07 GMT 50.043480 8.590418 0 70 19 0
2022-05-19 23:35:05 GMT 50.043434 8.590206 0 70 20 0
2022-05-19 23:35:04 GMT 50.043331 8.589791 0 70 20 0
2022-05-19 23:35:01 GMT 50.043331 8.589791 0 70 20 0
2022-05-19 23:34:59 GMT 50.043270 8.589546 0 70 20 0
2022-05-19 23:34:57 GMT 50.043194 8.589231 0 70 21 0
2022-05-19 23:34:55 GMT 50.043076 8.588729 0 70 21 0
2022-05-19 23:34:54 GMT 50.043076 8.588729 0 70 22 0
2022-05-19 23:34:51 GMT 50.043022 8.588490 0 70 22 0
2022-05-19 23:34:49 GMT 50.042953 8.588201 0 70 23 0
2022-05-19 23:34:48 GMT 50.042900 8.587968 0 70 24 0
2022-05-19 23:34:46 GMT 50.042828 8.587677 0 70 24 0
2022-05-19 23:34:44 GMT 50.042690 8.587114 0 70 25 0
2022-05-19 23:34:40 GMT 50.042583 8.586688 0 70 25 0
2022-05-19 23:34:38 GMT 50.042503 8.586354 0 70 25 0
2022-05-19 23:34:37 GMT 50.042458 8.586131 0 70 25 0
2022-05-19 23:34:34 GMT 50.042374 8.585778 0 70 24 0
2022-05-19 23:34:33 GMT 50.042301 8.585490 0 70 24 0
2022-05-19 23:34:31 GMT 50.042259 8.585314 0 70 24 0
2022-05-19 23:34:30 GMT 50.042213 8.585110 0 70 23 0
2022-05-19 23:34:29 GMT 50.042179 8.584962 0 70 23 0
2022-05-19 23:34:28 GMT 50.042118 8.584713 0 70 23 0
2022-05-19 23:34:27 GMT 50.042084 8.584587 0 70 23 0
2022-05-19 23:34:25 GMT 50.042004 8.584280 0 70 23 0
2022-05-19 23:34:24 GMT 50.041981 8.584135 0 70 23 0
2022-05-19 23:34:23 GMT 50.041935 8.583990 0 70 23 0
2022-05-19 23:34:21 GMT 50.041862 8.583681 0 70 24 0
2022-05-19 23:34:19 GMT 50.041798 8.583394 0 70 24 0
2022-05-19 23:34:18 GMT 50.041763 8.583250 0 70 24 0
2022-05-19 23:34:17 GMT 50.041683 8.582906 0 70 24 0
2022-05-19 23:34:15 GMT 50.041626 8.582671 0 70 24 0
2022-05-19 23:34:13 GMT 50.041550 8.582382 0 70 25 0
2022-05-19 23:34:12 GMT 50.041470 8.582030 0 70 25 0
2022-05-19 23:34:10 GMT 50.041443 8.581930 0 70 25 0
2022-05-19 23:34:09 GMT 50.041386 8.581696 0 70 25 0
2022-05-19 23:34:08 GMT 50.041222 8.581009 0 70 25 0
2022-05-19 23:34:05 GMT 50.041191 8.580864 0 70 25 0
2022-05-19 23:34:03 GMT 50.041153 8.580712 0 70 25 0
2022-05-19 23:34:02 GMT 50.041111 8.580557 0 70 24 0
2022-05-19 23:34:01 GMT 50.041042 8.580250 0 70 24 0
2022-05-19 23:33:59 GMT 50.041008 8.580087 0 70 24 0
2022-05-19 23:33:58 GMT 50.040966 8.579933 0 70 24 0
2022-05-19 23:33:57 GMT 50.040916 8.579726 0 70 24 0
2022-05-19 23:33:55 GMT 50.040840 8.579394 0 70 24 0
2022-05-19 23:33:54 GMT 50.040791 8.579238 0 70 24 0
2022-05-19 23:33:53 GMT 50.040756 8.579079 0 70 24 0
2022-05-19 23:33:51 GMT 50.040688 8.578801 0 70 23 0
2022-05-19 23:33:50 GMT 50.040642 8.578606 0 70 23 0
2022-05-19 23:33:48 GMT 50.040585 8.578337 0 70 23 0
2022-05-19 23:33:46 GMT 50.040470 8.577883 0 70 22 0
2022-05-19 23:33:43 GMT 50.040401 8.577576 0 70 22 0
2022-05-19 23:33:42 GMT 50.040325 8.577279 0 70 21 0
2022-05-19 23:33:39 GMT 50.040257 8.576982 0 70 21 0
2022-05-19 23:33:38 GMT 50.040234 8.576889 0 70 21 0
2022-05-19 23:33:36 GMT 50.040173 8.576636 0 70 20 0
2022-05-19 23:33:35 GMT 50.040131 8.576444 0 70 20 0
2022-05-19 23:33:34 GMT 50.040092 8.576314 0 70 20 0
2022-05-19 23:33:32 GMT 50.040035 8.576058 0 70 19 0
2022-05-19 23:33:31 GMT 50.040012 8.575949 0 70 19 0
2022-05-19 23:33:30 GMT 50.039944 8.575664 0 70 18 0
2022-05-19 23:33:28 GMT 50.039921 8.575552 0 70 18 0
2022-05-19 23:33:27 GMT 50.039864 8.575312 0 70 18 0
2022-05-19 23:33:24 GMT 50.039803 8.575070 0 67 18 0
2022-05-19 23:33:22 GMT 50.039757 8.574885 0 64 17 0
2022-05-19 23:33:21 GMT 50.039715 8.574757 0 64 17 0
2022-05-19 23:33:20 GMT 50.039680 8.574630 0 61 17 0
2022-05-19 23:33:19 GMT 50.039604 8.574421 0 56 17 0
2022-05-19 23:33:17 GMT 50.039577 8.574341 0 56 17 0
2022-05-19 23:33:16 GMT 50.039532 8.574197 0 53 18 0
2022-05-19 23:33:14 GMT 50.039444 8.574013 0 47 18 0
2022-05-19 23:33:13 GMT 50.039383 8.573920 0 47 18 0
2022-05-19 23:33:12 GMT 50.039326 8.573817 0 45 18 0
2022-05-19 23:33:09 GMT 50.039173 8.573586 0 39 18 0
2022-05-19 23:33:07 GMT 50.039024 8.573382 0 39 19 0
2022-05-19 23:33:06 GMT 50.038948 8.573293 0 39 19 0
2022-05-19 23:33:04 GMT 50.038815 8.573103 0 39 20 0
2022-05-19 23:33:02 GMT 50.038696 8.572955 0 39 21 0
2022-05-19 23:33:00 GMT 50.038456 8.572643 0 39 21 0
2022-05-19 23:32:57 GMT 50.038349 8.572509 0 39 21 0
2022-05-19 23:32:55 GMT 50.038204 8.572317 0 39 21 0
2022-05-19 23:32:53 GMT 50.038025 8.572101 0 39 21 0
2022-05-19 23:32:52 GMT 50.037941 8.571990 0 39 22 0
2022-05-19 23:32:51 GMT 50.037884 8.571915 0 39 22 0
2022-05-19 23:32:50 GMT 50.037804 8.571830 0 39 22 0
2022-05-19 23:32:49 GMT 50.037651 8.571619 0 39 23 0
2022-05-19 23:32:47 GMT 50.037556 8.571507 0 39 23 0
2022-05-19 23:32:46 GMT 50.037476 8.571396 0 39 23 0
2022-05-19 23:32:45 GMT 50.037312 8.571197 0 39 23 0
2022-05-19 23:32:43 GMT 50.037231 8.571089 0 39 24 0
2022-05-19 23:32:42 GMT 50.037151 8.570962 0 42 24 0
2022-05-19 23:32:40 GMT 50.036991 8.570763 0 42 23 0
2022-05-19 23:32:37 GMT 50.036762 8.570438 0 45 23 0
2022-05-19 23:32:36 GMT 50.036697 8.570338 0 45 23 0
2022-05-19 23:32:35 GMT 50.036613 8.570221 0 47 23 0
2022-05-19 23:32:34 GMT 50.036476 8.570005 0 47 23 0
2022-05-19 23:32:32 GMT 50.036381 8.569837 0 50 24 0
2022-05-19 23:32:30 GMT 50.036190 8.569480 0 53 24 0
2022-05-19 23:32:29 GMT 50.036190 8.569480 0 53 24 0
2022-05-19 23:32:27 GMT 50.036064 8.569191 0 59 24 0
2022-05-19 23:32:26 GMT 50.035904 8.568776 0 61 24 0
2022-05-19 23:32:24 GMT 50.035904 8.568776 0 61 25 0
2022-05-19 23:32:23 GMT 50.035870 8.568668 0 64 25 0
2022-05-19 23:32:21 GMT 50.035751 8.568315 0 67 27 0
2022-05-19 23:32:20 GMT 50.035706 8.568130 0 67 28 0
2022-05-19 23:32:18 GMT 50.035614 8.567740 0 70 31 0
2022-05-19 23:32:16 GMT 50.035439 8.567090 0 67 34 0
2022-05-19 23:32:14 GMT 50.035389 8.566878 0 67 35 0
2022-05-19 23:32:13 GMT 50.035332 8.566662 0 67 37 0
2022-05-19 23:32:11 GMT 50.035217 8.566192 0 67 40 0
2022-05-19 23:32:09 GMT 50.035080 8.565686 0 67 43 0
2022-05-19 23:32:07 GMT 50.034939 8.565105 0 67 45 0
2022-05-19 23:32:02 GMT 50.034657 8.563951 0 70 49 0
2022-05-19 23:31:53 GMT 50.033669 8.559760 0 70 78 0
2022-05-19 23:31:50 GMT 50.033432 8.558856 100 68 83 0
2022-05-19 23:31:49 GMT 50.033321 8.558201 100 68 90 0
2022-05-19 23:31:45 GMT 50.032654 8.555675 100 69 103 0
2022-05-19 23:31:42 GMT 50.032158 8.553673 100 71 128 -64
2022-05-19 23:31:30 GMT 50.029907 8.543749 75 69 154 -64
2022-05-19 23:31:27 GMT 50.029129 8.540497 75 69 160 -320
2022-05-19 23:31:26 GMT 50.028805 8.539272 75 69 160 -320
2022-05-19 23:31:25 GMT 50.028526 8.538159 100 69 161 -512
2022-05-19 23:31:23 GMT 50.027782 8.535041 125 69 160 -768
2022-05-19 23:31:20 GMT 50.026943 8.531700 175 69 160 -768
2022-05-19 23:31:18 GMT 50.026711 8.530587 175 69 160 -768
2022-05-19 23:31:17 GMT 50.026337 8.529102 200 69 160 -768
2022-05-19 23:31:16 GMT 50.026058 8.527915 225 69 159 -768
2022-05-19 23:31:15 GMT 50.025593 8.525984 250 69 160 -832
2022-05-19 23:31:13 GMT 50.025238 8.524596 325 69 159 -896
2022-05-19 23:31:11 GMT 50.024708 8.522199 325 69 159 -960
2022-05-19 23:31:09 GMT 50.024231 8.520114 350 69 159 -1024
2022-05-19 23:31:08 GMT 50.023956 8.519030 375 69 158 -960
2022-05-19 23:31:06 GMT 50.023315 8.516356 375 69 158 -960
2022-05-19 23:31:05 GMT 50.023087 8.515272 400 69 159 -896
2022-05-19 23:31:04 GMT 50.022800 8.514256 425 69 159 -832
2022-05-19 23:31:03 GMT 50.022614 8.513365 425 69 159 -832
2022-05-19 23:31:00 GMT 50.021942 8.510646 450 68 158 -832
2022-05-19 23:30:59 GMT 50.021255 8.507972 500 69 159 -768
2022-05-19 23:30:57 GMT 50.020985 8.506758 500 69 159 -832
2022-05-19 23:30:56 GMT 50.020706 8.505586 525 69 159 -832
2022-05-19 23:30:54 GMT 50.020145 8.503492 550 69 159 -896
2022-05-19 23:30:52 GMT 50.019882 8.502334 575 69 158 -896
2022-05-19 23:30:51 GMT 50.019634 8.501339 575 69 158 -896
2022-05-19 23:30:49 GMT 50.018471 8.496292 625 70 158 -896
2022-05-19 23:30:47 GMT 50.018471 8.496292 650 70 158 -896
2022-05-19 23:30:46 GMT 50.018192 8.495104 700 70 158 -896
2022-05-19 23:30:44 GMT 50.017410 8.491781 725 69 158 -960
2022-05-19 23:30:41 GMT 50.016861 8.489541 750 69 158 -896
2022-05-19 23:30:38 GMT 50.015945 8.485637 825 69 158 -768
2022-05-19 23:30:35 GMT 50.015305 8.483180 825 69 158 -768
2022-05-19 23:30:33 GMT 50.014801 8.480939 850 69 159 -768
2022-05-19 23:30:31 GMT 50.014374 8.479367 875 69 159 -768
2022-05-19 23:30:30 GMT 50.014050 8.477882 875 69 159 -768
2022-05-19 23:30:29 GMT 50.013767 8.476769 900 69 158 -832
2022-05-19 23:30:27 GMT 50.013245 8.474651 925 69 158 -832
2022-05-19 23:30:26 GMT 50.013023 8.473577 950 69 158 -832
2022-05-19 23:30:25 GMT 50.012791 8.472686 975 69 158 -832
2022-05-19 23:30:24 GMT 50.012558 8.471760 1,000 69 158 -832
2022-05-19 23:30:22 GMT 50.012054 8.469519 1,000 69 158 -832
2022-05-19 23:30:21 GMT 50.011814 8.468529 1,025 69 158 -832
2022-05-19 23:30:20 GMT 50.011276 8.466411 1,050 69 158 -768
2022-05-19 23:30:18 GMT 50.010975 8.465040 1,050 69 158 -768
2022-05-19 23:30:17 GMT 50.010727 8.464026 1,075 69 158 -704
2022-05-19 23:30:16 GMT 50.010178 8.461786 1,100 69 158 -768
2022-05-19 23:30:13 GMT 50.009445 8.458678 1,125 69 158 -832
2022-05-19 23:30:10 GMT 50.008987 8.456798 1,150 69 158 -832
2022-05-19 23:30:08 GMT 50.008438 8.454558 1,200 69 158 -832
2022-05-19 23:30:07 GMT 50.008209 8.453474 1,200 69 158 -832
2022-05-19 23:30:06 GMT 50.007717 8.451307 1,225 69 158 -832
2022-05-19 23:30:04 GMT 50.007393 8.450045 1,250 69 158 -832
2022-05-19 23:30:03 GMT 50.007156 8.449065 1,250 69 159 -832
2022-05-19 23:30:01 GMT 50.006645 8.446927 1,300 69 160 -832
2022-05-19 23:30:00 GMT 50.006367 8.445814 1,300 69 160 -832
2022-05-19 23:29:58 GMT 50.005856 8.443735 1,325 69 160 -896
2022-05-19 23:29:56 GMT 50.004776 8.439090 1,375 69 160 -832
2022-05-19 23:29:54 GMT 50.004776 8.439090 1,400 69 161 -832
2022-05-19 23:29:52 GMT 50.004368 8.437426 1,400 69 161 -832
2022-05-19 23:29:50 GMT 50.003906 8.435621 1,425 69 161 -832
2022-05-19 23:29:48 GMT 50.003387 8.433417 1,475 69 162 -896
2022-05-19 23:29:47 GMT 50.003082 8.432224 1,500 69 162 -896
2022-05-19 23:29:46 GMT 50.002808 8.431067 1,500 69 163 -896
2022-05-19 23:29:44 GMT 50.002316 8.428963 1,525 69 164 -896
2022-05-19 23:29:43 GMT 50.001709 8.426514 1,550 69 167 -832
2022-05-19 23:29:41 GMT 50.001480 8.425474 1,575 69 167 -832
2022-05-19 23:29:40 GMT 50.000977 8.423333 1,600 69 168 -832
2022-05-19 23:29:38 GMT 50.000641 8.421986 1,600 69 170 -896
2022-05-19 23:29:36 GMT 50.000130 8.419684 1,625 69 172 -1024
2022-05-19 23:29:35 GMT 49.999878 8.418635 1,650 69 173 -1024
2022-05-19 23:29:34 GMT 49.999557 8.417407 1,675 69 174 -1024
2022-05-19 23:29:32 GMT 49.998917 8.414805 1,700 69 176 -960
2022-05-19 23:29:31 GMT 49.998688 8.413746 1,725 69 177 -960
2022-05-19 23:29:30 GMT 49.998093 8.411335 1,750 69 179 -832
2022-05-19 23:29:28 GMT 49.997803 8.410034 1,775 69 180 -832
2022-05-19 23:29:27 GMT 49.997520 8.408921 1,775 69 180 -832
2022-05-19 23:29:25 GMT 49.996674 8.405408 1,825 69 183 -896
2022-05-19 23:29:23 GMT 49.996307 8.404035 1,825 69 183 -896
2022-05-19 23:29:20 GMT 49.995659 8.401201 1,875 69 185 -1024
2022-05-19 23:29:19 GMT 49.994869 8.398083 1,925 69 187 -960
2022-05-19 23:29:17 GMT 49.994568 8.396735 1,950 69 188 -960
2022-05-19 23:29:16 GMT 49.993973 8.394277 1,975 69 190 -896
2022-05-19 23:29:14 GMT 49.993652 8.393049 2,000 69 190 -896
2022-05-19 23:29:12 GMT 49.993053 8.390437 2,025 69 193 -1024
2022-05-19 23:29:11 GMT 49.992737 8.389001 2,050 69 193 -1024
2022-05-19 23:29:10 GMT 49.992401 8.387616 2,075 69 194 -1024
2022-05-19 23:29:09 GMT 49.992123 8.386577 2,100 69 195 -1088
2022-05-19 23:29:06 GMT 49.991329 8.383311 2,125 69 196 -1088
2022-05-19 23:29:05 GMT 49.990814 8.381195 2,150 69 196 -1152
2022-05-19 23:29:04 GMT 49.990540 8.379970 2,175 69 196 -1152
2022-05-19 23:29:03 GMT 49.990215 8.378634 2,200 69 197 -1152
2022-05-19 23:29:02 GMT 49.989468 8.375591 2,250 69 197 -1152
2022-05-19 23:29:00 GMT 49.989166 8.374401 2,250 69 198 -1088
2022-05-19 23:28:59 GMT 49.988937 8.373389 2,275 69 198 -1024
2022-05-19 23:28:58 GMT 49.988251 8.370570 2,300 69 200 -960
2022-05-19 23:28:55 GMT 49.987232 8.366237 2,350 69 200 -960
2022-05-19 23:28:53 GMT 49.986877 8.364788 2,375 69 200 -960
2022-05-19 23:28:52 GMT 49.986328 8.362475 2,400 69 201 -960
2022-05-19 23:28:50 GMT 49.985870 8.360596 2,425 69 201 -960
2022-05-19 23:28:48 GMT 49.985279 8.357998 2,425 69 201 -960
2022-05-19 23:28:46 GMT 49.984680 8.355536 2,475 69 202 -1024
2022-05-19 23:28:45 GMT 49.984360 8.354163 2,500 69 203 -1024
2022-05-19 23:28:43 GMT 49.983673 8.351344 2,525 69 204 -1088
2022-05-19 23:28:42 GMT 49.983372 8.350129 2,550 69 204 -1088
2022-05-19 23:28:41 GMT 49.983078 8.348887 2,550 69 204 -1024
2022-05-19 23:28:39 GMT 49.982346 8.345995 2,600 69 205 -1024
2022-05-19 23:28:37 GMT 49.981743 8.343374 2,625 68 205 -1088
2022-05-19 23:28:36 GMT 49.981369 8.341889 2,650 68 205 -1088
2022-05-19 23:28:35 GMT 49.980995 8.340479 2,675 69 206 -1088
2022-05-19 23:28:34 GMT 49.980606 8.338984 2,700 69 206 -1088
2022-05-19 23:28:32 GMT 49.979919 8.336021 2,725 69 207 -1088
2022-05-19 23:28:31 GMT 49.979553 8.334540 2,750 69 207 -1088
2022-05-19 23:28:30 GMT 49.978901 8.332016 2,775 69 208 -1088
2022-05-19 23:28:28 GMT 49.978592 8.330600 2,800 69 209 -1088
2022-05-19 23:28:27 GMT 49.978294 8.329344 2,825 69 209 -1088
2022-05-19 23:28:25 GMT 49.977585 8.326408 2,850 69 209 -1152
2022-05-19 23:28:24 GMT 49.977226 8.324964 2,875 69 209 -1152
2022-05-19 23:28:23 GMT 49.976624 8.322288 2,900 70 210 -1152
2022-05-19 23:28:20 GMT 49.976013 8.319768 2,950 70 211 -1152
2022-05-19 23:28:19 GMT 49.975224 8.316353 3,000 69 211 -1152
2022-05-19 23:28:16 GMT 49.974655 8.314048 3,000 69 211 -1152
2022-05-19 23:28:15 GMT 49.974152 8.311900 3,050 69 213 -1152
2022-05-19 23:28:14 GMT 49.973190 8.307905 3,100 69 213 -1152
2022-05-19 23:28:12 GMT 49.973190 8.307905 3,100 69 213 -1152
2022-05-19 23:28:10 GMT 49.971817 8.302267 3,175 69 215 -1088
2022-05-19 23:28:08 GMT 49.971817 8.302267 3,175 68 215 -1088
2022-05-19 23:28:06 GMT 49.971222 8.299954 3,200 68 215 -1088
2022-05-19 23:28:05 GMT 49.970802 8.298241 3,250 68 216 -1152
2022-05-19 23:28:04 GMT 49.970428 8.296830 3,275 68 216 -1152
2022-05-19 23:28:01 GMT 49.969208 8.291859 3,325 69 217 -1216
2022-05-19 23:27:59 GMT 49.968567 8.289257 3,350 69 218 -1152
2022-05-19 23:27:58 GMT 49.968243 8.287774 3,400 69 218 -1152
2022-05-19 23:27:57 GMT 49.967869 8.286290 3,400 69 218 -1152
2022-05-19 23:27:56 GMT 49.967194 8.283402 3,425 69 219 -1152
2022-05-19 23:27:54 GMT 49.966827 8.281884 3,450 69 219 -1152
2022-05-19 23:27:53 GMT 49.966141 8.278921 3,500 69 220 -1216
2022-05-19 23:27:51 GMT 49.965775 8.277456 3,500 69 220 -1216
2022-05-19 23:27:50 GMT 49.965446 8.275971 3,525 69 220 -1280
2022-05-19 23:27:48 GMT 49.964748 8.273002 3,575 69 220 -1280
2022-05-19 23:27:47 GMT 49.964355 8.271476 3,600 69 220 -1280
2022-05-19 23:27:46 GMT 49.963680 8.268697 3,650 69 221 -1280
2022-05-19 23:27:44 GMT 49.963348 8.267212 3,650 69 221 -1216
2022-05-19 23:27:43 GMT 49.962933 8.265579 3,675 69 221 -1152
2022-05-19 23:27:41 GMT 49.962189 8.262461 3,725 69 221 -1088
2022-05-19 23:27:40 GMT 49.961838 8.261141 3,725 69 221 -960
2022-05-19 23:27:39 GMT 49.961491 8.259789 3,750 69 221 -832
2022-05-19 23:27:37 GMT 49.960747 8.256671 3,775 69 221 -576
2022-05-19 23:27:35 GMT 49.960236 8.254592 3,775 69 221 -320
2022-05-19 23:27:34 GMT 49.959675 8.252366 3,775 69 220 -64
2022-05-19 23:27:33 GMT 49.959305 8.250881 3,775 69 220 0
2022-05-19 23:27:32 GMT 49.958771 8.248709 3,775 69 220 0
2022-05-19 23:27:31 GMT 49.958084 8.245890 3,775 69 220 0
2022-05-19 23:27:29 GMT 49.957767 8.244571 3,775 69 220 0
2022-05-19 23:27:28 GMT 49.957348 8.242938 3,775 69 220 -64
2022-05-19 23:27:27 GMT 49.956665 8.240107 3,775 69 220 -64
2022-05-19 23:27:25 GMT 49.956326 8.238633 3,775 69 220 -64
2022-05-19 23:27:23 GMT 49.955811 8.236554 3,775 69 220 0
2022-05-19 23:27:21 GMT 49.954926 8.232843 3,775 69 220 64
2022-05-19 23:27:19 GMT 49.954239 8.229988 3,775 69 220 128
2022-05-19 23:27:17 GMT 49.953342 8.226162 3,775 69 219 128
2022-05-19 23:27:14 GMT 49.952599 8.223192 3,775 69 219 128
2022-05-19 23:27:13 GMT 49.952316 8.221893 3,775 69 220 128
2022-05-19 23:27:11 GMT 49.951538 8.218785 3,750 69 219 128
2022-05-19 23:27:10 GMT 49.951035 8.216689 3,750 69 218 128
2022-05-19 23:27:08 GMT 49.950459 8.214359 3,750 69 218 0
2022-05-19 23:27:07 GMT 49.949295 8.209534 3,750 69 217 -192
2022-05-19 23:27:05 GMT 49.949295 8.209534 3,750 69 217 -320
2022-05-19 23:27:04 GMT 49.948643 8.206787 3,775 69 217 -512
2022-05-19 23:27:02 GMT 49.947945 8.203818 3,800 69 218 -576
2022-05-19 23:27:00 GMT 49.947525 8.202259 3,800 69 218 -576
2022-05-19 23:26:59 GMT 49.947144 8.200643 3,825 69 218 -640
2022-05-19 23:26:58 GMT 49.946548 8.197969 3,825 69 218 -576
2022-05-19 23:26:56 GMT 49.946045 8.196090 3,850 69 218 -576
2022-05-19 23:26:54 GMT 49.945587 8.193994 3,850 69 218 -576
2022-05-19 23:26:53 GMT 49.945198 8.192386 3,875 69 219 -576
2022-05-19 23:26:51 GMT 49.944260 8.188573 3,900 68 219 -576
2022-05-19 23:26:49 GMT 49.943661 8.186225 3,925 68 220 -576
2022-05-19 23:26:48 GMT 49.943253 8.184670 3,925 68 219 -576
2022-05-19 23:26:46 GMT 49.942497 8.181697 3,950 68 220 -640
2022-05-19 23:26:45 GMT 49.942219 8.180509 3,950 68 220 -640
2022-05-19 23:26:44 GMT 49.941708 8.178505 3,975 68 220 -704
2022-05-19 23:26:43 GMT 49.941010 8.175684 4,000 68 219 -704
2022-05-19 23:26:40 GMT 49.940029 8.171750 4,025 69 219 -768
2022-05-19 23:26:38 GMT 49.939659 8.170265 4,050 69 219 -768
2022-05-19 23:26:37 GMT 49.939331 8.168780 4,050 69 219 -768
2022-05-19 23:26:34 GMT 49.938171 8.163709 4,100 70 220 -768
2022-05-19 23:26:32 GMT 49.937469 8.160763 4,125 71 219 -768
2022-05-19 23:26:31 GMT 49.937145 8.159279 4,125 71 219 -768
2022-05-19 23:26:30 GMT 49.936798 8.157638 4,150 71 219 -768
2022-05-19 23:26:29 GMT 49.935883 8.153301 4,175 70 220 -704
2022-05-19 23:26:27 GMT 49.935883 8.153301 4,175 70 220 -704
2022-05-19 23:26:26 GMT 49.935516 8.151855 4,200 70 220 -704
2022-05-19 23:26:23 GMT 49.934166 8.145694 4,225 70 219 -576
2022-05-19 23:26:20 GMT 49.933502 8.142893 4,250 68 220 -384
2022-05-19 23:26:18 GMT 49.932724 8.139785 4,250 68 221 -384
2022-05-19 23:26:17 GMT 49.932396 8.138494 4,250 67 221 -320
2022-05-19 23:26:15 GMT 49.931625 8.135665 4,275 65 222 -256
2022-05-19 23:26:14 GMT 49.931232 8.134188 4,275 64 223 -256
2022-05-19 23:26:13 GMT 49.930847 8.132919 4,275 63 224 -256
2022-05-19 23:26:10 GMT 49.929474 8.128799 4,300 58 224 -256
2022-05-19 23:26:09 GMT 49.928925 8.127425 4,300 56 225 -256
2022-05-19 23:26:07 GMT 49.927788 8.124687 4,300 53 226 -256
2022-05-19 23:26:06 GMT 49.926296 8.121569 4,325 50 226 -256
2022-05-19 23:26:03 GMT 49.924942 8.119113 4,325 48 225 -256
2022-05-19 23:26:02 GMT 49.923706 8.116945 4,325 46 227 -256
2022-05-19 23:26:00 GMT 49.922882 8.115644 4,350 45 226 -320
2022-05-19 23:25:59 GMT 49.921501 8.113403 4,350 44 227 -384
2022-05-19 23:25:57 GMT 49.920666 8.112141 4,350 44 226 -448
2022-05-19 23:25:56 GMT 49.919998 8.111163 4,375 44 227 -512
2022-05-19 23:25:55 GMT 49.918671 8.109139 4,400 44 227 -768
2022-05-19 23:25:53 GMT 49.917801 8.107838 4,400 44 226 -896
2022-05-19 23:25:51 GMT 49.916008 8.105164 4,425 44 226 -1024
2022-05-19 23:25:50 GMT 49.915329 8.104152 4,450 44 225 -1152
2022-05-19 23:25:49 GMT 49.913864 8.101911 4,500 44 224 -1280
2022-05-19 23:25:47 GMT 49.913177 8.100899 4,525 44 224 -1344
2022-05-19 23:25:46 GMT 49.912445 8.099743 4,550 44 224 -1344
2022-05-19 23:25:44 GMT 49.910889 8.097369 4,600 44 226 -1344
2022-05-19 23:25:42 GMT 49.909424 8.095045 4,625 44 226 -1280
2022-05-19 23:25:41 GMT 49.908001 8.092915 4,675 44 226 -1280
2022-05-19 23:25:38 GMT 49.905762 8.089479 4,725 44 226 -1280
2022-05-19 23:25:36 GMT 49.905121 8.088467 4,750 44 226 -1280
2022-05-19 23:25:35 GMT 49.903610 8.086154 4,775 44 226 -1280
2022-05-19 23:25:33 GMT 49.903015 8.085287 4,825 44 227 -1280
2022-05-19 23:25:32 GMT 49.901951 8.083636 4,850 44 228 -1344
2022-05-19 23:25:31 GMT 49.900600 8.081558 4,875 44 228 -1344
2022-05-19 23:25:29 GMT 49.899811 8.080296 4,925 44 228 -1344
2022-05-19 23:25:28 GMT 49.898987 8.079071 4,950 44 228 -1408
2022-05-19 23:25:26 GMT 49.897530 8.076881 5,000 45 229 -1408
2022-05-19 23:25:25 GMT 49.896790 8.075674 5,025 45 229 -1408
2022-05-19 23:25:24 GMT 49.895325 8.073361 5,075 45 229 -1472
2022-05-19 23:25:22 GMT 49.894501 8.072130 5,075 45 229 -1472
2022-05-19 23:25:21 GMT 49.893814 8.071048 5,125 45 229 -1472
2022-05-19 23:25:20 GMT 49.892174 8.068493 5,175 45 229 -1472
2022-05-19 23:25:18 GMT 49.891388 8.067362 5,200 45 229 -1472
2022-05-19 23:25:16 GMT 49.889988 8.065153 5,225 45 229 -1472
2022-05-19 23:25:15 GMT 49.889236 8.063965 5,250 45 229 -1472
2022-05-19 23:25:13 GMT 49.888126 8.062258 5,300 45 229 -1472
2022-05-19 23:25:12 GMT 49.887054 8.060624 5,325 45 229 -1472
2022-05-19 23:25:11 GMT 49.886265 8.059288 5,350 45 229 -1472
2022-05-19 23:25:10 GMT 49.885471 8.058175 5,375 45 230 -1472
2022-05-19 23:25:09 GMT 49.883972 8.055797 5,425 44 229 -1472
2022-05-19 23:25:07 GMT 49.883331 8.054760 5,450 44 230 -1472
2022-05-19 23:25:06 GMT 49.882462 8.053484 5,475 44 229 -1472
2022-05-19 23:25:05 GMT 49.881042 8.051316 5,525 43 230 -1472
2022-05-19 23:25:03 GMT 49.880264 8.050160 5,550 43 229 -1408
2022-05-19 23:25:02 GMT 49.879559 8.049118 5,575 43 229 -1408
2022-05-19 23:25:00 GMT 49.877884 8.046690 5,625 42 230 -1408
2022-05-19 23:24:59 GMT 49.877060 8.045606 5,650 41 230 -1408
2022-05-19 23:24:58 GMT 49.876190 8.044377 5,675 40 230 -1408
2022-05-19 23:24:56 GMT 49.874908 8.042643 5,700 38 230 -1408
2022-05-19 23:24:55 GMT 49.874084 8.041631 5,725 37 230 -1408
2022-05-19 23:24:53 GMT 49.872204 8.039394 5,775 34 230 -1408
2022-05-19 23:24:52 GMT 49.871319 8.038503 5,800 32 229 -1472
2022-05-19 23:24:50 GMT 49.869736 8.036860 5,850 29 230 -1472
2022-05-19 23:24:49 GMT 49.868900 8.036128 5,900 26 229 -1472
2022-05-19 23:24:48 GMT 49.866989 8.034620 5,925 25 229 -1408
2022-05-19 23:24:46 GMT 49.866028 8.033969 5,950 20 229 -1408
2022-05-19 23:24:45 GMT 49.864929 8.033246 5,975 18 228 -1408
2022-05-19 23:24:43 GMT 49.862846 8.032194 6,025 14 229 -1344
2022-05-19 23:24:42 GMT 49.861824 8.031748 6,050 12 228 -1280
2022-05-19 23:24:41 GMT 49.859867 8.031080 6,075 8 228 -1280
2022-05-19 23:24:39 GMT 49.857880 8.030644 6,125 3 227 -1216
2022-05-19 23:24:37 GMT 49.856735 8.030500 6,150 1 227 -1216
2022-05-19 23:24:36 GMT 49.855682 8.030428 6,150 0 227 -1216
2022-05-19 23:24:33 GMT 49.851151 8.030861 6,250 351 226 -1152
2022-05-19 23:24:31 GMT 49.850327 8.031006 6,250 349 225 -1152
2022-05-19 23:24:30 GMT 49.849442 8.031303 6,275 347 225 -1152
2022-05-19 23:24:28 GMT 49.847397 8.032090 6,325 342 224 -1152
2022-05-19 23:24:27 GMT 49.846321 8.032565 6,325 340 224 -1152
2022-05-19 23:24:26 GMT 49.844273 8.033827 6,375 336 223 -1088
2022-05-19 23:24:24 GMT 49.843342 8.034421 6,400 333 223 -1088
2022-05-19 23:24:23 GMT 49.841263 8.036138 6,425 329 222 -1024
2022-05-19 23:24:20 GMT 49.839851 8.037538 6,450 325 222 -1024
2022-05-19 23:24:18 GMT 49.838196 8.039390 6,500 320 222 -960
2022-05-19 23:24:17 GMT 49.837372 8.040402 6,500 318 221 -960
2022-05-19 23:24:15 GMT 49.835861 8.042570 6,550 313 221 -960
2022-05-19 23:24:14 GMT 49.835148 8.043700 6,550 311 221 -960
2022-05-19 23:24:11 GMT 49.833611 8.046595 6,575 309 221 -960
2022-05-19 23:24:09 GMT 49.832214 8.049564 6,650 296 221 -960
2022-05-19 23:24:07 GMT 49.831100 8.052617 6,650 296 221 -960
2022-05-19 23:24:06 GMT 49.830681 8.053869 6,675 288 221 -832
2022-05-19 23:24:05 GMT 49.830231 8.055436 6,700 288 221 -832
2022-05-19 23:24:03 GMT 49.829453 8.058544 6,725 288 221 -832
2022-05-19 23:24:01 GMT 49.828400 8.064633 6,775 282 222 -832
2022-05-19 23:23:59 GMT 49.828213 8.066192 6,800 280 223 -768
2022-05-19 23:23:57 GMT 49.828033 8.067796 6,800 279 224 -704
2022-05-19 23:23:55 GMT 49.827759 8.070976 6,825 278 224 -768
2022-05-19 23:23:54 GMT 49.827606 8.072576 6,850 277 226 -768
2022-05-19 23:23:53 GMT 49.827484 8.074301 6,850 276 226 -768
2022-05-19 23:23:51 GMT 49.827282 8.077401 6,875 276 228 -768
2022-05-19 23:23:49 GMT 49.827095 8.080741 6,900 276 229 -768
2022-05-19 23:23:48 GMT 49.826981 8.082251 6,925 276 230 -768
2022-05-19 23:23:46 GMT 49.826797 8.085359 6,950 276 231 -832
2022-05-19 23:23:44 GMT 49.826614 8.088612 6,975 276 233 -832
2022-05-19 23:23:42 GMT 49.826397 8.091950 7,000 276 234 -832
2022-05-19 23:23:41 GMT 49.826302 8.093658 7,000 276 235 -832
2022-05-19 23:23:40 GMT 49.826202 8.095117 7,025 276 235 -832
2022-05-19 23:23:39 GMT 49.826023 8.098483 7,050 276 237 -832
2022-05-19 23:23:36 GMT 49.825836 8.101526 7,075 276 237 -832
2022-05-19 23:23:34 GMT 49.825653 8.105089 7,100 276 238 -832
2022-05-19 23:23:33 GMT 49.825512 8.107465 7,125 276 239 -896
2022-05-19 23:23:32 GMT 49.825325 8.110731 7,150 275 241 -896
2022-05-19 23:23:30 GMT 49.825188 8.112438 7,175 275 241 -896
2022-05-19 23:23:29 GMT 49.825104 8.113982 7,175 275 242 -896
2022-05-19 23:23:28 GMT 49.825001 8.115705 7,200 275 243 -960
2022-05-19 23:23:25 GMT 49.824692 8.121426 7,250 275 245 -1024
2022-05-19 23:23:23 GMT 49.824490 8.124909 7,300 275 246 -1024
2022-05-19 23:23:21 GMT 49.824348 8.127359 7,300 275 247 -1088
2022-05-19 23:23:20 GMT 49.824280 8.129160 7,350 275 249 -1088
2022-05-19 23:23:18 GMT 49.824116 8.132184 7,350 275 249 -1088
2022-05-19 23:23:17 GMT 49.823914 8.135015 7,400 275 250 -1152
2022-05-19 23:23:16 GMT 49.823788 8.137306 7,425 275 250 -1152
2022-05-19 23:23:15 GMT 49.823696 8.139088 7,425 275 251 -1216
2022-05-19 23:23:13 GMT 49.823605 8.141611 7,475 275 252 -1280
2022-05-19 23:23:12 GMT 49.823372 8.146140 7,525 275 253 -1280
2022-05-19 23:23:10 GMT 49.823273 8.147736 7,525 275 254 -1280
2022-05-19 23:23:08 GMT 49.823090 8.151205 7,575 275 255 -1216
2022-05-19 23:23:07 GMT 49.822998 8.153192 7,600 275 255 -1152
2022-05-19 23:23:06 GMT 49.822815 8.156843 7,650 275 257 -1152
2022-05-19 23:23:04 GMT 49.822723 8.158650 7,650 275 257 -1152
2022-05-19 23:23:03 GMT 49.822533 8.162545 7,675 275 258 -1152
2022-05-19 23:23:01 GMT 49.822437 8.163807 7,725 275 259 -1216
2022-05-19 23:23:00 GMT 49.822357 8.165444 7,725 275 259 -1280
2022-05-19 23:22:58 GMT 49.822174 8.169708 7,775 275 259 -1344
2022-05-19 23:22:57 GMT 49.822083 8.171587 7,800 275 259 -1408
2022-05-19 23:22:55 GMT 49.821926 8.174719 7,875 275 259 -1472
2022-05-19 23:22:54 GMT 49.821835 8.176723 7,900 275 259 -1472
2022-05-19 23:22:51 GMT 49.821556 8.182662 7,950 275 259 -1536
2022-05-19 23:22:49 GMT 49.821415 8.185483 8,000 275 259 -1536
2022-05-19 23:22:48 GMT 49.821136 8.191570 8,075 275 259 -1600
2022-05-19 23:22:46 GMT 49.821136 8.191570 8,075 275 259 -1600
2022-05-19 23:22:45 GMT 49.821041 8.193425 8,100 274 259 -1600
2022-05-19 23:22:43 GMT 49.820858 8.197285 8,175 274 258 -1536
2022-05-19 23:22:42 GMT 49.820763 8.199141 8,200 274 258 -1536
2022-05-19 23:22:41 GMT 49.820671 8.201145 8,225 274 258 -1536
2022-05-19 23:22:39 GMT 49.820530 8.204486 8,275 274 258 -1536
2022-05-19 23:22:38 GMT 49.820435 8.206137 8,300 274 258 -1472
2022-05-19 23:22:37 GMT 49.820251 8.210401 8,350 274 258 -1472
2022-05-19 23:22:35 GMT 49.820160 8.212425 8,375 274 258 -1472
2022-05-19 23:22:34 GMT 49.820110 8.214062 8,400 274 258 -1472
2022-05-19 23:22:33 GMT 49.819927 8.218145 8,450 274 258 -1408
2022-05-19 23:22:31 GMT 49.819839 8.219942 8,475 274 258 -1408
2022-05-19 23:22:30 GMT 49.819794 8.221460 8,500 274 258 -1408
2022-05-19 23:22:28 GMT 49.819656 8.225146 8,525 274 258 -1408
2022-05-19 23:22:27 GMT 49.819553 8.227349 8,575 274 258 -1344
2022-05-19 23:22:26 GMT 49.819427 8.230856 8,600 274 258 -1344
2022-05-19 23:22:23 GMT 49.819199 8.236204 8,675 274 259 -1216
2022-05-19 23:22:21 GMT 49.819153 8.238084 8,700 274 259 -1216
2022-05-19 23:22:20 GMT 49.818996 8.241750 8,725 274 259 -1152
2022-05-19 23:22:18 GMT 49.818947 8.243235 8,750 274 259 -1152
2022-05-19 23:22:17 GMT 49.818855 8.245833 8,775 274 259 -1152
2022-05-19 23:22:15 GMT 49.818695 8.249504 8,800 274 260 -1152
2022-05-19 23:22:14 GMT 49.818558 8.253262 8,850 274 260 -1152
2022-05-19 23:22:12 GMT 49.818481 8.255112 8,875 274 260 -1152
2022-05-19 23:22:11 GMT 49.818436 8.256968 8,900 274 260 -1216
2022-05-19 23:22:10 GMT 49.818283 8.260635 8,925 274 260 -1216
2022-05-19 23:22:08 GMT 49.818249 8.262313 8,950 274 260 -1216
2022-05-19 23:22:07 GMT 49.818157 8.264168 8,975 274 260 -1280
2022-05-19 23:22:05 GMT 49.818008 8.267935 9,000 274 261 -1280
2022-05-19 23:22:04 GMT 49.817970 8.269587 9,025 274 261 -1280
2022-05-19 23:22:02 GMT 49.817829 8.273299 9,075 274 261 -1280
2022-05-19 23:22:01 GMT 49.817734 8.275524 9,100 274 261 -1280
2022-05-19 23:22:00 GMT 49.817688 8.277042 9,125 274 261 -1280
2022-05-19 23:21:59 GMT 49.817551 8.280800 9,150 274 262 -1280
2022-05-19 23:21:57 GMT 49.817505 8.282652 9,175 274 262 -1280
2022-05-19 23:21:55 GMT 49.817272 8.288813 9,250 274 262 -1280
2022-05-19 23:21:53 GMT 49.817181 8.290669 9,275 274 262 -1280
2022-05-19 23:21:51 GMT 49.817085 8.294232 9,300 274 262 -1280
2022-05-19 23:21:50 GMT 49.817001 8.295906 9,325 274 263 -1280
2022-05-19 23:21:49 GMT 49.816944 8.298018 9,350 274 263 -1344
2022-05-19 23:21:47 GMT 49.816807 8.301210 9,400 274 263 -1344
2022-05-19 23:21:46 GMT 49.816635 8.305520 9,450 274 263 -1408
2022-05-19 23:21:44 GMT 49.816589 8.307182 9,475 274 263 -1408
2022-05-19 23:21:43 GMT 49.816498 8.309061 9,475 274 263 -1472
2022-05-19 23:21:41 GMT 49.816360 8.312820 9,525 274 263 -1472
2022-05-19 23:21:40 GMT 49.816315 8.314916 9,575 274 263 -1536
2022-05-19 23:21:39 GMT 49.816223 8.316795 9,600 274 263 -1536
2022-05-19 23:21:37 GMT 49.816109 8.320139 9,650 274 263 -1536
2022-05-19 23:21:35 GMT 49.815968 8.324296 9,700 274 263 -1536
2022-05-19 23:21:34 GMT 49.815903 8.326191 9,725 274 263 -1536
2022-05-19 23:21:33 GMT 49.815735 8.329789 9,750 274 263 -1472
2022-05-19 23:21:31 GMT 49.815689 8.331645 9,775 274 263 -1408
2022-05-19 23:21:29 GMT 49.815552 8.335208 9,825 274 263 -1344
2022-05-19 23:21:28 GMT 49.815502 8.337064 9,850 274 263 -1344
2022-05-19 23:21:27 GMT 49.815365 8.340627 9,875 274 263 -1280
2022-05-19 23:21:25 GMT 49.815315 8.342112 9,925 274 263 -1088
2022-05-19 23:21:24 GMT 49.815216 8.344188 9,925 274 263 -1024
2022-05-19 23:21:22 GMT 49.815079 8.348164 9,950 274 263 -832
2022-05-19 23:21:21 GMT 49.815033 8.350043 9,975 274 263 -704
2022-05-19 23:21:20 GMT 49.814945 8.352282 9,975 274 264 -576
2022-05-19 23:21:18 GMT 49.814804 8.355696 10,000 274 264 -448
2022-05-19 23:21:16 GMT 49.814667 8.359801 10,000 274 265 -192
2022-05-19 23:21:14 GMT 49.814571 8.362674 10,000 274 265 -128
2022-05-19 23:21:13 GMT 49.814484 8.365294 10,000 274 265 0
2022-05-19 23:21:12 GMT 49.814392 8.367173 10,000 274 265 0
2022-05-19 23:21:11 GMT 49.814247 8.370765 10,000 274 265 0
2022-05-19 23:21:09 GMT 49.814247 8.371953 10,000 274 265 0
2022-05-19 23:21:08 GMT 49.814117 8.374184 10,000 274 265 0
2022-05-19 23:21:06 GMT 49.813969 8.378560 10,000 274 265 0
2022-05-19 23:21:05 GMT 49.813919 8.379673 10,000 274 264 0
2022-05-19 23:21:03 GMT 49.813751 8.384231 10,000 274 264 0
2022-05-19 23:21:02 GMT 49.813686 8.385909 10,000 274 264 0
2022-05-19 23:21:00 GMT 49.813549 8.389472 10,000 274 264 64
2022-05-19 23:20:59 GMT 49.813477 8.391169 10,000 274 264 0
2022-05-19 23:20:58 GMT 49.813293 8.395506 10,000 274 264 0
2022-05-19 23:20:56 GMT 49.813221 8.397266 10,000 274 264 0
2022-05-19 23:20:55 GMT 49.813110 8.400855 10,000 274 264 64
2022-05-19 23:20:53 GMT 49.813019 8.402879 10,000 274 265 0
2022-05-19 23:20:52 GMT 49.812988 8.404615 10,000 274 265 0
2022-05-19 23:20:50 GMT 49.812836 8.408589 10,000 274 265 0
2022-05-19 23:20:49 GMT 49.812790 8.410251 10,000 274 265 0
2022-05-19 23:20:48 GMT 49.812664 8.413894 10,000 274 265 0
2022-05-19 23:20:46 GMT 49.812569 8.415973 10,000 274 265 0
2022-05-19 23:20:45 GMT 49.812424 8.419936 10,000 274 265 0
2022-05-19 23:20:43 GMT 49.812378 8.421816 10,000 274 265 0
2022-05-19 23:20:42 GMT 49.812286 8.423912 10,000 274 265 0
2022-05-19 23:20:41 GMT 49.812244 8.425623 10,000 274 265 0
2022-05-19 23:20:39 GMT 49.812103 8.428963 10,000 274 265 0
2022-05-19 23:20:38 GMT 49.812012 8.431284 10,000 274 265 0
2022-05-19 23:20:37 GMT 49.811874 8.435043 10,000 274 265 0
2022-05-19 23:20:35 GMT 49.811783 8.437139 10,000 274 265 0
2022-05-19 23:20:34 GMT 49.811737 8.438656 10,000 274 265 0
2022-05-19 23:20:32 GMT 49.811600 8.442632 10,000 274 265 -64
2022-05-19 23:20:31 GMT 49.811546 8.444329 10,000 274 265 -64
2022-05-19 23:20:29 GMT 49.811405 8.448264 10,000 274 265 -64
2022-05-19 23:20:28 GMT 49.811279 8.450727 10,000 274 265 0
2022-05-19 23:20:26 GMT 49.811172 8.454351 10,000 274 266 0
2022-05-19 23:20:24 GMT 49.811005 8.458172 10,000 274 266 0
2022-05-19 23:20:23 GMT 49.810959 8.460051 10,000 274 266 0
2022-05-19 23:20:21 GMT 49.810822 8.463448 10,000 274 267 0
2022-05-19 23:20:20 GMT 49.810730 8.465544 10,000 274 267 0
2022-05-19 23:20:18 GMT 49.810593 8.469375 10,000 274 267 0
2022-05-19 23:20:17 GMT 49.810501 8.471471 10,000 274 267 0
2022-05-19 23:20:15 GMT 49.810337 8.475061 10,000 274 268 0
2022-05-19 23:20:13 GMT 49.810181 8.478916 10,000 274 268 0
2022-05-19 23:20:12 GMT 49.810104 8.480629 10,000 274 268 0
2022-05-19 23:20:11 GMT 49.810043 8.482385 10,000 274 268 -64
2022-05-19 23:20:10 GMT 49.809917 8.486196 10,000 274 268 0
2022-05-19 23:20:08 GMT 49.809826 8.488126 10,000 274 268 0
2022-05-19 23:20:07 GMT 49.809723 8.490408 10,000 274 268 0
2022-05-19 23:20:05 GMT 49.809639 8.493248 10,000 274 267 0
2022-05-19 23:20:03 GMT 49.809406 8.498370 10,000 274 267 64
2022-05-19 23:20:00 GMT 49.809174 8.504141 10,000 274 267 -64
2022-05-19 23:19:58 GMT 49.809082 8.507176 10,000 274 267 -64
2022-05-19 23:19:57 GMT 49.808891 8.511732 10,000 274 267 -64
2022-05-19 23:19:55 GMT 49.808800 8.513291 10,000 274 267 0
2022-05-19 23:19:54 GMT 49.808754 8.515147 10,000 274 267 0
2022-05-19 23:19:53 GMT 49.808624 8.517440 10,000 274 267 0
2022-05-19 23:19:51 GMT 49.808521 8.520343 10,000 274 267 0
2022-05-19 23:19:50 GMT 49.808426 8.522199 10,000 274 267 0
2022-05-19 23:19:48 GMT 49.808258 8.526836 10,000 274 267 0
2022-05-19 23:19:46 GMT 49.808102 8.530216 10,000 274 267 0
2022-05-19 23:19:45 GMT 49.807869 8.535560 10,000 274 267 0
2022-05-19 23:19:43 GMT 49.807869 8.535560 10,000 274 268 0
2022-05-19 23:19:42 GMT 49.807774 8.538455 10,000 274 267 0
2022-05-19 23:19:39 GMT 49.807571 8.543243 10,000 274 267 0
2022-05-19 23:19:37 GMT 49.807434 8.547219 10,000 274 268 0
2022-05-19 23:19:36 GMT 49.807358 8.548996 10,000 274 268 0
2022-05-19 23:19:34 GMT 49.807159 8.553579 10,000 274 268 0
2022-05-19 23:19:33 GMT 49.807068 8.555458 10,000 274 268 0
2022-05-19 23:19:32 GMT 49.807022 8.556832 10,000 274 268 0
2022-05-19 23:19:31 GMT 49.806938 8.558869 10,000 274 268 0
2022-05-19 23:19:29 GMT 49.806797 8.563100 10,000 274 268 -64
2022-05-19 23:19:28 GMT 49.806705 8.565179 10,000 274 268 0
2022-05-19 23:19:27 GMT 49.806564 8.568668 10,000 274 268 0
2022-05-19 23:19:25 GMT 49.806519 8.570565 10,000 274 268 0
2022-05-19 23:19:24 GMT 49.806332 8.575720 10,000 274 268 0
2022-05-19 23:19:22 GMT 49.806332 8.575720 10,000 274 268 0
2022-05-19 23:19:20 GMT 49.806145 8.580916 10,000 274 268 64
2022-05-19 23:19:18 GMT 49.806061 8.582635 10,000 274 268 0
2022-05-19 23:19:17 GMT 49.805923 8.585888 10,000 274 268 0
2022-05-19 23:19:16 GMT 49.805878 8.587839 10,000 274 268 0
2022-05-19 23:19:15 GMT 49.805786 8.589718 10,000 274 268 0
2022-05-19 23:19:14 GMT 49.805603 8.595645 10,000 274 267 0
2022-05-19 23:19:12 GMT 49.805603 8.595645 10,000 274 267 0
2022-05-19 23:19:11 GMT 49.805511 8.597525 10,000 274 267 0
2022-05-19 23:19:09 GMT 49.805374 8.600777 10,000 274 267 0
2022-05-19 23:19:08 GMT 49.805328 8.602729 10,000 274 267 0
2022-05-19 23:19:06 GMT 49.805168 8.607046 10,000 274 267 0
2022-05-19 23:19:05 GMT 49.805099 8.609017 10,000 274 267 0
2022-05-19 23:19:04 GMT 49.805008 8.610896 10,000 274 267 64
2022-05-19 23:19:03 GMT 49.804871 8.614871 10,000 274 267 64
2022-05-19 23:19:01 GMT 49.804794 8.616622 10,000 274 267 0
2022-05-19 23:19:00 GMT 49.804657 8.620036 10,000 274 266 0
2022-05-19 23:18:57 GMT 49.804516 8.623674 10,000 274 266 0
2022-05-19 23:18:56 GMT 49.804459 8.625713 10,000 274 266 0
2022-05-19 23:18:53 GMT 49.804230 8.631206 10,000 274 266 0
2022-05-19 23:18:52 GMT 49.804005 8.636961 10,000 274 266 64
2022-05-19 23:18:49 GMT 49.803909 8.639446 10,000 274 266 64
2022-05-19 23:18:47 GMT 49.803772 8.643197 10,000 274 266 64
2022-05-19 23:18:45 GMT 49.803585 8.646834 10,000 274 266 0
2022-05-19 23:18:42 GMT 49.803360 8.651950 10,000 275 266 0
2022-05-19 23:18:41 GMT 49.803268 8.654046 10,000 275 266 -64
2022-05-19 23:18:39 GMT 49.803085 8.657877 10,000 275 267 -128
2022-05-19 23:18:38 GMT 49.803028 8.659602 10,000 275 267 -128
2022-05-19 23:18:37 GMT 49.802856 8.663370 10,000 275 267 -192
2022-05-19 23:18:35 GMT 49.802750 8.665095 10,025 275 267 -192
2022-05-19 23:18:34 GMT 49.802673 8.666840 10,025 275 267 -192
2022-05-19 23:18:32 GMT 49.802467 8.670959 10,025 275 267 -128
2022-05-19 23:18:31 GMT 49.802399 8.673056 10,025 274 266 -128
2022-05-19 23:18:29 GMT 49.802235 8.676898 10,025 274 266 -64
2022-05-19 23:18:28 GMT 49.802143 8.678828 10,025 274 266 0
2022-05-19 23:18:27 GMT 49.802078 8.680862 10,025 273 266 0
2022-05-19 23:18:25 GMT 49.801956 8.684692 10,025 273 266 64
2022-05-19 23:18:24 GMT 49.801895 8.686427 10,025 272 266 64
2022-05-19 23:18:23 GMT 49.801849 8.688306 10,025 272 266 64
2022-05-19 23:18:21 GMT 49.801819 8.692116 10,025 270 266 128
2022-05-19 23:18:20 GMT 49.801804 8.694233 10,000 269 266 128
2022-05-19 23:18:19 GMT 49.801956 8.699910 10,000 267 265 64
2022-05-19 23:18:17 GMT 49.801956 8.699910 10,000 266 265 64
2022-05-19 23:18:16 GMT 49.802307 8.705581 10,000 257 265 0
2022-05-19 23:18:14 GMT 49.802307 8.705581 10,000 257 265 0
2022-05-19 23:18:12 GMT 49.802765 8.709845 10,000 257 265 0
2022-05-19 23:18:11 GMT 49.802887 8.710822 10,000 256 267 0
2022-05-19 23:18:09 GMT 49.803360 8.713604 10,000 250 267 0
2022-05-19 23:18:08 GMT 49.803913 8.716464 10,000 250 267 0
2022-05-19 23:18:06 GMT 49.804890 8.720398 10,000 248 267 0
2022-05-19 23:18:05 GMT 49.805401 8.722180 10,000 244 267 -64
2022-05-19 23:18:04 GMT 49.806564 8.725743 10,000 240 267 -64
2022-05-19 23:18:01 GMT 49.807545 8.728415 10,025 237 269 -64
2022-05-19 23:17:59 GMT 49.809036 8.731963 10,025 233 269 -64
2022-05-19 23:17:58 GMT 49.810867 8.735576 10,025 231 270 -64
2022-05-19 23:17:55 GMT 49.813156 8.739479 10,025 224 272 0
2022-05-19 23:17:53 GMT 49.814060 8.740812 10,025 222 273 0
2022-05-19 23:17:52 GMT 49.815781 8.743113 10,000 216 275 128
2022-05-19 23:17:49 GMT 49.817780 8.745551 10,000 215 275 128
2022-05-19 23:17:48 GMT 49.820938 8.748803 10,000 211 276 128
2022-05-19 23:17:46 GMT 49.820938 8.748803 10,000 207 277 192
2022-05-19 23:17:44 GMT 49.823463 8.750833 10,000 204 278 128
2022-05-19 23:17:42 GMT 49.825886 8.752615 10,000 202 278 128
2022-05-19 23:17:41 GMT 49.828072 8.753877 10,000 198 280 64
2022-05-19 23:17:39 GMT 49.829178 8.754441 10,000 196 280 0
2022-05-19 23:17:38 GMT 49.832169 8.755732 10,000 193 281 0
2022-05-19 23:17:36 GMT 49.833298 8.756176 10,000 191 282 -64
2022-05-19 23:17:35 GMT 49.835613 8.756846 10,000 188 283 -64
2022-05-19 23:17:33 GMT 49.837051 8.757115 10,000 186 284 -64
2022-05-19 23:17:32 GMT 49.839664 8.757588 10,000 184 285 -64
2022-05-19 23:17:30 GMT 49.840965 8.757662 10,000 183 286 -64
2022-05-19 23:17:29 GMT 49.842453 8.757766 10,000 181 287 -64
2022-05-19 23:17:28 GMT 49.843761 8.757811 10,000 180 287 -64
2022-05-19 23:17:25 GMT 49.847717 8.757766 10,000 178 288 0
2022-05-19 23:17:23 GMT 49.850418 8.757621 10,000 177 288 0
2022-05-19 23:17:22 GMT 49.851746 8.757549 10,000 177 288 0
2022-05-19 23:17:20 GMT 49.854538 8.757332 10,000 177 288 0
2022-05-19 23:17:19 GMT 49.855865 8.757260 10,000 177 288 0
2022-05-19 23:17:18 GMT 49.858658 8.757043 10,000 177 288 0
2022-05-19 23:17:15 GMT 49.861176 8.756899 10,000 177 288 0
2022-05-19 23:17:14 GMT 49.861870 8.756846 10,000 177 288 0
2022-05-19 23:17:13 GMT 49.866119 8.756609 10,000 177 288 64
2022-05-19 23:17:11 GMT 49.866119 8.756609 10,000 177 288 64
2022-05-19 23:17:10 GMT 49.867447 8.756465 10,000 177 288 64
2022-05-19 23:17:08 GMT 49.870239 8.756320 10,000 177 288 64
2022-05-19 23:17:07 GMT 49.872761 8.756178 10,000 177 288 0
2022-05-19 23:17:04 GMT 49.874908 8.756031 10,000 177 288 0
2022-05-19 23:17:03 GMT 49.876907 8.755881 10,000 177 288 0
2022-05-19 23:17:01 GMT 49.879559 8.755732 10,000 177 288 -64
2022-05-19 23:17:00 GMT 49.882118 8.755584 10,000 177 288 0
2022-05-19 23:16:57 GMT 49.886776 8.755213 10,000 177 288 0
2022-05-19 23:16:55 GMT 49.887287 8.755213 10,000 177 288 0
2022-05-19 23:16:53 GMT 49.889282 8.755092 10,000 177 288 0
2022-05-19 23:16:52 GMT 49.891941 8.754916 10,000 177 288 0
2022-05-19 23:16:51 GMT 49.893291 8.754842 10,000 177 288 0
2022-05-19 23:16:49 GMT 49.895294 8.754693 10,000 177 288 0
2022-05-19 23:16:48 GMT 49.896599 8.754619 10,000 177 288 0
2022-05-19 23:16:46 GMT 49.900085 8.754369 10,000 177 288 0
2022-05-19 23:16:44 GMT 49.901810 8.754248 10,000 177 288 0
2022-05-19 23:16:42 GMT 49.905258 8.754080 10,000 177 288 0
2022-05-19 23:16:41 GMT 49.907913 8.753863 10,000 177 288 0
2022-05-19 23:16:39 GMT 49.909260 8.753802 10,000 177 288 0
2022-05-19 23:16:37 GMT 49.911915 8.753580 10,000 177 288 0
2022-05-19 23:16:35 GMT 49.913132 8.753501 10,000 177 288 0
2022-05-19 23:16:34 GMT 49.915218 8.753431 10,000 177 288 0
2022-05-19 23:16:32 GMT 49.918167 8.753212 10,000 177 287 0
2022-05-19 23:16:30 GMT 49.920822 8.753068 10,000 177 287 0
2022-05-19 23:16:28 GMT 49.923065 8.752923 10,000 177 287 0
2022-05-19 23:16:26 GMT 49.925720 8.752706 10,000 177 287 0
2022-05-19 23:16:25 GMT 49.927185 8.752634 10,000 177 287 0
2022-05-19 23:16:24 GMT 49.928391 8.752540 10,000 177 287 0
2022-05-19 23:16:22 GMT 49.930893 8.752417 10,000 177 287 0
2022-05-19 23:16:20 GMT 49.933685 8.752273 10,000 177 287 0
2022-05-19 23:16:19 GMT 49.935013 8.752128 10,000 177 287 0
2022-05-19 23:16:18 GMT 49.936867 8.752021 10,000 177 287 0
2022-05-19 23:16:17 GMT 49.938354 8.751984 10,000 177 287 0
2022-05-19 23:16:16 GMT 49.941799 8.751724 10,000 177 286 0
2022-05-19 23:16:14 GMT 49.941799 8.751724 10,000 177 286 0
2022-05-19 23:16:12 GMT 49.944454 8.751575 10,000 177 286 0
2022-05-19 23:16:11 GMT 49.945896 8.751501 10,000 177 286 0
2022-05-19 23:16:09 GMT 49.948654 8.751405 10,000 177 286 0
2022-05-19 23:16:08 GMT 49.949982 8.751333 10,000 177 286 0
2022-05-19 23:16:07 GMT 49.951447 8.751261 10,000 177 286 64
2022-05-19 23:16:05 GMT 49.953827 8.751116 10,000 177 286 64
2022-05-19 23:16:04 GMT 49.955021 8.751056 10,000 178 286 0
2022-05-19 23:16:02 GMT 49.957813 8.750907 10,000 178 286 -64
2022-05-19 23:16:00 GMT 49.960560 8.750759 10,000 178 287 -128
2022-05-19 23:15:58 GMT 49.963348 8.750610 10,025 178 287 -192
2022-05-19 23:15:56 GMT 49.966141 8.750538 10,025 178 287 -192
2022-05-19 23:15:55 GMT 49.967468 8.750466 10,025 178 287 -128
2022-05-19 23:15:53 GMT 49.969986 8.750321 10,025 178 287 -128
2022-05-19 23:15:51 GMT 49.972618 8.750165 10,025 178 287 -128
2022-05-19 23:15:50 GMT 49.973831 8.750104 10,025 177 287 -128
2022-05-19 23:15:48 GMT 49.976486 8.749960 10,025 177 287 0
2022-05-19 23:15:46 GMT 49.979366 8.749720 10,025 176 287 64
2022-05-19 23:15:45 GMT 49.980717 8.749645 10,025 176 287 64
2022-05-19 23:15:43 GMT 49.982952 8.749423 10,025 173 289 64
2022-05-19 23:15:41 GMT 49.985779 8.749020 10,025 173 289 64
2022-05-19 23:15:40 GMT 49.987244 8.748731 10,025 171 290 64
2022-05-19 23:15:39 GMT 49.988571 8.748514 10,025 171 290 64
2022-05-19 23:15:38 GMT 49.990952 8.747936 10,025 167 291 64
2022-05-19 23:15:36 GMT 49.992401 8.747493 10,025 165 292 128
2022-05-19 23:15:35 GMT 49.993565 8.747121 10,000 163 292 128
2022-05-19 23:15:33 GMT 49.996452 8.745934 10,000 162 293 128
2022-05-19 23:15:32 GMT 49.997635 8.745406 10,000 158 294 128
2022-05-19 23:15:30 GMT 50.000061 8.744033 10,000 155 296 128
2022-05-19 23:15:28 GMT 50.002457 8.742519 10,000 153 297 128
2022-05-19 23:15:27 GMT 50.005142 8.740419 10,000 150 299 64
2022-05-19 23:15:25 GMT 50.006378 8.739407 10,000 148 299 64
2022-05-19 23:15:24 GMT 50.007439 8.738436 10,000 147 300 64
2022-05-19 23:15:22 GMT 50.009907 8.735987 10,000 143 302 0
2022-05-19 23:15:21 GMT 50.010910 8.734854 10,000 142 303 0
2022-05-19 23:15:20 GMT 50.014420 8.730493 10,000 139 304 -64
2022-05-19 23:15:18 GMT 50.014420 8.730493 10,000 137 304 -128
2022-05-19 23:15:16 GMT 50.016586 8.727337 10,000 136 305 -128
2022-05-19 23:15:15 GMT 50.017216 8.726411 10,000 133 306 -128
2022-05-19 23:15:14 GMT 50.019169 8.723219 10,000 132 307 -128
2022-05-19 23:15:12 GMT 50.020386 8.721121 10,000 130 307 -64
2022-05-19 23:15:11 GMT 50.021942 8.718230 10,000 129 308 0
2022-05-19 23:15:09 GMT 50.022942 8.716389 10,000 128 308 0
2022-05-19 23:15:07 GMT 50.025871 8.710674 10,000 128 307 0
2022-05-19 23:15:04 GMT 50.027641 8.707185 10,000 128 307 0
2022-05-19 23:15:02 GMT 50.029457 8.703547 10,000 128 307 0
2022-05-19 23:15:00 GMT 50.030949 8.700578 10,000 128 307 0
2022-05-19 23:14:58 GMT 50.032532 8.697460 10,000 128 307 0
2022-05-19 23:14:57 GMT 50.033478 8.695534 10,000 127 307 -64
2022-05-19 23:14:55 GMT 50.035172 8.692282 10,000 127 307 0
2022-05-19 23:14:54 GMT 50.036114 8.690334 10,000 127 307 0
2022-05-19 23:14:53 GMT 50.037872 8.686861 10,000 127 307 0
2022-05-19 23:14:51 GMT 50.038673 8.685286 10,000 127 307 64
2022-05-19 23:14:50 GMT 50.040665 8.681295 10,000 127 307 64
2022-05-19 23:14:48 GMT 50.041626 8.679416 10,000 127 307 64
2022-05-19 23:14:46 GMT 50.043228 8.676308 10,000 127 307 64
2022-05-19 23:14:45 GMT 50.043983 8.674745 10,000 127 307 0
2022-05-19 23:14:44 GMT 50.044876 8.672983 10,000 127 307 0
2022-05-19 23:14:43 GMT 50.046616 8.669514 10,000 127 307 -64
2022-05-19 23:14:41 GMT 50.047485 8.667779 10,000 127 307 -64
2022-05-19 23:14:40 GMT 50.048546 8.665689 10,000 127 307 -64
2022-05-19 23:14:38 GMT 50.050369 8.661997 10,000 127 307 -64
2022-05-19 23:14:37 GMT 50.052017 8.658672 10,025 127 307 -64
2022-05-19 23:14:35 GMT 50.052826 8.657152 10,025 128 308 -64
2022-05-19 23:14:34 GMT 50.053711 8.655371 10,025 128 308 0
2022-05-19 23:14:32 GMT 50.055450 8.651878 10,025 128 308 64
2022-05-19 23:14:31 GMT 50.056316 8.650175 10,000 128 308 64
2022-05-19 23:14:29 GMT 50.058197 8.646529 10,000 128 308 128
2022-05-19 23:14:28 GMT 50.059158 8.644607 10,000 128 308 128
2022-05-19 23:14:25 GMT 50.061768 8.639374 10,000 128 308 64
2022-05-19 23:14:24 GMT 50.063461 8.636049 10,000 128 308 0
2022-05-19 23:14:22 GMT 50.064331 8.634314 10,000 128 308 -64
2022-05-19 23:14:20 GMT 50.067764 8.627448 10,000 128 308 -64
2022-05-19 23:14:18 GMT 50.068817 8.625352 10,000 128 308 0
2022-05-19 23:14:15 GMT 50.070564 8.621892 10,000 128 309 0
2022-05-19 23:14:13 GMT 50.072239 8.618552 10,000 128 309 -64
2022-05-19 23:14:11 GMT 50.075077 8.612984 10,000 128 310 -64
2022-05-19 23:14:08 GMT 50.076057 8.611054 10,000 128 310 0
2022-05-19 23:14:07 GMT 50.077744 8.607716 10,000 128 310 0
2022-05-19 23:14:06 GMT 50.078430 8.606343 10,000 128 310 -64
2022-05-19 23:14:04 GMT 50.080200 8.602815 10,000 128 310 0
2022-05-19 23:14:03 GMT 50.081085 8.601033 10,000 128 310 0
2022-05-19 23:14:01 GMT 50.082947 8.597396 10,025 128 310 0
2022-05-19 23:14:00 GMT 50.083786 8.595790 10,000 128 311 0
2022-05-19 23:13:58 GMT 50.085617 8.592104 10,000 128 311 64
2022-05-19 23:13:56 GMT 50.087036 8.589285 10,000 128 311 64
2022-05-19 23:13:54 GMT 50.088997 8.585370 10,000 128 311 64
2022-05-19 23:13:52 GMT 50.090881 8.581696 10,000 128 311 0
2022-05-19 23:13:50 GMT 50.092628 8.578170 10,000 128 311 0
2022-05-19 23:13:49 GMT 50.093445 8.576564 10,000 128 311 0
2022-05-19 23:13:48 GMT 50.095238 8.573048 10,000 128 311 0
2022-05-19 23:13:46 GMT 50.096008 8.571504 10,000 128 311 0
2022-05-19 23:13:45 GMT 50.096970 8.569553 10,000 128 311 0
2022-05-19 23:13:43 GMT 50.098755 8.566011 10,000 128 311 -64
2022-05-19 23:13:42 GMT 50.099670 8.564276 10,000 128 311 0
2022-05-19 23:13:41 GMT 50.100632 8.562325 10,000 128 311 0
2022-05-19 23:13:39 GMT 50.102123 8.559389 10,000 128 311 0
2022-05-19 23:13:38 GMT 50.103378 8.556904 10,000 128 311 0
2022-05-19 23:13:37 GMT 50.104176 8.555306 10,000 128 311 0
2022-05-19 23:13:35 GMT 50.105896 8.551989 10,000 128 311 0
2022-05-19 23:13:34 GMT 50.107849 8.548106 10,000 128 311 0
2022-05-19 23:13:32 GMT 50.108734 8.546324 10,000 128 311 0
2022-05-19 23:13:30 GMT 50.110600 8.542612 10,000 127 312 0
2022-05-19 23:13:29 GMT 50.111481 8.540831 10,000 127 312 0
2022-05-19 23:13:28 GMT 50.111938 8.539991 10,000 127 312 0
2022-05-19 23:13:27 GMT 50.115051 8.533775 10,000 127 312 64
2022-05-19 23:13:25 GMT 50.115051 8.533775 10,000 128 312 64
2022-05-19 23:13:24 GMT 50.115486 8.532888 10,000 128 312 64
2022-05-19 23:13:21 GMT 50.118420 8.527098 10,000 128 312 64
2022-05-19 23:13:19 GMT 50.120224 8.523511 10,000 128 312 0
2022-05-19 23:13:18 GMT 50.121025 8.521976 10,000 128 313 0
2022-05-19 23:13:16 GMT 50.122971 8.518090 10,000 128 313 0
2022-05-19 23:13:15 GMT 50.123959 8.516112 10,000 128 313 0
2022-05-19 23:13:13 GMT 50.125671 8.512742 10,000 128 313 -64
2022-05-19 23:13:12 GMT 50.126633 8.510790 10,000 128 313 -64
2022-05-19 23:13:11 GMT 50.127636 8.508837 10,000 128 313 -64
2022-05-19 23:13:09 GMT 50.129425 8.505369 10,000 128 313 -64
2022-05-19 23:13:08 GMT 50.130524 8.503201 10,000 128 313 0
2022-05-19 23:13:07 GMT 50.132309 8.499659 10,000 128 313 64
2022-05-19 23:13:05 GMT 50.133175 8.497925 10,000 128 312 64
2022-05-19 23:13:04 GMT 50.134506 8.495251 10,000 128 312 128
2022-05-19 23:13:02 GMT 50.135410 8.493471 10,000 128 311 128
2022-05-19 23:13:01 GMT 50.136295 8.491764 10,000 128 311 128
2022-05-19 23:12:59 GMT 50.138111 8.488200 10,000 128 311 192
2022-05-19 23:12:58 GMT 50.138992 8.486433 10,000 128 311 192
2022-05-19 23:12:57 GMT 50.140858 8.482781 9,975 128 311 128
2022-05-19 23:12:54 GMT 50.144348 8.475878 9,975 128 311 -128
2022-05-19 23:12:52 GMT 50.144348 8.475878 9,975 128 311 -192
2022-05-19 23:12:51 GMT 50.145325 8.473948 10,000 128 311 -256
2022-05-19 23:12:50 GMT 50.148121 8.468529 10,000 128 312 -384
2022-05-19 23:12:48 GMT 50.148121 8.468529 10,000 128 312 -384
2022-05-19 23:12:47 GMT 50.148560 8.467640 10,025 128 313 -384
2022-05-19 23:12:45 GMT 50.150528 8.463809 10,050 128 313 -384
2022-05-19 23:12:43 GMT 50.152084 8.460774 10,050 128 313 -384
2022-05-19 23:12:42 GMT 50.153427 8.458136 10,050 128 313 -384
2022-05-19 23:12:40 GMT 50.154419 8.456220 10,050 128 313 -320
2022-05-19 23:12:39 GMT 50.155930 8.453184 10,075 128 313 -320
2022-05-19 23:12:38 GMT 50.156616 8.451739 10,075 127 313 -192
2022-05-19 23:12:37 GMT 50.158035 8.448932 10,075 126 314 -192
2022-05-19 23:12:35 GMT 50.159290 8.446408 10,075 126 314 -192
2022-05-19 23:12:34 GMT 50.160130 8.444552 10,075 125 314 -192
2022-05-19 23:12:32 GMT 50.162201 8.440174 10,075 125 314 -256
2022-05-19 23:12:31 GMT 50.163109 8.438168 10,100 124 316 -256
2022-05-19 23:12:29 GMT 50.164764 8.434392 10,100 122 316 -256
2022-05-19 23:12:27 GMT 50.166046 8.431284 10,100 120 318 -320
2022-05-19 23:12:25 GMT 50.167530 8.427404 10,125 116 319 -384
2022-05-19 23:12:24 GMT 50.169662 8.420804 10,150 113 320 -448
2022-05-19 23:12:22 GMT 50.169662 8.420804 10,150 113 320 -448
2022-05-19 23:12:20 GMT 50.170898 8.416395 10,150 110 321 -384
2022-05-19 23:12:19 GMT 50.171394 8.414414 10,175 108 322 -384
2022-05-19 23:12:18 GMT 50.171906 8.411986 10,175 107 322 -384
2022-05-19 23:12:16 GMT 50.172729 8.407794 10,175 104 324 -320
2022-05-19 23:12:15 GMT 50.173141 8.405553 10,175 102 324 -320
2022-05-19 23:12:14 GMT 50.174057 8.398470 10,200 99 325 -320
2022-05-19 23:12:12 GMT 50.174057 8.398470 10,200 98 325 -320
2022-05-19 23:12:11 GMT 50.174282 8.396376 10,200 96 326 -320
2022-05-19 23:12:09 GMT 50.174606 8.392144 10,225 93 326 -320
2022-05-19 23:12:08 GMT 50.174744 8.389363 10,225 92 327 -320
2022-05-19 23:12:06 GMT 50.174839 8.384870 10,225 89 327 -320
2022-05-19 23:12:05 GMT 50.174793 8.382494 10,250 87 327 -320
2022-05-19 23:12:04 GMT 50.174652 8.377798 10,250 84 327 -320
2022-05-19 23:12:02 GMT 50.174465 8.374774 10,250 82 327 -320
2022-05-19 23:12:00 GMT 50.174103 8.370064 10,250 81 327 -320
2022-05-19 23:11:59 GMT 50.173920 8.368691 10,275 78 327 -320
2022-05-19 23:11:58 GMT 50.173233 8.363631 10,275 76 327 -320
2022-05-19 23:11:56 GMT 50.173073 8.362452 10,275 75 327 -384
2022-05-19 23:11:54 GMT 50.172188 8.357701 10,300 70 327 -448
2022-05-19 23:11:53 GMT 50.171539 8.354813 10,325 69 327 -512
2022-05-19 23:11:52 GMT 50.171024 8.352579 10,325 67 327 -512
2022-05-19 23:11:50 GMT 50.169937 8.348453 10,350 64 326 -576
2022-05-19 23:11:49 GMT 50.169300 8.346343 10,350 62 326 -576
2022-05-19 23:11:48 GMT 50.168602 8.344190 10,350 61 326 -576
2022-05-19 23:11:46 GMT 50.167191 8.340069 10,375 58 326 -576
2022-05-19 23:11:45 GMT 50.166321 8.337881 10,375 56 325 -576
2022-05-19 23:11:43 GMT 50.164764 8.334142 10,400 54 325 -576
2022-05-19 23:11:42 GMT 50.163898 8.332239 10,425 52 325 -576
2022-05-19 23:11:40 GMT 50.162155 8.328649 10,425 50 324 -512
2022-05-19 23:11:39 GMT 50.161247 8.326820 10,450 49 324 -512
2022-05-19 23:11:38 GMT 50.160187 8.324890 10,450 48 324 -512
2022-05-19 23:11:37 GMT 50.158081 8.321179 10,475 47 324 -448
2022-05-19 23:11:35 GMT 50.157074 8.319469 10,475 46 324 -384
2022-05-19 23:11:34 GMT 50.153870 8.314193 10,475 46 325 -384
2022-05-19 23:11:32 GMT 50.153870 8.314193 10,500 45 326 -384
2022-05-19 23:11:31 GMT 50.152962 8.312642 10,500 45 326 -384
2022-05-19 23:11:29 GMT 50.150940 8.309495 10,525 45 327 -448
2022-05-19 23:11:27 GMT 50.149567 8.307254 10,525 45 327 -448
2022-05-19 23:11:26 GMT 50.147873 8.304580 10,525 45 328 -576
2022-05-19 23:11:25 GMT 50.146954 8.303066 10,550 45 328 -512
2022-05-19 23:11:24 GMT 50.145447 8.300677 10,550 45 328 -512
2022-05-19 23:11:22 GMT 50.143341 8.297280 10,575 45 330 -448
2022-05-19 23:11:21 GMT 50.142159 8.295346 10,575 45 330 -512
2022-05-19 23:11:20 GMT 50.140045 8.291931 10,600 45 331 -512
2022-05-19 23:11:17 GMT 50.138435 8.289407 10,600 45 331 -448
2022-05-19 23:11:16 GMT 50.137272 8.287477 10,600 45 333 -448
2022-05-19 23:11:15 GMT 50.136063 8.285643 10,625 45 333 -448
2022-05-19 23:11:13 GMT 50.133499 8.281464 10,650 45 333 -384
2022-05-19 23:11:11 GMT 50.131359 8.278050 10,650 45 333 -384
2022-05-19 23:11:09 GMT 50.130150 8.276194 10,650 45 333 -448
2022-05-19 23:11:08 GMT 50.128242 8.273076 10,675 45 333 -448
2022-05-19 23:11:06 GMT 50.126427 8.270107 10,675 45 334 -384
2022-05-19 23:11:05 GMT 50.124985 8.267935 10,700 45 334 -384
2022-05-19 23:11:03 GMT 50.122971 8.264610 10,700 45 335 -384
2022-05-19 23:11:02 GMT 50.121956 8.263055 10,700 45 335 -384
2022-05-19 23:11:00 GMT 50.119720 8.259478 10,725 45 335 -384
2022-05-19 23:10:59 GMT 50.118530 8.257527 10,725 45 335 -384
2022-05-19 23:10:58 GMT 50.116562 8.254419 10,750 45 335 -448
2022-05-19 23:10:56 GMT 50.115623 8.252885 10,750 45 335 -448
2022-05-19 23:10:55 GMT 50.114548 8.251166 10,750 45 336 -448
2022-05-19 23:10:53 GMT 50.112461 8.247837 10,775 46 335 -448
2022-05-19 23:10:52 GMT 50.110336 8.244372 10,800 46 335 -448
2022-05-19 23:10:50 GMT 50.108826 8.241914 10,800 46 335 -448
2022-05-19 23:10:49 GMT 50.107956 8.240541 10,800 46 335 -448
2022-05-19 23:10:48 GMT 50.106766 8.238590 10,825 46 335 -448
2022-05-19 23:10:46 GMT 50.104614 8.235120 10,825 46 337 -448
2022-05-19 23:10:45 GMT 50.102451 8.231655 10,850 46 337 -384
2022-05-19 23:10:42 GMT 50.100586 8.228687 10,850 46 337 -384
2022-05-19 23:10:40 GMT 50.098572 8.225363 10,875 46 337 -448
2022-05-19 23:10:39 GMT 50.096073 8.221337 10,875 46 337 -448
2022-05-19 23:10:37 GMT 50.094955 8.219580 10,900 46 338 -448
2022-05-19 23:10:36 GMT 50.093033 8.216472 10,900 46 338 -384
2022-05-19 23:10:34 GMT 50.091843 8.214521 10,900 46 338 -384
2022-05-19 23:10:33 GMT 50.089790 8.211167 10,925 46 338 -448
2022-05-19 23:10:31 GMT 50.088345 8.208940 10,925 46 338 -448
2022-05-19 23:10:30 GMT 50.087357 8.207365 10,925 46 338 -384
2022-05-19 23:10:28 GMT 50.085297 8.204041 10,950 46 338 -320
2022-05-19 23:10:26 GMT 50.083225 8.200700 10,975 46 338 -384
2022-05-19 23:10:24 GMT 50.080944 8.196988 10,975 46 339 -448
2022-05-19 23:10:23 GMT 50.078476 8.192982 11,000 46 339 -448
2022-05-19 23:10:21 GMT 50.077454 8.191347 11,000 46 339 -448
2022-05-19 23:10:19 GMT 50.075638 8.188378 11,025 46 340 -448
2022-05-19 23:10:18 GMT 50.073990 8.185754 11,025 46 340 -448
2022-05-19 23:10:16 GMT 50.071289 8.181345 11,050 46 338 -384
2022-05-19 23:10:13 GMT 50.068542 8.176936 11,075 46 338 -384
2022-05-19 23:10:12 GMT 50.065628 8.172269 11,075 46 338 -512
2022-05-19 23:10:10 GMT 50.065628 8.172269 11,075 46 338 -512
2022-05-19 23:10:08 GMT 50.063416 8.168696 11,125 46 338 -448
2022-05-19 23:10:06 GMT 50.060852 8.164504 11,125 46 338 -448
2022-05-19 23:10:04 GMT 50.059113 8.161728 11,125 46 338 -448
2022-05-19 23:10:03 GMT 50.057388 8.158908 11,150 46 338 -384
2022-05-19 23:10:01 GMT 50.056179 8.156977 11,150 46 338 -320
2022-05-19 23:09:59 GMT 50.052593 8.151187 11,175 46 338 -256
2022-05-19 23:09:58 GMT 50.052593 8.151187 11,175 46 338 -256
2022-05-19 23:09:57 GMT 50.050369 8.147446 11,175 47 338 -192
2022-05-19 23:09:55 GMT 50.049381 8.145843 11,175 48 339 -256
2022-05-19 23:09:53 GMT 50.046844 8.141520 11,175 48 339 -256
2022-05-19 23:09:52 GMT 50.046432 8.140797 11,175 48 340 -192
2022-05-19 23:09:51 GMT 50.044968 8.138195 11,200 49 340 -192
2022-05-19 23:09:49 GMT 50.042957 8.134485 11,200 50 341 -192
2022-05-19 23:09:48 GMT 50.042038 8.132846 11,200 51 342 -192
2022-05-19 23:09:46 GMT 50.039886 8.128621 11,200 53 342 -256
2022-05-19 23:09:45 GMT 50.038906 8.126617 11,200 54 343 -320
2022-05-19 23:09:44 GMT 50.036625 8.121569 11,225 56 344 -384
2022-05-19 23:09:42 GMT 50.036625 8.121569 11,225 58 344 -448
2022-05-19 23:09:41 GMT 50.034950 8.117412 11,225 60 346 -448
2022-05-19 23:09:39 GMT 50.033981 8.114777 11,250 62 346 -448
2022-05-19 23:09:38 GMT 50.032436 8.110137 11,250 65 347 -448
2022-05-19 23:09:36 GMT 50.031830 8.108127 11,275 66 347 -512
2022-05-19 23:09:35 GMT 50.031181 8.105832 11,275 67 347 -512
2022-05-19 23:09:32 GMT 50.029411 8.098854 11,300 71 347 -576
2022-05-19 23:09:30 GMT 50.028397 8.094105 11,325 73 347 -512
2022-05-19 23:09:29 GMT 50.028030 8.092226 11,325 74 348 -512
2022-05-19 23:09:28 GMT 50.027161 8.087166 11,325 76 347 -448
2022-05-19 23:09:26 GMT 50.026611 8.083769 11,350 77 347 -384
2022-05-19 23:09:25 GMT 50.026432 8.082300 11,350 77 347 -384
2022-05-19 23:09:24 GMT 50.025742 8.077698 11,350 78 347 -384
2022-05-19 23:09:22 GMT 50.025284 8.074012 11,375 78 347 -384
2022-05-19 23:09:21 GMT 50.025127 8.072798 11,375 78 347 -384
2022-05-19 23:09:19 GMT 50.024429 8.067380 11,400 79 347 -384
2022-05-19 23:09:18 GMT 50.024185 8.065194 11,400 79 347 -384
2022-05-19 23:09:17 GMT 50.023823 8.062258 11,425 78 347 -384
2022-05-19 23:09:14 GMT 50.022846 8.054686 11,450 79 347 -384
2022-05-19 23:09:12 GMT 50.022400 8.051027 11,450 79 347 -384
2022-05-19 23:09:10 GMT 50.021576 8.044594 11,475 79 348 -384
2022-05-19 23:09:09 GMT 50.021126 8.040730 11,475 79 348 -448
2022-05-19 23:09:06 GMT 50.020386 8.035053 11,500 79 349 -512
2022-05-19 23:09:04 GMT 50.019836 8.030355 11,500 79 349 -512
2022-05-19 23:09:03 GMT 50.019543 8.028185 11,525 79 349 -512
2022-05-19 23:09:01 GMT 50.018982 8.023508 11,525 78 350 -512
2022-05-19 23:09:00 GMT 50.018646 8.020815 11,550 78 350 -448
2022-05-19 23:08:57 GMT 50.017864 8.014601 11,550 79 351 -384
2022-05-19 23:08:56 GMT 50.017540 8.011928 11,550 79 351 -384
2022-05-19 23:08:55 GMT 50.016701 8.005470 11,575 78 352 -320
2022-05-19 23:08:52 GMT 50.016083 8.000504 11,600 78 353 -320
2022-05-19 23:08:50 GMT 50.015533 7.996240 11,600 78 354 -384
2022-05-19 23:08:49 GMT 50.014885 7.990995 11,625 78 354 -384
2022-05-19 23:08:47 GMT 50.014572 7.988506 11,625 78 354 -384
2022-05-19 23:08:46 GMT 50.013931 7.983519 11,625 78 354 -384
2022-05-19 23:08:44 GMT 50.013702 7.981495 11,650 78 355 -384
2022-05-19 23:08:43 GMT 50.012970 7.975785 11,650 78 355 -384
2022-05-19 23:08:40 GMT 50.012280 7.970284 11,675 78 355 -384
2022-05-19 23:08:39 GMT 50.012009 7.968051 11,675 78 355 -448
2022-05-19 23:08:38 GMT 50.011395 7.963232 11,675 78 355 -384
2022-05-19 23:08:36 GMT 50.011093 7.960751 11,700 78 355 -384
2022-05-19 23:08:35 GMT 50.010838 7.958481 11,700 79 355 -384
2022-05-19 23:08:32 GMT 50.009995 7.952005 11,725 79 355 -384
2022-05-19 23:08:31 GMT 50.009537 7.948030 11,725 79 355 -320
2022-05-19 23:08:30 GMT 50.009171 7.945284 11,725 79 354 -320
2022-05-19 23:08:28 GMT 50.008648 7.941037 11,725 79 354 -384
2022-05-19 23:08:27 GMT 50.008301 7.938273 11,750 79 354 -384
2022-05-19 23:08:26 GMT 50.007980 7.935526 11,750 79 354 -384
2022-05-19 23:08:25 GMT 50.007706 7.933502 11,750 79 354 -384
2022-05-19 23:08:22 GMT 50.006973 7.927503 11,775 79 354 -384
2022-05-19 23:08:21 GMT 50.006561 7.924251 11,775 79 354 -384
2022-05-19 23:08:20 GMT 50.006287 7.921793 11,775 79 354 -384
2022-05-19 23:08:19 GMT 50.005600 7.916589 11,800 79 354 -384
2022-05-19 23:08:17 GMT 50.005280 7.914059 11,800 79 353 -448
2022-05-19 23:08:15 GMT 50.004692 7.909043 11,825 79 353 -384
2022-05-19 23:08:14 GMT 50.004414 7.907113 11,825 79 353 -384
2022-05-19 23:08:13 GMT 50.003853 7.902585 11,850 79 353 -384
2022-05-19 23:08:11 GMT 50.003529 7.899838 11,850 79 353 -384
2022-05-19 23:08:10 GMT 50.003128 7.896640 11,850 79 353 -384
2022-05-19 23:08:08 GMT 50.002487 7.891436 11,875 79 353 -384
2022-05-19 23:08:07 GMT 50.002178 7.889149 11,875 78 352 -384
2022-05-19 23:08:05 GMT 50.001480 7.883433 11,875 78 352 -384
2022-05-19 23:08:03 GMT 50.000965 7.879498 11,900 78 352 -448
2022-05-19 23:08:01 GMT 50.000317 7.874302 11,900 78 352 -448
2022-05-19 23:07:59 GMT 49.999710 7.869329 11,925 78 352 -320
2022-05-19 23:07:57 GMT 49.998962 7.863392 11,925 78 352 -320
2022-05-19 23:07:55 GMT 49.998592 7.860644 11,950 78 352 -384
2022-05-19 23:07:54 GMT 49.998184 7.857393 11,950 78 352 -448
2022-05-19 23:07:52 GMT 49.997681 7.853201 11,975 78 352 -384
2022-05-19 23:07:51 GMT 49.996674 7.845539 11,975 79 352 -384
2022-05-19 23:07:48 GMT 49.996262 7.842070 12,000 79 352 -384
2022-05-19 23:07:47 GMT 49.995712 7.837589 12,000 79 352 -384
2022-05-19 23:07:45 GMT 49.995335 7.834588 12,025 79 352 -384
2022-05-19 23:07:44 GMT 49.994637 7.829095 12,025 79 353 -384
2022-05-19 23:07:41 GMT 49.994156 7.825157 12,050 78 353 -384
2022-05-19 23:07:39 GMT 49.993515 7.820170 12,050 78 353 -384
2022-05-19 23:07:37 GMT 49.992966 7.815977 12,050 78 353 -384
2022-05-19 23:07:36 GMT 49.992554 7.812508 12,075 78 353 -384
2022-05-19 23:07:35 GMT 49.992264 7.810240 12,075 78 353 -384
2022-05-19 23:07:34 GMT 49.991890 7.807493 12,075 78 353 -384
2022-05-19 23:07:33 GMT 49.991318 7.802750 12,100 78 353 -384
2022-05-19 23:07:31 GMT 49.990864 7.799254 12,100 78 353 -448
2022-05-19 23:07:29 GMT 49.990265 7.794511 12,125 78 353 -448
2022-05-19 23:07:28 GMT 49.989899 7.791836 12,125 78 354 -448
2022-05-19 23:07:27 GMT 49.989304 7.786849 12,150 78 354 -448
2022-05-19 23:07:24 GMT 49.988815 7.783071 12,150 78 354 -448
2022-05-19 23:07:23 GMT 49.988297 7.779115 12,150 78 354 -448
2022-05-19 23:07:20 GMT 49.987095 7.769561 12,200 78 355 -384
2022-05-19 23:07:17 GMT 49.986675 7.766072 12,200 78 355 -384
2022-05-19 23:07:16 GMT 49.986210 7.762360 12,200 78 355 -448
2022-05-19 23:07:14 GMT 49.985550 7.757070 12,225 79 356 -448
2022-05-19 23:07:12 GMT 49.984818 7.751288 12,250 79 356 -384
2022-05-19 23:07:10 GMT 49.983582 7.741531 12,250 79 357 -320
2022-05-19 23:07:08 GMT 49.983582 7.741531 12,275 79 357 -384
2022-05-19 23:07:07 GMT 49.982849 7.735459 12,275 79 357 -384
2022-05-19 23:07:05 GMT 49.982162 7.730183 12,300 79 358 -384
2022-05-19 23:07:03 GMT 49.982162 7.730183 12,300 79 358 -384
2022-05-19 23:07:01 GMT 49.981461 7.724651 12,300 79 358 -384
2022-05-19 23:07:00 GMT 49.981155 7.721871 12,325 79 358 -384
2022-05-19 23:06:59 GMT 49.980858 7.719603 12,325 78 358 -448
2022-05-19 23:06:58 GMT 49.979919 7.712041 12,350 78 359 -448
2022-05-19 23:06:55 GMT 49.979599 7.709730 12,350 78 359 -448
2022-05-19 23:06:54 GMT 49.979279 7.706981 12,350 79 360 -384
2022-05-19 23:06:53 GMT 49.978901 7.704163 12,350 79 360 -384
2022-05-19 23:06:52 GMT 49.978592 7.701633 12,375 79 360 -384
2022-05-19 23:06:50 GMT 49.978016 7.696814 12,375 79 360 -384
2022-05-19 23:06:49 GMT 49.977631 7.693827 12,400 79 360 -384
2022-05-19 23:06:48 GMT 49.977310 7.691225 12,400 79 360 -384
2022-05-19 23:06:47 GMT 49.976990 7.688695 12,400 79 361 -384
2022-05-19 23:06:46 GMT 49.976669 7.686165 12,400 79 361 -384
2022-05-19 23:06:45 GMT 49.976063 7.681076 12,425 79 361 -384
2022-05-19 23:06:43 GMT 49.975800 7.678793 12,425 79 361 -384
2022-05-19 23:06:42 GMT 49.975204 7.673950 12,425 79 361 -384
2022-05-19 23:06:40 GMT 49.974884 7.671420 12,450 79 361 -384
2022-05-19 23:06:38 GMT 49.974335 7.666867 12,450 79 361 -384
2022-05-19 23:06:36 GMT 49.973549 7.660737 12,475 79 360 -320
2022-05-19 23:06:35 GMT 49.973270 7.658213 12,475 78 360 -320
2022-05-19 23:06:34 GMT 49.972916 7.655664 12,475 78 360 -320
2022-05-19 23:06:32 GMT 49.971825 7.647078 12,500 78 361 -448
2022-05-19 23:06:29 GMT 49.971359 7.643515 12,500 78 360 -448
2022-05-19 23:06:28 GMT 49.970570 7.637205 12,525 78 360 -448
2022-05-19 23:06:25 GMT 49.970261 7.634920 12,525 78 360 -448
2022-05-19 23:06:24 GMT 49.969711 7.630583 12,550 78 360 -384
2022-05-19 23:06:22 GMT 49.969025 7.625524 12,550 78 360 -320
2022-05-19 23:06:21 GMT 49.968243 7.619464 12,575 78 360 -320
2022-05-19 23:06:19 GMT 49.968063 7.618223 12,575 78 360 -320
2022-05-19 23:06:18 GMT 49.967606 7.614682 12,575 78 360 -320
2022-05-19 23:06:16 GMT 49.967010 7.610345 12,600 78 359 -320
2022-05-19 23:06:15 GMT 49.966690 7.607815 12,600 78 359 -320
2022-05-19 23:06:13 GMT 49.966007 7.602762 12,600 78 359 -320
2022-05-19 23:06:12 GMT 49.965679 7.600238 12,600 78 359 -384
2022-05-19 23:06:11 GMT 49.964859 7.594227 12,625 78 359 -448
2022-05-19 23:06:09 GMT 49.964561 7.591924 12,625 78 359 -512
2022-05-19 23:06:08 GMT 49.963989 7.587650 12,650 78 359 -576
2022-05-19 23:06:06 GMT 49.963631 7.585169 12,650 78 359 -576
2022-05-19 23:06:05 GMT 49.963306 7.582645 12,675 78 359 -576
2022-05-19 23:06:04 GMT 49.962708 7.577820 12,700 78 359 -384
2022-05-19 23:06:02 GMT 49.962341 7.575073 12,700 78 357 -384
2022-05-19 23:06:01 GMT 49.962021 7.572543 12,700 78 357 -384
2022-05-19 23:06:00 GMT 49.961399 7.567799 12,725 78 357 -448
2022-05-19 23:05:58 GMT 49.960922 7.564231 12,725 78 357 -512
2022-05-19 23:05:56 GMT 49.960464 7.560762 12,750 78 357 -576
2022-05-19 23:05:55 GMT 49.960186 7.558445 12,775 78 357 -704
2022-05-19 23:05:53 GMT 49.959488 7.553175 12,775 78 356 -1088
2022-05-19 23:05:52 GMT 49.959255 7.551171 12,800 78 356 -1088
2022-05-19 23:05:51 GMT 49.958679 7.546668 12,825 78 356 -1088
2022-05-19 23:05:49 GMT 49.957394 7.536621 12,900 78 356 -1344
2022-05-19 23:05:47 GMT 49.957394 7.536621 12,925 78 356 -1344
2022-05-19 23:05:44 GMT 49.956711 7.531345 12,975 78 355 -1472
2022-05-19 23:05:43 GMT 49.956184 7.527342 13,000 78 356 -1344
2022-05-19 23:05:41 GMT 49.955521 7.522093 13,050 78 356 -1344
2022-05-19 23:05:40 GMT 49.955112 7.519399 13,075 78 356 -1280
2022-05-19 23:05:38 GMT 49.954102 7.511902 13,125 77 356 -1216
2022-05-19 23:05:35 GMT 49.953297 7.506409 13,150 76 356 -1216
2022-05-19 23:05:33 GMT 49.952591 7.501711 13,175 75 356 -1216
2022-05-19 23:05:32 GMT 49.952087 7.498763 13,225 74 356 -1344
2022-05-19 23:05:31 GMT 49.951309 7.494555 13,275 73 356 -1408
2022-05-19 23:05:28 GMT 49.950550 7.490375 13,300 72 355 -1472
2022-05-19 23:05:27 GMT 49.950027 7.487978 13,325 71 355 -1536
2022-05-19 23:05:25 GMT 49.948975 7.483135 13,400 68 355 -1600
2022-05-19 23:05:24 GMT 49.948364 7.480502 13,400 68 355 -1664
2022-05-19 23:05:23 GMT 49.948059 7.479304 13,450 66 355 -1408
2022-05-19 23:05:21 GMT 49.946781 7.474637 13,525 64 355 -1344
2022-05-19 23:05:19 GMT 49.943710 7.465065 13,575 60 354 -1152
2022-05-19 23:05:17 GMT 49.942886 7.462825 13,575 59 355 -1152
2022-05-19 23:05:15 GMT 49.941891 7.460236 13,600 58 355 -1152
2022-05-19 23:05:14 GMT 49.941242 7.458455 13,625 58 355 -1088
2022-05-19 23:05:13 GMT 49.939316 7.453718 13,675 56 355 -1088
2022-05-19 23:05:11 GMT 49.938400 7.451622 13,675 56 356 -896
2022-05-19 23:05:09 GMT 49.935932 7.445910 13,725 55 355 -1152
2022-05-19 23:05:08 GMT 49.935932 7.445910 13,725 55 356 -1152
2022-05-19 23:05:06 GMT 49.934052 7.441719 13,750 55 356 -1280
2022-05-19 23:05:05 GMT 49.933136 7.439623 13,800 55 356 -1280
2022-05-19 23:05:04 GMT 49.930489 7.433736 13,825 55 356 -1216
2022-05-19 23:05:01 GMT 49.929741 7.432103 13,850 55 357 -1216
2022-05-19 23:05:00 GMT 49.928112 7.428539 13,900 55 357 -1280
2022-05-19 23:04:57 GMT 49.925491 7.422638 13,975 55 356 -1472
2022-05-19 23:04:55 GMT 49.923615 7.418446 14,025 54 355 -1536
2022-05-19 23:04:53 GMT 49.921734 7.414287 14,050 54 355 -1536
2022-05-19 23:04:51 GMT 49.917500 7.404934 14,125 55 354 -1408
2022-05-19 23:04:49 GMT 49.917500 7.404934 14,200 55 355 -1472
2022-05-19 23:04:48 GMT 49.916569 7.402855 14,225 55 354 -1408
2022-05-19 23:04:46 GMT 49.914688 7.398641 14,275 55 354 -1280
2022-05-19 23:04:45 GMT 49.914139 7.397413 14,275 55 354 -1280
2022-05-19 23:04:44 GMT 49.911942 7.392353 14,350 55 354 -1344
2022-05-19 23:04:41 GMT 49.910564 7.389196 14,350 56 354 -1216
2022-05-19 23:04:39 GMT 49.908508 7.384619 14,400 56 355 -960
2022-05-19 23:04:37 GMT 49.905815 7.378210 14,400 56 354 -896
2022-05-19 23:04:36 GMT 49.905815 7.378210 14,450 57 354 -1152
2022-05-19 23:04:33 GMT 49.903656 7.372838 14,500 59 356 -896
2022-05-19 23:04:31 GMT 49.901871 7.368285 14,500 60 357 -960
2022-05-19 23:04:30 GMT 49.901047 7.366044 14,550 60 358 -1024
2022-05-19 23:04:29 GMT 49.900177 7.363586 14,550 61 358 -1088
2022-05-19 23:04:27 GMT 49.898739 7.359281 14,575 64 360 -1280
2022-05-19 23:04:26 GMT 49.897995 7.356906 14,625 66 361 -1536
2022-05-19 23:04:25 GMT 49.897202 7.354382 14,650 66 361 -1536
2022-05-19 23:04:22 GMT 49.895340 7.347181 14,700 68 362 -1856
2022-05-19 23:04:21 GMT 49.894688 7.344509 14,775 73 362 -1856
2022-05-19 23:04:19 GMT 49.893311 7.337566 14,850 73 362 -1856
2022-05-19 23:04:18 GMT 49.893059 7.336343 14,850 76 362 -1792
2022-05-19 23:04:16 GMT 49.892502 7.332780 14,900 77 362 -1728
2022-05-19 23:04:15 GMT 49.891800 7.327736 14,950 79 362 -1600
2022-05-19 23:04:13 GMT 49.891342 7.324122 15,000 80 362 -1600
2022-05-19 23:04:11 GMT 49.890930 7.320075 15,075 80 362 -1600
2022-05-19 23:04:09 GMT 49.890427 7.314654 15,075 82 362 -1536
2022-05-19 23:04:08 GMT 49.890198 7.312124 15,175 82 362 -1472
2022-05-19 23:04:06 GMT 49.889755 7.306428 15,175 82 362 -1472
2022-05-19 23:04:05 GMT 49.889523 7.303830 15,250 83 362 -1536
2022-05-19 23:04:03 GMT 49.889103 7.298485 15,250 83 362 -1536
2022-05-19 23:04:02 GMT 49.888824 7.294848 15,275 83 362 -1536
2022-05-19 23:04:00 GMT 49.888412 7.289718 15,350 83 363 -1472
2022-05-19 23:03:57 GMT 49.887909 7.282996 15,400 83 363 -1472
2022-05-19 23:03:55 GMT 49.887520 7.278071 15,450 83 363 -1408
2022-05-19 23:03:54 GMT 49.887268 7.274973 15,475 83 364 -1280
2022-05-19 23:03:52 GMT 49.886448 7.264635 15,550 83 364 -1216
2022-05-19 23:03:50 GMT 49.886448 7.264635 15,550 83 364 -1216
2022-05-19 23:03:49 GMT 49.886307 7.262324 15,575 83 365 -1152
2022-05-19 23:03:47 GMT 49.885895 7.257409 15,600 83 365 -1088
2022-05-19 23:03:46 GMT 49.885658 7.254020 15,625 83 365 -1088
2022-05-19 23:03:45 GMT 49.885254 7.248808 15,700 83 366 -1088
2022-05-19 23:03:42 GMT 49.884979 7.245194 15,700 83 367 -1152
2022-05-19 23:03:41 GMT 49.884682 7.241252 15,750 83 367 -1152
2022-05-19 23:03:39 GMT 49.884201 7.235003 15,775 83 367 -1216
2022-05-19 23:03:36 GMT 49.883564 7.227148 15,825 83 368 -1280
2022-05-19 23:03:34 GMT 49.883194 7.222210 15,875 83 369 -1280
2022-05-19 23:03:33 GMT 49.883011 7.219535 15,900 83 369 -1280
2022-05-19 23:03:31 GMT 49.882553 7.214042 15,925 83 369 -1280
2022-05-19 23:03:29 GMT 49.881912 7.205875 16,000 83 370 -1344
2022-05-19 23:03:26 GMT 49.881561 7.200870 16,025 83 370 -1600
2022-05-19 23:03:24 GMT 49.881226 7.196695 16,100 83 370 -1600
2022-05-19 23:03:22 GMT 49.880768 7.191146 16,150 83 370 -1536
2022-05-19 23:03:20 GMT 49.880402 7.185926 16,275 83 370 -1664
2022-05-19 23:03:17 GMT 49.879837 7.179046 16,275 83 370 -1664
2022-05-19 23:03:15 GMT 49.879303 7.172482 16,350 82 370 -1728
2022-05-19 23:03:13 GMT 49.878937 7.168001 16,375 82 370 -1728
2022-05-19 23:03:11 GMT 49.878487 7.161972 16,475 82 370 -1600
2022-05-19 23:03:09 GMT 49.878117 7.157519 16,500 82 370 -1600
2022-05-19 23:03:08 GMT 49.877789 7.153807 16,525 82 370 -1536
2022-05-19 23:03:06 GMT 49.877464 7.149353 16,575 82 370 -1344
2022-05-19 23:03:04 GMT 49.877106 7.144872 16,625 82 370 -1216
2022-05-19 23:03:03 GMT 49.876877 7.142197 16,675 82 371 -1088
2022-05-19 23:03:01 GMT 49.876465 7.137210 16,675 82 371 -1024
2022-05-19 23:02:59 GMT 49.876068 7.132205 16,925 79 366 -576
2022-05-19 23:02:58 GMT 49.875744 7.128271 16,725 82 372 -832
2022-05-19 23:02:56 GMT 49.875229 7.122176 16,750 82 372 -832
2022-05-19 23:02:55 GMT 49.874954 7.119285 16,775 82 372 -832
2022-05-19 23:02:53 GMT 49.874207 7.110530 16,825 82 372 -832
2022-05-19 23:02:50 GMT 49.873444 7.101577 16,850 82 371 -896
2022-05-19 23:02:48 GMT 49.873444 7.101577 16,875 82 371 -896
2022-05-19 23:02:44 GMT 49.872482 7.090264 16,925 83 369 -1024
2022-05-19 23:02:41 GMT 49.871933 7.083218 16,975 83 368 -1024
2022-05-19 23:02:40 GMT 49.871319 7.075344 17,025 83 368 -1024
2022-05-19 23:02:38 GMT 49.871319 7.075344 17,025 83 368 -1024
2022-05-19 23:02:35 GMT 49.870880 7.069052 17,075 83 367 -960
2022-05-19 23:02:34 GMT 49.870064 7.059161 17,125 82 367 -896
2022-05-19 23:02:32 GMT 49.870064 7.059161 17,125 81 366 -832
2022-05-19 23:02:31 GMT 49.869690 7.054741 17,150 81 366 -832
2022-05-19 23:02:29 GMT 49.869366 7.051664 17,175 78 365 -512
2022-05-19 23:02:28 GMT 49.869095 7.048814 17,175 78 365 -512
2022-05-19 23:02:26 GMT 49.868668 7.044909 17,200 78 365 -512
2022-05-19 23:02:24 GMT 49.867996 7.039779 17,225 78 365 -448
2022-05-19 23:02:22 GMT 49.867317 7.034962 17,225 76 366 -448
2022-05-19 23:02:20 GMT 49.866486 7.029877 17,300 74 365 -704
2022-05-19 23:02:18 GMT 49.865593 7.025089 17,300 71 363 -1216
2022-05-19 23:02:16 GMT 49.864475 7.019967 17,350 69 362 -1856
2022-05-19 23:02:15 GMT 49.863968 7.017734 17,375 68 360 -2112
2022-05-19 23:02:14 GMT 49.863312 7.015364 17,425 67 359 -2240
2022-05-19 23:02:12 GMT 49.862007 7.010614 17,500 65 357 -2240
2022-05-19 23:02:10 GMT 49.860985 7.007125 17,550 64 357 -2112
2022-05-19 23:02:09 GMT 49.859867 7.003413 17,625 64 357 -1472
2022-05-19 23:02:08 GMT 49.859169 7.001112 17,625 64 357 -1472
2022-05-19 23:02:07 GMT 49.858379 6.998588 17,650 64 358 -1280
2022-05-19 23:02:06 GMT 49.857010 6.994171 17,675 64 359 -832
2022-05-19 23:02:04 GMT 49.856331 6.991907 17,675 64 358 -576
2022-05-19 23:02:03 GMT 49.855682 6.989834 17,675 64 359 -832
2022-05-19 23:02:01 GMT 49.854374 6.985672 17,675 64 359 -832
2022-05-19 23:02:00 GMT 49.853676 6.983296 17,775 64 359 -1024
2022-05-19 23:01:58 GMT 49.851582 6.976615 17,775 64 360 -1024
2022-05-19 23:01:57 GMT 49.849533 6.970157 17,825 64 360 -1152
2022-05-19 23:01:55 GMT 49.849533 6.970157 17,825 64 360 -1344
2022-05-19 23:01:52 GMT 49.845978 6.958827 17,925 64 360 -1344
2022-05-19 23:01:50 GMT 49.845978 6.958827 17,925 63 361 -1344
2022-05-19 23:01:48 GMT 49.844551 6.954420 18,050 63 361 -1344
2022-05-19 23:01:46 GMT 49.843018 6.949521 18,050 63 363 -1408
2022-05-19 23:01:44 GMT 49.841263 6.943938 18,125 63 363 -1408
2022-05-19 23:01:41 GMT 49.839478 6.938372 18,125 63 363 -1408
2022-05-19 23:01:40 GMT 49.838745 6.936059 18,150 63 363 -1408
2022-05-19 23:01:39 GMT 49.838104 6.933963 18,175 63 363 -1408
2022-05-19 23:01:37 GMT 49.836639 6.929330 18,250 63 363 -1408
2022-05-19 23:01:35 GMT 49.835289 6.925098 18,275 63 363 -1408
2022-05-19 23:01:33 GMT 49.833069 6.918134 18,350 63 363 -1408
2022-05-19 23:01:31 GMT 49.832401 6.916042 18,475 63 363 -1408
2022-05-19 23:01:29 GMT 49.831051 6.911811 18,475 63 363 -1408
2022-05-19 23:01:27 GMT 49.829048 6.905575 18,475 63 363 -1408
2022-05-19 23:01:24 GMT 49.826797 6.898547 18,525 63 364 -1344
2022-05-19 23:01:22 GMT 49.825325 6.893921 18,575 63 364 -1344
2022-05-19 23:01:20 GMT 49.824257 6.890655 18,650 63 364 -1344
2022-05-19 23:01:18 GMT 49.822769 6.885970 18,650 63 364 -1344
2022-05-19 23:01:17 GMT 49.821648 6.882415 18,700 63 365 -1344
2022-05-19 23:01:15 GMT 49.819977 6.877297 18,750 63 365 -1280
2022-05-19 23:01:13 GMT 49.818329 6.872165 18,800 63 365 -1280
2022-05-19 23:01:11 GMT 49.816177 6.865371 18,900 63 366 -1280
2022-05-19 23:01:08 GMT 49.813248 6.856192 18,900 63 368 -1280
2022-05-19 23:01:06 GMT 49.812469 6.853806 18,950 63 368 -1280
2022-05-19 23:01:04 GMT 49.811733 6.851460 18,975 63 369 -1280
2022-05-19 23:01:03 GMT 49.810989 6.849085 19,050 63 369 -1280
2022-05-19 23:01:01 GMT 49.809540 6.844627 19,050 63 369 -1280
2022-05-19 23:00:59 GMT 49.807983 6.839640 19,150 63 369 -1280
2022-05-19 23:00:56 GMT 49.805557 6.832123 19,150 63 371 -1216
2022-05-19 23:00:54 GMT 49.803955 6.827136 19,175 63 371 -1216
2022-05-19 23:00:52 GMT 49.802536 6.822582 19,225 63 372 -1344
2022-05-19 23:00:50 GMT 49.801163 6.818318 19,275 63 372 -1344
2022-05-19 23:00:48 GMT 49.799488 6.813082 19,325 63 372 -1344
2022-05-19 23:00:46 GMT 49.796448 6.803573 19,400 63 372 -1408
2022-05-19 23:00:44 GMT 49.796448 6.803573 19,400 63 372 -1408
2022-05-19 23:00:42 GMT 49.795345 6.799943 19,450 63 372 -1536
2022-05-19 23:00:41 GMT 49.794556 6.797568 19,525 63 372 -1600
2022-05-19 23:00:39 GMT 49.792507 6.791110 19,550 63 372 -1664
2022-05-19 23:00:37 GMT 49.790878 6.786136 19,600 63 372 -1728
2022-05-19 23:00:35 GMT 49.789444 6.781600 19,650 63 372 -1728
2022-05-19 23:00:33 GMT 49.788666 6.779215 19,675 63 372 -1792
2022-05-19 23:00:31 GMT 49.787064 6.774228 19,725 63 372 -1792
2022-05-19 23:00:30 GMT 49.786331 6.771843 19,825 63 372 -1664
2022-05-19 23:00:28 GMT 49.783035 6.761579 19,875 63 372 -1216
2022-05-19 23:00:26 GMT 49.783035 6.761579 19,925 63 372 -1216
2022-05-19 23:00:23 GMT 49.781334 6.756295 19,925 63 373 -960
2022-05-19 23:00:22 GMT 49.780125 6.752509 19,950 63 373 -832
2022-05-19 23:00:21 GMT 49.779285 6.749911 19,950 63 373 -768
2022-05-19 23:00:19 GMT 49.777359 6.743871 20,000 63 374 -448
2022-05-19 23:00:17 GMT 49.774933 6.736498 20,000 63 375 -320
2022-05-19 23:00:16 GMT 49.774933 6.736498 20,000 63 375 -192
2022-05-19 23:00:15 GMT 49.774258 6.734322 20,000 63 375 -64
2022-05-19 23:00:13 GMT 49.772629 6.729274 20,000 63 375 0
2022-05-19 23:00:12 GMT 49.771957 6.727102 20,000 63 375 0
2022-05-19 23:00:10 GMT 49.768936 6.717778 20,000 63 375 0
2022-05-19 23:00:08 GMT 49.768158 6.715393 20,000 63 375 0
2022-05-19 23:00:05 GMT 49.765228 6.706337 20,000 63 375 0
2022-05-19 23:00:03 GMT 49.765228 6.706337 20,000 63 375 0
2022-05-19 23:00:01 GMT 49.763783 6.701734 20,000 63 375 0
2022-05-19 23:00:00 GMT 49.761364 6.694311 20,000 63 375 0
2022-05-19 22:59:58 GMT 49.761364 6.694311 20,000 63 375 0
2022-05-19 22:59:55 GMT 49.759140 6.687349 20,000 63 375 0
2022-05-19 22:59:54 GMT 49.756668 6.679687 20,000 63 375 -64
2022-05-19 22:59:51 GMT 49.756073 6.677808 20,000 63 375 -64
2022-05-19 22:59:50 GMT 49.755032 6.674714 20,000 63 375 -64
2022-05-19 22:59:49 GMT 49.754192 6.672042 20,000 63 375 -64
2022-05-19 22:59:47 GMT 49.752869 6.667978 20,000 63 375 -64
2022-05-19 22:59:44 GMT 49.750702 6.661278 20,000 63 375 0
2022-05-19 22:59:42 GMT 49.749847 6.658654 20,000 63 375 0
2022-05-19 22:59:40 GMT 49.745682 6.645717 20,000 63 375 0
2022-05-19 22:59:38 GMT 49.745682 6.645717 20,000 63 375 0
2022-05-19 22:59:35 GMT 49.743858 6.640196 20,000 63 375 0
2022-05-19 22:59:33 GMT 49.742229 6.635223 20,000 63 375 0
2022-05-19 22:59:30 GMT 49.739914 6.628008 20,000 63 375 0
2022-05-19 22:59:28 GMT 49.738415 6.623494 20,000 63 375 0
2022-05-19 22:59:26 GMT 49.736782 6.618446 20,000 63 375 0
2022-05-19 22:59:24 GMT 49.735291 6.613914 20,000 63 375 0
2022-05-19 22:59:23 GMT 49.734501 6.611543 20,000 63 375 0
2022-05-19 22:59:21 GMT 49.733002 6.606975 20,000 63 375 0
2022-05-19 22:59:19 GMT 49.731354 6.601988 20,000 63 375 0
2022-05-19 22:59:17 GMT 49.729797 6.597218 20,000 63 376 0
2022-05-19 22:59:15 GMT 49.728149 6.592158 20,000 63 376 0
2022-05-19 22:59:14 GMT 49.727425 6.590015 20,000 63 376 0
2022-05-19 22:59:11 GMT 49.723747 6.578806 20,000 63 376 0
2022-05-19 22:59:10 GMT 49.723747 6.578806 20,000 63 376 0
2022-05-19 22:59:06 GMT 49.720585 6.569230 20,000 63 377 0
2022-05-19 22:59:02 GMT 49.718079 6.561512 20,000 63 377 0
2022-05-19 22:59:00 GMT 49.716579 6.556982 20,000 63 377 0
2022-05-19 22:58:59 GMT 49.715607 6.554068 20,000 63 377 0
2022-05-19 22:58:58 GMT 49.714691 6.551249 20,000 63 377 64
2022-05-19 22:58:56 GMT 49.712624 6.544957 20,000 63 378 64
2022-05-19 22:58:55 GMT 49.712624 6.544957 20,000 63 378 64
2022-05-19 22:58:53 GMT 49.708107 6.531224 20,000 63 380 0
2022-05-19 22:58:50 GMT 49.706909 6.527614 20,000 63 381 64
2022-05-19 22:58:47 GMT 49.706039 6.524939 20,000 63 382 64
2022-05-19 22:58:45 GMT 49.704437 6.520097 20,000 63 383 64
2022-05-19 22:58:44 GMT 49.703545 6.517416 20,000 63 383 64
2022-05-19 22:58:43 GMT 49.702606 6.514459 20,000 63 384 64
2022-05-19 22:58:42 GMT 49.701870 6.512294 20,000 63 388 0
2022-05-19 22:58:39 GMT 49.699543 6.505168 20,000 63 388 0
2022-05-19 22:58:36 GMT 49.697342 6.498558 20,000 63 390 0
2022-05-19 22:58:33 GMT 49.694420 6.489654 20,000 63 392 0
2022-05-19 22:58:31 GMT 49.692932 6.485126 20,000 63 394 0
2022-05-19 22:58:29 GMT 49.691116 6.479621 20,000 62 398 0
2022-05-19 22:58:28 GMT 49.690201 6.476874 20,000 62 398 0
2022-05-19 22:58:27 GMT 49.689377 6.474344 20,000 62 398 0
2022-05-19 22:58:25 GMT 49.688004 6.470297 20,000 62 399 0
2022-05-19 22:58:23 GMT 49.686264 6.464948 20,000 62 403 0
2022-05-19 22:58:20 GMT 49.683807 6.457511 20,000 62 404 0
2022-05-19 22:58:19 GMT 49.679947 6.445939 20,000 62 408 0
2022-05-19 22:58:16 GMT 49.679947 6.445939 20,000 62 408 0
2022-05-19 22:58:13 GMT 49.677521 6.438656 20,000 62 412 0
2022-05-19 22:58:11 GMT 49.675873 6.433724 20,000 62 414 0
2022-05-19 22:58:10 GMT 49.675102 6.431382 20,000 62 415 0
2022-05-19 22:58:07 GMT 49.672543 6.423736 20,000 62 418 0
2022-05-19 22:58:06 GMT 49.670700 6.418184 20,000 62 420 0
2022-05-19 22:58:03 GMT 49.668724 6.412304 20,000 62 421 0
2022-05-19 22:58:00 GMT 49.665161 6.401632 20,000 62 426 0
2022-05-19 22:57:57 GMT 49.663185 6.395676 20,000 62 430 0
2022-05-19 22:57:54 GMT 49.657040 6.377489 20,000 62 430 0
2022-05-19 22:57:51 GMT 49.657040 6.377489 20,000 62 434 0
2022-05-19 22:57:48 GMT 49.655083 6.371699 20,000 62 436 0
2022-05-19 22:57:45 GMT 49.651081 6.359822 20,000 62 440 -64
2022-05-19 22:57:43 GMT 49.650337 6.357595 20,000 62 441 -64
2022-05-19 22:57:42 GMT 49.649311 6.354552 20,000 62 445 0
2022-05-19 22:57:39 GMT 49.643829 6.338244 20,000 62 445 0
2022-05-19 22:57:36 GMT 49.643829 6.338244 20,000 62 448 0
2022-05-19 22:57:34 GMT 49.639526 6.325523 20,000 62 454 0
2022-05-19 22:57:32 GMT 49.639526 6.325523 20,000 62 454 0
2022-05-19 22:57:30 GMT 49.638466 6.322335 20,000 62 455 0
2022-05-19 22:57:27 GMT 49.635998 6.315209 20,000 62 458 0
2022-05-19 22:57:25 GMT 49.632786 6.305633 20,000 62 460 -64
2022-05-19 22:57:21 GMT 49.629822 6.296901 20,000 62 463 -64
2022-05-19 22:57:19 GMT 49.628132 6.291974 20,000 62 463 -64
2022-05-19 22:57:17 GMT 49.625748 6.284975 20,000 62 463 0
2022-05-19 22:57:14 GMT 49.622871 6.276460 20,000 62 464 0
2022-05-19 22:57:11 GMT 49.617416 6.260400 20,000 62 464 0
2022-05-19 22:57:07 GMT 49.616493 6.257753 20,000 62 464 0
2022-05-19 22:57:06 GMT 49.615517 6.254858 20,000 62 464 0
2022-05-19 22:57:04 GMT 49.612335 6.245511 20,000 62 464 64
2022-05-19 22:57:01 GMT 49.609322 6.236745 20,000 62 464 64
2022-05-19 22:56:58 GMT 49.606857 6.229397 20,000 62 464 64
2022-05-19 22:56:56 GMT 49.604233 6.221803 20,000 62 463 64
2022-05-19 22:56:53 GMT 49.601364 6.213362 20,000 62 463 64
2022-05-19 22:56:50 GMT 49.598785 6.205758 20,000 62 462 64
2022-05-19 22:56:46 GMT 49.592239 6.186531 20,000 62 463 -768
2022-05-19 22:56:43 GMT 49.592239 6.186531 20,000 62 463 -768
2022-05-19 22:56:42 GMT 49.588715 6.176340 20,000 62 463 -768
2022-05-19 22:56:40 GMT 49.588715 6.176340 20,100 62 463 -768
2022-05-19 22:56:37 GMT 49.584743 6.164666 20,100 62 465 -896
2022-05-19 22:56:34 GMT 49.581711 6.155885 20,150 62 465 -896
2022-05-19 22:56:30 GMT 49.577667 6.144252 20,175 62 464 -896
2022-05-19 22:56:27 GMT 49.575665 6.138388 20,250 62 465 -832
2022-05-19 22:56:25 GMT 49.573471 6.131961 20,275 62 465 -832
2022-05-19 22:56:22 GMT 49.570869 6.124358 20,275 62 465 -832
2022-05-19 22:56:21 GMT 49.569473 6.120276 20,325 62 465 -832
2022-05-19 22:56:19 GMT 49.568077 6.116119 20,325 62 466 -832
2022-05-19 22:56:18 GMT 49.566513 6.111434 20,350 62 466 -832
2022-05-19 22:56:16 GMT 49.565006 6.106988 20,375 62 466 -832
2022-05-19 22:56:14 GMT 49.562485 6.099291 20,425 63 467 -768
2022-05-19 22:56:11 GMT 49.560024 6.091548 20,475 67 469 -1024
2022-05-19 22:56:08 GMT 49.557587 6.083751 20,500 67 469 -1024
2022-05-19 22:56:06 GMT 49.554932 6.074644 20,550 67 469 -1024
2022-05-19 22:56:03 GMT 49.553329 6.068790 20,550 68 468 -1024
2022-05-19 22:56:02 GMT 49.550014 6.055768 20,600 68 468 -1024
2022-05-19 22:56:00 GMT 49.550014 6.055768 20,750 70 469 -960
2022-05-19 22:55:57 GMT 49.548248 6.047899 20,750 72 470 -896
2022-05-19 22:55:54 GMT 49.546326 6.039011 20,750 72 470 -896
2022-05-19 22:55:51 GMT 49.544037 6.027880 20,750 72 471 -896
2022-05-19 22:55:49 GMT 49.542847 6.021770 20,775 72 471 -896
2022-05-19 22:55:48 GMT 49.542252 6.018918 20,800 72 471 -896
2022-05-19 22:55:46 GMT 49.540558 6.010244 20,900 73 472 -960
2022-05-19 22:55:43 GMT 49.539356 6.004177 20,900 73 472 -960
2022-05-19 22:55:41 GMT 49.538086 5.997740 20,900 73 472 -960
2022-05-19 22:55:39 GMT 49.535431 5.984585 20,950 72 473 -896
2022-05-19 22:55:37 GMT 49.535431 5.984585 20,950 72 473 -896
2022-05-19 22:55:34 GMT 49.531036 5.962396 21,100 72 474 -896
2022-05-19 22:55:31 GMT 49.531036 5.962396 21,100 72 476 -896
2022-05-19 22:55:28 GMT 49.529579 5.955258 21,100 72 477 -896
2022-05-19 22:55:25 GMT 49.527786 5.946206 21,150 72 477 -832
2022-05-19 22:55:22 GMT 49.526184 5.938183 21,175 72 477 -832
2022-05-19 22:55:20 GMT 49.523254 5.923582 21,200 72 478 -832
2022-05-19 22:55:18 GMT 49.523254 5.923582 21,250 72 478 -832
2022-05-19 22:55:15 GMT 49.519958 5.907031 21,300 72 478 -832
2022-05-19 22:55:13 GMT 49.519958 5.907031 21,350 72 478 -832
2022-05-19 22:55:10 GMT 49.518036 5.897283 21,350 72 478 -768
2022-05-19 22:55:07 GMT 49.516068 5.887515 21,425 72 478 -832
2022-05-19 22:55:04 GMT 49.513985 5.877166 21,425 72 478 -832
2022-05-19 22:55:03 GMT 49.513474 5.874568 21,450 72 477 -896
2022-05-19 22:55:00 GMT 49.511627 5.865470 21,500 72 477 -896
2022-05-19 22:54:57 GMT 49.509468 5.854451 21,550 72 477 -896
2022-05-19 22:54:55 GMT 49.508423 5.849280 21,625 72 477 -896
2022-05-19 22:54:52 GMT 49.506134 5.837860 21,625 73 478 -896
2022-05-19 22:54:51 GMT 49.505421 5.834334 21,625 73 478 -896
2022-05-19 22:54:50 GMT 49.504768 5.831068 21,650 73 478 -896
2022-05-19 22:54:47 GMT 49.502766 5.821047 21,700 73 478 -896
2022-05-19 22:54:46 GMT 49.501556 5.814876 21,725 73 478 -896
2022-05-19 22:54:44 GMT 49.500904 5.811619 21,750 73 478 -896
2022-05-19 22:54:43 GMT 49.499275 5.803454 21,775 72 480 -896
2022-05-19 22:54:39 GMT 49.497803 5.796011 21,800 72 480 -896
2022-05-19 22:54:38 GMT 49.497459 5.794323 21,825 72 480 -896
2022-05-19 22:54:37 GMT 49.496567 5.789795 21,850 72 480 -896
2022-05-19 22:54:34 GMT 49.494339 5.778734 21,875 72 480 -896
2022-05-19 22:54:31 GMT 49.492619 5.770272 21,925 72 481 -832
2022-05-19 22:54:30 GMT 49.491531 5.765076 21,950 72 481 -832
2022-05-19 22:54:29 GMT 49.491028 5.762474 21,975 72 481 -832
2022-05-19 22:54:28 GMT 49.490105 5.757875 22,000 72 482 -896
2022-05-19 22:54:26 GMT 49.488800 5.751343 22,025 72 482 -896
2022-05-19 22:54:24 GMT 49.487404 5.744439 22,050 72 482 -896
2022-05-19 22:54:22 GMT 49.486240 5.738575 22,075 72 482 -960
2022-05-19 22:54:19 GMT 49.484253 5.728792 22,175 72 483 -960
2022-05-19 22:54:16 GMT 49.482605 5.720624 22,175 72 483 -960
2022-05-19 22:54:13 GMT 49.481094 5.713035 22,200 72 483 -960
2022-05-19 22:54:12 GMT 49.480373 5.709476 22,250 72 483 -960
2022-05-19 22:54:09 GMT 49.478466 5.699974 22,300 72 484 -960
2022-05-19 22:54:06 GMT 49.476276 5.689136 22,300 72 485 -960
2022-05-19 22:54:05 GMT 49.475006 5.682895 22,350 72 486 -896
2022-05-19 22:54:03 GMT 49.474319 5.679281 22,375 72 486 -896
2022-05-19 22:54:01 GMT 49.473267 5.674005 22,375 72 486 -896
2022-05-19 22:53:59 GMT 49.471809 5.666718 22,425 72 486 -896
2022-05-19 22:53:58 GMT 49.469833 5.656875 22,450 72 486 -896
2022-05-19 22:53:56 GMT 49.469833 5.656875 22,450 72 487 -896
2022-05-19 22:53:54 GMT 49.468548 5.650610 22,500 72 487 -896
2022-05-19 22:53:51 GMT 49.464752 5.632445 22,575 71 488 -896
2022-05-19 22:53:49 GMT 49.464752 5.632445 22,575 71 488 -896
2022-05-19 22:53:47 GMT 49.463524 5.626856 22,600 71 489 -896
2022-05-19 22:53:45 GMT 49.461845 5.619284 22,625 70 490 -832
2022-05-19 22:53:41 GMT 49.458961 5.606516 22,675 70 490 -832
2022-05-19 22:53:39 GMT 49.457146 5.598648 22,725 70 490 -832
2022-05-19 22:53:38 GMT 49.456306 5.595010 22,725 69 490 -832
2022-05-19 22:53:36 GMT 49.453171 5.581994 22,800 69 490 -832
2022-05-19 22:53:34 GMT 49.453171 5.581994 22,800 69 490 -832
2022-05-19 22:53:32 GMT 49.451603 5.575413 22,800 69 490 -832
2022-05-19 22:53:31 GMT 49.450882 5.572526 22,825 68 490 -896
2022-05-19 22:53:30 GMT 49.450058 5.569273 22,850 68 490 -896
2022-05-19 22:53:28 GMT 49.447998 5.561178 22,900 68 488 -896
2022-05-19 22:53:25 GMT 49.445877 5.552847 22,975 67 487 -768
2022-05-19 22:53:22 GMT 49.443085 5.542231 22,975 67 487 -768
2022-05-19 22:53:19 GMT 49.441036 5.534585 23,000 67 486 -512
2022-05-19 22:53:17 GMT 49.439301 5.528219 23,000 67 485 -384
2022-05-19 22:53:15 GMT 49.437103 5.520341 23,000 65 486 0
2022-05-19 22:53:14 GMT 49.436291 5.517512 23,000 65 486 0
2022-05-19 22:53:13 GMT 49.434380 5.510905 23,000 65 486 0
2022-05-19 22:53:10 GMT 49.433079 5.506452 23,000 65 486 0
2022-05-19 22:53:09 GMT 49.432377 5.504002 23,000 65 485 0
2022-05-19 22:53:07 GMT 49.430050 5.496133 23,000 65 485 0
2022-05-19 22:53:04 GMT 49.427444 5.487382 23,000 65 485 0
2022-05-19 22:53:02 GMT 49.425201 5.479854 23,000 65 485 0
2022-05-19 22:53:01 GMT 49.424149 5.476473 23,000 65 485 0
2022-05-19 22:52:59 GMT 49.422974 5.472348 23,000 65 485 0
2022-05-19 22:52:57 GMT 49.420647 5.464542 23,000 65 485 0
2022-05-19 22:52:55 GMT 49.419155 5.459555 23,000 65 485 0
2022-05-19 22:52:53 GMT 49.416321 5.450205 23,000 65 485 0
2022-05-19 22:52:52 GMT 49.416321 5.450205 23,000 65 485 0
2022-05-19 22:52:50 GMT 49.414352 5.443655 23,000 65 485 0
2022-05-19 22:52:48 GMT 49.412704 5.438021 23,000 65 485 64
2022-05-19 22:52:46 GMT 49.410267 5.429848 23,000 65 485 64
2022-05-19 22:52:43 GMT 49.408218 5.422982 23,000 65 485 0
2022-05-19 22:52:41 GMT 49.406158 5.416119 23,000 65 485 0
2022-05-19 22:52:39 GMT 49.404282 5.409851 23,000 65 485 0
2022-05-19 22:52:37 GMT 49.402397 5.403611 23,000 65 485 0
2022-05-19 22:52:34 GMT 49.399700 5.394576 23,000 65 486 0
2022-05-19 22:52:31 GMT 49.396954 5.385469 23,000 65 486 64
2022-05-19 22:52:29 GMT 49.393974 5.375495 23,000 65 486 64
2022-05-19 22:52:26 GMT 49.392159 5.369568 23,000 65 487 0
2022-05-19 22:52:24 GMT 49.390778 5.364849 23,000 65 487 0
2022-05-19 22:52:22 GMT 49.387966 5.355474 23,000 65 487 0
2022-05-19 22:52:19 GMT 49.385513 5.347314 23,000 65 487 0
2022-05-19 22:52:16 GMT 49.382755 5.338199 23,000 65 488 0
2022-05-19 22:52:15 GMT 49.380424 5.330393 23,000 65 488 0
2022-05-19 22:52:11 GMT 49.377678 5.321286 23,000 65 489 64
2022-05-19 22:52:08 GMT 49.374939 5.312101 23,000 65 490 128
2022-05-19 22:52:07 GMT 49.372192 5.303016 22,975 65 491 128
2022-05-19 22:52:05 GMT 49.372192 5.303016 22,975 65 492 128
2022-05-19 22:52:04 GMT 49.370323 5.296639 22,975 65 492 128
2022-05-19 22:52:01 GMT 49.367752 5.288086 22,975 65 495 0
2022-05-19 22:51:58 GMT 49.365482 5.280449 23,000 65 498 -256
2022-05-19 22:51:55 GMT 49.361526 5.267366 23,000 65 500 0
2022-05-19 22:51:52 GMT 49.359478 5.260572 23,000 65 500 0
2022-05-19 22:51:49 GMT 49.357269 5.253155 23,000 65 503 0
2022-05-19 22:51:47 GMT 49.354729 5.244815 23,000 65 505 0
2022-05-19 22:51:46 GMT 49.353836 5.241817 23,000 65 506 -64
2022-05-19 22:51:44 GMT 49.351517 5.234046 23,000 65 509 -128
2022-05-19 22:51:43 GMT 49.350910 5.232094 23,000 65 510 -192
2022-05-19 22:51:41 GMT 49.346970 5.218928 23,000 65 513 -384
2022-05-19 22:51:39 GMT 49.345963 5.215618 23,025 65 515 -640
2022-05-19 22:51:36 GMT 49.343788 5.208387 23,050 65 518 -1024
2022-05-19 22:51:35 GMT 49.342766 5.205062 23,100 65 518 -1024
2022-05-19 22:51:33 GMT 49.340561 5.197730 23,100 65 521 -1152
2022-05-19 22:51:31 GMT 49.338959 5.192378 23,150 65 521 -1152
2022-05-19 22:51:30 GMT 49.338062 5.189378 23,150 65 521 -1152
2022-05-19 22:51:29 GMT 49.336620 5.184680 23,175 65 523 -1152
2022-05-19 22:51:28 GMT 49.335434 5.180688 23,200 65 523 -1152
2022-05-19 22:51:26 GMT 49.333500 5.174271 23,350 65 525 -1152
2022-05-19 22:51:23 GMT 49.330627 5.164842 23,350 65 527 -1216
2022-05-19 22:51:20 GMT 49.327881 5.155687 23,350 65 532 -1152
2022-05-19 22:51:19 GMT 49.326828 5.152306 23,375 65 532 -1152
2022-05-19 22:51:18 GMT 49.325821 5.148855 23,400 65 532 -1152
2022-05-19 22:51:16 GMT 49.323727 5.142035 23,425 65 533 -1088
2022-05-19 22:51:15 GMT 49.322281 5.137265 23,450 65 534 -1088
2022-05-19 22:51:13 GMT 49.320236 5.130404 23,525 65 536 -1024
2022-05-19 22:51:10 GMT 49.317719 5.122159 23,525 65 536 -1024
2022-05-19 22:51:08 GMT 49.314926 5.112868 23,575 65 538 -1024
2022-05-19 22:51:06 GMT 49.312729 5.105614 23,625 65 540 -960
2022-05-19 22:51:05 GMT 49.311760 5.102499 23,625 65 540 -960
2022-05-19 22:51:04 GMT 49.310829 5.099391 23,650 65 540 -960
2022-05-19 22:51:03 GMT 49.308838 5.092797 23,675 65 540 -960
2022-05-19 22:51:00 GMT 49.306732 5.085875 23,700 65 541 -960
2022-05-19 22:50:57 GMT 49.301697 5.069204 23,800 65 541 -960
2022-05-19 22:50:54 GMT 49.300095 5.063993 23,825 65 542 -960
2022-05-19 22:50:53 GMT 49.296398 5.051832 23,875 65 542 -960
2022-05-19 22:50:50 GMT 49.296398 5.051832 23,875 65 542 -960
2022-05-19 22:50:48 GMT 49.293793 5.043158 23,925 65 542 -960
2022-05-19 22:50:47 GMT 49.292301 5.038316 23,925 65 542 -960
2022-05-19 22:50:46 GMT 49.290619 5.032724 23,950 65 541 -1024
2022-05-19 22:50:44 GMT 49.289463 5.028919 23,975 65 541 -1024
2022-05-19 22:50:43 GMT 49.288513 5.025823 24,000 65 541 -1024
2022-05-19 22:50:40 GMT 49.285740 5.016777 24,075 65 541 -1024
2022-05-19 22:50:38 GMT 49.283020 5.007723 24,075 65 542 -960
2022-05-19 22:50:36 GMT 49.282063 5.004634 24,200 65 542 0
2022-05-19 22:50:35 GMT 49.280823 5.000470 24,200 65 542 -960
2022-05-19 22:50:33 GMT 49.278988 4.994587 24,200 65 543 -1024
2022-05-19 22:50:31 GMT 49.276062 4.984835 24,200 65 543 -1024
2022-05-19 22:50:29 GMT 49.273914 4.977891 24,225 65 543 -1024
2022-05-19 22:50:27 GMT 49.272472 4.972976 24,250 65 543 -1024
2022-05-19 22:50:26 GMT 49.271484 4.969905 24,250 65 543 -1024
2022-05-19 22:50:25 GMT 49.267677 4.957364 24,375 64 544 -960
2022-05-19 22:50:23 GMT 49.264603 4.947245 24,375 64 544 -960
2022-05-19 22:50:20 GMT 49.264603 4.947245 24,375 64 544 -960
2022-05-19 22:50:18 GMT 49.262054 4.938918 24,400 64 544 -960
2022-05-19 22:50:16 GMT 49.260132 4.932650 24,450 64 544 -960
2022-05-19 22:50:14 GMT 49.257889 4.925326 24,475 64 545 -1024
2022-05-19 22:50:12 GMT 49.254688 4.914864 24,550 64 545 -960
2022-05-19 22:50:09 GMT 49.252258 4.906874 24,550 64 545 -960
2022-05-19 22:50:06 GMT 49.249146 4.896733 24,600 64 546 -960
2022-05-19 22:50:04 GMT 49.247543 4.891522 24,625 64 546 -960
2022-05-19 22:50:03 GMT 49.246403 4.887687 24,650 64 546 -960
2022-05-19 22:50:02 GMT 49.244446 4.881327 24,675 64 546 -960
2022-05-19 22:49:59 GMT 49.241592 4.871944 24,725 64 546 -960
2022-05-19 22:49:58 GMT 49.241051 4.870196 24,725 64 546 -960
2022-05-19 22:49:57 GMT 49.238255 4.861089 24,750 64 546 -960
2022-05-19 22:49:55 GMT 49.237106 4.857225 24,775 64 546 -960
2022-05-19 22:49:53 GMT 49.235786 4.853066 24,825 64 546 -960
2022-05-19 22:49:51 GMT 49.233994 4.847083 24,825 64 546 -960
2022-05-19 22:49:50 GMT 49.232903 4.843597 24,850 64 546 -960
2022-05-19 22:49:49 GMT 49.231411 4.838755 24,875 64 546 -960
2022-05-19 22:49:46 GMT 49.227127 4.824759 24,925 64 546 -960
2022-05-19 22:49:44 GMT 49.226074 4.821237 24,950 64 546 -960
2022-05-19 22:49:43 GMT 49.225082 4.818083 24,975 64 546 -960
2022-05-19 22:49:42 GMT 49.223080 4.811433 24,975 65 547 -960
2022-05-19 22:49:40 GMT 49.221863 4.807645 25,000 65 547 -896
2022-05-19 22:49:39 GMT 49.219635 4.800303 25,050 65 547 -896
2022-05-19 22:49:37 GMT 49.218796 4.797484 25,050 65 547 -896
2022-05-19 22:49:36 GMT 49.217587 4.793653 25,075 65 547 -960
2022-05-19 22:49:33 GMT 49.214096 4.782088 25,125 64 546 -960
2022-05-19 22:49:32 GMT 49.212891 4.778278 25,150 64 546 -960
2022-05-19 22:49:31 GMT 49.211952 4.775150 25,150 64 546 -960
2022-05-19 22:49:29 GMT 49.209137 4.766024 25,200 64 546 -960
2022-05-19 22:49:27 GMT 49.207996 4.762212 25,225 64 546 -960
2022-05-19 22:49:26 GMT 49.206482 4.757291 25,225 64 546 -1024
2022-05-19 22:49:25 GMT 49.204330 4.750319 25,275 64 547 -1024
2022-05-19 22:49:22 GMT 49.202087 4.742995 25,300 64 547 -1024
2022-05-19 22:49:20 GMT 49.200455 4.737782 25,325 64 547 -1024
2022-05-19 22:49:19 GMT 49.199154 4.733590 25,350 64 547 -1024
2022-05-19 22:49:17 GMT 49.196918 4.726289 25,375 64 547 0
2022-05-19 22:49:16 GMT 49.195953 4.723135 25,400 64 547 -1024
2022-05-19 22:49:15 GMT 49.194122 4.717219 25,425 64 548 -1024
2022-05-19 22:49:13 GMT 49.192493 4.711978 25,450 64 548 -1024
2022-05-19 22:49:11 GMT 49.190445 4.705329 25,475 64 548 -1024
2022-05-19 22:49:10 GMT 49.189377 4.701859 25,500 64 549 -1024
2022-05-19 22:49:09 GMT 49.187210 4.694824 25,525 64 549 -960
2022-05-19 22:49:07 GMT 49.186256 4.691668 25,550 64 549 -960
2022-05-19 22:49:05 GMT 49.183975 4.684296 25,575 64 550 -960
2022-05-19 22:49:04 GMT 49.182999 4.681162 25,600 64 550 -960
2022-05-19 22:49:03 GMT 49.182018 4.678007 25,625 64 550 -960
2022-05-19 22:49:01 GMT 49.179741 4.670635 25,650 64 551 -896
2022-05-19 22:49:00 GMT 49.178669 4.667093 25,650 64 551 -896
2022-05-19 22:48:59 GMT 49.177597 4.663624 25,700 64 551 -896
2022-05-19 22:48:57 GMT 49.175217 4.655879 25,725 64 551 -960
2022-05-19 22:48:56 GMT 49.174438 4.653414 25,725 64 551 -960
2022-05-19 22:48:55 GMT 49.173035 4.648807 25,750 64 551 -960
2022-05-19 22:48:54 GMT 49.171829 4.644963 25,775 64 551 -960
2022-05-19 22:48:52 GMT 49.169769 4.638273 25,800 64 551 -960
2022-05-19 22:48:51 GMT 49.168716 4.634752 25,825 64 551 -960
2022-05-19 22:48:49 GMT 49.166752 4.628424 25,850 64 551 -960
2022-05-19 22:48:48 GMT 49.165215 4.623509 25,875 64 551 -960
2022-05-19 22:48:47 GMT 49.164688 4.621723 25,875 64 550 -960
2022-05-19 22:48:45 GMT 49.162399 4.614399 25,900 64 550 -960
2022-05-19 22:48:44 GMT 49.161446 4.611222 25,925 64 550 -896
2022-05-19 22:48:42 GMT 49.158932 4.603199 25,950 64 549 -832
2022-05-19 22:48:41 GMT 49.157959 4.600032 25,975 64 549 -768
2022-05-19 22:48:40 GMT 49.155903 4.593369 25,975 64 549 -640
2022-05-19 22:48:38 GMT 49.154846 4.589891 26,000 64 549 -448
2022-05-19 22:48:36 GMT 49.152367 4.581805 26,000 64 548 -128
2022-05-19 22:48:35 GMT 49.151157 4.577974 26,000 64 548 -64
2022-05-19 22:48:34 GMT 49.149124 4.571298 26,000 64 548 0
2022-05-19 22:48:32 GMT 49.147896 4.567494 26,000 64 548 0
2022-05-19 22:48:31 GMT 49.146732 4.563663 26,000 64 549 0
2022-05-19 22:48:30 GMT 49.145847 4.560844 26,000 64 549 0
2022-05-19 22:48:28 GMT 49.143494 4.553129 26,000 64 549 0
2022-05-19 22:48:27 GMT 49.142395 4.549678 26,000 64 549 0
2022-05-19 22:48:25 GMT 49.140244 4.542635 26,000 64 549 0
2022-05-19 22:48:23 GMT 49.138493 4.537064 26,000 64 549 0
2022-05-19 22:48:22 GMT 49.137314 4.533198 26,000 64 549 0
2022-05-19 22:48:20 GMT 49.135887 4.528680 26,000 64 549 0
2022-05-19 22:48:18 GMT 49.133186 4.519934 26,000 64 549 0
2022-05-19 22:48:15 GMT 49.130253 4.510466 26,000 64 549 0
2022-05-19 22:48:14 GMT 49.128662 4.505240 26,000 64 549 0
2022-05-19 22:48:12 GMT 49.126904 4.499696 26,000 64 549 0
2022-05-19 22:48:11 GMT 49.124542 4.492000 26,000 64 549 0
2022-05-19 22:48:08 GMT 49.121269 4.481482 26,000 64 549 0
2022-05-19 22:48:06 GMT 49.120152 4.478013 26,000 64 549 0
2022-05-19 22:48:05 GMT 49.119083 4.474471 26,000 64 549 0
2022-05-19 22:48:04 GMT 49.117031 4.467894 26,000 64 549 0
2022-05-19 22:48:01 GMT 49.114746 4.460520 26,000 64 549 0
2022-05-19 22:47:59 GMT 49.112228 4.452491 26,000 64 549 -64
2022-05-19 22:47:57 GMT 49.110844 4.447945 26,000 64 549 -64
2022-05-19 22:47:56 GMT 49.109848 4.444815 26,000 64 549 -64
2022-05-19 22:47:55 GMT 49.107559 4.437420 26,000 64 549 -64
2022-05-19 22:47:53 GMT 49.106560 4.434284 26,000 64 549 -64
2022-05-19 22:47:52 GMT 49.105591 4.431152 26,000 64 549 -64
2022-05-19 22:47:50 GMT 49.103207 4.423515 26,000 64 549 -64
2022-05-19 22:47:49 GMT 49.102020 4.419673 26,000 64 549 0
2022-05-19 22:47:47 GMT 49.098221 4.407419 26,000 64 549 64
2022-05-19 22:47:45 GMT 49.096985 4.403616 26,000 64 548 64
2022-05-19 22:47:44 GMT 49.095932 4.400095 26,000 64 548 64
2022-05-19 22:47:42 GMT 49.093849 4.393447 26,000 64 548 192
2022-05-19 22:47:40 GMT 49.092316 4.388545 26,000 64 548 256
2022-05-19 22:47:38 GMT 49.089706 4.380220 26,000 64 549 192
2022-05-19 22:47:36 GMT 49.087646 4.373545 25,975 64 549 128
2022-05-19 22:47:35 GMT 49.086044 4.368333 25,975 64 549 64
2022-05-19 22:47:33 GMT 49.084633 4.363813 26,000 64 549 -64
2022-05-19 22:47:31 GMT 49.082119 4.355790 26,000 64 549 -192
2022-05-19 22:47:30 GMT 49.081146 4.352628 26,000 64 549 -192
2022-05-19 22:47:29 GMT 49.080048 4.349107 26,000 64 549 -128
2022-05-19 22:47:27 GMT 49.078171 4.343191 26,000 64 549 -64
2022-05-19 22:47:25 GMT 49.075554 4.334829 26,000 64 549 0
2022-05-19 22:47:23 GMT 49.072437 4.324710 26,000 64 548 0
2022-05-19 22:47:22 GMT 49.072437 4.324710 26,000 64 548 0
2022-05-19 22:47:20 GMT 49.070343 4.318120 26,000 64 548 0
2022-05-19 22:47:18 GMT 49.067966 4.310471 26,000 64 548 0
2022-05-19 22:47:16 GMT 49.066196 4.304906 26,000 64 547 0
2022-05-19 22:47:14 GMT 49.063843 4.297204 26,000 64 547 0
2022-05-19 22:47:13 GMT 49.062973 4.294457 26,000 64 547 0
2022-05-19 22:47:11 GMT 49.060658 4.287125 26,000 64 547 0
2022-05-19 22:47:10 GMT 49.059357 4.282978 26,000 64 547 0
2022-05-19 22:47:09 GMT 49.058304 4.279457 26,000 64 547 0
2022-05-19 22:47:07 GMT 49.056095 4.272525 26,000 64 547 0
2022-05-19 22:47:06 GMT 49.055027 4.268984 26,000 64 547 0
2022-05-19 22:47:05 GMT 49.052837 4.262045 26,000 64 547 0
2022-05-19 22:47:03 GMT 49.051998 4.259298 26,000 64 547 0
2022-05-19 22:47:02 GMT 49.049377 4.250934 26,000 64 548 0
2022-05-19 22:47:00 GMT 49.048279 4.247413 26,000 64 548 0
2022-05-19 22:46:59 GMT 49.047207 4.243975 26,000 64 548 0
2022-05-19 22:46:58 GMT 49.045017 4.237036 26,000 64 548 0
2022-05-19 22:46:54 GMT 49.041618 4.226267 26,000 64 548 0
2022-05-19 22:46:52 GMT 49.039673 4.220018 26,000 64 547 0
2022-05-19 22:46:50 GMT 49.037617 4.213401 26,000 64 547 -64
2022-05-19 22:46:49 GMT 49.036404 4.209571 26,000 64 547 -64
2022-05-19 22:46:47 GMT 49.034451 4.203282 26,000 64 547 -64
2022-05-19 22:46:45 GMT 49.031570 4.194312 26,000 64 547 -64
2022-05-19 22:46:44 GMT 49.030518 4.190791 26,000 64 547 0
2022-05-19 22:46:43 GMT 49.029842 4.188754 26,000 64 547 0
2022-05-19 22:46:42 GMT 49.027653 4.181816 26,000 64 547 0
2022-05-19 22:46:40 GMT 49.026352 4.177622 26,000 64 547 0
2022-05-19 22:46:39 GMT 49.023285 4.167903 26,000 64 547 0
2022-05-19 22:46:37 GMT 49.023285 4.167903 26,000 64 547 0
2022-05-19 22:46:35 GMT 49.021088 4.160927 26,000 64 547 0
2022-05-19 22:46:33 GMT 49.018482 4.152615 26,000 64 547 0
2022-05-19 22:46:32 GMT 49.017693 4.150230 26,000 64 547 0
2022-05-19 22:46:31 GMT 49.014431 4.139822 26,000 64 547 0
2022-05-19 22:46:29 GMT 49.014431 4.139822 26,000 64 547 0
2022-05-19 22:46:27 GMT 49.012253 4.132831 26,000 64 547 0
2022-05-19 22:46:26 GMT 49.011154 4.129380 26,000 64 547 0
2022-05-19 22:46:24 GMT 49.009048 4.122760 26,000 64 547 -64
2022-05-19 22:46:22 GMT 49.006577 4.114802 26,000 64 547 -64
2022-05-19 22:46:20 GMT 49.004379 4.107830 26,000 64 547 -64
2022-05-19 22:46:18 GMT 49.002281 4.101225 26,000 64 548 -64
2022-05-19 22:46:16 GMT 49.000305 4.095013 26,000 64 548 0
2022-05-19 22:46:15 GMT 48.999207 4.091562 26,000 64 548 0
2022-05-19 22:46:13 GMT 48.996918 4.084308 26,000 64 548 0
2022-05-19 22:46:12 GMT 48.995670 4.080481 26,000 64 548 0
2022-05-19 22:46:11 GMT 48.994720 4.077336 26,025 64 548 0
2022-05-19 22:46:09 GMT 48.992271 4.069712 26,000 64 548 128
2022-05-19 22:46:08 GMT 48.991390 4.066965 26,000 64 548 192
2022-05-19 22:46:07 GMT 48.990318 4.063496 26,000 64 548 192
2022-05-19 22:46:06 GMT 48.987106 4.053449 26,000 64 548 64
2022-05-19 22:46:04 GMT 48.987106 4.053449 26,000 64 548 64
2022-05-19 22:46:02 GMT 48.985058 4.046872 26,000 64 548 0
2022-05-19 22:46:01 GMT 48.983826 4.043039 26,000 64 548 0
2022-05-19 22:46:00 GMT 48.982170 4.037837 26,000 64 548 0
2022-05-19 22:45:58 GMT 48.980541 4.032633 26,000 64 548 0
2022-05-19 22:45:57 GMT 48.978310 4.025694 26,000 64 548 0
2022-05-19 22:45:55 GMT 48.977097 4.021863 26,000 64 548 0
2022-05-19 22:45:54 GMT 48.976135 4.018813 26,000 64 548 0
2022-05-19 22:45:52 GMT 48.974026 4.012178 26,000 64 548 0
2022-05-19 22:45:51 GMT 48.972839 4.008390 26,000 64 548 0
2022-05-19 22:45:50 GMT 48.970505 4.001136 26,000 64 548 0
2022-05-19 22:45:48 GMT 48.969555 3.998012 26,000 64 548 0
2022-05-19 22:45:47 GMT 48.967346 3.991065 26,000 64 548 64
2022-05-19 22:45:44 GMT 48.964279 3.981347 26,000 64 547 64
2022-05-19 22:45:42 GMT 48.962944 3.977195 26,000 64 547 64
2022-05-19 22:45:41 GMT 48.962063 3.974449 26,000 64 547 64
2022-05-19 22:45:40 GMT 48.959564 3.966487 26,000 64 547 64
2022-05-19 22:45:38 GMT 48.958328 3.962684 26,000 64 547 64
2022-05-19 22:45:36 GMT 48.956177 3.955712 25,975 64 547 64
2022-05-19 22:45:35 GMT 48.953541 3.947417 25,975 64 548 64
2022-05-19 22:45:33 GMT 48.953541 3.947417 25,975 64 548 -64
2022-05-19 22:45:31 GMT 48.951462 3.940852 25,975 64 548 -128
2022-05-19 22:45:30 GMT 48.950237 3.937009 26,000 64 548 -192
2022-05-19 22:45:28 GMT 48.947491 3.928335 26,000 64 548 -128
2022-05-19 22:45:27 GMT 48.946514 3.925227 26,000 64 548 -64
2022-05-19 22:45:26 GMT 48.945862 3.923131 26,000 64 548 -64
2022-05-19 22:45:24 GMT 48.943626 3.916265 26,000 64 548 -64
2022-05-19 22:45:23 GMT 48.942307 3.912119 26,000 64 548 -64
2022-05-19 22:45:21 GMT 48.940109 3.905147 26,000 64 547 -64
2022-05-19 22:45:20 GMT 48.939156 3.902026 26,000 64 548 -64
2022-05-19 22:45:19 GMT 48.936951 3.895146 26,000 64 547 0
2022-05-19 22:45:17 GMT 48.935944 3.891979 26,000 64 548 0
2022-05-19 22:45:16 GMT 48.933662 3.884751 26,000 64 548 0
2022-05-19 22:45:14 GMT 48.932236 3.880287 26,000 64 548 64
2022-05-19 22:45:13 GMT 48.931244 3.877162 26,000 64 548 0
2022-05-19 22:45:11 GMT 48.928802 3.869512 26,000 64 548 0
2022-05-19 22:45:10 GMT 48.927704 3.866061 26,000 64 548 0
2022-05-19 22:45:08 GMT 48.925369 3.858807 26,000 64 548 0
2022-05-19 22:45:07 GMT 48.923283 3.852226 26,000 64 548 -64
2022-05-19 22:45:05 GMT 48.921982 3.848032 26,000 64 548 -64
2022-05-19 22:45:04 GMT 48.920116 3.842179 26,000 64 548 0
2022-05-19 22:45:02 GMT 48.918869 3.838384 26,000 64 548 -64
2022-05-19 22:45:01 GMT 48.916580 3.831130 26,000 64 548 0
2022-05-19 22:44:58 GMT 48.914246 3.823806 26,000 64 548 0
2022-05-19 22:44:56 GMT 48.912155 3.817243 26,000 64 548 64
2022-05-19 22:44:54 GMT 48.910080 3.810707 26,000 64 548 0
2022-05-19 22:44:51 GMT 48.905548 3.796499 26,000 64 548 0
2022-05-19 22:44:49 GMT 48.904541 3.793382 26,000 64 548 -64
2022-05-19 22:44:48 GMT 48.903545 3.790211 26,000 64 548 -64
2022-05-19 22:44:47 GMT 48.902008 3.785368 26,000 64 548 -64
2022-05-19 22:44:46 GMT 48.900146 3.779514 26,000 64 548 -64
2022-05-19 22:44:44 GMT 48.899029 3.776044 26,000 64 548 -64
2022-05-19 22:44:42 GMT 48.896576 3.768451 26,000 64 548 64
2022-05-19 22:44:41 GMT 48.895584 3.765275 26,000 64 549 128
2022-05-19 22:44:40 GMT 48.894466 3.761805 26,000 64 549 64
2022-05-19 22:44:38 GMT 48.892139 3.754578 26,000 64 549 0
2022-05-19 22:44:36 GMT 48.888931 3.744507 26,000 64 549 -64
2022-05-19 22:44:34 GMT 48.887741 3.740704 26,000 64 549 0
2022-05-19 22:44:33 GMT 48.886738 3.737592 26,000 64 549 0
2022-05-19 22:44:32 GMT 48.885498 3.733802 26,000 64 549 0
2022-05-19 22:44:30 GMT 48.883293 3.726895 26,000 64 549 0
2022-05-19 22:44:29 GMT 48.882294 3.723731 26,000 64 549 0
2022-05-19 22:44:27 GMT 48.879990 3.716487 26,000 64 549 0
2022-05-19 22:44:26 GMT 48.878860 3.713027 26,000 64 549 0
2022-05-19 22:44:24 GMT 48.876732 3.706440 26,000 64 549 0
2022-05-19 22:44:23 GMT 48.875519 3.702609 26,000 64 549 0
2022-05-19 22:44:22 GMT 48.872772 3.694012 26,000 64 549 0
2022-05-19 22:44:20 GMT 48.872772 3.694012 26,000 64 549 0
2022-05-19 22:44:18 GMT 48.870438 3.686688 26,000 64 549 0
2022-05-19 22:44:17 GMT 48.869423 3.683600 26,000 64 549 0
2022-05-19 22:44:16 GMT 48.868469 3.680490 26,000 64 549 0
2022-05-19 22:44:13 GMT 48.865326 3.670807 26,000 64 549 0
2022-05-19 22:44:12 GMT 48.864254 3.667338 26,000 64 549 0
2022-05-19 22:44:11 GMT 48.862015 3.660419 26,000 64 549 0
2022-05-19 22:44:09 GMT 48.860577 3.655918 26,000 64 549 0
2022-05-19 22:44:07 GMT 48.858341 3.648979 26,000 64 549 0
2022-05-19 22:44:06 GMT 48.857132 3.645220 26,000 64 549 0
2022-05-19 22:44:05 GMT 48.855129 3.639004 26,000 64 549 0
2022-05-19 22:44:03 GMT 48.854012 3.635535 26,000 64 549 0
2022-05-19 22:44:02 GMT 48.852898 3.632066 26,000 64 549 0
2022-05-19 22:44:01 GMT 48.849499 3.621368 26,000 64 549 0
2022-05-19 22:43:59 GMT 48.849499 3.621368 26,000 64 549 0
2022-05-19 22:43:58 GMT 48.848240 3.617538 26,000 64 549 0
2022-05-19 22:43:57 GMT 48.846130 3.610981 26,000 64 549 0
2022-05-19 22:43:54 GMT 48.844051 3.604455 26,000 64 548 0
2022-05-19 22:43:52 GMT 48.841911 3.597878 26,000 64 548 0
2022-05-19 22:43:51 GMT 48.840374 3.593035 26,000 63 548 0
2022-05-19 22:43:50 GMT 48.838047 3.585807 26,000 63 548 0
2022-05-19 22:43:48 GMT 48.836929 3.582338 26,000 63 548 -64
2022-05-19 22:43:47 GMT 48.835831 3.578867 26,000 63 548 0
2022-05-19 22:43:46 GMT 48.833717 3.572364 26,000 63 548 0
2022-05-19 22:43:44 GMT 48.832581 3.568866 26,000 63 548 0
2022-05-19 22:43:43 GMT 48.830460 3.562317 26,000 63 548 0
2022-05-19 22:43:41 GMT 48.829388 3.558848 26,000 63 548 0
2022-05-19 22:43:40 GMT 48.828049 3.554711 26,000 63 548 0
2022-05-19 22:43:39 GMT 48.824684 3.544392 26,000 63 548 0
2022-05-19 22:43:37 GMT 48.824684 3.544392 26,000 63 548 0
2022-05-19 22:43:35 GMT 48.821594 3.534710 26,000 63 548 0
2022-05-19 22:43:33 GMT 48.820450 3.531330 26,000 63 548 0
2022-05-19 22:43:32 GMT 48.818123 3.524082 26,000 63 548 0
2022-05-19 22:43:30 GMT 48.817142 3.520974 26,000 63 548 0
2022-05-19 22:43:28 GMT 48.812485 3.506470 26,000 63 548 0
2022-05-19 22:43:26 GMT 48.812485 3.506470 26,000 63 548 0
2022-05-19 22:43:24 GMT 48.810471 3.500272 26,000 63 548 0
2022-05-19 22:43:22 GMT 48.808136 3.493089 26,000 63 547 0
2022-05-19 22:43:20 GMT 48.806019 3.486497 26,000 63 547 0
2022-05-19 22:43:19 GMT 48.804794 3.482736 26,000 63 547 0
2022-05-19 22:43:18 GMT 48.802689 3.476187 26,000 63 547 0
2022-05-19 22:43:15 GMT 48.799362 3.465825 26,000 63 547 0
2022-05-19 22:43:12 GMT 48.795544 3.454116 26,000 63 548 0
2022-05-19 22:43:09 GMT 48.792206 3.443862 26,000 63 548 -64
2022-05-19 22:43:06 GMT 48.790283 3.437946 26,000 63 548 -64
2022-05-19 22:43:04 GMT 48.787956 3.430770 26,000 63 548 -64
2022-05-19 22:43:03 GMT 48.786839 3.427301 26,000 63 548 -64
2022-05-19 22:43:01 GMT 48.784512 3.420073 26,000 63 548 -64
2022-05-19 22:43:00 GMT 48.783394 3.416676 26,000 63 548 -64
2022-05-19 22:42:58 GMT 48.781017 3.409448 26,000 63 548 0
2022-05-19 22:42:57 GMT 48.780136 3.406701 26,000 63 548 0
2022-05-19 22:42:56 GMT 48.777924 3.399776 26,000 63 548 0
2022-05-19 22:42:54 GMT 48.776691 3.396004 26,025 63 547 0
2022-05-19 22:42:53 GMT 48.773197 3.385379 26,000 63 547 64
2022-05-19 22:42:51 GMT 48.773197 3.385379 26,000 63 547 64
2022-05-19 22:42:50 GMT 48.772312 3.382633 26,000 63 547 128
2022-05-19 22:42:49 GMT 48.770187 3.376113 26,000 63 547 128
2022-05-19 22:42:47 GMT 48.767704 3.368538 26,000 63 548 64
2022-05-19 22:42:45 GMT 48.766479 3.364774 26,000 63 548 0
2022-05-19 22:42:44 GMT 48.765472 3.361672 26,000 63 548 0
2022-05-19 22:42:42 GMT 48.763000 3.354140 26,000 63 548 0
2022-05-19 22:42:41 GMT 48.762028 3.351047 26,000 63 548 0
2022-05-19 22:42:40 GMT 48.759651 3.343819 26,000 63 548 0
2022-05-19 22:42:38 GMT 48.758533 3.340350 26,000 63 547 64
2022-05-19 22:42:37 GMT 48.756546 3.334210 26,000 63 547 64
2022-05-19 22:42:35 GMT 48.755322 3.330448 26,000 63 547 64
2022-05-19 22:42:34 GMT 48.753204 3.323857 26,000 63 547 64
2022-05-19 22:42:32 GMT 48.751968 3.320125 26,000 63 547 128
2022-05-19 22:42:31 GMT 48.750759 3.316353 26,000 63 547 128
2022-05-19 22:42:29 GMT 48.749084 3.311149 26,000 63 547 128
2022-05-19 22:42:27 GMT 48.746384 3.302909 25,975 63 547 128
2022-05-19 22:42:26 GMT 48.745266 3.299512 25,975 63 548 0
2022-05-19 22:42:25 GMT 48.743958 3.295405 26,000 63 548 -64
2022-05-19 22:42:23 GMT 48.741821 3.288887 26,000 63 547 -192
2022-05-19 22:42:21 GMT 48.738693 3.279278 26,000 63 547 -192
2022-05-19 22:42:19 GMT 48.737679 3.276166 26,000 63 547 -64
2022-05-19 22:42:18 GMT 48.736588 3.272729 26,000 63 547 0
2022-05-19 22:42:17 GMT 48.734344 3.265897 26,000 63 547 0
2022-05-19 22:42:15 GMT 48.732883 3.261422 26,000 63 547 0
2022-05-19 22:42:13 GMT 48.730556 3.254194 26,000 63 547 0
2022-05-19 22:42:11 GMT 48.728668 3.248432 26,000 63 547 0
2022-05-19 22:42:09 GMT 48.726288 3.241178 26,000 63 546 0
2022-05-19 22:42:07 GMT 48.724178 3.234679 26,000 63 546 0
2022-05-19 22:42:05 GMT 48.721939 3.227868 26,000 63 546 0
2022-05-19 22:42:04 GMT 48.720921 3.224776 26,000 63 546 0
2022-05-19 22:42:02 GMT 48.718460 3.217234 26,000 63 546 0
2022-05-19 22:42:00 GMT 48.716358 3.210754 26,000 63 546 0
2022-05-19 22:41:58 GMT 48.713882 3.203219 26,000 63 546 0
2022-05-19 22:41:56 GMT 48.711868 3.197021 26,000 63 546 0
2022-05-19 22:41:54 GMT 48.709423 3.189505 26,000 63 546 0
2022-05-19 22:41:51 GMT 48.706512 3.180612 26,000 63 546 0
2022-05-19 22:41:49 GMT 48.704498 3.174485 26,000 63 546 0
2022-05-19 22:41:48 GMT 48.703232 3.170712 26,000 63 546 0
2022-05-19 22:41:47 GMT 48.699463 3.159062 26,000 63 546 0
2022-05-19 22:41:45 GMT 48.699463 3.159062 26,000 63 546 0
2022-05-19 22:41:44 GMT 48.698318 3.155682 26,000 63 546 0
2022-05-19 22:41:41 GMT 48.695175 3.146137 26,000 63 546 0
2022-05-19 22:41:39 GMT 48.691818 3.135822 26,000 63 546 0
2022-05-19 22:41:38 GMT 48.691818 3.135822 26,000 63 546 0
2022-05-19 22:41:37 GMT 48.690720 3.132442 26,000 63 546 0
2022-05-19 22:41:35 GMT 48.688019 3.124202 26,000 63 546 0
2022-05-19 22:41:33 GMT 48.686783 3.120469 26,000 63 546 0
2022-05-19 22:41:32 GMT 48.685123 3.115347 26,000 63 546 0
2022-05-19 22:41:31 GMT 48.683865 3.111588 26,000 63 546 0
2022-05-19 22:41:29 GMT 48.682281 3.106818 26,000 63 546 0
2022-05-19 22:41:28 GMT 48.680191 3.100328 26,000 63 546 0
2022-05-19 22:41:26 GMT 48.679047 3.096877 26,000 63 546 0
2022-05-19 22:41:24 GMT 48.675568 3.086313 26,000 63 546 0
2022-05-19 22:41:22 GMT 48.673763 3.080870 26,000 63 546 0
2022-05-19 22:41:21 GMT 48.672775 3.077792 26,000 63 546 0
2022-05-19 22:41:19 GMT 48.671062 3.072630 26,000 63 546 -64
2022-05-19 22:41:18 GMT 48.668827 3.065836 26,000 63 546 -64
2022-05-19 22:41:16 GMT 48.667694 3.062439 26,000 63 547 -64
2022-05-19 22:41:15 GMT 48.666126 3.057669 26,000 63 546 -64
2022-05-19 22:41:13 GMT 48.663895 3.050802 26,000 63 546 -64
2022-05-19 22:41:11 GMT 48.660965 3.041945 26,000 63 546 -64
2022-05-19 22:41:10 GMT 48.657562 3.031721 26,000 63 546 0
2022-05-19 22:41:08 GMT 48.657562 3.031721 26,000 63 546 0
2022-05-19 22:41:06 GMT 48.655979 3.026950 26,000 63 547 64
2022-05-19 22:41:04 GMT 48.654739 3.023142 26,000 63 547 64
2022-05-19 22:41:02 GMT 48.651836 3.014302 26,000 63 546 192
2022-05-19 22:41:01 GMT 48.650803 3.011240 26,000 63 546 192
2022-05-19 22:41:00 GMT 48.649696 3.007796 26,000 63 546 256
2022-05-19 22:40:59 GMT 48.648010 3.002648 26,000 63 546 256
2022-05-19 22:40:57 GMT 48.644531 2.992084 26,000 63 546 128
2022-05-19 22:40:54 GMT 48.642288 2.985253 25,975 63 546 64
2022-05-19 22:40:53 GMT 48.641510 2.982859 25,975 63 546 64
2022-05-19 22:40:52 GMT 48.640244 2.979102 25,975 63 547 -64
2022-05-19 22:40:51 GMT 48.637756 2.971590 26,000 63 547 -192
2022-05-19 22:40:48 GMT 48.634518 2.961683 26,000 63 547 -128
2022-05-19 22:40:46 GMT 48.633179 2.957576 26,000 63 547 -64
2022-05-19 22:40:44 GMT 48.630890 2.950745 26,000 63 546 0
2022-05-19 22:40:42 GMT 48.629120 2.945276 26,000 63 546 0
2022-05-19 22:40:41 GMT 48.628098 2.942223 26,000 63 546 0
2022-05-19 22:40:39 GMT 48.625488 2.934406 26,000 63 546 0
2022-05-19 22:40:38 GMT 48.624344 2.930955 26,000 63 546 0
2022-05-19 22:40:36 GMT 48.622101 2.924124 26,000 63 546 0
2022-05-19 22:40:35 GMT 48.620972 2.920701 26,000 63 546 0
2022-05-19 22:40:33 GMT 48.618851 2.914264 26,000 63 546 0
2022-05-19 22:40:32 GMT 48.617569 2.910532 26,000 63 546 0
2022-05-19 22:40:30 GMT 48.615200 2.903354 26,000 63 546 0
2022-05-19 22:40:29 GMT 48.613998 2.899616 26,000 63 546 0
2022-05-19 22:40:28 GMT 48.612873 2.896198 26,000 63 546 0
2022-05-19 22:40:27 GMT 48.609798 2.887019 26,000 63 546 0
2022-05-19 22:40:25 GMT 48.609798 2.887019 26,000 63 546 0
2022-05-19 22:40:24 GMT 48.607681 2.880531 26,000 63 546 0
2022-05-19 22:40:22 GMT 48.606403 2.876756 26,000 63 546 0
2022-05-19 22:40:21 GMT 48.605164 2.872995 26,000 63 546 0
2022-05-19 22:40:20 GMT 48.602909 2.866203 26,000 63 546 0
2022-05-19 22:40:18 GMT 48.601791 2.862806 26,000 63 546 0
2022-05-19 22:40:17 GMT 48.599651 2.856301 26,000 63 546 0
2022-05-19 22:40:15 GMT 48.598434 2.852572 26,000 63 546 0
2022-05-19 22:40:14 GMT 48.596161 2.845748 26,000 63 546 0
2022-05-19 22:40:11 GMT 48.594112 2.839604 26,000 63 546 0
2022-05-19 22:40:10 GMT 48.592995 2.836207 26,000 63 546 0
2022-05-19 22:40:09 GMT 48.591843 2.832782 26,000 63 546 0
2022-05-19 22:40:08 GMT 48.589600 2.826022 26,000 63 546 0
2022-05-19 22:40:06 GMT 48.588455 2.822571 26,000 63 546 0
2022-05-19 22:40:04 GMT 48.586197 2.815825 26,000 63 546 0
2022-05-19 22:40:03 GMT 48.585205 2.812711 26,000 63 546 0
2022-05-19 22:40:02 GMT 48.582047 2.803204 26,000 63 546 0
2022-05-19 22:39:59 GMT 48.580891 2.799779 26,000 63 546 0
2022-05-19 22:39:58 GMT 48.576828 2.787569 26,000 63 546 0
2022-05-19 22:39:56 GMT 48.576828 2.787569 26,000 63 546 0
2022-05-19 22:39:55 GMT 48.574539 2.780738 26,000 63 546 0
2022-05-19 22:39:53 GMT 48.573441 2.777358 26,000 63 546 0
2022-05-19 22:39:51 GMT 48.571289 2.770879 26,000 63 546 0
2022-05-19 22:39:50 GMT 48.570145 2.767498 26,000 63 546 0
2022-05-19 22:39:48 GMT 48.567764 2.760315 26,000 63 546 0
2022-05-19 22:39:47 GMT 48.566738 2.757279 26,000 63 546 0
2022-05-19 22:39:46 GMT 48.565388 2.753159 26,000 63 546 64
2022-05-19 22:39:43 GMT 48.562454 2.744328 26,000 63 546 64
2022-05-19 22:39:41 GMT 48.560440 2.738201 26,000 63 546 0
2022-05-19 22:39:40 GMT 48.556458 2.726300 26,000 63 546 0
2022-05-19 22:39:38 GMT 48.556458 2.726300 26,000 63 546 0
2022-05-19 22:39:37 GMT 48.555428 2.723236 26,000 63 546 0
2022-05-19 22:39:36 GMT 48.553288 2.716731 26,000 63 546 0
2022-05-19 22:39:34 GMT 48.552246 2.713693 26,000 63 546 0
2022-05-19 22:39:33 GMT 48.549515 2.705528 26,000 63 547 0
2022-05-19 22:39:31 GMT 48.548630 2.702781 26,000 63 546 0
2022-05-19 22:39:29 GMT 48.546341 2.696017 26,000 63 547 0
2022-05-19 22:39:28 GMT 48.545326 2.692951 26,000 63 547 0
2022-05-19 22:39:27 GMT 48.543091 2.686157 26,000 63 547 0
2022-05-19 22:39:24 GMT 48.540668 2.679002 26,000 63 547 0
2022-05-19 22:39:23 GMT 48.537277 2.668833 26,000 63 547 0
2022-05-19 22:39:21 GMT 48.537277 2.668833 26,000 63 547 0
2022-05-19 22:39:19 GMT 48.534897 2.661655 26,000 63 547 64
2022-05-19 22:39:18 GMT 48.533752 2.658269 26,000 63 547 128
2022-05-19 22:39:16 GMT 48.531826 2.652475 26,000 63 547 192
2022-05-19 22:39:14 GMT 48.530148 2.647416 26,000 63 547 192
2022-05-19 22:39:13 GMT 48.526840 2.637493 26,000 63 547 64
2022-05-19 22:39:12 GMT 48.526840 2.637493 26,000 63 547 0
2022-05-19 22:39:11 GMT 48.525913 2.634840 26,000 63 547 -64
2022-05-19 22:39:09 GMT 48.523544 2.627634 26,000 63 547 -128
2022-05-19 22:39:07 GMT 48.520142 2.617493 26,000 63 546 0
2022-05-19 22:39:04 GMT 48.517868 2.610661 26,000 63 546 0
2022-05-19 22:39:02 GMT 48.515579 2.603901 26,000 63 546 0
2022-05-19 22:39:01 GMT 48.514343 2.600168 26,000 63 546 0
2022-05-19 22:38:59 GMT 48.512180 2.593713 26,000 63 546 0
2022-05-19 22:38:58 GMT 48.511250 2.590966 26,000 63 546 0
2022-05-19 22:38:57 GMT 48.507385 2.579463 26,000 63 546 0
2022-05-19 22:38:55 GMT 48.507385 2.579463 26,000 63 546 0
2022-05-19 22:38:53 GMT 48.505463 2.573688 26,000 63 546 0
2022-05-19 22:38:52 GMT 48.504318 2.570308 26,000 63 546 0
2022-05-19 22:38:51 GMT 48.500916 2.560104 26,000 63 547 0
2022-05-19 22:38:49 GMT 48.500916 2.560104 26,000 63 547 0
2022-05-19 22:38:47 GMT 48.499287 2.555333 26,000 63 547 0
2022-05-19 22:38:45 GMT 48.496910 2.548178 26,000 63 547 0
2022-05-19 22:38:44 GMT 48.495895 2.545166 26,000 63 547 0
2022-05-19 22:38:42 GMT 48.493141 2.536974 26,000 63 547 0
2022-05-19 22:38:41 GMT 48.492599 2.535306 26,000 63 547 0
2022-05-19 22:38:39 GMT 48.490311 2.528475 26,000 63 547 0
2022-05-19 22:38:37 GMT 48.488022 2.521724 26,000 63 547 0
2022-05-19 22:38:36 GMT 48.486328 2.516573 26,000 63 547 0
2022-05-19 22:38:34 GMT 48.483215 2.507418 26,000 63 547 0
2022-05-19 22:38:32 GMT 48.480377 2.498967 26,000 63 547 0
2022-05-19 22:38:30 GMT 48.479233 2.495516 26,000 63 547 0
2022-05-19 22:38:28 GMT 48.476940 2.488765 26,000 63 547 0
2022-05-19 22:38:27 GMT 48.475937 2.485727 26,000 63 547 0
2022-05-19 22:38:25 GMT 48.473309 2.477923 26,000 63 547 0
2022-05-19 22:38:23 GMT 48.471680 2.473121 26,000 63 547 0
2022-05-19 22:38:22 GMT 48.470657 2.470117 26,000 63 547 0
2022-05-19 22:38:21 GMT 48.467815 2.461588 26,000 63 547 0
2022-05-19 22:38:19 GMT 48.467239 2.459881 26,000 63 547 0
2022-05-19 22:38:18 GMT 48.466095 2.456501 26,000 63 547 0
2022-05-19 22:38:16 GMT 48.463257 2.448050 26,000 63 547 0
2022-05-19 22:38:15 GMT 48.462112 2.444599 26,000 63 547 0
2022-05-19 22:38:13 GMT 48.460041 2.438531 26,000 63 547 0
2022-05-19 22:38:12 GMT 48.458923 2.435134 26,000 63 547 0
2022-05-19 22:38:10 GMT 48.456757 2.428683 26,000 63 547 0
2022-05-19 22:38:09 GMT 48.455387 2.424581 26,000 63 547 0
2022-05-19 22:38:08 GMT 48.454456 2.421907 26,000 63 548 0
2022-05-19 22:38:07 GMT 48.451126 2.411992 26,000 63 548 0
2022-05-19 22:38:04 GMT 48.449890 2.408259 26,000 63 548 0
2022-05-19 22:38:03 GMT 48.448635 2.404560 26,000 63 548 0
2022-05-19 22:38:00 GMT 48.445175 2.394386 26,000 63 548 0
2022-05-19 22:37:57 GMT 48.440689 2.381146 26,000 63 548 0
2022-05-19 22:37:55 GMT 48.439697 2.378106 26,000 63 548 0
2022-05-19 22:37:54 GMT 48.438396 2.374348 26,000 63 548 0
2022-05-19 22:37:53 GMT 48.435883 2.366903 26,000 63 548 0
2022-05-19 22:37:50 GMT 48.433594 2.360089 26,000 63 548 0
2022-05-19 22:37:48 GMT 48.431213 2.352976 26,000 63 548 0
2022-05-19 22:37:47 GMT 48.427734 2.342764 26,000 63 548 0
2022-05-19 22:37:45 GMT 48.427734 2.342764 26,000 63 548 0
2022-05-19 22:37:43 GMT 48.425354 2.335651 26,000 63 548 0
2022-05-19 22:37:41 GMT 48.422009 2.325849 26,000 63 548 0
2022-05-19 22:37:39 GMT 48.419952 2.319735 26,000 63 548 0
2022-05-19 22:37:37 GMT 48.418468 2.315296 26,000 63 548 0
2022-05-19 22:37:35 GMT 48.416515 2.309514 26,000 63 548 0
2022-05-19 22:37:34 GMT 48.415352 2.306117 26,000 63 548 0
2022-05-19 22:37:32 GMT 48.412140 2.296649 26,000 63 548 0
2022-05-19 22:37:30 GMT 48.410416 2.291517 26,000 63 548 0
2022-05-19 22:37:29 GMT 48.409882 2.289875 26,000 63 548 0
2022-05-19 22:37:27 GMT 48.407345 2.282410 26,000 63 548 0
2022-05-19 22:37:26 GMT 48.406311 2.279311 26,000 63 548 0
2022-05-19 22:37:25 GMT 48.403526 2.271207 26,000 63 548 0
2022-05-19 22:37:22 GMT 48.400085 2.261000 26,000 63 548 0
2022-05-19 22:37:20 GMT 48.399059 2.257907 26,000 63 548 0
2022-05-19 22:37:19 GMT 48.398026 2.254873 26,000 63 548 0
2022-05-19 22:37:18 GMT 48.395599 2.247760 26,000 63 549 0
2022-05-19 22:37:16 GMT 48.394356 2.244030 26,000 63 549 0
2022-05-19 22:37:15 GMT 48.392403 2.238248 26,000 63 549 -64
2022-05-19 22:37:13 GMT 48.391113 2.234521 26,000 63 549 -64
2022-05-19 22:37:12 GMT 48.389969 2.231140 26,000 62 550 -64
2022-05-19 22:37:11 GMT 48.387794 2.224659 26,000 62 550 -64
2022-05-19 22:37:09 GMT 48.386169 2.219943 26,000 62 550 -128
2022-05-19 22:37:08 GMT 48.384064 2.213816 26,025 62 549 -128
2022-05-19 22:37:06 GMT 48.382812 2.210059 26,025 62 549 -64
2022-05-19 22:37:05 GMT 48.381638 2.206703 26,025 62 549 -64
2022-05-19 22:37:03 GMT 48.379459 2.200229 26,025 62 549 0
2022-05-19 22:37:02 GMT 48.377151 2.193463 26,025 62 549 0
2022-05-19 22:37:00 GMT 48.376007 2.190012 26,025 62 550 64
2022-05-19 22:36:59 GMT 48.374817 2.186631 26,025 62 550 0
2022-05-19 22:36:58 GMT 48.372524 2.179847 26,000 62 550 64
2022-05-19 22:36:56 GMT 48.371475 2.176772 26,000 62 550 128
2022-05-19 22:36:55 GMT 48.370331 2.173391 26,000 62 550 192
2022-05-19 22:36:53 GMT 48.367542 2.165246 26,000 62 550 128
2022-05-19 22:36:52 GMT 48.366989 2.163532 26,000 62 550 64
2022-05-19 22:36:50 GMT 48.364655 2.156790 26,000 62 550 64
2022-05-19 22:36:48 GMT 48.360840 2.145514 26,000 62 550 0
2022-05-19 22:36:46 GMT 48.359722 2.142117 26,000 62 550 0
2022-05-19 22:36:44 GMT 48.357285 2.135010 26,000 62 550 0
2022-05-19 22:36:43 GMT 48.356003 2.131277 26,000 62 550 0
2022-05-19 22:36:41 GMT 48.354401 2.126488 26,000 62 550 0
2022-05-19 22:36:39 GMT 48.352322 2.120361 26,000 62 550 0
2022-05-19 22:36:38 GMT 48.351154 2.116964 26,000 62 550 0
2022-05-19 22:36:37 GMT 48.348953 2.110572 26,000 62 550 0
2022-05-19 22:36:35 GMT 48.347572 2.106484 26,000 62 550 0
2022-05-19 22:36:34 GMT 48.345245 2.099690 26,000 62 549 0
2022-05-19 22:36:31 GMT 48.341766 2.089515 26,000 62 549 0
2022-05-19 22:36:29 GMT 48.341034 2.087473 26,000 62 549 0
2022-05-19 22:36:27 GMT 48.337795 2.078006 26,000 62 549 0
2022-05-19 22:36:25 GMT 48.335377 2.070851 26,000 62 549 0
2022-05-19 22:36:23 GMT 48.333046 2.064056 26,000 62 550 0
2022-05-19 22:36:22 GMT 48.332115 2.061382 26,000 62 550 0
2022-05-19 22:36:21 GMT 48.330486 2.056612 26,000 62 550 0
2022-05-19 22:36:19 GMT 48.328068 2.049528 26,000 62 550 0
2022-05-19 22:36:18 GMT 48.325134 2.041000 26,000 62 550 0
2022-05-19 22:36:16 GMT 48.325134 2.041000 26,000 62 550 0
2022-05-19 22:36:15 GMT 48.322861 2.034231 26,000 62 550 0
2022-05-19 22:36:13 GMT 48.321781 2.031170 26,000 62 550 0
2022-05-19 22:36:12 GMT 48.320618 2.027773 26,000 62 550 0
2022-05-19 22:36:10 GMT 48.318802 2.022352 26,000 62 549 0
2022-05-19 22:36:08 GMT 48.315868 2.013895 26,000 62 549 0
2022-05-19 22:36:06 GMT 48.313568 2.007118 26,000 62 549 0
2022-05-19 22:36:05 GMT 48.312286 2.003415 26,000 62 549 0
2022-05-19 22:36:04 GMT 48.311123 2.000018 26,000 62 549 0
2022-05-19 22:36:03 GMT 48.309036 1.993878 26,000 62 549 0
2022-05-19 22:36:01 GMT 48.307892 1.990497 26,000 62 549 0
2022-05-19 22:35:59 GMT 48.306141 1.985417 26,000 62 549 0
2022-05-19 22:35:58 GMT 48.304836 1.981731 26,000 62 550 0
2022-05-19 22:35:56 GMT 48.302399 1.974581 26,000 62 550 0
2022-05-19 22:35:55 GMT 48.301254 1.971201 26,000 62 550 0
2022-05-19 22:35:54 GMT 48.299057 1.964792 26,000 62 550 0
2022-05-19 22:35:52 GMT 48.297993 1.961710 26,000 62 550 0
2022-05-19 22:35:51 GMT 48.296585 1.957679 26,000 62 550 0
2022-05-19 22:35:49 GMT 48.294174 1.950507 26,000 62 550 0
2022-05-19 22:35:48 GMT 48.293106 1.947468 26,000 62 550 0
2022-05-19 22:35:46 GMT 48.290779 1.940749 26,000 62 549 0
2022-05-19 22:35:45 GMT 48.289616 1.937352 26,000 62 550 0
2022-05-19 22:35:44 GMT 48.287064 1.929861 26,000 62 550 0
2022-05-19 22:35:42 GMT 48.286377 1.927889 26,000 62 550 0
2022-05-19 22:35:41 GMT 48.284168 1.921451 26,000 62 550 0
2022-05-19 22:35:39 GMT 48.282864 1.917692 26,000 62 550 0
2022-05-19 22:35:37 GMT 48.280071 1.909597 26,000 62 550 0
2022-05-19 22:35:36 GMT 48.279373 1.907573 26,000 62 550 0
2022-05-19 22:35:35 GMT 48.277084 1.900776 26,000 62 550 0
2022-05-19 22:35:33 GMT 48.275299 1.895705 26,000 62 550 0
2022-05-19 22:35:32 GMT 48.274384 1.893029 26,000 62 550 0
2022-05-19 22:35:31 GMT 48.272156 1.886540 26,000 62 550 0
2022-05-19 22:35:28 GMT 48.268574 1.876060 26,000 62 550 0
2022-05-19 22:35:26 GMT 48.267288 1.872394 26,000 62 550 0
2022-05-19 22:35:24 GMT 48.264862 1.865281 26,000 62 550 0
2022-05-19 22:35:22 GMT 48.262615 1.858858 26,000 62 549 0
2022-05-19 22:35:21 GMT 48.261246 1.854788 26,000 62 549 0
2022-05-19 22:35:18 GMT 48.258331 1.846354 26,000 62 549 0
2022-05-19 22:35:17 GMT 48.255753 1.838942 26,000 62 549 0
2022-05-19 22:35:14 GMT 48.252232 1.828790 26,000 62 549 0
2022-05-19 22:35:12 GMT 48.251068 1.825393 26,000 62 549 0
2022-05-19 22:35:11 GMT 48.249573 1.820984 26,000 62 549 0
2022-05-19 22:35:09 GMT 48.247604 1.815279 26,000 62 549 0
2022-05-19 22:35:08 GMT 48.245956 1.810561 26,000 62 549 -64
2022-05-19 22:35:06 GMT 48.243526 1.803420 26,000 62 549 0
2022-05-19 22:35:05 GMT 48.242340 1.800068 26,000 62 549 0
2022-05-19 22:35:04 GMT 48.241150 1.796687 26,000 62 549 0
2022-05-19 22:35:02 GMT 48.240005 1.793307 26,000 62 549 0
2022-05-19 22:35:00 GMT 48.237663 1.786579 26,000 62 549 0
2022-05-19 22:34:59 GMT 48.236389 1.782884 26,000 62 549 0
2022-05-19 22:34:58 GMT 48.235195 1.779496 26,000 62 549 0
2022-05-19 22:34:56 GMT 48.232178 1.770700 26,000 62 549 0
2022-05-19 22:34:54 GMT 48.229614 1.763306 26,000 62 549 0
2022-05-19 22:34:52 GMT 48.227280 1.756511 26,000 62 549 0
2022-05-19 22:34:50 GMT 48.225723 1.752178 26,000 62 549 0
2022-05-19 22:34:49 GMT 48.224121 1.747460 26,000 62 549 0
2022-05-19 22:34:48 GMT 48.223045 1.744369 26,000 62 549 0
2022-05-19 22:34:46 GMT 48.220276 1.736262 26,000 62 549 0
2022-05-19 22:34:44 GMT 48.217804 1.729220 26,000 62 549 0
2022-05-19 22:34:42 GMT 48.215828 1.723480 26,000 62 549 0
2022-05-19 22:34:41 GMT 48.213455 1.716755 26,000 62 549 0
2022-05-19 22:34:39 GMT 48.212429 1.713723 26,000 62 549 64
2022-05-19 22:34:38 GMT 48.211266 1.710326 26,000 62 549 0
2022-05-19 22:34:37 GMT 48.210205 1.707247 26,000 62 549 0
2022-05-19 22:34:36 GMT 48.207733 1.700205 26,000 62 549 0
2022-05-19 22:34:34 GMT 48.206703 1.697171 26,000 62 549 0
2022-05-19 22:34:32 GMT 48.204239 1.690088 26,000 62 549 0
2022-05-19 22:34:31 GMT 48.203026 1.686690 26,000 62 549 0
2022-05-19 22:34:30 GMT 48.202011 1.683655 26,000 62 549 0
2022-05-19 22:34:28 GMT 48.199444 1.676282 26,000 62 549 0
2022-05-19 22:34:27 GMT 48.198463 1.673536 26,000 62 549 0
2022-05-19 22:34:25 GMT 48.194599 1.662405 26,000 62 550 0
2022-05-19 22:34:24 GMT 48.194599 1.662405 26,000 62 549 0
2022-05-19 22:34:23 GMT 48.191116 1.652316 26,000 62 549 0
2022-05-19 22:34:21 GMT 48.191116 1.652316 26,000 62 549 0
2022-05-19 22:34:20 GMT 48.190041 1.649323 26,000 62 549 0
2022-05-19 22:34:19 GMT 48.187851 1.642890 26,000 62 550 0
2022-05-19 22:34:17 GMT 48.186642 1.639493 26,000 62 550 0
2022-05-19 22:34:16 GMT 48.183243 1.629735 26,000 62 550 0
2022-05-19 22:34:14 GMT 48.183243 1.629735 26,000 62 549 0
2022-05-19 22:34:12 GMT 48.180679 1.622314 26,000 62 549 0
2022-05-19 22:34:10 GMT 48.178574 1.616258 26,000 62 549 0
2022-05-19 22:34:08 GMT 48.176102 1.609215 26,000 62 549 0
2022-05-19 22:34:06 GMT 48.172348 1.598438 26,000 62 549 0
2022-05-19 22:34:03 GMT 48.169884 1.591355 26,000 62 549 0
2022-05-19 22:34:01 GMT 48.167633 1.584989 26,000 62 549 0
2022-05-19 22:33:58 GMT 48.164948 1.577261 26,000 62 549 0
2022-05-19 22:33:57 GMT 48.161911 1.568510 26,000 62 549 0
2022-05-19 22:33:56 GMT 48.161911 1.568510 26,000 62 548 0
2022-05-19 22:33:55 GMT 48.159546 1.561749 26,000 62 548 64
2022-05-19 22:33:53 GMT 48.157917 1.557030 26,000 62 548 64
2022-05-19 22:33:52 GMT 48.157219 1.555058 26,000 62 548 64
2022-05-19 22:33:50 GMT 48.154751 1.547945 25,975 62 548 64
2022-05-19 22:33:48 GMT 48.153122 1.543297 25,975 62 548 128
2022-05-19 22:33:46 GMT 48.150101 1.534515 25,975 62 549 128
2022-05-19 22:33:45 GMT 48.147491 1.527100 25,975 62 549 64
2022-05-19 22:33:42 GMT 48.145767 1.522099 25,975 62 549 -64
2022-05-19 22:33:41 GMT 48.144562 1.518723 26,000 62 549 -128
2022-05-19 22:33:40 GMT 48.143066 1.514353 26,000 62 549 -192
2022-05-19 22:33:39 GMT 48.141861 1.510963 26,000 62 549 -192
2022-05-19 22:33:37 GMT 48.139755 1.504921 26,000 62 549 -128
2022-05-19 22:33:36 GMT 48.137650 1.498878 26,000 62 549 0
2022-05-19 22:33:34 GMT 48.136597 1.495831 26,000 62 549 0
2022-05-19 22:33:33 GMT 48.135406 1.492493 26,000 62 549 0
2022-05-19 22:33:32 GMT 48.134262 1.489128 26,000 62 549 0
2022-05-19 22:33:30 GMT 48.131332 1.480751 26,000 62 549 0
2022-05-19 22:33:29 GMT 48.130264 1.477732 26,000 62 549 0
2022-05-19 22:33:27 GMT 48.127892 1.470971 26,000 62 549 0
2022-05-19 22:33:25 GMT 48.125565 1.464272 26,000 62 549 0
2022-05-19 22:33:24 GMT 48.123184 1.457542 26,000 62 549 0
2022-05-19 22:33:22 GMT 48.122025 1.454210 26,000 62 549 0
2022-05-19 22:33:20 GMT 48.119568 1.447174 26,000 62 549 0
2022-05-19 22:33:18 GMT 48.117184 1.440406 26,000 62 549 0
2022-05-19 22:33:15 GMT 48.113415 1.429702 26,000 62 549 0
2022-05-19 22:33:14 GMT 48.110481 1.421251 26,000 62 549 0
2022-05-19 22:33:10 GMT 48.106152 1.408856 26,000 62 549 0
2022-05-19 22:33:08 GMT 48.105175 1.406180 26,000 62 549 0
2022-05-19 22:33:07 GMT 48.104244 1.403503 26,000 62 549 0
2022-05-19 22:33:06 GMT 48.100479 1.392723 26,000 62 549 0
2022-05-19 22:33:04 GMT 48.100479 1.392723 26,000 62 549 0
2022-05-19 22:33:02 GMT 48.098465 1.387024 26,000 62 549 0
2022-05-19 22:33:01 GMT 48.097401 1.383996 26,000 62 549 0
2022-05-19 22:33:00 GMT 48.093658 1.373291 26,000 62 549 0
2022-05-19 22:32:58 GMT 48.093658 1.373291 26,000 62 549 0
2022-05-19 22:32:57 GMT 48.089996 1.362854 26,000 62 549 0
2022-05-19 22:32:55 GMT 48.089996 1.362854 26,000 62 549 0
2022-05-19 22:32:53 GMT 48.087524 1.355782 26,000 62 549 0
2022-05-19 22:32:52 GMT 48.086334 1.352417 26,000 62 549 0
2022-05-19 22:32:50 GMT 48.085144 1.349121 26,000 62 549 0
2022-05-19 22:32:48 GMT 48.082085 1.340332 26,000 62 549 0
2022-05-19 22:32:46 GMT 48.079742 1.333672 26,000 62 550 0
2022-05-19 22:32:45 GMT 48.078552 1.330307 26,000 62 550 0
2022-05-19 22:32:43 GMT 48.076080 1.323235 26,000 62 550 0
2022-05-19 22:32:42 GMT 48.074432 1.318565 26,000 62 550 0
2022-05-19 22:32:39 GMT 48.070770 1.308128 26,000 62 550 0
2022-05-19 22:32:38 GMT 48.069702 1.305119 26,000 62 550 0
2022-05-19 22:32:36 GMT 48.067429 1.298790 26,000 62 550 0
2022-05-19 22:32:35 GMT 48.066147 1.295082 26,000 62 550 0
2022-05-19 22:32:34 GMT 48.062717 1.285330 26,000 62 550 0
2022-05-19 22:32:32 GMT 48.062717 1.285330 26,000 62 550 0
2022-05-19 22:32:30 GMT 48.060249 1.278287 26,000 62 550 0
2022-05-19 22:32:29 GMT 48.059040 1.274977 26,000 62 550 0
2022-05-19 22:32:27 GMT 48.056717 1.268234 26,000 62 550 0
2022-05-19 22:32:26 GMT 48.055641 1.265188 26,000 62 550 0
2022-05-19 22:32:24 GMT 48.053177 1.258146 26,000 62 550 0
2022-05-19 22:32:23 GMT 48.051964 1.254836 26,000 62 550 0
2022-05-19 22:32:22 GMT 48.049622 1.248116 26,000 62 550 0
2022-05-19 22:32:20 GMT 48.048565 1.245117 26,000 62 550 0
2022-05-19 22:32:19 GMT 48.047356 1.241737 26,000 62 550 0
2022-05-19 22:32:17 GMT 48.044655 1.234060 26,000 62 550 0
2022-05-19 22:32:15 GMT 48.043350 1.230331 26,000 62 550 0
2022-05-19 22:32:14 GMT 48.042049 1.226666 26,000 62 550 0
2022-05-19 22:32:13 GMT 48.040745 1.223004 26,000 62 549 0
2022-05-19 22:32:11 GMT 48.038277 1.215961 26,000 62 549 0
2022-05-19 22:32:10 GMT 48.037216 1.212891 26,000 62 549 0
2022-05-19 22:32:08 GMT 48.034973 1.206524 26,000 62 549 0
2022-05-19 22:32:07 GMT 48.033764 1.203214 26,000 62 549 0
2022-05-19 22:32:05 GMT 48.030087 1.192791 26,000 62 549 -64
2022-05-19 22:32:02 GMT 48.027512 1.185425 26,000 62 549 -64
2022-05-19 22:32:00 GMT 48.025246 1.179058 26,000 62 549 -64
2022-05-19 22:31:58 GMT 48.023010 1.172720 26,000 62 549 0
2022-05-19 22:31:55 GMT 48.019333 1.162368 26,000 62 549 0
2022-05-19 22:31:53 GMT 48.016586 1.154621 26,000 62 549 0
2022-05-19 22:31:51 GMT 48.014832 1.149582 26,000 62 549 0
2022-05-19 22:31:50 GMT 48.013046 1.144569 26,000 62 549 0
2022-05-19 22:31:48 GMT 48.011398 1.139900 26,000 62 549 0
2022-05-19 22:31:45 GMT 48.007233 1.128159 26,000 62 549 0
2022-05-19 22:31:43 GMT 48.004620 1.120817 26,000 62 549 0
2022-05-19 22:31:41 GMT 48.002712 1.115464 26,000 62 549 0
2022-05-19 22:31:38 GMT 47.999405 1.106117 26,000 62 549 0
2022-05-19 22:31:35 GMT 47.995358 1.094689 26,000 62 549 0
2022-05-19 22:31:32 GMT 47.991440 1.083664 26,000 62 549 0
2022-05-19 22:31:30 GMT 47.990112 1.079956 26,000 62 549 0
2022-05-19 22:31:27 GMT 47.986816 1.070618 26,000 62 549 0
2022-05-19 22:31:24 GMT 47.983253 1.060603 26,000 62 549 0
2022-05-19 22:31:23 GMT 47.981827 1.056541 26,000 62 549 0
2022-05-19 22:31:20 GMT 47.978458 1.047222 26,000 62 550 0
2022-05-19 22:31:18 GMT 47.975246 1.038208 26,000 62 550 -64
2022-05-19 22:31:15 GMT 47.972992 1.031822 26,000 62 550 -64
2022-05-19 22:31:14 GMT 47.971943 1.028841 26,000 62 550 0
2022-05-19 22:31:13 GMT 47.970127 1.023841 26,000 62 550 0
2022-05-19 22:31:12 GMT 47.968597 1.019463 26,000 62 550 0
2022-05-19 22:31:11 GMT 47.967518 1.016447 26,000 62 550 0
2022-05-19 22:31:10 GMT 47.965237 1.010108 26,000 62 549 0
2022-05-19 22:31:08 GMT 47.964073 1.006798 26,000 62 549 0
2022-05-19 22:31:07 GMT 47.961327 0.999122 26,000 62 549 64
2022-05-19 22:31:04 GMT 47.958710 0.991722 26,000 62 549 64
2022-05-19 22:31:02 GMT 47.957062 0.987053 26,000 62 549 64
2022-05-19 22:31:01 GMT 47.955276 0.982079 26,000 62 549 64
2022-05-19 22:30:58 GMT 47.952297 0.973699 26,000 62 549 64
2022-05-19 22:30:55 GMT 47.948292 0.962360 26,000 62 549 0
2022-05-19 22:30:53 GMT 47.946167 0.956291 26,000 62 549 0
2022-05-19 22:30:52 GMT 47.944473 0.951622 26,000 62 550 0
2022-05-19 22:30:50 GMT 47.942230 0.945305 26,000 61 549 0
2022-05-19 22:30:48 GMT 47.940308 0.939949 26,000 61 549 0
2022-05-19 22:30:46 GMT 47.937679 0.932641 26,000 61 549 0
2022-05-19 22:30:45 GMT 47.936371 0.928963 26,000 61 549 0
2022-05-19 22:30:44 GMT 47.935307 0.925950 26,000 61 549 0
2022-05-19 22:30:42 GMT 47.932793 0.918978 26,000 61 549 0
2022-05-19 22:30:41 GMT 47.931625 0.915598 26,000 61 549 0
2022-05-19 22:30:40 GMT 47.929111 0.908626 26,000 61 549 0
2022-05-19 22:30:38 GMT 47.928040 0.905617 26,000 61 549 0
2022-05-19 22:30:37 GMT 47.926849 0.902252 26,000 61 549 0
2022-05-19 22:30:35 GMT 47.924458 0.895597 26,000 61 549 0
2022-05-19 22:30:34 GMT 47.923248 0.892287 26,000 61 549 0
2022-05-19 22:30:32 GMT 47.920853 0.885567 26,000 61 549 0
2022-05-19 22:30:31 GMT 47.919804 0.882568 26,000 61 549 0
2022-05-19 22:30:30 GMT 47.918701 0.879593 26,000 61 549 0
2022-05-19 22:30:28 GMT 47.914536 0.867920 26,000 61 549 0
2022-05-19 22:30:25 GMT 47.912018 0.860916 26,000 61 549 0
2022-05-19 22:30:23 GMT 47.909748 0.854610 26,000 61 549 0
2022-05-19 22:30:22 GMT 47.908443 0.850947 26,000 61 549 0
2022-05-19 22:30:19 GMT 47.904953 0.841299 26,000 61 549 0
2022-05-19 22:30:17 GMT 47.902725 0.834961 26,000 61 549 0
2022-05-19 22:30:16 GMT 47.899136 0.824961 26,000 61 549 0
2022-05-19 22:30:14 GMT 47.899136 0.824961 26,000 61 549 0
2022-05-19 22:30:12 GMT 47.896500 0.817589 26,000 61 549 0
2022-05-19 22:30:11 GMT 47.895409 0.814608 26,000 61 549 0
2022-05-19 22:30:09 GMT 47.893616 0.809624 26,000 61 549 0
2022-05-19 22:30:07 GMT 47.890987 0.802284 26,000 61 549 0
2022-05-19 22:30:06 GMT 47.889824 0.798974 26,000 61 549 0
2022-05-19 22:30:05 GMT 47.886932 0.790947 26,000 61 549 0
2022-05-19 22:30:04 GMT 47.886932 0.790947 26,000 61 549 0
2022-05-19 22:30:03 GMT 47.885864 0.787987 26,000 61 549 0
2022-05-19 22:30:02 GMT 47.882191 0.777635 26,000 61 549 0
2022-05-19 22:30:00 GMT 47.882191 0.777635 26,000 61 549 0
2022-05-19 22:29:57 GMT 47.879303 0.769677 26,000 61 549 0
2022-05-19 22:29:55 GMT 47.874741 0.757000 26,000 61 549 0
2022-05-19 22:29:53 GMT 47.873577 0.753690 26,000 61 549 0
2022-05-19 22:29:51 GMT 47.871670 0.748338 26,000 61 549 0
2022-05-19 22:29:50 GMT 47.870319 0.744676 26,000 61 549 0
2022-05-19 22:29:49 GMT 47.866608 0.734367 26,000 61 549 0
2022-05-19 22:29:47 GMT 47.866608 0.734367 26,000 61 549 0
2022-05-19 22:29:46 GMT 47.865280 0.730728 26,000 61 549 0
2022-05-19 22:29:43 GMT 47.861473 0.720027 26,000 61 550 0
2022-05-19 22:29:41 GMT 47.860153 0.716377 26,000 61 550 0
2022-05-19 22:29:39 GMT 47.857132 0.708069 26,000 61 550 0
2022-05-19 22:29:37 GMT 47.854248 0.700104 26,000 61 550 0
2022-05-19 22:29:36 GMT 47.853188 0.697068 26,000 61 550 0
2022-05-19 22:29:34 GMT 47.850906 0.690730 26,000 61 550 0
2022-05-19 22:29:32 GMT 47.847649 0.681786 26,000 61 550 0
2022-05-19 22:29:28 GMT 47.844635 0.673393 26,000 61 551 0
2022-05-19 22:29:26 GMT 47.840195 0.661102 26,000 61 551 0
2022-05-19 22:29:23 GMT 47.838058 0.655095 26,000 61 551 0
2022-05-19 22:29:20 GMT 47.833969 0.643799 26,000 61 551 0
2022-05-19 22:29:18 GMT 47.830719 0.634804 26,000 61 551 0
2022-05-19 22:29:16 GMT 47.829529 0.631439 26,000 61 551 0
2022-05-19 22:29:14 GMT 47.826839 0.624108 26,000 61 551 -64
2022-05-19 22:29:12 GMT 47.824928 0.618756 26,000 61 551 -64
2022-05-19 22:29:10 GMT 47.821793 0.610085 26,000 61 551 -128
2022-05-19 22:29:08 GMT 47.819504 0.603767 26,000 61 551 -64
2022-05-19 22:29:06 GMT 47.815151 0.591783 26,000 61 551 0
2022-05-19 22:29:04 GMT 47.815151 0.591783 26,000 61 551 0
2022-05-19 22:29:03 GMT 47.813477 0.587135 26,000 61 551 64
2022-05-19 22:29:00 GMT 47.809986 0.577416 26,000 61 551 64
2022-05-19 22:28:58 GMT 47.808311 0.572768 26,000 61 551 128
2022-05-19 22:28:57 GMT 47.803841 0.560444 26,000 61 552 192
2022-05-19 22:28:55 GMT 47.803841 0.560444 26,000 61 553 128
2022-05-19 22:28:52 GMT 47.799957 0.549728 26,000 61 553 -128
2022-05-19 22:28:50 GMT 47.797806 0.543755 26,000 61 553 -128
2022-05-19 22:28:48 GMT 47.795135 0.536358 26,000 61 553 -192
2022-05-19 22:28:45 GMT 47.792809 0.530020 26,000 61 553 -128
2022-05-19 22:28:43 GMT 47.790668 0.524034 26,000 61 553 -128
2022-05-19 22:28:41 GMT 47.788239 0.517387 26,000 61 553 0
2022-05-19 22:28:40 GMT 47.785538 0.510040 26,000 61 553 0
2022-05-19 22:28:37 GMT 47.783020 0.503036 26,000 61 553 0
2022-05-19 22:28:36 GMT 47.779037 0.491982 26,000 61 553 0
2022-05-19 22:28:34 GMT 47.779037 0.491982 26,000 61 553 0
2022-05-19 22:28:32 GMT 47.776703 0.485652 26,000 61 553 0
2022-05-19 22:28:31 GMT 47.773087 0.475639 26,000 61 553 0
2022-05-19 22:28:29 GMT 47.773087 0.475639 26,000 61 553 0
2022-05-19 22:28:26 GMT 47.769333 0.465271 26,000 61 553 0
2022-05-19 22:28:24 GMT 47.766880 0.458609 26,000 61 553 0
2022-05-19 22:28:23 GMT 47.765575 0.454876 26,000 61 553 0
2022-05-19 22:28:22 GMT 47.764599 0.452200 26,000 61 553 0
2022-05-19 22:28:20 GMT 47.762283 0.445908 26,000 61 553 64
2022-05-19 22:28:19 GMT 47.760921 0.442200 26,000 61 553 64
2022-05-19 22:28:18 GMT 47.759571 0.438538 26,000 61 553 0
2022-05-19 22:28:15 GMT 47.755920 0.428535 26,000 61 553 -64
2022-05-19 22:28:13 GMT 47.754124 0.423537 26,000 61 553 -64
2022-05-19 22:28:11 GMT 47.750931 0.414871 26,000 61 553 -64
2022-05-19 22:28:08 GMT 47.747910 0.406494 26,000 61 553 -64
2022-05-19 22:28:07 GMT 47.744980 0.398529 26,000 61 553 0
2022-05-19 22:28:05 GMT 47.744019 0.395851 26,000 61 553 0
2022-05-19 22:28:03 GMT 47.741684 0.389465 26,000 61 553 0
2022-05-19 22:28:01 GMT 47.739506 0.383465 26,000 61 553 64
2022-05-19 22:27:59 GMT 47.737316 0.377479 26,000 61 553 64
2022-05-19 22:27:57 GMT 47.734013 0.368465 26,000 61 554 256
2022-05-19 22:27:56 GMT 47.731110 0.360420 26,000 61 554 128
2022-05-19 22:27:54 GMT 47.730007 0.357408 25,975 61 554 128
2022-05-19 22:27:53 GMT 47.728912 0.354446 25,975 61 554 64
2022-05-19 22:27:52 GMT 47.726349 0.347443 26,000 61 554 -64
2022-05-19 22:27:49 GMT 47.724003 0.341069 26,000 61 554 -192
2022-05-19 22:27:48 GMT 47.721443 0.334027 26,000 61 554 -128
2022-05-19 22:27:46 GMT 47.720234 0.330717 26,000 61 554 -128
2022-05-19 22:27:45 GMT 47.719025 0.327393 26,000 61 554 -64
2022-05-19 22:27:43 GMT 47.716324 0.320045 26,000 61 554 0
2022-05-19 22:27:42 GMT 47.714996 0.316406 26,000 61 554 0
2022-05-19 22:27:40 GMT 47.712879 0.310716 26,000 61 554 0
2022-05-19 22:27:39 GMT 47.711792 0.307686 26,000 61 554 0
2022-05-19 22:27:37 GMT 47.709229 0.300682 26,000 61 554 0
2022-05-19 22:27:36 GMT 47.707897 0.296983 26,000 61 554 0
2022-05-19 22:27:35 GMT 47.705475 0.290314 26,000 61 554 0
2022-05-19 22:27:32 GMT 47.704239 0.287018 26,000 61 554 0
2022-05-19 22:27:31 GMT 47.702915 0.283321 26,000 61 554 0
2022-05-19 22:27:30 GMT 47.699478 0.273972 26,000 61 554 0
2022-05-19 22:27:28 GMT 47.699478 0.273972 26,000 61 554 0
2022-05-19 22:27:26 GMT 47.696548 0.265938 26,000 61 555 0
2022-05-19 22:27:24 GMT 47.693836 0.258601 26,000 61 555 0
2022-05-19 22:27:22 GMT 47.691513 0.252274 26,000 61 555 0
2022-05-19 22:27:21 GMT 47.690186 0.248634 26,000 61 554 0
2022-05-19 22:27:19 GMT 47.685272 0.235291 26,000 61 554 0
2022-05-19 22:27:17 GMT 47.685272 0.235291 26,000 61 554 0
2022-05-19 22:27:14 GMT 47.681736 0.225572 26,000 61 554 0
2022-05-19 22:27:12 GMT 47.678661 0.217262 26,000 61 554 0
2022-05-19 22:27:09 GMT 47.676086 0.210251 26,000 61 554 0
2022-05-19 22:27:07 GMT 47.672791 0.201256 26,000 61 554 0
2022-05-19 22:27:04 GMT 47.668991 0.190956 26,000 61 554 0
2022-05-19 22:27:02 GMT 47.667629 0.187261 26,000 61 554 0
2022-05-19 22:27:00 GMT 47.664459 0.178596 26,000 61 554 0
2022-05-19 22:26:58 GMT 47.662136 0.172260 26,000 61 554 0
2022-05-19 22:26:57 GMT 47.660275 0.167330 26,000 61 554 0
2022-05-19 22:26:55 GMT 47.656265 0.156281 26,000 61 554 0
2022-05-19 22:26:52 GMT 47.655014 0.152963 26,000 61 554 0
2022-05-19 22:26:51 GMT 47.653805 0.149654 26,000 61 554 0
2022-05-19 22:26:49 GMT 47.651337 0.143034 26,000 61 553 64
2022-05-19 22:26:48 GMT 47.649521 0.138033 26,000 61 553 64
2022-05-19 22:26:47 GMT 47.648312 0.134723 26,000 61 553 64
2022-05-19 22:26:45 GMT 47.645828 0.128059 26,000 61 553 0
2022-05-19 22:26:43 GMT 47.643631 0.122086 26,000 61 553 0
2022-05-19 22:26:42 GMT 47.642303 0.118378 26,000 61 553 0
2022-05-19 22:26:40 GMT 47.639694 0.111443 26,000 61 553 0
2022-05-19 22:26:39 GMT 47.638504 0.108078 26,000 61 553 0
2022-05-19 22:26:37 GMT 47.636162 0.101764 26,000 61 553 0
2022-05-19 22:26:36 GMT 47.635071 0.098808 26,000 61 553 0
2022-05-19 22:26:34 GMT 47.632965 0.093178 26,000 61 553 0
2022-05-19 22:26:33 GMT 47.631130 0.088172 26,000 61 553 0
2022-05-19 22:26:32 GMT 47.629784 0.084510 26,000 61 553 0
2022-05-19 22:26:30 GMT 47.627594 0.078524 26,000 61 553 0
2022-05-19 22:26:29 GMT 47.626244 0.074862 26,000 61 553 0
2022-05-19 22:26:28 GMT 47.624008 0.068876 26,000 61 553 0
2022-05-19 22:26:25 GMT 47.621590 0.062256 26,000 61 553 0
2022-05-19 22:26:23 GMT 47.619598 0.056923 26,000 61 553 0
2022-05-19 22:26:21 GMT 47.615211 0.045002 26,000 61 553 0
2022-05-19 22:26:19 GMT 47.614002 0.041692 26,000 61 553 0
2022-05-19 22:26:17 GMT 47.611267 0.034332 26,000 61 553 0
2022-05-19 22:26:15 GMT 47.609673 0.030072 26,000 61 553 0
2022-05-19 22:26:14 GMT 47.607998 0.025423 26,000 61 553 0
2022-05-19 22:26:13 GMT 47.606739 0.022114 26,000 61 553 0
2022-05-19 22:26:12 GMT 47.605042 0.017441 26,000 61 553 64
2022-05-19 22:26:10 GMT 47.603073 0.012154 26,000 61 554 64
2022-05-19 22:26:09 GMT 47.600739 0.005836 26,000 61 554 64
2022-05-19 22:26:06 GMT 47.597942 -0.001831 26,000 61 553 0
2022-05-19 22:26:05 GMT 47.595474 -0.008446 26,000 61 553 0
2022-05-19 22:26:02 GMT 47.591564 -0.019085 26,000 61 553 -64
2022-05-19 22:26:00 GMT 47.590210 -0.022728 26,000 61 553 -64
2022-05-19 22:25:57 GMT 47.585403 -0.035637 26,000 61 553 0
2022-05-19 22:25:56 GMT 47.585403 -0.035637 26,000 61 553 0
2022-05-19 22:25:54 GMT 47.583344 -0.041267 26,000 61 553 0
2022-05-19 22:25:53 GMT 47.581604 -0.045937 26,000 61 552 0
2022-05-19 22:25:51 GMT 47.579269 -0.052254 26,000 61 552 0
2022-05-19 22:25:50 GMT 47.578079 -0.055550 26,000 61 553 0
2022-05-19 22:25:47 GMT 47.575241 -0.063171 26,000 61 553 0
2022-05-19 22:25:46 GMT 47.574619 -0.064791 26,000 61 553 0
2022-05-19 22:25:44 GMT 47.572060 -0.071763 26,000 61 553 -64
2022-05-19 22:25:43 GMT 47.570938 -0.074776 26,000 61 553 -64
2022-05-19 22:25:41 GMT 47.568100 -0.082397 26,000 61 553 -64
2022-05-19 22:25:39 GMT 47.565674 -0.088989 26,000 61 553 0
2022-05-19 22:25:38 GMT 47.564331 -0.092680 26,000 61 553 0
2022-05-19 22:25:37 GMT 47.563568 -0.094620 26,000 61 553 0
2022-05-19 22:25:36 GMT 47.561874 -0.099289 26,000 61 553 0
2022-05-19 22:25:34 GMT 47.559258 -0.106272 26,000 61 554 0
2022-05-19 22:25:33 GMT 47.558029 -0.109589 26,000 61 554 0
2022-05-19 22:25:31 GMT 47.555717 -0.115849 26,000 61 554 0
2022-05-19 22:25:29 GMT 47.552536 -0.124489 26,000 61 554 0
2022-05-19 22:25:27 GMT 47.550797 -0.129089 26,000 61 553 0
2022-05-19 22:25:25 GMT 47.548317 -0.135709 26,000 61 553 -64
2022-05-19 22:25:24 GMT 47.547226 -0.138702 26,000 61 553 -64
2022-05-19 22:25:22 GMT 47.544498 -0.145991 26,000 61 553 0
2022-05-19 22:25:20 GMT 47.542282 -0.151955 26,000 61 554 0
2022-05-19 22:25:17 GMT 47.538574 -0.161911 26,000 61 554 0
2022-05-19 22:25:13 GMT 47.533279 -0.176133 26,000 61 553 0
2022-05-19 22:25:12 GMT 47.532166 -0.179077 26,000 61 554 0
2022-05-19 22:25:10 GMT 47.529694 -0.185711 26,000 61 554 0
2022-05-19 22:25:08 GMT 47.527973 -0.190359 26,000 61 554 0
2022-05-19 22:25:07 GMT 47.526123 -0.195351 26,000 61 554 0
2022-05-19 22:25:05 GMT 47.523689 -0.201979 26,000 61 553 0
2022-05-19 22:25:02 GMT 47.520153 -0.211628 26,000 61 553 64
2022-05-19 22:25:00 GMT 47.517563 -0.218628 26,000 61 554 64
2022-05-19 22:24:57 GMT 47.513535 -0.229546 26,000 61 554 0
2022-05-19 22:24:55 GMT 47.511154 -0.235794 26,000 60 553 0
2022-05-19 22:24:54 GMT 47.510002 -0.238741 26,000 60 553 0
2022-05-19 22:24:53 GMT 47.508747 -0.242051 26,000 60 553 0
2022-05-19 22:24:51 GMT 47.505070 -0.251559 26,000 59 553 0
2022-05-19 22:24:50 GMT 47.505070 -0.251559 26,000 59 553 0
2022-05-19 22:24:49 GMT 47.501297 -0.260996 26,000 59 553 0
2022-05-19 22:24:46 GMT 47.500122 -0.263947 26,000 59 553 0
2022-05-19 22:24:44 GMT 47.492157 -0.283241 26,000 58 553 0
2022-05-19 22:24:41 GMT 47.492157 -0.283241 26,000 58 553 0
2022-05-19 22:24:38 GMT 47.488495 -0.291893 26,000 57 553 0
2022-05-19 22:24:36 GMT 47.486298 -0.296974 26,000 57 553 0
2022-05-19 22:24:35 GMT 47.484238 -0.301781 26,000 57 553 0
2022-05-19 22:24:34 GMT 47.483002 -0.304589 26,000 56 552 0
2022-05-19 22:24:32 GMT 47.480068 -0.311209 26,000 56 552 0
2022-05-19 22:24:30 GMT 47.477966 -0.315994 26,000 56 552 0
2022-05-19 22:24:27 GMT 47.473251 -0.326294 26,000 55 552 0
2022-05-19 22:24:26 GMT 47.471832 -0.329384 26,000 55 552 0
2022-05-19 22:24:23 GMT 47.467346 -0.338997 26,000 55 552 0
2022-05-19 22:24:21 GMT 47.464554 -0.344902 26,000 55 552 64
2022-05-19 22:24:18 GMT 47.460434 -0.353485 26,000 54 551 64
2022-05-19 22:24:16 GMT 47.457321 -0.359871 26,000 53 551 0
2022-05-19 22:24:14 GMT 47.454468 -0.365648 26,000 53 552 0
2022-05-19 22:24:11 GMT 47.448509 -0.377409 26,000 52 552 -64
2022-05-19 22:24:08 GMT 47.445530 -0.383043 26,000 52 552 -64
2022-05-19 22:24:06 GMT 47.442364 -0.388958 26,000 51 552 0
2022-05-19 22:24:04 GMT 47.439194 -0.394890 26,000 51 552 0
2022-05-19 22:24:02 GMT 47.435989 -0.400726 26,000 50 552 0
2022-05-19 22:24:00 GMT 47.433609 -0.405121 26,000 50 552 0
2022-05-19 22:23:59 GMT 47.431824 -0.408348 26,000 50 552 0
2022-05-19 22:23:58 GMT 47.429581 -0.412399 26,000 50 553 0
2022-05-19 22:23:57 GMT 47.427792 -0.415649 26,000 50 553 0
2022-05-19 22:23:54 GMT 47.423138 -0.424100 26,000 50 552 0
2022-05-19 22:23:53 GMT 47.421509 -0.426988 26,000 50 552 0
2022-05-19 22:23:50 GMT 47.416672 -0.435745 26,000 50 552 0
2022-05-19 22:23:49 GMT 47.412323 -0.443642 26,000 50 552 0
2022-05-19 22:23:47 GMT 47.408295 -0.450920 26,000 50 552 0
2022-05-19 22:23:45 GMT 47.408295 -0.450920 26,000 50 552 0
2022-05-19 22:23:42 GMT 47.401539 -0.463186 26,000 50 552 0
2022-05-19 22:23:39 GMT 47.398453 -0.468704 26,000 50 552 0
2022-05-19 22:23:38 GMT 47.396667 -0.471931 26,000 50 552 0
2022-05-19 22:23:35 GMT 47.391853 -0.480652 26,000 50 552 0
2022-05-19 22:23:33 GMT 47.388794 -0.486214 26,000 50 552 0
2022-05-19 22:23:32 GMT 47.385727 -0.491707 26,000 50 552 0
2022-05-19 22:23:30 GMT 47.384125 -0.494659 26,000 50 552 0
2022-05-19 22:23:29 GMT 47.382683 -0.497272 26,000 50 552 0
2022-05-19 22:23:27 GMT 47.379776 -0.502487 26,000 50 552 0
2022-05-19 22:23:25 GMT 47.376213 -0.508892 26,000 50 552 0
2022-05-19 22:23:22 GMT 47.370071 -0.519997 26,000 50 552 0
2022-05-19 22:23:19 GMT 47.367043 -0.525513 26,000 50 552 0
2022-05-19 22:23:18 GMT 47.365402 -0.528442 26,000 50 552 0
2022-05-19 22:23:17 GMT 47.363800 -0.531326 26,000 50 552 0
2022-05-19 22:23:16 GMT 47.359127 -0.539809 26,000 50 552 0
2022-05-19 22:23:14 GMT 47.359127 -0.539809 26,000 50 552 0
2022-05-19 22:23:12 GMT 47.355240 -0.546776 26,000 50 552 0
2022-05-19 22:23:10 GMT 47.352814 -0.551102 26,000 50 552 0
2022-05-19 22:23:09 GMT 47.350422 -0.555514 26,000 50 552 0
2022-05-19 22:23:07 GMT 47.346222 -0.563049 26,000 50 552 0
2022-05-19 22:23:06 GMT 47.344463 -0.566289 26,000 50 552 0
2022-05-19 22:23:04 GMT 47.337982 -0.577881 26,000 50 552 0
2022-05-19 22:23:02 GMT 47.337982 -0.577881 26,000 50 552 0
2022-05-19 22:23:01 GMT 47.336380 -0.580833 26,000 50 552 0
2022-05-19 22:22:58 GMT 47.332031 -0.588661 26,000 50 552 0
2022-05-19 22:22:56 GMT 47.328960 -0.594177 26,000 50 552 0
2022-05-19 22:22:54 GMT 47.326214 -0.599107 26,000 50 552 0
2022-05-19 22:22:53 GMT 47.324585 -0.602065 26,000 50 552 0
2022-05-19 22:22:50 GMT 47.319443 -0.611389 26,000 50 552 0
2022-05-19 22:22:47 GMT 47.313446 -0.622101 26,000 50 552 0
2022-05-19 22:22:43 GMT 47.309734 -0.628826 26,000 50 552 0
2022-05-19 22:22:42 GMT 47.307316 -0.633193 26,000 50 552 0
2022-05-19 22:22:40 GMT 47.304104 -0.638968 26,000 50 552 0
2022-05-19 22:22:38 GMT 47.299076 -0.647982 26,000 50 552 0
2022-05-19 22:22:37 GMT 47.299076 -0.647982 26,000 50 552 0
2022-05-19 22:22:36 GMT 47.297447 -0.650870 26,000 50 552 0
2022-05-19 22:22:34 GMT 47.294048 -0.656997 26,000 50 552 0
2022-05-19 22:22:31 GMT 47.289719 -0.664884 26,000 50 552 0
2022-05-19 22:22:28 GMT 47.284691 -0.673899 26,000 50 552 0
2022-05-19 22:22:27 GMT 47.283234 -0.676483 26,000 50 552 0
2022-05-19 22:22:25 GMT 47.279205 -0.683762 26,000 50 552 0
2022-05-19 22:22:23 GMT 47.274357 -0.692420 26,000 50 552 0
2022-05-19 22:22:21 GMT 47.273052 -0.694744 26,000 50 552 0
2022-05-19 22:22:20 GMT 47.271606 -0.697357 26,000 50 552 0
2022-05-19 22:22:19 GMT 47.268219 -0.703468 26,000 50 552 0
2022-05-19 22:22:17 GMT 47.266571 -0.706352 26,000 50 552 0
2022-05-19 22:22:14 GMT 47.261261 -0.715965 26,000 50 552 0
2022-05-19 22:22:13 GMT 47.259319 -0.719464 26,000 50 552 0
2022-05-19 22:22:12 GMT 47.257690 -0.722351 26,000 50 552 0
2022-05-19 22:22:10 GMT 47.254292 -0.728408 26,000 50 552 0
2022-05-19 22:22:08 GMT 47.251358 -0.733619 26,000 50 552 0
2022-05-19 22:22:06 GMT 47.247959 -0.739746 26,000 50 552 0
2022-05-19 22:22:04 GMT 47.244747 -0.745521 26,000 50 552 0
2022-05-19 22:22:03 GMT 47.243446 -0.747845 26,000 50 552 0
2022-05-19 22:22:02 GMT 47.236462 -0.760310 26,000 50 552 0
2022-05-19 22:21:59 GMT 47.236462 -0.760310 26,000 50 552 0
2022-05-19 22:21:54 GMT 47.228222 -0.775100 26,000 50 552 0
2022-05-19 22:21:51 GMT 47.223846 -0.782917 26,000 50 552 0
2022-05-19 22:21:49 GMT 47.220776 -0.788410 26,000 50 552 0
2022-05-19 22:21:47 GMT 47.217518 -0.794255 26,000 50 552 0
2022-05-19 22:21:44 GMT 47.212189 -0.803787 26,000 50 552 0
2022-05-19 22:21:42 GMT 47.209743 -0.808129 26,000 50 552 0
2022-05-19 22:21:41 GMT 47.208111 -0.811016 26,000 50 552 0
2022-05-19 22:21:40 GMT 47.206192 -0.814499 26,000 50 552 0
2022-05-19 22:21:38 GMT 47.202621 -0.820885 26,000 50 552 0
2022-05-19 22:21:35 GMT 47.197906 -0.829262 26,000 50 552 0
2022-05-19 22:21:32 GMT 47.193878 -0.836472 26,000 50 552 0
2022-05-19 22:21:30 GMT 47.191589 -0.840523 26,000 50 552 0
2022-05-19 22:21:29 GMT 47.189632 -0.844046 26,000 50 552 0
2022-05-19 22:21:28 GMT 47.187195 -0.848351 26,000 50 552 0
2022-05-19 22:21:27 GMT 47.185768 -0.850947 26,000 50 552 0
2022-05-19 22:21:26 GMT 47.184139 -0.853835 26,000 50 552 0
2022-05-19 22:21:24 GMT 47.180878 -0.859680 26,000 50 552 0
2022-05-19 22:21:23 GMT 47.179436 -0.862286 26,000 50 552 0
2022-05-19 22:21:22 GMT 47.177666 -0.865455 26,000 50 552 0
2022-05-19 22:21:21 GMT 47.174408 -0.871230 26,000 50 552 0
2022-05-19 22:21:18 GMT 47.170685 -0.877850 26,000 50 553 0
2022-05-19 22:21:16 GMT 47.167419 -0.883644 26,000 50 553 0
2022-05-19 22:21:15 GMT 47.165936 -0.886230 26,000 50 552 0
2022-05-19 22:21:13 GMT 47.162384 -0.892639 26,000 50 552 0
2022-05-19 22:21:11 GMT 47.158302 -0.899823 26,000 50 553 0
2022-05-19 22:21:08 GMT 47.154739 -0.906166 26,000 50 553 0
2022-05-19 22:21:06 GMT 47.151489 -0.911934 26,000 50 553 0
2022-05-19 22:21:05 GMT 47.149704 -0.915161 26,000 50 553 0
2022-05-19 22:21:02 GMT 47.144848 -0.923838 26,000 50 552 0
2022-05-19 22:21:00 GMT 47.141590 -0.929612 26,000 50 552 0
2022-05-19 22:20:58 GMT 47.136562 -0.938556 26,000 50 552 0
2022-05-19 22:20:56 GMT 47.134598 -0.942009 26,000 50 552 0
2022-05-19 22:20:53 GMT 47.130043 -0.950106 26,000 50 552 64
2022-05-19 22:20:52 GMT 47.127762 -0.954191 26,000 50 552 0
2022-05-19 22:20:51 GMT 47.124527 -0.959930 26,000 50 552 0
2022-05-19 22:20:49 GMT 47.121597 -0.965149 26,000 50 552 0
2022-05-19 22:20:46 GMT 47.119011 -0.969755 26,000 50 552 0
2022-05-19 22:20:45 GMT 47.116608 -0.974144 26,000 50 552 0
2022-05-19 22:20:44 GMT 47.114822 -0.977303 26,000 50 552 0
2022-05-19 22:20:43 GMT 47.113174 -0.980186 26,000 50 551 0
2022-05-19 22:20:39 GMT 47.106857 -0.991447 26,000 50 552 0
2022-05-19 22:20:38 GMT 47.101822 -1.000374 26,000 50 552 0
2022-05-19 22:20:36 GMT 47.101822 -1.000374 26,000 50 552 0
2022-05-19 22:20:35 GMT 47.099716 -1.004150 26,000 50 552 0
2022-05-19 22:20:33 GMT 47.098068 -1.007034 26,000 50 552 0
2022-05-19 22:20:30 GMT 47.092896 -1.016235 26,000 50 551 0
2022-05-19 22:20:29 GMT 47.090424 -1.020561 26,000 50 551 0
2022-05-19 22:20:28 GMT 47.088821 -1.023445 26,000 50 551 0
2022-05-19 22:20:25 GMT 47.085262 -1.029757 26,000 50 551 0
2022-05-19 22:20:23 GMT 47.081360 -1.036697 26,000 50 551 0
2022-05-19 22:20:20 GMT 47.076649 -1.045039 26,000 50 551 0
2022-05-19 22:20:17 GMT 47.072414 -1.052504 26,000 50 551 0
2022-05-19 22:20:16 GMT 47.070782 -1.055392 26,000 50 551 0
2022-05-19 22:20:14 GMT 47.066895 -1.062309 26,000 50 551 0
2022-05-19 22:20:12 GMT 47.062359 -1.070322 26,000 50 551 0
2022-05-19 22:20:10 GMT 47.059097 -1.076097 26,000 50 551 0
2022-05-19 22:20:07 GMT 47.054398 -1.084407 26,000 50 551 0
2022-05-19 22:20:04 GMT 47.050301 -1.091590 26,000 50 551 0
2022-05-19 22:20:02 GMT 47.046432 -1.098495 26,000 50 551 -64
2022-05-19 22:20:01 GMT 47.045105 -1.100761 26,000 50 551 -64
2022-05-19 22:19:59 GMT 47.041855 -1.106529 26,000 50 551 -64
2022-05-19 22:19:55 GMT 47.036987 -1.115112 26,000 50 551 0
2022-05-19 22:19:52 GMT 47.032104 -1.123764 26,000 50 551 0
2022-05-19 22:19:51 GMT 47.030144 -1.127225 26,000 50 551 0
2022-05-19 22:19:50 GMT 47.027069 -1.132622 26,000 50 551 0
2022-05-19 22:19:47 GMT 47.023636 -1.138664 26,000 50 551 0
2022-05-19 22:19:45 GMT 47.020412 -1.144409 26,000 50 551 0
2022-05-19 22:19:44 GMT 47.018784 -1.147297 26,000 50 551 0
2022-05-19 22:19:42 GMT 47.015526 -1.153071 26,000 50 551 0
2022-05-19 22:19:40 GMT 47.012283 -1.158783 26,000 50 552 0
2022-05-19 22:19:38 GMT 47.007378 -1.167368 26,000 50 552 0
2022-05-19 22:19:35 GMT 47.003311 -1.174576 26,000 50 552 0
2022-05-19 22:19:33 GMT 47.000675 -1.179129 26,000 50 552 0
2022-05-19 22:19:31 GMT 46.995789 -1.187791 26,000 50 552 0
2022-05-19 22:19:29 GMT 46.994019 -1.190890 26,000 50 552 0
2022-05-19 22:19:28 GMT 46.992390 -1.193777 26,000 50 552 0
2022-05-19 22:19:26 GMT 46.988617 -1.200397 26,000 50 553 0
2022-05-19 22:19:25 GMT 46.987152 -1.203003 26,000 50 553 0
2022-05-19 22:19:24 GMT 46.983917 -1.208707 26,000 50 553 0
2022-05-19 22:19:22 GMT 46.982437 -1.211311 26,000 50 553 0
2022-05-19 22:19:21 GMT 46.979187 -1.217079 26,000 50 553 0
2022-05-19 22:19:19 GMT 46.977215 -1.220539 26,000 50 553 0
2022-05-19 22:19:17 GMT 46.974140 -1.225962 26,000 50 553 0
2022-05-19 22:19:15 GMT 46.970837 -1.231736 26,000 50 553 0
2022-05-19 22:19:13 GMT 46.967606 -1.237473 26,000 50 553 0
2022-05-19 22:19:12 GMT 46.965481 -1.241173 26,000 50 553 0
2022-05-19 22:19:11 GMT 46.960556 -1.249832 26,000 50 553 0
2022-05-19 22:19:09 GMT 46.960556 -1.249832 26,000 50 553 0
2022-05-19 22:19:08 GMT 46.958908 -1.252716 26,000 50 553 0
2022-05-19 22:19:07 GMT 46.955334 -1.258991 26,000 50 553 0
2022-05-19 22:19:05 GMT 46.954029 -1.261315 26,000 50 553 0
2022-05-19 22:19:04 GMT 46.952545 -1.263908 26,000 50 553 0
2022-05-19 22:19:02 GMT 46.948792 -1.270500 26,000 50 553 64
2022-05-19 22:19:00 GMT 46.946182 -1.275101 26,000 50 553 64
2022-05-19 22:18:59 GMT 46.944351 -1.278259 26,000 50 553 64
2022-05-19 22:18:58 GMT 46.941422 -1.283409 26,000 50 553 0
2022-05-19 22:18:56 GMT 46.939774 -1.286293 26,000 50 553 0
2022-05-19 22:18:54 GMT 46.935699 -1.293503 26,000 50 553 0
2022-05-19 22:18:52 GMT 46.932430 -1.299204 26,000 50 553 0
2022-05-19 22:18:49 GMT 46.924747 -1.312725 26,000 50 553 0
2022-05-19 22:18:47 GMT 46.924747 -1.312725 26,000 50 553 0
2022-05-19 22:18:46 GMT 46.919495 -1.321930 26,000 50 553 0
2022-05-19 22:18:44 GMT 46.919495 -1.321930 26,000 50 553 0
2022-05-19 22:18:43 GMT 46.917892 -1.324745 26,000 50 553 0
2022-05-19 22:18:42 GMT 46.914742 -1.330191 26,000 50 553 0
2022-05-19 22:18:40 GMT 46.912971 -1.333360 26,000 50 553 0
2022-05-19 22:18:38 GMT 46.909515 -1.339371 26,000 50 553 0
2022-05-19 22:18:37 GMT 46.907711 -1.342586 26,000 50 553 0
2022-05-19 22:18:36 GMT 46.905762 -1.345963 26,000 50 553 0
2022-05-19 22:18:34 GMT 46.902962 -1.350896 26,000 50 553 0
2022-05-19 22:18:32 GMT 46.898212 -1.359206 26,000 50 553 0
2022-05-19 22:18:30 GMT 46.896446 -1.362305 26,000 50 553 0
2022-05-19 22:18:28 GMT 46.893311 -1.367798 26,000 50 553 0
2022-05-19 22:18:27 GMT 46.891708 -1.370613 26,000 50 553 0
2022-05-19 22:18:26 GMT 46.889416 -1.374629 26,000 50 553 0
2022-05-19 22:18:25 GMT 46.886158 -1.380404 26,000 50 553 0
2022-05-19 22:18:22 GMT 46.884155 -1.383797 26,000 50 553 0
2022-05-19 22:18:20 GMT 46.881866 -1.387848 26,000 50 553 0
2022-05-19 22:18:19 GMT 46.879257 -1.392448 26,000 50 553 0
2022-05-19 22:18:15 GMT 46.873077 -1.403292 26,000 50 553 0
2022-05-19 22:18:14 GMT 46.869633 -1.409278 26,000 50 553 0
2022-05-19 22:18:12 GMT 46.868004 -1.412166 26,000 50 553 0
2022-05-19 22:18:10 GMT 46.866325 -1.415039 26,000 50 553 0
2022-05-19 22:18:09 GMT 46.862926 -1.421013 26,000 50 552 -64
2022-05-19 22:18:04 GMT 46.856049 -1.433046 26,000 50 552 -64
2022-05-19 22:18:03 GMT 46.854549 -1.435638 26,000 50 552 -64
2022-05-19 22:18:02 GMT 46.852127 -1.439896 26,000 50 552 -64
2022-05-19 22:18:01 GMT 46.849960 -1.443630 26,000 50 552 0
2022-05-19 22:18:00 GMT 46.848358 -1.446444 26,000 50 552 0
2022-05-19 22:17:58 GMT 46.845051 -1.452187 26,000 50 552 64
2022-05-19 22:17:57 GMT 46.843422 -1.455070 26,000 50 552 64
2022-05-19 22:17:55 GMT 46.836411 -1.467345 26,000 50 552 192
2022-05-19 22:17:53 GMT 46.835556 -1.468735 26,000 50 552 64
2022-05-19 22:17:51 GMT 46.833923 -1.471619 26,000 50 552 -64
2022-05-19 22:17:49 GMT 46.828197 -1.481644 26,000 50 552 -128
2022-05-19 22:17:47 GMT 46.826897 -1.483910 26,000 50 552 -64
2022-05-19 22:17:46 GMT 46.825081 -1.487068 26,000 50 552 -64
2022-05-19 22:17:45 GMT 46.823639 -1.489585 26,000 50 552 0
2022-05-19 22:17:42 GMT 46.818558 -1.498495 26,000 50 552 0
2022-05-19 22:17:41 GMT 46.816910 -1.501309 26,000 50 552 0
2022-05-19 22:17:40 GMT 46.815262 -1.504189 26,000 50 552 0
2022-05-19 22:17:37 GMT 46.810501 -1.512429 26,000 50 552 0
2022-05-19 22:17:36 GMT 46.808693 -1.515564 26,000 50 552 0
2022-05-19 22:17:32 GMT 46.802643 -1.526138 26,000 50 552 0
2022-05-19 22:17:28 GMT 46.795944 -1.537818 26,000 50 552 0
2022-05-19 22:17:23 GMT 46.786926 -1.553494 26,000 50 552 0
2022-05-19 22:17:18 GMT 46.778732 -1.567762 26,000 50 552 0
2022-05-19 22:17:14 GMT 46.765774 -1.590340 26,000 49 553 0
2022-05-19 22:17:10 GMT 46.765774 -1.590340 26,000 50 552 0
2022-05-19 22:17:07 GMT 46.761520 -1.597707 26,000 50 552 0
2022-05-19 22:17:04 GMT 46.756439 -1.606550 26,000 50 552 0
2022-05-19 22:17:00 GMT 46.750179 -1.617393 26,000 50 552 0
2022-05-19 22:16:57 GMT 46.745132 -1.626245 26,000 50 552 0
2022-05-19 22:16:53 GMT 46.738213 -1.638199 26,000 50 552 0
2022-05-19 22:16:49 GMT 46.732315 -1.648418 26,000 50 552 0
2022-05-19 22:16:45 GMT 46.724762 -1.661548 26,000 49 553 0
2022-05-19 22:16:42 GMT 46.719681 -1.670391 26,000 49 553 0
2022-05-19 22:16:39 GMT 46.715744 -1.677224 26,000 49 553 0
2022-05-19 22:16:35 GMT 46.703720 -1.697937 26,000 49 552 -64
2022-05-19 22:16:32 GMT 46.703720 -1.697937 26,000 49 552 -64
2022-05-19 22:16:29 GMT 46.698925 -1.706177 26,025 49 553 0
2022-05-19 22:16:25 GMT 46.692173 -1.717850 26,000 49 553 0
2022-05-19 22:16:22 GMT 46.681465 -1.736320 26,000 49 553 64
2022-05-19 22:16:19 GMT 46.681465 -1.736320 26,000 49 552 128
2022-05-19 22:16:15 GMT 46.676533 -1.744835 26,000 49 553 0
2022-05-19 22:16:12 GMT 46.670246 -1.755615 26,000 49 553 0
2022-05-19 22:16:09 GMT 46.665482 -1.763842 26,000 49 554 0
2022-05-19 22:16:05 GMT 46.659393 -1.774426 26,000 49 553 0
2022-05-19 22:16:02 GMT 46.647671 -1.794548 26,000 49 553 0
2022-05-19 22:15:58 GMT 46.647671 -1.794548 26,000 49 553 0
2022-05-19 22:15:54 GMT 46.641266 -1.805643 26,000 49 553 0
2022-05-19 22:15:51 GMT 46.635658 -1.815285 26,000 49 553 0
2022-05-19 22:15:48 GMT 46.631836 -1.821855 26,000 49 553 0
2022-05-19 22:15:44 GMT 46.619156 -1.843693 26,000 49 553 0
2022-05-19 22:15:41 GMT 46.619156 -1.843693 26,000 49 553 0
2022-05-19 22:15:38 GMT 46.614853 -1.851062 26,000 49 554 0
2022-05-19 22:15:34 GMT 46.607777 -1.863281 26,000 49 554 128
2022-05-19 22:15:31 GMT 46.603821 -1.870154 26,000 49 554 128
2022-05-19 22:15:28 GMT 46.598232 -1.879761 25,975 49 554 0
2022-05-19 22:15:21 GMT 46.587337 -1.898506 26,000 49 553 0
2022-05-19 22:15:18 GMT 46.581242 -1.909012 26,000 49 553 0
2022-05-19 22:15:11 GMT 46.569809 -1.928570 26,000 49 553 0
2022-05-19 22:15:08 GMT 46.564728 -1.937412 26,000 49 554 0
2022-05-19 22:15:01 GMT 46.551819 -1.959519 26,000 49 554 0
2022-05-19 22:14:58 GMT 46.547535 -1.966896 26,000 49 554 0
2022-05-19 22:14:51 GMT 46.536758 -1.985310 26,000 49 554 0
2022-05-19 22:14:47 GMT 46.530304 -1.996363 26,000 49 554 0
2022-05-19 22:14:40 GMT 46.518860 -2.015923 26,000 49 555 0
2022-05-19 22:14:36 GMT 46.511765 -2.028116 26,000 49 555 0
2022-05-19 22:14:30 GMT 46.496609 -2.053894 26,000 49 555 0
2022-05-19 22:14:27 GMT 46.496609 -2.053894 26,000 49 555 0
2022-05-19 22:14:20 GMT 46.485992 -2.072021 26,000 49 554 0
2022-05-19 22:14:16 GMT 46.479675 -2.082780 26,000 49 554 0
2022-05-19 22:14:09 GMT 46.468369 -2.102006 26,000 49 555 0
2022-05-19 22:14:06 GMT 46.463242 -2.110782 26,000 49 555 0
2022-05-19 22:13:59 GMT 46.451080 -2.131485 26,000 49 555 0
2022-05-19 22:13:56 GMT 46.445259 -2.141373 26,000 49 555 0
2022-05-19 22:13:52 GMT 46.439770 -2.150711 26,000 49 555 0
2022-05-19 22:13:49 GMT 46.434273 -2.160049 26,000 49 555 0
2022-05-19 22:13:46 GMT 46.428955 -2.169063 26,000 49 555 0
2022-05-19 22:13:40 GMT 46.418819 -2.186348 26,000 49 555 0
2022-05-19 22:13:36 GMT 46.412628 -2.196785 26,000 49 555 0
2022-05-19 22:13:33 GMT 46.406483 -2.207222 26,000 49 556 -64
2022-05-19 22:13:29 GMT 46.400150 -2.217934 26,000 49 555 0
2022-05-19 22:13:23 GMT 46.389496 -2.236053 26,000 49 556 -64
2022-05-19 22:13:19 GMT 46.384136 -2.245056 26,000 49 555 -64
2022-05-19 22:13:16 GMT 46.377995 -2.255493 26,000 49 555 -64
2022-05-19 22:13:12 GMT 46.373150 -2.263664 26,025 49 555 0
2022-05-19 22:13:09 GMT 46.367287 -2.273483 26,025 49 555 0
2022-05-19 22:13:02 GMT 46.355484 -2.293530 26,000 49 555 64
2022-05-19 22:12:58 GMT 46.349831 -2.303146 26,000 49 555 64
2022-05-19 22:12:51 GMT 46.337494 -2.324020 25,975 49 555 -128
2022-05-19 22:12:48 GMT 46.332825 -2.331915 26,000 49 555 -64
2022-05-19 22:12:44 GMT 46.325958 -2.343437 26,000 49 555 -64
2022-05-19 22:12:38 GMT 46.315613 -2.360855 26,000 49 555 0
2022-05-19 22:12:33 GMT 46.307281 -2.374969 26,000 49 555 64
2022-05-19 22:12:28 GMT 46.299088 -2.388722 26,000 49 555 0
2022-05-19 22:12:25 GMT 46.292431 -2.399963 26,000 49 555 -64
2022-05-19 22:12:17 GMT 46.280228 -2.420543 26,000 49 555 0
2022-05-19 22:12:12 GMT 46.273205 -2.432373 26,000 49 555 0
2022-05-19 22:12:06 GMT 46.263336 -2.448921 26,000 49 555 -64
2022-05-19 22:12:02 GMT 46.256630 -2.460182 26,000 49 555 0
2022-05-19 22:11:59 GMT 46.251114 -2.469445 26,000 49 554 -704
2022-05-19 22:11:56 GMT 46.246262 -2.477618 26,000 49 555 0
2022-05-19 22:11:46 GMT 46.228840 -2.506874 26,000 49 555 192
2022-05-19 22:11:38 GMT 46.215317 -2.529602 26,025 49 555 -640
2022-05-19 22:11:35 GMT 46.211105 -2.536636 26,050 49 555 -704
2022-05-19 22:11:28 GMT 46.198906 -2.557137 26,125 49 556 -640
2022-05-19 22:11:25 GMT 46.193527 -2.566111 26,150 49 555 -640
2022-05-19 22:11:18 GMT 46.182129 -2.585137 26,350 49 554 -704
2022-05-19 22:11:14 GMT 46.176098 -2.595245 26,250 49 555 -640
2022-05-19 22:11:04 GMT 46.159523 -2.622917 26,375 49 554 -704
2022-05-19 22:10:57 GMT 46.146812 -2.644135 27,225 49 553 -1024
2022-05-19 22:10:54 GMT 46.141602 -2.652786 26,500 49 553 -640
2022-05-19 22:10:48 GMT 46.130241 -2.671738 26,575 49 553 -832
2022-05-19 22:10:43 GMT 46.123856 -2.682339 26,650 49 553 -1024
2022-05-19 22:10:37 GMT 46.112972 -2.700439 26,750 49 553 -960
2022-05-19 22:10:33 GMT 46.106964 -2.710408 26,800 49 553 -960
2022-05-19 22:10:28 GMT 46.098770 -2.724073 26,900 49 552 -960
2022-05-19 22:10:22 GMT 46.089066 -2.740218 26,975 49 553 -960
2022-05-19 22:10:17 GMT 46.080013 -2.755234 27,050 49 553 -1024
2022-05-19 22:10:11 GMT 46.069473 -2.772708 27,150 49 553 -1024
2022-05-19 22:10:08 GMT 46.065811 -2.778854 27,200 49 553 -960
2022-05-19 22:10:05 GMT 46.059669 -2.789154 27,225 49 553 -960
2022-05-19 22:10:02 GMT 46.054733 -2.797600 27,575 50 553 -832
2022-05-19 22:09:59 GMT 46.049561 -2.806739 27,325 50 554 -576
2022-05-19 22:09:56 GMT 46.045006 -2.814697 27,350 46 554 -960
2022-05-19 22:09:51 GMT 46.037659 -2.827439 27,425 48 554 -832
2022-05-19 22:09:45 GMT 46.026665 -2.844360 27,500 44 553 -960
2022-05-19 22:09:41 GMT 46.018562 -2.855072 27,575 40 553 -960
2022-05-19 22:09:36 GMT 46.009415 -2.865556 27,650 35 551 -960
2022-05-19 22:09:30 GMT 45.997383 -2.877182 27,750 31 549 -896
2022-05-19 22:09:26 GMT 45.987885 -2.884941 27,800 27 547 -896
2022-05-19 22:09:19 GMT 45.972107 -2.895433 27,925 22 545 -960
2022-05-19 22:09:16 GMT 45.965027 -2.899223 27,975 17 541 -960
2022-05-19 22:09:10 GMT 45.950409 -2.905472 28,050 13 538 -960
2022-05-19 22:09:05 GMT 45.938507 -2.909032 28,150 9 535 -960
2022-05-19 22:09:00 GMT 45.924759 -2.911652 28,225 4 532 -960
2022-05-19 22:08:56 GMT 45.916660 -2.912338 28,275 1 531 -960
2022-05-19 22:08:48 GMT 45.895943 -2.911583 28,425 355 526 -960
2022-05-19 22:08:45 GMT 45.888931 -2.910506 28,475 351 522 -960
2022-05-19 22:08:38 GMT 45.873276 -2.906554 28,575 347 519 -960
2022-05-19 22:08:32 GMT 45.857574 -2.900257 28,675 343 516 -960
2022-05-19 22:08:28 GMT 45.840866 -2.890811 28,750 335 510 -960
2022-05-19 22:08:24 GMT 45.840866 -2.890811 28,800 336 510 -960
2022-05-19 22:08:15 GMT 45.821926 -2.876152 28,950 328 503 -896
2022-05-19 22:08:12 GMT 45.816055 -2.870714 29,000 325 501 -896
2022-05-19 22:08:08 GMT 45.808777 -2.863077 29,050 322 499 -896
2022-05-19 22:08:05 GMT 45.796974 -2.848892 29,125 317 495 -960
2022-05-19 22:08:01 GMT 45.796974 -2.848892 29,150 317 495 -960
2022-05-19 22:07:55 GMT 45.786407 -2.833580 29,275 313 491 -960
2022-05-19 22:07:52 GMT 45.782272 -2.826769 29,300 304 484 -960
2022-05-19 22:07:44 GMT 45.771240 -2.805600 29,625 298 479 -1024
2022-05-19 22:07:40 GMT 45.763596 -2.787300 29,500 287 471 -960
2022-05-19 22:07:37 GMT 45.763596 -2.787300 29,550 299 479 -1024
2022-05-19 22:07:31 GMT 45.754028 -2.756898 29,700 292 475 -896
2022-05-19 22:07:26 GMT 45.754028 -2.756898 29,975 288 471 -896
2022-05-19 22:07:20 GMT 45.750046 -2.739682 29,800 278 466 -960
2022-05-19 22:07:16 GMT 45.747677 -2.726463 29,875 283 468 -960
2022-05-19 22:07:10 GMT 45.745441 -2.709435 29,975 278 466 -960
2022-05-19 22:07:04 GMT 45.743999 -2.691101 30,050 274 464 -960
2022-05-19 22:07:01 GMT 45.743637 -2.680061 30,125 271 464 -960
2022-05-19 22:06:55 GMT 45.743820 -2.661170 30,200 267 462 -960
2022-05-19 22:06:49 GMT 45.744827 -2.644758 30,300 264 461 -1024
2022-05-19 22:06:43 GMT 45.747070 -2.625252 30,400 258 460 -1024
2022-05-19 22:06:40 GMT 45.748306 -2.617560 30,450 255 459 -960
2022-05-19 22:06:34 GMT 45.751957 -2.599503 30,825 252 458 -832
2022-05-19 22:06:31 GMT 45.754074 -2.590965 30,625 248 458 -832
2022-05-19 22:06:24 GMT 45.759796 -2.571471 30,675 244 457 -768
2022-05-19 22:06:21 GMT 45.763363 -2.561188 30,725 242 456 -896
2022-05-19 22:06:15 GMT 45.769547 -2.545814 30,825 237 454 -1216
2022-05-19 22:06:11 GMT 45.773792 -2.536880 30,900 234 453 -1216
2022-05-19 22:06:05 GMT 45.779938 -2.525516 31,000 230 452 -512
2022-05-19 22:06:01 GMT 45.788361 -2.512185 31,000 227 453 64
2022-05-19 22:05:52 GMT 45.800232 -2.494858 31,000 226 453 64
2022-05-19 22:05:41 GMT 45.817131 -2.470345 31,000 226 453 0
2022-05-19 22:05:34 GMT 45.826950 -2.456047 31,000 226 453 0
2022-05-19 22:05:29 GMT 45.833424 -2.446655 31,000 226 453 0
2022-05-19 22:05:25 GMT 45.839432 -2.437866 31,000 226 451 0
2022-05-19 22:05:21 GMT 45.844437 -2.430658 31,000 226 451 0
2022-05-19 22:05:12 GMT 45.862148 -2.404839 31,000 226 451 64
2022-05-19 22:05:09 GMT 45.862148 -2.404839 31,000 226 451 0
2022-05-19 22:05:03 GMT 45.871948 -2.390531 31,000 226 451 0
2022-05-19 22:05:00 GMT 45.877834 -2.382042 31,000 226 451 0
2022-05-19 22:04:55 GMT 45.882797 -2.374789 31,000 226 451 0
2022-05-19 22:04:50 GMT 45.891010 -2.362816 31,000 226 451 0
2022-05-19 22:04:40 GMT 45.905640 -2.341495 31,000 226 451 0
2022-05-19 22:04:36 GMT 45.911491 -2.332947 31,000 226 451 0
2022-05-19 22:04:30 GMT 45.920246 -2.320175 31,000 226 451 0
2022-05-19 22:04:25 GMT 45.926697 -2.310813 31,000 226 451 0
2022-05-19 22:04:18 GMT 45.942776 -2.287285 31,000 226 451 0
2022-05-19 22:04:15 GMT 45.942776 -2.287285 31,000 226 451 0
2022-05-19 22:04:09 GMT 45.951248 -2.274857 31,000 226 451 0
2022-05-19 22:04:05 GMT 45.956223 -2.267605 31,000 226 451 0
2022-05-19 22:03:59 GMT 45.966003 -2.253227 31,000 226 451 -64
2022-05-19 22:03:51 GMT 45.977692 -2.236130 31,000 226 451 0
2022-05-19 22:03:48 GMT 45.981171 -2.231028 31,000 226 451 0
2022-05-19 22:03:44 GMT 45.991840 -2.215393 31,000 226 452 0
2022-05-19 22:03:41 GMT 45.991840 -2.215393 31,000 226 452 64
2022-05-19 22:03:37 GMT 45.996552 -2.208520 31,000 226 451 64
2022-05-19 22:03:34 GMT 46.011612 -2.186413 31,000 226 452 0
2022-05-19 22:03:27 GMT 46.011612 -2.186413 31,000 226 453 0
2022-05-19 22:03:24 GMT 46.017014 -2.178508 31,000 226 453 0
2022-05-19 22:03:17 GMT 46.026943 -2.163895 31,000 226 452 -64
2022-05-19 22:03:14 GMT 46.032669 -2.155518 31,000 226 452 0
2022-05-19 22:03:06 GMT 46.042305 -2.141304 31,000 226 453 0
2022-05-19 22:03:03 GMT 46.047272 -2.134027 31,000 226 453 0
2022-05-19 22:02:56 GMT 46.057526 -2.118955 31,000 226 452 0
2022-05-19 22:02:52 GMT 46.062653 -2.111452 31,000 226 452 0
2022-05-19 22:02:48 GMT 46.072586 -2.096848 31,000 226 452 0
2022-05-19 22:02:43 GMT 46.076939 -2.090355 31,000 226 452 0
2022-05-19 22:02:36 GMT 46.085999 -2.077019 31,000 226 452 0
2022-05-19 22:02:33 GMT 46.092442 -2.067558 31,000 226 452 0
2022-05-19 22:02:26 GMT 46.100636 -2.055473 31,000 226 452 0
2022-05-19 22:02:22 GMT 46.107010 -2.046003 31,000 226 452 0
2022-05-19 22:02:16 GMT 46.115479 -2.033543 31,000 226 453 0
2022-05-19 22:02:12 GMT 46.121750 -2.024231 31,000 226 453 0
2022-05-19 22:02:05 GMT 46.131088 -2.010431 31,000 226 453 0
2022-05-19 22:02:02 GMT 46.136490 -2.002459 31,000 226 453 0
2022-05-19 22:01:56 GMT 46.145279 -1.989530 31,000 226 453 0
2022-05-19 22:01:52 GMT 46.151825 -1.979817 31,000 226 453 0
2022-05-19 22:01:46 GMT 46.159424 -1.968562 31,000 226 453 0
2022-05-19 22:01:41 GMT 46.166969 -1.957283 31,000 226 452 -64
2022-05-19 22:01:37 GMT 46.172092 -1.949730 31,000 226 452 0
2022-05-19 22:01:34 GMT 46.177490 -1.941765 31,000 226 452 0
2022-05-19 22:01:31 GMT 46.181259 -1.936139 31,000 226 452 0
2022-05-19 22:01:26 GMT 46.188709 -1.925079 31,000 226 453 0
2022-05-19 22:01:20 GMT 46.196716 -1.913200 31,000 226 453 0
2022-05-19 22:01:14 GMT 46.206356 -1.898918 31,000 226 453 0
2022-05-19 22:01:10 GMT 46.212616 -1.889581 31,000 226 453 0
2022-05-19 22:01:07 GMT 46.218567 -1.880672 31,000 226 452 0
2022-05-19 22:01:01 GMT 46.226761 -1.868547 31,000 226 452 0
2022-05-19 22:00:56 GMT 46.232563 -1.859917 31,000 226 452 0
2022-05-19 22:00:53 GMT 46.236195 -1.854492 31,000 226 452 0
2022-05-19 22:00:50 GMT 46.241177 -1.847145 31,000 226 452 0
2022-05-19 22:00:47 GMT 46.245411 -1.840828 31,000 226 453 0
2022-05-19 22:00:44 GMT 46.251205 -1.832171 31,000 226 452 0
2022-05-19 22:00:39 GMT 46.256607 -1.824132 31,000 226 452 0
2022-05-19 22:00:36 GMT 46.261288 -1.817207 31,000 226 452 0
2022-05-19 22:00:33 GMT 46.266083 -1.810066 31,000 226 452 64
2022-05-19 22:00:30 GMT 46.270752 -1.803098 31,000 226 453 0
2022-05-19 22:00:26 GMT 46.276836 -1.793999 31,000 226 453 0
2022-05-19 22:00:23 GMT 46.280365 -1.788829 31,000 226 453 0
2022-05-19 22:00:19 GMT 46.285587 -1.781021 31,000 226 453 0
2022-05-19 22:00:15 GMT 46.291718 -1.771880 31,000 226 453 0
2022-05-19 22:00:10 GMT 46.300018 -1.759529 31,000 226 453 0
2022-05-19 22:00:05 GMT 46.307327 -1.748702 31,000 226 453 0
2022-05-19 22:00:00 GMT 46.324551 -1.723068 31,000 226 453 64
2022-05-19 21:59:53 GMT 46.324551 -1.723068 31,000 226 453 0
2022-05-19 21:59:49 GMT 46.329952 -1.715103 31,000 226 453 0
2022-05-19 21:59:44 GMT 46.337997 -1.703149 31,000 226 453 64
2022-05-19 21:59:41 GMT 46.341476 -1.697991 31,000 226 453 64
2022-05-19 21:59:38 GMT 46.346008 -1.691225 31,000 226 453 0
2022-05-19 21:59:31 GMT 46.356949 -1.674946 31,000 226 453 0
2022-05-19 21:59:28 GMT 46.360630 -1.669510 31,000 226 453 0
2022-05-19 21:59:24 GMT 46.365875 -1.661749 31,000 226 454 0
2022-05-19 21:59:21 GMT 46.371151 -1.653923 31,000 227 454 0
2022-05-19 21:59:17 GMT 46.376225 -1.646301 31,000 227 454 0
2022-05-19 21:59:14 GMT 46.381760 -1.637968 31,000 227 454 0
2022-05-19 21:59:11 GMT 46.386246 -1.631202 31,000 227 454 0
2022-05-19 21:59:08 GMT 46.390144 -1.625221 31,000 227 453 0
2022-05-19 21:59:05 GMT 46.393448 -1.620140 31,000 227 453 64
2022-05-19 21:59:02 GMT 46.400616 -1.609154 31,000 227 453 0
2022-05-19 21:58:57 GMT 46.405518 -1.601659 31,000 227 453 0
2022-05-19 21:58:53 GMT 46.411423 -1.592616 31,000 227 453 0
2022-05-19 21:58:50 GMT 46.414993 -1.587055 31,000 227 453 0
2022-05-19 21:58:46 GMT 46.420898 -1.578012 31,000 227 454 -64
2022-05-19 21:58:43 GMT 46.425755 -1.570496 31,000 227 454 -64
2022-05-19 21:58:40 GMT 46.429642 -1.564547 31,000 227 453 0
2022-05-19 21:58:36 GMT 46.438293 -1.551283 31,000 227 454 0
2022-05-19 21:58:30 GMT 46.444328 -1.542000 31,000 227 454 0
2022-05-19 21:58:26 GMT 46.450378 -1.532727 31,000 227 454 0
2022-05-19 21:58:20 GMT 46.459412 -1.518791 31,000 227 454 0
2022-05-19 21:58:17 GMT 46.462440 -1.514122 31,000 227 454 0
2022-05-19 21:58:13 GMT 46.473450 -1.497088 31,000 227 454 0
2022-05-19 21:58:10 GMT 46.473450 -1.497088 31,000 227 454 0
2022-05-19 21:58:08 GMT 46.477341 -1.491059 31,000 227 454 0
2022-05-19 21:58:03 GMT 46.484665 -1.479805 31,000 227 453 0
2022-05-19 21:58:00 GMT 46.488235 -1.474245 31,000 227 454 0
2022-05-19 21:57:57 GMT 46.491535 -1.469147 31,000 227 454 0
2022-05-19 21:57:54 GMT 46.495834 -1.462521 31,000 227 454 0
2022-05-19 21:57:50 GMT 46.502613 -1.452118 31,000 227 454 0
2022-05-19 21:57:47 GMT 46.506618 -1.445869 31,000 227 454 0
2022-05-19 21:57:42 GMT 46.514065 -1.434402 31,000 227 454 0
2022-05-19 21:57:37 GMT 46.521286 -1.423332 31,000 227 454 0
2022-05-19 21:57:33 GMT 46.525726 -1.416432 31,000 227 454 0
2022-05-19 21:57:30 GMT 46.531895 -1.406937 31,000 227 454 0
2022-05-19 21:57:25 GMT 46.537628 -1.398077 31,000 227 453 0
2022-05-19 21:57:22 GMT 46.542789 -1.390114 31,000 227 453 0
2022-05-19 21:57:16 GMT 46.550262 -1.378583 31,000 227 453 0
2022-05-19 21:57:12 GMT 46.557587 -1.367262 31,000 227 453 0
2022-05-19 21:57:09 GMT 46.560989 -1.361893 31,000 227 453 0
2022-05-19 21:57:06 GMT 46.565178 -1.355507 31,000 227 453 0
2022-05-19 21:57:01 GMT 46.572189 -1.344619 31,000 227 453 0
2022-05-19 21:56:58 GMT 46.575466 -1.339508 31,000 227 453 0
2022-05-19 21:56:56 GMT 46.579891 -1.332642 31,000 227 453 0
2022-05-19 21:56:52 GMT 46.584778 -1.325125 31,000 227 453 0
2022-05-19 21:56:49 GMT 46.589493 -1.317756 31,000 227 453 0
2022-05-19 21:56:46 GMT 46.593796 -1.311124 31,000 227 453 0
2022-05-19 21:56:41 GMT 46.601257 -1.299602 31,000 227 453 0
2022-05-19 21:56:38 GMT 46.604691 -1.294243 31,000 227 453 0
2022-05-19 21:56:36 GMT 46.608379 -1.288490 31,000 227 453 0
2022-05-19 21:56:31 GMT 46.614716 -1.278768 31,000 227 453 0
2022-05-19 21:56:28 GMT 46.619877 -1.270775 31,000 227 453 0
2022-05-19 21:56:25 GMT 46.624069 -1.264320 31,000 227 453 0
2022-05-19 21:56:21 GMT 46.630966 -1.253714 31,000 227 453 0
2022-05-19 21:56:16 GMT 46.638428 -1.242192 31,000 227 453 0
2022-05-19 21:56:12 GMT 46.642597 -1.235756 31,000 227 454 0
2022-05-19 21:56:08 GMT 46.649918 -1.224507 31,000 227 454 0
2022-05-19 21:56:02 GMT 46.658005 -1.212067 31,000 227 454 0
2022-05-19 21:55:58 GMT 46.662277 -1.205415 31,000 227 454 0
2022-05-19 21:55:54 GMT 46.667908 -1.196773 31,000 227 454 0
2022-05-19 21:55:50 GMT 46.674362 -1.186791 31,000 227 454 64
2022-05-19 21:55:47 GMT 46.678673 -1.180069 31,000 227 454 0
2022-05-19 21:55:44 GMT 46.682816 -1.173683 31,000 227 454 0
2022-05-19 21:55:41 GMT 46.687008 -1.167229 31,000 227 454 0
2022-05-19 21:55:38 GMT 46.691299 -1.160531 31,000 227 454 0
2022-05-19 21:55:35 GMT 46.696178 -1.153015 31,000 227 454 0
2022-05-19 21:55:29 GMT 46.704372 -1.140312 31,000 227 454 0
2022-05-19 21:55:25 GMT 46.711121 -1.129875 31,000 227 454 0
2022-05-19 21:55:20 GMT 46.718571 -1.118340 31,000 227 454 0
2022-05-19 21:55:17 GMT 46.721455 -1.113876 31,000 227 454 0
2022-05-19 21:55:14 GMT 46.726482 -1.106117 31,000 227 453 0
2022-05-19 21:55:10 GMT 46.731510 -1.098358 31,000 227 453 0
2022-05-19 21:55:07 GMT 46.735096 -1.092796 31,000 227 453 0
2022-05-19 21:55:03 GMT 46.741009 -1.083733 31,000 227 453 0
2022-05-19 21:54:59 GMT 46.747478 -1.073708 31,000 227 453 0
2022-05-19 21:54:55 GMT 46.752365 -1.066210 31,000 227 453 0
2022-05-19 21:54:51 GMT 46.760239 -1.054018 31,000 227 454 0
2022-05-19 21:54:46 GMT 46.767471 -1.042897 31,000 227 453 0
2022-05-19 21:54:43 GMT 46.770355 -1.038476 31,000 227 453 0
2022-05-19 21:54:39 GMT 46.776806 -1.028526 31,000 227 452 0
2022-05-19 21:54:36 GMT 46.779694 -1.024063 31,000 227 453 64
2022-05-19 21:54:33 GMT 46.785000 -1.015892 31,000 227 453 64
2022-05-19 21:54:29 GMT 46.791889 -1.005249 31,000 227 453 64
2022-05-19 21:54:23 GMT 46.799652 -0.993258 31,000 227 453 0
2022-05-19 21:54:19 GMT 46.804962 -0.985018 31,000 227 453 -64
2022-05-19 21:54:16 GMT 46.809021 -0.978813 31,000 227 452 0
2022-05-19 21:54:12 GMT 46.818924 -0.963514 31,000 227 453 0
2022-05-19 21:54:09 GMT 46.818924 -0.963514 31,000 227 452 0
2022-05-19 21:54:06 GMT 46.824104 -0.955536 31,000 227 452 0
2022-05-19 21:54:03 GMT 46.829132 -0.947777 31,000 227 452 0
2022-05-19 21:53:59 GMT 46.833321 -0.941322 31,000 227 452 0
2022-05-19 21:53:56 GMT 46.837742 -0.934456 31,000 227 452 0
2022-05-19 21:53:52 GMT 46.843933 -0.924911 31,000 227 453 0
2022-05-19 21:53:49 GMT 46.847984 -0.918732 31,000 227 453 0
2022-05-19 21:53:45 GMT 46.858612 -0.902286 31,000 227 453 0
2022-05-19 21:53:42 GMT 46.858612 -0.902286 31,000 227 453 0
2022-05-19 21:53:38 GMT 46.865208 -0.892090 31,000 227 452 -64
2022-05-19 21:53:35 GMT 46.867950 -0.887901 31,000 227 452 0
2022-05-19 21:53:33 GMT 46.872284 -0.881230 31,000 227 452 0
2022-05-19 21:53:30 GMT 46.875870 -0.875667 31,000 227 453 0
2022-05-19 21:53:27 GMT 46.879623 -0.869911 31,000 227 452 0
2022-05-19 21:53:24 GMT 46.883781 -0.863483 31,000 227 452 0
2022-05-19 21:53:22 GMT 46.887367 -0.857990 31,000 227 452 0
2022-05-19 21:53:19 GMT 46.891834 -0.851088 31,000 227 452 0
2022-05-19 21:53:14 GMT 46.902695 -0.834549 31,000 227 452 0
2022-05-19 21:53:11 GMT 46.902695 -0.834549 31,000 227 452 0
2022-05-19 21:53:07 GMT 46.908733 -0.825242 31,000 227 452 0
2022-05-19 21:53:04 GMT 46.912491 -0.819511 31,000 227 452 0
2022-05-19 21:53:02 GMT 46.915810 -0.814397 31,000 227 452 0
2022-05-19 21:52:59 GMT 46.922001 -0.804889 31,000 227 452 0
2022-05-19 21:52:54 GMT 46.927029 -0.797143 31,000 227 452 0
2022-05-19 21:52:51 GMT 46.931454 -0.790241 31,000 227 452 0
2022-05-19 21:52:48 GMT 46.935791 -0.783600 31,000 227 452 64
2022-05-19 21:52:45 GMT 46.946091 -0.767601 31,000 227 452 64
2022-05-19 21:52:41 GMT 46.946091 -0.767601 31,000 227 452 64
2022-05-19 21:52:38 GMT 46.950394 -0.760941 31,000 227 452 0
2022-05-19 21:52:35 GMT 46.954124 -0.755169 31,000 227 452 0
2022-05-19 21:52:31 GMT 46.964996 -0.738213 31,000 227 452 0
2022-05-19 21:52:28 GMT 46.964996 -0.738213 31,000 227 452 0
2022-05-19 21:52:24 GMT 46.970306 -0.729973 31,000 227 452 -64
2022-05-19 21:52:22 GMT 46.973465 -0.725098 31,000 227 452 -64
2022-05-19 21:52:18 GMT 46.978729 -0.716858 31,000 227 452 0
2022-05-19 21:52:15 GMT 46.982754 -0.710660 31,000 227 452 0
2022-05-19 21:52:11 GMT 46.990631 -0.698387 31,000 227 452 0
2022-05-19 21:52:08 GMT 46.993607 -0.693718 31,000 227 452 0
2022-05-19 21:52:04 GMT 46.998505 -0.686165 31,000 227 452 0
2022-05-19 21:52:01 GMT 47.002899 -0.679230 31,000 227 452 0
2022-05-19 21:51:58 GMT 47.008358 -0.670800 31,000 227 452 0
2022-05-19 21:51:55 GMT 47.011662 -0.665659 31,000 227 452 0
2022-05-19 21:51:52 GMT 47.016769 -0.657600 31,000 227 452 0
2022-05-19 21:51:49 GMT 47.021343 -0.650517 31,000 227 452 0
2022-05-19 21:51:46 GMT 47.025650 -0.643799 31,000 227 452 0
2022-05-19 21:51:42 GMT 47.035080 -0.629036 31,000 227 452 0
2022-05-19 21:51:39 GMT 47.035080 -0.629036 31,000 227 452 0
2022-05-19 21:51:37 GMT 47.037823 -0.624812 31,000 227 452 0
2022-05-19 21:51:33 GMT 47.042404 -0.617706 31,000 227 452 0
2022-05-19 21:51:30 GMT 47.047668 -0.609398 31,000 227 453 0
2022-05-19 21:51:28 GMT 47.050392 -0.605164 31,000 227 453 0
2022-05-19 21:51:25 GMT 47.054718 -0.598480 31,000 227 453 0
2022-05-19 21:51:22 GMT 47.058289 -0.592850 31,000 227 452 0
2022-05-19 21:51:19 GMT 47.063553 -0.584610 31,000 227 452 0
2022-05-19 21:51:17 GMT 47.066128 -0.580585 31,000 227 452 0
2022-05-19 21:51:14 GMT 47.070694 -0.573418 31,000 227 452 0
2022-05-19 21:51:11 GMT 47.074585 -0.567375 31,000 227 452 0
2022-05-19 21:51:08 GMT 47.078697 -0.560937 31,000 227 452 0
2022-05-19 21:51:02 GMT 47.086704 -0.548401 31,000 227 452 0
2022-05-19 21:50:59 GMT 47.092010 -0.540161 31,000 227 452 0
2022-05-19 21:50:56 GMT 47.100723 -0.526520 31,000 227 452 64
2022-05-19 21:50:53 GMT 47.100723 -0.526520 31,000 227 452 64
2022-05-19 21:50:50 GMT 47.105000 -0.519808 31,000 227 452 0
2022-05-19 21:50:47 GMT 47.109699 -0.512414 31,000 227 452 0
2022-05-19 21:50:44 GMT 47.112717 -0.507706 31,000 227 452 64
2022-05-19 21:50:40 GMT 47.123978 -0.489990 31,000 227 452 0
2022-05-19 21:50:37 GMT 47.123978 -0.489990 31,000 227 452 0
2022-05-19 21:50:34 GMT 47.133675 -0.474736 31,000 228 452 0
2022-05-19 21:50:30 GMT 47.133675 -0.474736 31,000 227 452 0
2022-05-19 21:50:26 GMT 47.138981 -0.466496 31,000 227 452 0
2022-05-19 21:50:24 GMT 47.141960 -0.461778 31,000 227 452 0
2022-05-19 21:50:21 GMT 47.146545 -0.454628 31,000 227 452 0
2022-05-19 21:50:19 GMT 47.153366 -0.443890 31,000 227 452 0
2022-05-19 21:50:16 GMT 47.153366 -0.443890 31,000 227 452 0
2022-05-19 21:50:12 GMT 47.158218 -0.436226 31,000 227 452 0
2022-05-19 21:50:08 GMT 47.165051 -0.425509 31,000 227 452 0
2022-05-19 21:50:05 GMT 47.168747 -0.419678 31,000 228 452 0
2022-05-19 21:50:02 GMT 47.172592 -0.413635 31,000 228 452 0
2022-05-19 21:49:57 GMT 47.180599 -0.401071 31,000 228 452 0
2022-05-19 21:49:54 GMT 47.185581 -0.393184 31,000 228 452 0
2022-05-19 21:49:48 GMT 47.193695 -0.380470 31,000 228 452 64
2022-05-19 21:49:45 GMT 47.196800 -0.375507 31,000 228 452 64
2022-05-19 21:49:42 GMT 47.201797 -0.367630 31,000 228 452 0
2022-05-19 21:49:37 GMT 47.209370 -0.355788 31,000 228 452 0
2022-05-19 21:49:33 GMT 47.213608 -0.349022 31,000 228 452 0
2022-05-19 21:49:30 GMT 47.218449 -0.341421 31,000 228 452 0
2022-05-19 21:49:27 GMT 47.223427 -0.333534 31,000 228 452 0
2022-05-19 21:49:24 GMT 47.227432 -0.327266 31,000 228 452 0
2022-05-19 21:49:21 GMT 47.233109 -0.318329 31,000 228 452 0
2022-05-19 21:49:16 GMT 47.238235 -0.310226 31,000 228 452 0
2022-05-19 21:49:12 GMT 47.244644 -0.300133 31,000 228 452 0
2022-05-19 21:49:09 GMT 47.249451 -0.292476 31,000 228 452 0
2022-05-19 21:49:07 GMT 47.252335 -0.287979 31,000 228 452 0
2022-05-19 21:49:04 GMT 47.255875 -0.282335 31,000 228 452 0
2022-05-19 21:49:01 GMT 47.259693 -0.276278 31,000 228 452 0
2022-05-19 21:48:58 GMT 47.264832 -0.268204 31,000 228 451 64
2022-05-19 21:48:55 GMT 47.272888 -0.255363 31,000 228 451 64
2022-05-19 21:48:52 GMT 47.272888 -0.255363 31,000 228 451 64
2022-05-19 21:48:47 GMT 47.278591 -0.246418 31,000 228 451 0
2022-05-19 21:48:44 GMT 47.284698 -0.236755 31,000 228 451 0
2022-05-19 21:48:41 GMT 47.288818 -0.230232 31,000 228 451 0
2022-05-19 21:48:38 GMT 47.293213 -0.223297 31,000 228 451 0
2022-05-19 21:48:34 GMT 47.297607 -0.216293 31,000 228 450 0
2022-05-19 21:48:31 GMT 47.302010 -0.209374 31,000 228 451 0
2022-05-19 21:48:27 GMT 47.307953 -0.199951 31,000 228 450 0
2022-05-19 21:48:25 GMT 47.311478 -0.194321 31,000 228 450 0
2022-05-19 21:48:21 GMT 47.316147 -0.186905 31,000 228 450 0
2022-05-19 21:48:15 GMT 47.326630 -0.170219 31,000 228 450 0
2022-05-19 21:48:11 GMT 47.330311 -0.164372 31,000 228 450 0
2022-05-19 21:48:07 GMT 47.336365 -0.154724 31,000 228 450 0
2022-05-19 21:48:04 GMT 47.340649 -0.147963 31,000 228 450 0
2022-05-19 21:48:01 GMT 47.344299 -0.142136 31,000 228 450 0
2022-05-19 21:47:57 GMT 47.350517 -0.132258 31,000 228 450 0
2022-05-19 21:47:54 GMT 47.354939 -0.125286 31,000 228 450 0
2022-05-19 21:47:51 GMT 47.359451 -0.118034 31,000 228 450 0
2022-05-19 21:47:48 GMT 47.366249 -0.107258 31,000 228 450 0
2022-05-19 21:47:43 GMT 47.371033 -0.099632 31,000 228 450 0
2022-05-19 21:47:40 GMT 47.375004 -0.093313 31,000 228 450 0
2022-05-19 21:47:37 GMT 47.383484 -0.079788 31,000 228 450 0
2022-05-19 21:47:34 GMT 47.383484 -0.079788 31,000 228 450 0
2022-05-19 21:47:31 GMT 47.387154 -0.073946 31,000 228 450 0
2022-05-19 21:47:28 GMT 47.395660 -0.060425 31,000 228 450 0
2022-05-19 21:47:25 GMT 47.395660 -0.060425 31,000 228 450 0
2022-05-19 21:47:22 GMT 47.404678 -0.046005 31,000 228 450 0
2022-05-19 21:47:19 GMT 47.404678 -0.046005 31,000 228 450 0
2022-05-19 21:47:16 GMT 47.409779 -0.037889 31,000 228 450 0
2022-05-19 21:47:12 GMT 47.417690 -0.025283 31,000 228 450 64
2022-05-19 21:47:09 GMT 47.417690 -0.025283 31,000 228 450 64
2022-05-19 21:47:07 GMT 47.422344 -0.017818 31,000 228 450 64
2022-05-19 21:47:04 GMT 47.426441 -0.011268 31,000 228 451 0
2022-05-19 21:47:01 GMT 47.429169 -0.007004 31,000 228 451 0
2022-05-19 21:46:58 GMT 47.434113 0.000961 31,000 228 451 0
2022-05-19 21:46:55 GMT 47.438358 0.007676 31,000 228 451 0
2022-05-19 21:46:51 GMT 47.444134 0.016972 31,000 228 451 -64
2022-05-19 21:46:48 GMT 47.447800 0.022865 31,000 228 451 -64
2022-05-19 21:46:46 GMT 47.450928 0.027818 31,000 228 451 -64
2022-05-19 21:46:41 GMT 47.458237 0.039551 31,000 228 451 0
2022-05-19 21:46:38 GMT 47.463455 0.047928 31,000 228 451 0
2022-05-19 21:46:33 GMT 47.469543 0.057610 31,000 228 451 0
2022-05-19 21:46:30 GMT 47.473663 0.064201 31,000 228 451 0
2022-05-19 21:46:26 GMT 47.479698 0.073876 31,000 228 451 0
2022-05-19 21:46:23 GMT 47.484787 0.082054 31,000 228 450 0
2022-05-19 21:46:20 GMT 47.488171 0.087468 31,000 228 450 0
2022-05-19 21:46:17 GMT 47.491699 0.093109 31,000 228 450 0
2022-05-19 21:46:15 GMT 47.494949 0.098328 31,000 228 450 0
2022-05-19 21:46:11 GMT 47.500599 0.107398 31,000 228 451 0
2022-05-19 21:46:08 GMT 47.505257 0.114863 31,000 228 450 0
2022-05-19 21:46:06 GMT 47.513447 0.128033 31,000 228 451 64
2022-05-19 21:46:02 GMT 47.513447 0.128033 31,000 228 451 64
2022-05-19 21:45:59 GMT 47.517517 0.134583 31,000 228 451 0
2022-05-19 21:45:56 GMT 47.521637 0.141174 31,000 228 451 0
2022-05-19 21:45:54 GMT 47.524017 0.145020 31,000 228 451 0
2022-05-19 21:45:51 GMT 47.528824 0.152710 31,000 228 451 -64
2022-05-19 21:45:47 GMT 47.534729 0.162254 31,000 228 451 -64
2022-05-19 21:45:45 GMT 47.536865 0.165640 31,000 228 451 0
2022-05-19 21:45:42 GMT 47.543194 0.175852 31,000 228 451 0
2022-05-19 21:45:38 GMT 47.547729 0.183128 31,000 228 451 64
2022-05-19 21:45:36 GMT 47.551804 0.189720 31,000 228 451 64
2022-05-19 21:45:34 GMT 47.551804 0.189720 31,000 228 451 64
2022-05-19 21:45:31 GMT 47.556602 0.197402 31,000 228 451 64
2022-05-19 21:45:27 GMT 47.563213 0.208106 31,000 228 451 64
2022-05-19 21:45:25 GMT 47.566040 0.212654 31,000 228 451 0
2022-05-19 21:45:20 GMT 47.573227 0.224258 31,000 228 451 0
2022-05-19 21:45:17 GMT 47.576481 0.229445 31,000 228 451 -64
2022-05-19 21:45:15 GMT 47.580017 0.235150 31,000 228 451 -64
2022-05-19 21:45:13 GMT 47.581833 0.238108 31,000 228 451 -64
2022-05-19 21:45:10 GMT 47.586071 0.244939 31,000 228 451 0
2022-05-19 21:45:05 GMT 47.593552 0.256943 31,000 228 451 0
2022-05-19 21:45:03 GMT 47.596207 0.261269 31,000 228 451 -64
2022-05-19 21:45:01 GMT 47.600594 0.268320 31,000 228 451 0
2022-05-19 21:44:58 GMT 47.603119 0.272461 31,000 228 451 0
2022-05-19 21:44:55 GMT 47.607063 0.278813 31,000 228 451 0
2022-05-19 21:44:53 GMT 47.610580 0.284477 31,000 228 451 0
2022-05-19 21:44:49 GMT 47.616211 0.293610 31,000 228 451 0
2022-05-19 21:44:46 GMT 47.623718 0.305626 31,000 228 451 0
2022-05-19 21:44:43 GMT 47.623718 0.305626 31,000 228 451 0
2022-05-19 21:44:40 GMT 47.629318 0.314730 31,000 228 451 0
2022-05-19 21:44:37 GMT 47.637360 0.327736 31,000 228 451 0
2022-05-19 21:44:34 GMT 47.643284 0.337266 31,000 228 451 0
2022-05-19 21:44:30 GMT 47.643284 0.337266 31,000 228 451 0
2022-05-19 21:44:26 GMT 47.649170 0.346893 31,000 228 451 0
2022-05-19 21:44:23 GMT 47.651848 0.351210 31,000 228 451 0
2022-05-19 21:44:20 GMT 47.658226 0.361422 31,000 228 452 0
2022-05-19 21:44:17 GMT 47.661713 0.367149 31,000 228 452 0
2022-05-19 21:44:14 GMT 47.665970 0.374016 31,000 228 452 0
2022-05-19 21:44:11 GMT 47.673122 0.385648 31,000 228 452 64
2022-05-19 21:44:04 GMT 47.680435 0.397568 31,000 228 452 64
2022-05-19 21:44:00 GMT 47.684807 0.404593 31,000 228 452 0
2022-05-19 21:43:57 GMT 47.689182 0.411706 31,000 228 452 0
2022-05-19 21:43:55 GMT 47.692017 0.416313 31,000 228 452 0
2022-05-19 21:43:53 GMT 47.694675 0.420650 31,000 228 452 0
2022-05-19 21:43:49 GMT 47.700451 0.430016 31,000 228 453 0
2022-05-19 21:43:46 GMT 47.704102 0.435951 31,000 228 453 0
2022-05-19 21:43:44 GMT 47.708496 0.443092 31,000 228 453 0
2022-05-19 21:43:41 GMT 47.713852 0.451744 31,000 228 453 0
2022-05-19 21:43:38 GMT 47.717113 0.457059 31,000 228 453 0
2022-05-19 21:43:35 GMT 47.720608 0.462764 31,000 228 453 0
2022-05-19 21:43:32 GMT 47.727543 0.474032 31,000 228 453 0
2022-05-19 21:43:30 GMT 47.727543 0.474032 31,000 228 453 0
2022-05-19 21:43:27 GMT 47.732346 0.481819 31,000 228 453 0
2022-05-19 21:43:25 GMT 47.734989 0.486145 31,000 228 453 0
2022-05-19 21:43:23 GMT 47.737133 0.489596 31,000 228 453 0
2022-05-19 21:43:19 GMT 47.743183 0.499526 31,000 228 453 0
2022-05-19 21:43:16 GMT 47.747841 0.507061 31,000 228 453 0
2022-05-19 21:43:13 GMT 47.751236 0.512625 31,000 228 453 0
2022-05-19 21:43:09 GMT 47.757149 0.522273 31,000 228 453 0
2022-05-19 21:43:06 GMT 47.761246 0.528893 31,000 228 453 0
2022-05-19 21:43:02 GMT 47.766182 0.536922 31,000 228 453 0
2022-05-19 21:42:58 GMT 47.772675 0.547531 31,000 228 453 0
2022-05-19 21:42:55 GMT 47.776470 0.553753 31,000 228 453 0
2022-05-19 21:42:53 GMT 47.780411 0.560165 31,000 228 453 0
2022-05-19 21:42:50 GMT 47.785355 0.568268 31,000 228 453 0
2022-05-19 21:42:46 GMT 47.789291 0.574722 31,000 228 453 0
2022-05-19 21:42:43 GMT 47.794235 0.582756 31,000 228 453 0
2022-05-19 21:42:38 GMT 47.800552 0.593124 31,000 228 454 0
2022-05-19 21:42:34 GMT 47.806915 0.603473 31,000 228 453 0
2022-05-19 21:42:31 GMT 47.810303 0.609055 31,000 228 453 0
2022-05-19 21:42:28 GMT 47.815105 0.616854 31,000 228 454 0
2022-05-19 21:42:25 GMT 47.818180 0.621925 31,000 228 454 0
2022-05-19 21:42:23 GMT 47.827492 0.637207 31,000 228 454 0
2022-05-19 21:42:19 GMT 47.827492 0.637207 31,000 228 453 64
2022-05-19 21:42:16 GMT 47.831448 0.643616 31,000 228 454 0
2022-05-19 21:42:13 GMT 47.841751 0.660484 31,000 228 454 0
2022-05-19 21:42:09 GMT 47.841751 0.660484 31,000 228 454 0
2022-05-19 21:42:05 GMT 47.846809 0.668828 31,000 228 454 0
2022-05-19 21:42:03 GMT 47.850628 0.675025 31,000 228 454 0
2022-05-19 21:41:59 GMT 47.856117 0.684040 31,000 228 454 0
2022-05-19 21:41:56 GMT 47.859890 0.690308 31,000 228 454 0
2022-05-19 21:41:53 GMT 47.863998 0.697014 31,000 228 454 0
2022-05-19 21:41:51 GMT 47.866928 0.701820 31,000 228 454 0
2022-05-19 21:41:49 GMT 47.869217 0.705528 31,000 228 454 64
2022-05-19 21:41:46 GMT 47.874710 0.714592 31,000 228 454 0
2022-05-19 21:41:43 GMT 47.884983 0.731436 31,000 228 454 64
2022-05-19 21:41:39 GMT 47.884983 0.731436 31,000 228 454 0
2022-05-19 21:41:36 GMT 47.888195 0.736788 31,000 228 454 0
2022-05-19 21:41:31 GMT 47.894669 0.747414 31,000 228 454 0
2022-05-19 21:41:29 GMT 47.897507 0.752014 31,000 228 454 0
2022-05-19 21:41:26 GMT 47.901855 0.759155 31,000 228 454 0
2022-05-19 21:41:24 GMT 47.905792 0.765663 31,000 228 454 0
2022-05-19 21:41:22 GMT 47.907623 0.768631 31,000 228 453 0
2022-05-19 21:41:19 GMT 47.911842 0.775593 31,000 228 453 0
2022-05-19 21:41:16 GMT 47.916779 0.783691 31,000 228 453 0
2022-05-19 21:41:12 GMT 47.922134 0.792458 31,000 228 453 -64
2022-05-19 21:41:09 GMT 47.926483 0.799667 31,000 228 453 -64
2022-05-19 21:41:06 GMT 47.930977 0.807073 31,000 228 453 -64
2022-05-19 21:41:04 GMT 47.933624 0.811409 31,000 228 453 -64
2022-05-19 21:41:01 GMT 47.937149 0.817245 31,000 228 453 0
2022-05-19 21:40:59 GMT 47.940517 0.822777 31,000 228 453 -64
2022-05-19 21:40:56 GMT 47.947540 0.834343 31,000 228 453 -64
2022-05-19 21:40:51 GMT 47.952019 0.841722 31,000 229 453 0
2022-05-19 21:40:49 GMT 47.954132 0.845192 31,000 229 453 -64
2022-05-19 21:40:46 GMT 47.959743 0.854469 31,000 229 453 0
2022-05-19 21:40:42 GMT 47.963516 0.860737 31,000 229 453 0
2022-05-19 21:40:40 GMT 47.966030 0.864892 31,000 229 453 0
2022-05-19 21:40:36 GMT 47.973175 0.876709 31,000 229 453 0
2022-05-19 21:40:33 GMT 47.975967 0.881310 31,000 229 453 0
2022-05-19 21:40:31 GMT 47.978786 0.885949 31,000 229 453 0
2022-05-19 21:40:28 GMT 47.982975 0.892921 31,000 229 453 0
2022-05-19 21:40:25 GMT 47.993076 0.909541 31,000 229 453 0
2022-05-19 21:40:22 GMT 47.993076 0.909541 31,000 229 453 0
2022-05-19 21:40:19 GMT 47.996704 0.915573 31,000 229 453 0
2022-05-19 21:40:16 GMT 48.000896 0.922570 31,000 229 453 0
2022-05-19 21:40:12 GMT 48.007095 0.932739 31,000 229 453 0
2022-05-19 21:40:09 GMT 48.011993 0.940910 31,000 229 453 64
2022-05-19 21:40:06 GMT 48.015186 0.946233 31,000 229 453 0
2022-05-19 21:40:03 GMT 48.018959 0.952501 31,000 229 453 0
2022-05-19 21:40:00 GMT 48.023289 0.959684 31,000 229 453 64
2022-05-19 21:39:55 GMT 48.030029 0.970848 31,000 229 453 64
2022-05-19 21:39:53 GMT 48.032272 0.974556 31,000 229 453 64
2022-05-19 21:39:50 GMT 48.036896 0.982178 31,000 229 453 0
2022-05-19 21:39:47 GMT 48.042515 0.991516 31,000 229 453 0
2022-05-19 21:39:44 GMT 48.046143 0.997559 31,000 229 453 0
2022-05-19 21:39:41 GMT 48.049496 1.003136 31,000 229 453 0
2022-05-19 21:39:38 GMT 48.058319 1.017746 31,000 229 453 0
2022-05-19 21:39:35 GMT 48.058319 1.017746 31,000 229 453 0
2022-05-19 21:39:32 GMT 48.061661 1.023376 31,000 229 453 0
2022-05-19 21:39:29 GMT 48.066162 1.030813 31,000 229 453 0
2022-05-19 21:39:26 GMT 48.070358 1.037796 31,000 229 453 0
2022-05-19 21:39:23 GMT 48.074265 1.044265 31,000 229 453 0
2022-05-19 21:39:21 GMT 48.077911 1.050362 31,000 229 453 -64
2022-05-19 21:39:18 GMT 48.086197 1.064026 31,000 229 453 -64
2022-05-19 21:39:14 GMT 48.089127 1.068970 31,000 229 453 -64
2022-05-19 21:39:12 GMT 48.089127 1.068970 31,000 229 453 0
2022-05-19 21:39:10 GMT 48.092926 1.075218 31,000 229 453 0
2022-05-19 21:39:07 GMT 48.096703 1.081519 31,000 229 453 64
2022-05-19 21:39:03 GMT 48.102310 1.090805 31,000 229 453 64
2022-05-19 21:39:01 GMT 48.105789 1.096642 31,000 229 453 0
2022-05-19 21:38:58 GMT 48.114204 1.110605 31,000 229 453 0
2022-05-19 21:38:54 GMT 48.114204 1.110605 31,000 229 453 0
2022-05-19 21:38:51 GMT 48.119652 1.119760 31,000 229 453 64
2022-05-19 21:38:48 GMT 48.124420 1.127678 31,000 229 453 0
2022-05-19 21:38:43 GMT 48.134216 1.144020 31,000 229 453 0
2022-05-19 21:38:41 GMT 48.134216 1.144020 31,000 229 453 -64
2022-05-19 21:38:38 GMT 48.138969 1.151945 31,000 229 453 -64
2022-05-19 21:38:35 GMT 48.141769 1.156586 31,000 229 453 -64
2022-05-19 21:38:33 GMT 48.144417 1.161030 31,000 229 453 -64
2022-05-19 21:38:31 GMT 48.148590 1.168053 31,000 229 453 0
2022-05-19 21:38:28 GMT 48.152237 1.174129 31,000 229 453 0
2022-05-19 21:38:25 GMT 48.155731 1.179932 31,000 229 453 0
2022-05-19 21:38:20 GMT 48.162689 1.191594 31,000 229 453 0
2022-05-19 21:38:17 GMT 48.166718 1.198355 31,000 229 453 0
2022-05-19 21:38:14 GMT 48.171463 1.206255 31,000 229 453 0
2022-05-19 21:38:12 GMT 48.174255 1.210954 31,000 229 453 0
2022-05-19 21:38:10 GMT 48.177338 1.216102 31,000 229 452 0
2022-05-19 21:38:05 GMT 48.187088 1.232370 31,000 229 452 0
2022-05-19 21:38:03 GMT 48.187088 1.232370 31,000 229 452 0
2022-05-19 21:38:00 GMT 48.190430 1.238004 31,000 229 452 0
2022-05-19 21:37:55 GMT 48.205994 1.264132 31,000 229 451 0
2022-05-19 21:37:49 GMT 48.205994 1.264132 31,000 229 451 0
2022-05-19 21:37:44 GMT 48.212383 1.274848 31,000 229 451 0
2022-05-19 21:37:40 GMT 48.222672 1.292050 31,000 229 451 0
2022-05-19 21:37:37 GMT 48.222672 1.292050 31,000 229 451 0
2022-05-19 21:37:34 GMT 48.226273 1.298147 31,000 229 451 0
2022-05-19 21:37:31 GMT 48.231842 1.307445 31,000 229 451 0
2022-05-19 21:37:26 GMT 48.236961 1.316046 31,000 229 451 0
2022-05-19 21:37:23 GMT 48.245716 1.330791 31,000 229 451 64
2022-05-19 21:37:21 GMT 48.247925 1.334487 31,000 229 451 64
2022-05-19 21:37:15 GMT 48.255028 1.346403 31,000 229 452 64
2022-05-19 21:37:10 GMT 48.259872 1.354558 31,000 229 452 0
2022-05-19 21:37:08 GMT 48.262661 1.359269 31,000 229 452 0
2022-05-19 21:37:05 GMT 48.267929 1.368080 31,000 229 452 0
2022-05-19 21:37:03 GMT 48.270721 1.372798 31,000 229 452 0
2022-05-19 21:36:59 GMT 48.275414 1.380736 31,000 229 452 0
2022-05-19 21:36:54 GMT 48.281662 1.391249 31,000 229 452 0
2022-05-19 21:36:52 GMT 48.284306 1.395697 31,000 229 452 0
2022-05-19 21:36:50 GMT 48.288208 1.402236 31,000 229 452 0
2022-05-19 21:36:47 GMT 48.292358 1.409213 31,000 229 452 0
2022-05-19 21:36:44 GMT 48.296272 1.415791 31,000 229 451 0
2022-05-19 21:36:41 GMT 48.301392 1.424464 31,000 229 451 0
2022-05-19 21:36:39 GMT 48.303635 1.428223 31,000 229 451 0
2022-05-19 21:36:34 GMT 48.310410 1.439632 31,000 229 451 0
2022-05-19 21:36:30 GMT 48.314713 1.446956 31,000 229 451 0
2022-05-19 21:36:27 GMT 48.319016 1.454210 31,000 229 451 0
2022-05-19 21:36:24 GMT 48.324806 1.464001 31,000 229 451 0
2022-05-19 21:36:21 GMT 48.327461 1.468482 31,000 229 451 0
2022-05-19 21:36:18 GMT 48.331604 1.475478 31,000 229 451 0
2022-05-19 21:36:16 GMT 48.334816 1.480914 31,000 229 451 0
2022-05-19 21:36:13 GMT 48.338974 1.487943 31,000 229 451 0
2022-05-19 21:36:11 GMT 48.342178 1.493296 31,000 229 451 0
2022-05-19 21:36:07 GMT 48.347710 1.502669 31,000 229 451 0
2022-05-19 21:36:04 GMT 48.351574 1.509247 31,000 229 451 64
2022-05-19 21:36:02 GMT 48.354355 1.513930 31,000 229 451 0
2022-05-19 21:36:00 GMT 48.356976 1.518354 31,000 229 452 64
2022-05-19 21:35:58 GMT 48.365585 1.532882 31,000 229 452 64
2022-05-19 21:35:54 GMT 48.365585 1.532882 31,000 229 452 0
2022-05-19 21:35:51 GMT 48.370148 1.540688 31,000 229 452 0
2022-05-19 21:35:48 GMT 48.373779 1.546759 31,000 229 452 0
2022-05-19 21:35:44 GMT 48.379414 1.556372 31,000 229 452 0
2022-05-19 21:35:40 GMT 48.385117 1.566045 31,000 229 452 0
2022-05-19 21:35:36 GMT 48.394962 1.582754 31,000 229 452 0
2022-05-19 21:35:33 GMT 48.394962 1.582754 31,000 229 452 0
2022-05-19 21:35:30 GMT 48.398392 1.588581 31,000 229 452 0
2022-05-19 21:35:28 GMT 48.401756 1.594246 31,000 229 452 0
2022-05-19 21:35:24 GMT 48.407436 1.603859 31,000 229 452 0
2022-05-19 21:35:21 GMT 48.415604 1.617737 31,000 229 452 0
2022-05-19 21:35:18 GMT 48.415604 1.617737 31,000 229 452 0
2022-05-19 21:35:14 GMT 48.421124 1.627205 31,000 229 452 0
2022-05-19 21:35:11 GMT 48.425262 1.634216 31,000 229 452 -64
2022-05-19 21:35:08 GMT 48.429970 1.642239 31,000 229 452 -64
2022-05-19 21:35:03 GMT 48.436207 1.652864 31,000 229 453 0
2022-05-19 21:35:00 GMT 48.440258 1.659731 31,000 229 453 0
2022-05-19 21:34:58 GMT 48.443573 1.665344 31,000 229 453 0
2022-05-19 21:34:56 GMT 48.447601 1.672175 31,000 229 453 0
2022-05-19 21:34:53 GMT 48.449661 1.675704 31,000 229 452 0
2022-05-19 21:34:50 GMT 48.454376 1.683725 31,000 229 452 0
2022-05-19 21:34:48 GMT 48.457397 1.688937 31,000 229 452 0
2022-05-19 21:34:45 GMT 48.461426 1.695768 31,000 229 453 0
2022-05-19 21:34:42 GMT 48.465729 1.703092 31,000 229 453 0
2022-05-19 21:34:40 GMT 48.467651 1.706402 31,000 229 453 0
2022-05-19 21:34:38 GMT 48.470703 1.711554 31,000 229 453 0
2022-05-19 21:34:35 GMT 48.475433 1.719572 31,000 229 453 0
2022-05-19 21:34:32 GMT 48.478195 1.724348 31,000 229 453 0
2022-05-19 21:34:29 GMT 48.483170 1.732812 31,000 229 453 0
2022-05-19 21:34:26 GMT 48.486065 1.737791 31,000 229 453 0
2022-05-19 21:34:24 GMT 48.489670 1.743939 31,000 229 453 0
2022-05-19 21:34:21 GMT 48.494118 1.751452 31,000 229 453 0
2022-05-19 21:34:19 GMT 48.496765 1.755981 31,000 229 453 0
2022-05-19 21:34:17 GMT 48.499519 1.760704 31,000 229 453 0
2022-05-19 21:34:14 GMT 48.503799 1.768004 31,000 229 453 0
2022-05-19 21:34:12 GMT 48.508083 1.775376 31,000 229 454 0
2022-05-19 21:34:08 GMT 48.512100 1.782250 31,000 229 454 0
2022-05-19 21:34:06 GMT 48.514881 1.786941 31,000 229 454 0
2022-05-19 21:34:04 GMT 48.519287 1.794574 31,000 229 454 -64
2022-05-19 21:33:59 GMT 48.524689 1.803800 31,000 229 454 0
2022-05-19 21:33:57 GMT 48.527618 1.808730 31,000 229 454 0
2022-05-19 21:33:54 GMT 48.531189 1.814927 31,000 229 454 0
2022-05-19 21:33:51 GMT 48.540764 1.831247 31,000 229 454 0
2022-05-19 21:33:48 GMT 48.540764 1.831247 31,000 229 454 0
2022-05-19 21:33:44 GMT 48.545048 1.838620 31,000 229 454 0
2022-05-19 21:33:41 GMT 48.550598 1.848098 31,000 229 454 0
2022-05-19 21:33:38 GMT 48.553482 1.853098 31,000 229 454 0
2022-05-19 21:33:36 GMT 48.555954 1.857323 31,000 229 454 0
2022-05-19 21:33:34 GMT 48.559570 1.863484 31,000 229 454 0
2022-05-19 21:33:31 GMT 48.564560 1.872042 31,000 229 454 0
2022-05-19 21:33:28 GMT 48.567345 1.876783 31,000 229 454 0
2022-05-19 21:33:26 GMT 48.569962 1.881338 31,000 229 454 0
2022-05-19 21:33:24 GMT 48.572571 1.885845 31,000 229 454 0
2022-05-19 21:33:22 GMT 48.579941 1.898452 31,000 229 454 0
2022-05-19 21:33:19 GMT 48.579941 1.898452 31,000 229 454 0
2022-05-19 21:33:17 GMT 48.586166 1.909156 31,000 229 454 0
2022-05-19 21:33:12 GMT 48.594299 1.923186 31,000 229 454 0
2022-05-19 21:33:09 GMT 48.594299 1.923186 31,000 229 454 0
2022-05-19 21:33:07 GMT 48.597519 1.928664 31,000 229 454 0
2022-05-19 21:33:03 GMT 48.601654 1.935762 31,000 229 454 0
2022-05-19 21:33:00 GMT 48.609661 1.949567 31,000 229 454 0
2022-05-19 21:32:58 GMT 48.609661 1.949567 31,000 229 454 0
2022-05-19 21:32:56 GMT 48.611481 1.952679 31,000 229 454 0
2022-05-19 21:32:53 GMT 48.616737 1.961710 31,000 229 454 0
2022-05-19 21:32:50 GMT 48.623520 1.973384 31,000 229 454 0
2022-05-19 21:32:48 GMT 48.623520 1.973384 31,000 229 454 0
2022-05-19 21:32:46 GMT 48.625443 1.976764 31,000 229 454 0
2022-05-19 21:32:43 GMT 48.630295 1.985075 31,000 229 454 0
2022-05-19 21:32:39 GMT 48.635822 1.994597 31,000 229 454 0
2022-05-19 21:32:37 GMT 48.638031 1.998455 31,000 229 454 0
2022-05-19 21:32:34 GMT 48.642014 2.005366 31,000 229 454 64
2022-05-19 21:32:31 GMT 48.646576 2.013245 31,000 229 454 64
2022-05-19 21:32:28 GMT 48.650482 2.019865 31,000 229 454 64
2022-05-19 21:32:26 GMT 48.653229 2.024654 31,000 229 454 64
2022-05-19 21:32:24 GMT 48.656433 2.030147 31,000 229 454 0
2022-05-19 21:32:21 GMT 48.661659 2.039193 31,000 229 454 0
2022-05-19 21:32:19 GMT 48.664169 2.043527 31,000 229 454 -64
2022-05-19 21:32:16 GMT 48.667648 2.049443 31,000 229 454 -64
2022-05-19 21:32:13 GMT 48.671947 2.056901 31,000 229 454 -64
2022-05-19 21:32:09 GMT 48.676071 2.064021 31,000 229 454 -64
2022-05-19 21:32:07 GMT 48.680099 2.070923 31,000 229 454 -64
2022-05-19 21:32:05 GMT 48.684402 2.078388 31,000 229 455 0
2022-05-19 21:32:01 GMT 48.688385 2.085290 31,000 229 455 0
2022-05-19 21:31:57 GMT 48.696434 2.099184 31,000 229 455 0
2022-05-19 21:31:51 GMT 48.702072 2.108952 31,000 229 455 0
2022-05-19 21:31:47 GMT 48.707474 2.118319 31,000 229 455 0
2022-05-19 21:31:44 GMT 48.712601 2.127193 31,000 229 455 0
2022-05-19 21:31:42 GMT 48.716858 2.134587 31,000 229 455 0
2022-05-19 21:31:38 GMT 48.719650 2.139376 31,000 229 455 0
2022-05-19 21:31:36 GMT 48.723248 2.145659 31,000 229 455 0
2022-05-19 21:31:33 GMT 48.731094 2.159306 31,000 229 455 0
2022-05-19 21:31:30 GMT 48.731094 2.159306 31,000 229 455 64
2022-05-19 21:31:28 GMT 48.733166 2.162861 31,000 229 455 0
2022-05-19 21:31:26 GMT 48.740250 2.175152 31,000 229 455 0
2022-05-19 21:31:24 GMT 48.740250 2.175152 31,000 229 455 0
2022-05-19 21:31:21 GMT 48.743683 2.181138 31,000 229 455 0
2022-05-19 21:31:19 GMT 48.746475 2.185927 31,000 230 455 0
2022-05-19 21:31:17 GMT 48.748398 2.189237 31,000 230 455 -64
2022-05-19 21:31:15 GMT 48.750732 2.193322 31,000 230 455 -64
2022-05-19 21:31:13 GMT 48.755135 2.201024 31,000 230 455 -64
2022-05-19 21:31:11 GMT 48.757648 2.205361 31,000 230 455 0
2022-05-19 21:31:08 GMT 48.760815 2.210854 31,000 230 455 0
2022-05-19 21:31:06 GMT 48.764820 2.217793 31,000 229 455 0
2022-05-19 21:31:03 GMT 48.768997 2.225013 31,000 229 455 0
2022-05-19 21:31:00 GMT 48.772568 2.231281 31,000 230 455 0
2022-05-19 21:30:57 GMT 48.776871 2.238676 31,000 230 455 0
2022-05-19 21:30:53 GMT 48.782089 2.247861 31,000 230 455 0
2022-05-19 21:30:50 GMT 48.785534 2.253860 31,000 230 455 0
2022-05-19 21:30:48 GMT 48.789261 2.260365 31,000 230 455 0
2022-05-19 21:30:44 GMT 48.794518 2.269472 31,000 230 455 0
2022-05-19 21:30:41 GMT 48.798660 2.276705 31,000 230 455 0
2022-05-19 21:30:38 GMT 48.802963 2.284170 31,000 230 456 0
2022-05-19 21:30:35 GMT 48.806992 2.291142 31,000 230 456 0
2022-05-19 21:30:32 GMT 48.812622 2.301002 31,000 230 456 0
2022-05-19 21:30:29 GMT 48.815281 2.305611 31,000 230 456 0
2022-05-19 21:30:27 GMT 48.818169 2.310671 31,000 230 456 0
2022-05-19 21:30:24 GMT 48.822170 2.317682 31,000 230 456 0
2022-05-19 21:30:22 GMT 48.824917 2.322524 31,000 230 456 0
2022-05-19 21:30:19 GMT 48.828644 2.329029 31,000 230 456 0
2022-05-19 21:30:17 GMT 48.831711 2.334313 31,000 230 456 0
2022-05-19 21:30:14 GMT 48.835968 2.341778 31,000 230 456 0
2022-05-19 21:30:11 GMT 48.843723 2.355339 31,000 230 456 0
2022-05-19 21:30:09 GMT 48.843723 2.355339 31,000 230 456 0
2022-05-19 21:30:07 GMT 48.845772 2.358953 31,000 230 456 0
2022-05-19 21:30:05 GMT 48.848419 2.363539 31,000 230 456 0
2022-05-19 21:30:02 GMT 48.856705 2.377977 31,000 230 456 0
2022-05-19 21:29:59 GMT 48.856705 2.377977 31,000 230 456 0
2022-05-19 21:29:57 GMT 48.862656 2.388400 31,000 230 456 0
2022-05-19 21:29:55 GMT 48.862656 2.388400 31,000 230 456 0
2022-05-19 21:29:53 GMT 48.864166 2.391076 31,000 230 456 0
2022-05-19 21:29:50 GMT 48.869293 2.399949 31,000 230 456 0
2022-05-19 21:29:48 GMT 48.871330 2.403621 31,000 230 456 0
2022-05-19 21:29:46 GMT 48.877708 2.414752 31,000 230 456 0
2022-05-19 21:29:42 GMT 48.880325 2.419316 31,000 230 456 0
2022-05-19 21:29:39 GMT 48.887623 2.432171 31,000 230 455 -64
2022-05-19 21:29:37 GMT 48.887623 2.432171 31,000 230 456 -64
2022-05-19 21:29:35 GMT 48.891068 2.438170 31,000 230 456 -64
2022-05-19 21:29:32 GMT 48.893581 2.442506 31,000 230 455 -64
2022-05-19 21:29:29 GMT 48.897820 2.450023 31,000 230 455 0
2022-05-19 21:29:27 GMT 48.901154 2.455867 31,000 230 455 0
2022-05-19 21:29:24 GMT 48.905685 2.463829 31,000 230 456 0
2022-05-19 21:29:21 GMT 48.908432 2.468684 31,000 230 456 0
2022-05-19 21:29:19 GMT 48.911911 2.474670 31,000 230 456 64
2022-05-19 21:29:16 GMT 48.918091 2.485586 31,000 230 456 64
2022-05-19 21:29:14 GMT 48.918091 2.485586 31,000 230 456 64
2022-05-19 21:29:12 GMT 48.921249 2.491150 31,000 230 456 64
2022-05-19 21:29:09 GMT 48.925285 2.498161 31,000 230 456 64
2022-05-19 21:29:07 GMT 48.929123 2.504953 31,000 230 456 0
2022-05-19 21:29:04 GMT 48.932556 2.511010 31,000 230 456 0
2022-05-19 21:29:01 GMT 48.936813 2.518545 31,000 230 456 -64
2022-05-19 21:28:58 GMT 48.940567 2.525095 31,000 230 456 -64
2022-05-19 21:28:56 GMT 48.942600 2.528735 31,000 230 456 -64
2022-05-19 21:28:53 GMT 48.953934 2.548617 31,000 230 456 -64
2022-05-19 21:28:49 GMT 48.953934 2.548617 31,000 230 456 0
2022-05-19 21:28:47 GMT 48.960938 2.560941 31,000 230 456 0
2022-05-19 21:28:44 GMT 48.960938 2.560941 31,000 230 456 0
2022-05-19 21:28:42 GMT 48.965088 2.568199 31,000 230 456 0
2022-05-19 21:28:38 GMT 48.967804 2.573054 31,000 230 456 0
2022-05-19 21:28:36 GMT 48.970440 2.577667 31,000 230 456 0
2022-05-19 21:28:33 GMT 48.974579 2.584956 31,000 230 456 0
2022-05-19 21:28:31 GMT 48.977608 2.590316 31,000 230 456 0
2022-05-19 21:28:29 GMT 48.981583 2.597351 31,000 230 456 0
2022-05-19 21:28:26 GMT 48.985840 2.604887 31,000 230 456 0
2022-05-19 21:28:23 GMT 48.988449 2.609464 31,000 230 456 0
2022-05-19 21:28:21 GMT 48.991062 2.614096 31,000 230 456 0
2022-05-19 21:28:19 GMT 48.994228 2.619661 31,000 230 456 0
2022-05-19 21:28:17 GMT 48.997833 2.626014 31,000 230 456 0
2022-05-19 21:28:13 GMT 49.002502 2.634254 31,000 230 456 0
2022-05-19 21:28:11 GMT 49.006054 2.640550 31,000 230 456 0
2022-05-19 21:28:08 GMT 49.009216 2.646187 31,000 230 456 0
2022-05-19 21:28:06 GMT 49.011406 2.650090 31,000 230 456 0
2022-05-19 21:28:04 GMT 49.015690 2.657607 31,000 230 456 -64
2022-05-19 21:28:02 GMT 49.018295 2.662213 31,000 230 456 0
2022-05-19 21:27:59 GMT 49.022552 2.669748 31,000 230 456 -64
2022-05-19 21:27:56 GMT 49.026535 2.676791 31,000 230 456 0
2022-05-19 21:27:53 GMT 49.030792 2.684326 31,025 230 456 0
2022-05-19 21:27:50 GMT 49.033401 2.688974 31,000 230 457 0
2022-05-19 21:27:48 GMT 49.036869 2.695047 31,000 230 456 0
2022-05-19 21:27:46 GMT 49.039200 2.699167 31,000 230 456 64
2022-05-19 21:27:43 GMT 49.044708 2.708905 31,000 230 457 64
2022-05-19 21:27:41 GMT 49.046879 2.712828 31,000 230 457 0
2022-05-19 21:27:39 GMT 49.049767 2.717960 31,000 230 457 0
2022-05-19 21:27:37 GMT 49.052513 2.722802 31,000 230 457 0
2022-05-19 21:27:35 GMT 49.056107 2.729117 31,000 230 457 0
2022-05-19 21:27:32 GMT 49.058983 2.734295 31,000 230 457 0
2022-05-19 21:27:30 GMT 49.061737 2.739117 31,000 230 457 0
2022-05-19 21:27:28 GMT 49.064209 2.743554 31,000 230 457 0
2022-05-19 21:27:26 GMT 49.066944 2.748389 31,000 230 457 0
2022-05-19 21:27:24 GMT 49.070946 2.755472 31,000 230 457 0
2022-05-19 21:27:22 GMT 49.072174 2.757639 31,000 230 457 0
2022-05-19 21:27:19 GMT 49.077255 2.766724 31,000 230 457 0
2022-05-19 21:27:17 GMT 49.080688 2.772780 31,000 230 457 0
2022-05-19 21:27:12 GMT 49.086216 2.782504 31,000 230 457 0
2022-05-19 21:27:10 GMT 49.089066 2.787640 31,000 230 457 0
2022-05-19 21:27:08 GMT 49.091949 2.792781 31,000 230 456 0
2022-05-19 21:27:06 GMT 49.094833 2.797922 31,000 230 457 0
2022-05-19 21:27:02 GMT 49.100510 2.807922 31,000 230 456 0
2022-05-19 21:26:59 GMT 49.104767 2.815458 31,000 230 456 0
2022-05-19 21:26:56 GMT 49.108292 2.821796 31,000 230 456 0
2022-05-19 21:26:54 GMT 49.110516 2.825727 31,000 230 456 0
2022-05-19 21:26:51 GMT 49.114609 2.833064 31,000 230 456 0
2022-05-19 21:26:49 GMT 49.118729 2.840318 31,000 230 456 0
2022-05-19 21:26:46 GMT 49.121780 2.845748 31,000 230 456 0
2022-05-19 21:26:43 GMT 49.126858 2.854711 31,000 230 456 0
2022-05-19 21:26:41 GMT 49.129852 2.860107 31,000 230 456 0
2022-05-19 21:26:38 GMT 49.133045 2.865697 31,000 230 456 0
2022-05-19 21:26:36 GMT 49.136032 2.871094 31,000 230 456 0
2022-05-19 21:26:32 GMT 49.142212 2.882080 31,000 230 456 0
2022-05-19 21:26:29 GMT 49.145920 2.888700 31,000 230 456 0
2022-05-19 21:26:26 GMT 49.149353 2.894757 31,000 230 456 0
2022-05-19 21:26:24 GMT 49.153473 2.902081 31,000 230 456 0
2022-05-19 21:26:21 GMT 49.156742 2.907980 31,000 230 456 0
2022-05-19 21:26:18 GMT 49.161026 2.915497 31,000 230 456 0
2022-05-19 21:26:16 GMT 49.163177 2.919405 31,000 230 456 0
2022-05-19 21:26:14 GMT 49.171417 2.934124 31,000 230 456 0
2022-05-19 21:26:11 GMT 49.171417 2.934124 31,000 230 456 0
2022-05-19 21:26:08 GMT 49.174667 2.939970 31,000 230 456 0
2022-05-19 21:26:05 GMT 49.183731 2.956097 31,000 230 456 0
2022-05-19 21:26:01 GMT 49.183731 2.956097 31,000 230 456 0
2022-05-19 21:25:58 GMT 49.188492 2.964718 31,000 230 456 0
2022-05-19 21:25:55 GMT 49.191750 2.970573 31,000 230 456 0
2022-05-19 21:25:51 GMT 49.198032 2.981848 31,000 230 456 -64
2022-05-19 21:25:48 GMT 49.202362 2.989760 31,000 230 456 -64
2022-05-19 21:25:46 GMT 49.204788 2.994127 31,000 230 456 -64
2022-05-19 21:25:41 GMT 49.212708 3.008352 31,025 230 455 -64
2022-05-19 21:25:38 GMT 49.215771 3.013723 31,025 230 455 0
2022-05-19 21:25:36 GMT 49.218517 3.018566 31,000 229 456 64
2022-05-19 21:25:31 GMT 49.225479 3.030607 31,000 231 455 0
2022-05-19 21:25:28 GMT 49.229549 3.037937 31,000 231 455 0
2022-05-19 21:25:25 GMT 49.232895 3.044199 31,000 232 455 0
2022-05-19 21:25:21 GMT 49.238583 3.055717 31,000 236 453 0
2022-05-19 21:25:18 GMT 49.242165 3.063595 31,000 237 454 0
2022-05-19 21:25:16 GMT 49.244587 3.069233 31,000 238 454 0
2022-05-19 21:25:11 GMT 49.250080 3.082894 31,000 241 453 64
2022-05-19 21:25:09 GMT 49.252029 3.088144 31,000 242 452 64
2022-05-19 21:25:07 GMT 49.254044 3.093778 31,000 242 453 64
2022-05-19 21:25:04 GMT 49.256058 3.099764 31,000 246 453 128
2022-05-19 21:25:02 GMT 49.258644 3.107758 30,975 247 453 0
2022-05-19 21:25:00 GMT 49.259857 3.111877 30,975 247 453 0
2022-05-19 21:24:57 GMT 49.263016 3.123005 30,975 248 453 0
2022-05-19 21:24:55 GMT 49.264091 3.127200 30,975 250 453 -64
2022-05-19 21:24:53 GMT 49.265255 3.131971 30,975 252 452 -256
2022-05-19 21:24:51 GMT 49.267181 3.140400 31,000 253 453 -192
2022-05-19 21:24:49 GMT 49.268051 3.144696 31,000 257 453 64
2022-05-19 21:24:47 GMT 49.269699 3.153569 31,000 257 452 0
2022-05-19 21:24:45 GMT 49.271988 3.167584 31,000 257 453 64
2022-05-19 21:24:42 GMT 49.271988 3.167584 31,000 258 452 0
2022-05-19 21:24:40 GMT 49.272858 3.173499 31,000 258 452 0
2022-05-19 21:24:38 GMT 49.274101 3.181554 31,000 258 452 0
2022-05-19 21:24:35 GMT 49.275219 3.189071 31,000 258 452 0
2022-05-19 21:24:31 GMT 49.277161 3.202163 31,000 258 452 0
2022-05-19 21:24:28 GMT 49.278851 3.213356 31,000 258 452 0
2022-05-19 21:24:25 GMT 49.280014 3.221162 31,000 258 452 0
2022-05-19 21:24:22 GMT 49.281509 3.231107 31,000 258 452 0
2022-05-19 21:24:19 GMT 49.282715 3.239232 31,000 258 452 0
2022-05-19 21:24:17 GMT 49.283459 3.244219 31,000 258 452 0
2022-05-19 21:24:14 GMT 49.284901 3.253832 31,000 258 452 0
2022-05-19 21:24:12 GMT 49.286270 3.263221 31,000 258 452 0
2022-05-19 21:24:09 GMT 49.287323 3.270052 31,000 258 452 0
2022-05-19 21:24:06 GMT 49.288925 3.280968 31,000 258 452 0
2022-05-19 21:24:04 GMT 49.290207 3.289419 31,000 258 452 0
2022-05-19 21:24:00 GMT 49.291885 3.300597 31,000 258 453 0
2022-05-19 21:23:57 GMT 49.292816 3.307166 31,000 258 452 0
2022-05-19 21:23:55 GMT 49.294006 3.314913 31,000 258 452 0
2022-05-19 21:23:51 GMT 49.295700 3.326463 31,000 258 452 0
2022-05-19 21:23:49 GMT 49.296524 3.332097 31,000 258 453 0
2022-05-19 21:23:47 GMT 49.297470 3.338326 31,000 258 453 0
2022-05-19 21:23:44 GMT 49.299500 3.352027 31,000 258 453 0
2022-05-19 21:23:41 GMT 49.300358 3.357986 31,000 258 453 0
2022-05-19 21:23:37 GMT 49.302078 3.369478 31,000 258 453 0
2022-05-19 21:23:34 GMT 49.303574 3.379493 31,000 258 452 0
2022-05-19 21:23:31 GMT 49.304916 3.388849 31,000 258 452 0
2022-05-19 21:23:29 GMT 49.306316 3.398172 31,000 258 452 0
2022-05-19 21:23:26 GMT 49.307236 3.404424 31,000 258 452 0
2022-05-19 21:23:23 GMT 49.308128 3.410315 31,000 258 452 0
2022-05-19 21:23:21 GMT 49.309570 3.420340 31,000 258 452 0
2022-05-19 21:23:19 GMT 49.310577 3.426889 31,000 258 452 0
2022-05-19 21:23:17 GMT 49.311218 3.431256 31,000 258 452 0
2022-05-19 21:23:15 GMT 49.312546 3.440270 31,000 258 452 0
2022-05-19 21:23:13 GMT 49.313782 3.448721 31,000 258 451 0
2022-05-19 21:23:09 GMT 49.315159 3.458019 31,000 258 451 0
2022-05-19 21:23:07 GMT 49.317207 3.472041 31,000 258 451 0
2022-05-19 21:23:04 GMT 49.318138 3.478329 31,000 258 451 0
2022-05-19 21:22:59 GMT 49.319817 3.489822 31,000 258 451 0
2022-05-19 21:22:57 GMT 49.320465 3.494216 31,000 258 451 0
2022-05-19 21:22:55 GMT 49.321400 3.500736 31,000 258 451 0
2022-05-19 21:22:53 GMT 49.322281 3.506662 31,000 258 451 0
2022-05-19 21:22:50 GMT 49.323669 3.516048 31,000 258 451 0
2022-05-19 21:22:48 GMT 49.324612 3.522564 31,000 258 451 0
2022-05-19 21:22:46 GMT 49.326424 3.535068 31,000 258 451 0
2022-05-19 21:22:44 GMT 49.326424 3.535068 31,000 258 451 0
2022-05-19 21:22:42 GMT 49.327263 3.540633 31,000 258 451 0
2022-05-19 21:22:39 GMT 49.328938 3.552198 31,000 258 451 0
2022-05-19 21:22:37 GMT 49.329666 3.557176 31,000 258 451 0
2022-05-19 21:22:34 GMT 49.330994 3.566190 31,000 258 451 0
2022-05-19 21:22:32 GMT 49.332047 3.573374 31,000 258 451 0
2022-05-19 21:22:28 GMT 49.333740 3.584923 31,000 258 451 0
2022-05-19 21:22:26 GMT 49.334618 3.590867 31,000 258 451 0
2022-05-19 21:22:23 GMT 49.335983 3.600206 31,000 258 451 0
2022-05-19 21:22:19 GMT 49.338062 3.614502 31,000 258 451 0
2022-05-19 21:22:16 GMT 49.339142 3.621967 31,000 258 451 0
2022-05-19 21:22:13 GMT 49.341797 3.640066 31,000 258 451 0
2022-05-19 21:22:10 GMT 49.341797 3.640066 31,000 258 451 0
2022-05-19 21:22:08 GMT 49.342625 3.645943 31,000 258 451 0
2022-05-19 21:22:06 GMT 49.343929 3.654978 31,000 258 451 0
2022-05-19 21:22:03 GMT 49.345230 3.663729 31,000 258 451 0
2022-05-19 21:22:00 GMT 49.346489 3.672469 31,000 258 451 0
2022-05-19 21:21:58 GMT 49.348206 3.684293 31,000 258 451 0
2022-05-19 21:21:54 GMT 49.349377 3.692418 31,000 258 451 0
2022-05-19 21:21:50 GMT 49.351181 3.704857 31,000 258 451 0
2022-05-19 21:21:47 GMT 49.352509 3.713872 31,000 258 451 0
2022-05-19 21:21:44 GMT 49.353798 3.722920 31,000 258 451 0
2022-05-19 21:21:42 GMT 49.354889 3.730422 31,000 258 451 0
2022-05-19 21:21:39 GMT 49.357243 3.746627 31,000 258 451 0
2022-05-19 21:21:36 GMT 49.357243 3.746627 31,000 258 451 0
2022-05-19 21:21:33 GMT 49.358597 3.755986 31,000 258 451 0
2022-05-19 21:21:31 GMT 49.359337 3.761227 31,000 258 451 0
2022-05-19 21:21:28 GMT 49.361198 3.774021 31,000 258 451 0
2022-05-19 21:21:26 GMT 49.362076 3.780283 31,000 258 451 0
2022-05-19 21:21:23 GMT 49.363064 3.787103 31,000 258 451 0
2022-05-19 21:21:21 GMT 49.363953 3.793030 31,000 258 451 0
2022-05-19 21:21:19 GMT 49.364925 3.799896 31,000 258 451 0
2022-05-19 21:21:16 GMT 49.366699 3.812397 31,000 258 451 0
2022-05-19 21:21:13 GMT 49.367950 3.821074 31,000 258 451 0
2022-05-19 21:21:10 GMT 49.368694 3.826061 31,000 258 451 0
2022-05-19 21:21:07 GMT 49.370419 3.838276 31,000 258 451 0
2022-05-19 21:21:03 GMT 49.372009 3.849440 31,000 258 451 0
2022-05-19 21:21:01 GMT 49.374283 3.865091 31,000 258 451 0
2022-05-19 21:20:58 GMT 49.374283 3.865091 31,000 258 451 0
2022-05-19 21:20:56 GMT 49.375076 3.870638 31,000 258 451 0
2022-05-19 21:20:54 GMT 49.376266 3.879089 31,000 258 451 0
2022-05-19 21:20:52 GMT 49.376999 3.884090 31,000 258 451 0
2022-05-19 21:20:49 GMT 49.378510 3.894653 31,000 258 451 0
2022-05-19 21:20:46 GMT 49.379726 3.903110 31,000 258 451 0
2022-05-19 21:20:43 GMT 49.380890 3.911203 31,000 258 451 0
2022-05-19 21:20:41 GMT 49.383224 3.927683 31,000 258 451 0
2022-05-19 21:20:38 GMT 49.384663 3.937659 31,000 258 451 0
2022-05-19 21:20:36 GMT 49.384663 3.937659 31,000 258 451 0
2022-05-19 21:20:33 GMT 49.385548 3.943947 31,000 258 451 0
2022-05-19 21:20:30 GMT 49.387207 3.955782 31,000 258 451 0
2022-05-19 21:20:27 GMT 49.388386 3.963896 31,000 258 451 0
2022-05-19 21:20:24 GMT 49.389599 3.972280 31,000 258 451 0
2022-05-19 21:20:20 GMT 49.391228 3.983845 31,000 258 451 0
2022-05-19 21:20:17 GMT 49.394897 4.009728 31,000 258 451 0
2022-05-19 21:20:12 GMT 49.394897 4.009728 31,000 258 451 0
2022-05-19 21:20:09 GMT 49.396484 4.020924 31,000 258 451 0
2022-05-19 21:20:06 GMT 49.397465 4.027790 31,000 258 451 0
2022-05-19 21:20:03 GMT 49.398861 4.037765 31,000 258 451 0
2022-05-19 21:20:00 GMT 49.400398 4.048390 31,000 258 451 0
2022-05-19 21:19:56 GMT 49.401840 4.058725 31,000 258 451 0
2022-05-19 21:19:53 GMT 49.404121 4.074916 31,000 258 451 0
2022-05-19 21:19:51 GMT 49.404121 4.074916 31,000 258 451 0
2022-05-19 21:19:48 GMT 49.405426 4.083956 31,000 258 451 0
2022-05-19 21:19:45 GMT 49.406727 4.093347 31,000 258 451 0
2022-05-19 21:19:43 GMT 49.407578 4.099238 31,000 258 451 0
2022-05-19 21:19:39 GMT 49.409409 4.112338 31,000 258 451 0
2022-05-19 21:19:36 GMT 49.411057 4.123887 31,000 258 451 0
2022-05-19 21:19:33 GMT 49.412155 4.131704 31,000 258 451 0
2022-05-19 21:19:31 GMT 49.413025 4.137902 31,000 258 451 0
2022-05-19 21:19:28 GMT 49.414177 4.146038 31,000 258 451 0
2022-05-19 21:19:25 GMT 49.415451 4.155086 31,000 258 451 0
2022-05-19 21:19:23 GMT 49.416550 4.162903 31,000 258 451 0
2022-05-19 21:19:21 GMT 49.417374 4.168819 31,000 258 451 0
2022-05-19 21:19:18 GMT 49.419670 4.185357 31,000 258 450 0
2022-05-19 21:19:16 GMT 49.419670 4.185357 31,000 258 450 0
2022-05-19 21:19:12 GMT 49.422775 4.207482 31,000 258 450 0
2022-05-19 21:19:08 GMT 49.422775 4.207482 31,000 258 451 0
2022-05-19 21:19:06 GMT 49.423950 4.215859 31,000 258 449 0
2022-05-19 21:19:03 GMT 49.425396 4.226195 31,000 258 450 0
2022-05-19 21:19:01 GMT 49.426140 4.231471 31,000 258 450 0
2022-05-19 21:18:58 GMT 49.427258 4.239277 31,000 258 450 0
2022-05-19 21:18:56 GMT 49.428497 4.248312 31,000 258 450 0
2022-05-19 21:18:52 GMT 49.430191 4.260468 31,000 258 450 0
2022-05-19 21:18:50 GMT 49.430794 4.264848 31,000 258 451 64
2022-05-19 21:18:46 GMT 49.432705 4.278284 31,000 258 451 64
2022-05-19 21:18:41 GMT 49.434658 4.292314 31,000 258 450 64
2022-05-19 21:18:38 GMT 49.436142 4.302882 31,000 258 450 0
2022-05-19 21:18:35 GMT 49.437561 4.313218 31,000 258 450 0
2022-05-19 21:18:32 GMT 49.438568 4.320374 31,000 258 450 0
2022-05-19 21:18:29 GMT 49.439732 4.328836 31,000 258 450 0
2022-05-19 21:18:26 GMT 49.442528 4.348804 31,000 258 450 0
2022-05-19 21:18:24 GMT 49.442528 4.348804 31,000 258 450 0
2022-05-19 21:18:21 GMT 49.443512 4.356007 31,000 258 450 0
2022-05-19 21:18:18 GMT 49.444996 4.366620 31,000 258 450 0
2022-05-19 21:18:16 GMT 49.445663 4.371619 31,000 258 450 0
2022-05-19 21:18:14 GMT 49.446533 4.377907 31,000 258 450 0
2022-05-19 21:18:12 GMT 49.447311 4.383545 31,000 258 450 0
2022-05-19 21:18:10 GMT 49.448410 4.391351 31,000 259 451 0
2022-05-19 21:18:07 GMT 49.449509 4.399431 31,000 258 451 0
2022-05-19 21:18:04 GMT 49.451977 4.417320 31,000 258 451 0
2022-05-19 21:18:02 GMT 49.451977 4.417320 31,000 259 451 0
2022-05-19 21:17:59 GMT 49.453033 4.424816 31,000 259 451 0
2022-05-19 21:17:56 GMT 49.454166 4.432909 31,000 259 451 0
2022-05-19 21:17:54 GMT 49.455276 4.441079 31,000 259 451 0
2022-05-19 21:17:52 GMT 49.455963 4.446066 31,000 259 451 0
2022-05-19 21:17:49 GMT 49.457199 4.455173 31,000 259 452 0
2022-05-19 21:17:46 GMT 49.459751 4.473663 31,000 259 452 0
2022-05-19 21:17:43 GMT 49.459751 4.473663 31,000 259 452 0
2022-05-19 21:17:40 GMT 49.461243 4.484649 31,000 259 452 0
2022-05-19 21:17:37 GMT 49.462639 4.494670 31,000 259 452 0
2022-05-19 21:17:34 GMT 49.463745 4.502804 31,000 259 452 0
2022-05-19 21:17:31 GMT 49.465118 4.512562 31,000 259 452 0
2022-05-19 21:17:29 GMT 49.466408 4.521988 31,000 259 452 0
2022-05-19 21:17:26 GMT 49.467014 4.526367 31,000 259 452 0
2022-05-19 21:17:24 GMT 49.468178 4.535127 31,000 259 452 0
2022-05-19 21:17:21 GMT 49.470505 4.552126 31,000 259 453 0
2022-05-19 21:17:18 GMT 49.470505 4.552126 31,000 259 452 0
2022-05-19 21:17:14 GMT 49.472488 4.566554 31,000 259 452 0
2022-05-19 21:17:11 GMT 49.473633 4.575011 31,000 259 452 0
2022-05-19 21:17:08 GMT 49.474823 4.583539 31,000 259 452 0
2022-05-19 21:17:05 GMT 49.476334 4.594526 31,000 259 452 0
2022-05-19 21:17:03 GMT 49.476746 4.597706 31,000 259 453 0
2022-05-19 21:17:01 GMT 49.477661 4.604283 31,000 259 453 0
2022-05-19 21:16:59 GMT 49.478668 4.611800 31,000 259 453 0
2022-05-19 21:16:56 GMT 49.480087 4.622208 31,000 259 453 0
2022-05-19 21:16:54 GMT 49.480885 4.628139 31,000 259 453 0
2022-05-19 21:16:51 GMT 49.481956 4.636008 31,000 259 453 0
2022-05-19 21:16:48 GMT 49.483398 4.646400 31,000 259 453 0
2022-05-19 21:16:45 GMT 49.484612 4.655531 31,000 259 453 64
2022-05-19 21:16:43 GMT 49.485443 4.661528 31,000 259 453 64
2022-05-19 21:16:41 GMT 49.486286 4.667779 31,000 259 453 64
2022-05-19 21:16:39 GMT 49.487450 4.676316 31,000 259 453 0
2022-05-19 21:16:36 GMT 49.488876 4.686681 31,000 259 453 0
2022-05-19 21:16:33 GMT 49.490288 4.697398 31,000 259 453 0
2022-05-19 21:16:30 GMT 49.490940 4.702074 31,000 259 453 0
2022-05-19 21:16:27 GMT 49.493034 4.717514 31,000 259 453 0
2022-05-19 21:16:23 GMT 49.493919 4.724121 31,000 259 454 0
2022-05-19 21:16:20 GMT 49.495193 4.733590 31,000 259 454 0
2022-05-19 21:16:17 GMT 49.496433 4.742753 31,000 259 455 0
2022-05-19 21:16:14 GMT 49.499313 4.763874 31,000 259 454 0
2022-05-19 21:16:11 GMT 49.499313 4.763874 31,000 259 454 0
2022-05-19 21:16:08 GMT 49.500870 4.775583 31,000 259 454 0
2022-05-19 21:16:05 GMT 49.501740 4.781874 31,000 259 454 0
2022-05-19 21:16:03 GMT 49.502487 4.787589 31,000 259 454 0
2022-05-19 21:16:00 GMT 49.503754 4.797050 31,000 259 455 0
2022-05-19 21:15:57 GMT 49.505402 4.809337 31,000 259 455 0
2022-05-19 21:15:54 GMT 49.507095 4.821959 31,000 259 455 0
2022-05-19 21:15:49 GMT 49.509979 4.843486 31,000 259 455 0
2022-05-19 21:15:46 GMT 49.509979 4.843486 31,000 259 455 0
2022-05-19 21:15:43 GMT 49.510941 4.850753 31,000 259 455 0
2022-05-19 21:15:40 GMT 49.512215 4.860262 31,000 259 455 0
2022-05-19 21:15:38 GMT 49.514542 4.877336 31,000 259 455 0
2022-05-19 21:15:35 GMT 49.514542 4.877336 31,000 259 455 0
2022-05-19 21:15:32 GMT 49.517075 4.896361 31,000 259 456 0
2022-05-19 21:15:29 GMT 49.517075 4.896361 31,000 259 456 0
2022-05-19 21:15:27 GMT 49.517944 4.903010 31,000 259 456 0
2022-05-19 21:15:24 GMT 49.519245 4.912522 31,000 259 456 0
2022-05-19 21:15:21 GMT 49.520874 4.924844 31,000 259 456 0
2022-05-19 21:15:17 GMT 49.522522 4.937198 31,000 259 456 0
2022-05-19 21:15:13 GMT 49.525360 4.958448 31,000 259 456 64
2022-05-19 21:15:10 GMT 49.525360 4.958448 31,000 259 457 64
2022-05-19 21:15:08 GMT 49.526047 4.963580 31,000 259 457 -64
2022-05-19 21:15:04 GMT 49.528015 4.978469 31,000 259 457 0
2022-05-19 21:15:01 GMT 49.529068 4.986420 31,000 259 457 -64
2022-05-19 21:14:58 GMT 49.530418 4.996627 31,000 259 459 -192
2022-05-19 21:14:55 GMT 49.531719 5.006499 30,975 259 459 0
2022-05-19 21:14:52 GMT 49.532272 5.010633 30,975 259 459 0
2022-05-19 21:14:50 GMT 49.533508 5.019885 31,000 259 459 384
2022-05-19 21:14:47 GMT 49.534794 5.029511 30,875 259 459 704
2022-05-19 21:14:44 GMT 49.536484 5.042291 30,925 259 459 960
2022-05-19 21:14:41 GMT 49.537354 5.049013 30,900 259 459 960
2022-05-19 21:14:38 GMT 49.538635 5.058554 30,325 259 460 896
2022-05-19 21:14:35 GMT 49.539726 5.066850 30,325 259 460 896
2022-05-19 21:14:32 GMT 49.541473 5.080309 30,725 259 459 960
2022-05-19 21:14:28 GMT 49.543121 5.092741 30,675 259 459 896
2022-05-19 21:14:25 GMT 49.544106 5.100403 30,650 259 459 896
2022-05-19 21:14:22 GMT 49.546234 5.116376 30,550 259 459 960
2022-05-19 21:14:19 GMT 49.546234 5.116376 30,550 259 459 960
2022-05-19 21:14:17 GMT 49.547516 5.126279 30,500 259 459 960
2022-05-19 21:14:13 GMT 49.549576 5.141963 30,400 259 460 896
2022-05-19 21:14:10 GMT 49.550343 5.147763 30,350 259 460 896
2022-05-19 21:14:07 GMT 49.552856 5.166915 30,350 259 460 960
2022-05-19 21:14:04 GMT 49.552856 5.166915 30,325 259 460 896
2022-05-19 21:14:02 GMT 49.553650 5.173043 30,200 259 460 960
2022-05-19 21:14:00 GMT 49.554703 5.180993 30,250 259 460 960
2022-05-19 21:13:57 GMT 49.555973 5.190595 30,150 259 460 1024
2022-05-19 21:13:54 GMT 49.557369 5.201210 30,100 259 461 1088
2022-05-19 21:13:51 GMT 49.558502 5.209832 30,100 259 461 1088
2022-05-19 21:13:47 GMT 49.560196 5.222698 30,025 259 462 768
2022-05-19 21:13:43 GMT 49.562027 5.236841 29,975 259 462 832
2022-05-19 21:13:40 GMT 49.562771 5.242631 29,950 259 461 896
2022-05-19 21:13:38 GMT 49.564041 5.252260 29,900 259 461 832
2022-05-19 21:13:36 GMT 49.565052 5.259927 29,875 259 461 1088
2022-05-19 21:13:33 GMT 49.565918 5.266716 29,825 259 461 1024
2022-05-19 21:13:30 GMT 49.567291 5.277268 29,625 259 461 1408
2022-05-19 21:13:27 GMT 49.568527 5.286592 29,750 259 462 1344
2022-05-19 21:13:24 GMT 49.569847 5.296895 29,650 259 461 1408
2022-05-19 21:13:22 GMT 49.570408 5.301423 29,625 259 461 1408
2022-05-19 21:13:19 GMT 49.571896 5.312706 29,525 259 464 1344
2022-05-19 21:13:17 GMT 49.572826 5.320055 29,425 259 462 1344
2022-05-19 21:13:13 GMT 49.574249 5.331043 29,350 259 464 1344
2022-05-19 21:13:10 GMT 49.575432 5.340098 29,350 259 464 1408
2022-05-19 21:13:08 GMT 49.576309 5.346872 28,775 259 466 1472
2022-05-19 21:13:05 GMT 49.577808 5.358507 29,200 259 464 1536
2022-05-19 21:13:02 GMT 49.578644 5.365014 29,175 259 465 1536
2022-05-19 21:13:00 GMT 49.579807 5.374096 29,075 259 465 1472
2022-05-19 21:12:58 GMT 49.580475 5.378964 29,025 259 466 1472
2022-05-19 21:12:55 GMT 49.581757 5.389011 28,875 259 467 1536
2022-05-19 21:12:52 GMT 49.583019 5.398815 28,675 259 467 1600
2022-05-19 21:12:49 GMT 49.584370 5.409505 28,725 259 467 1600
2022-05-19 21:12:46 GMT 49.586048 5.422273 28,700 259 468 1600
2022-05-19 21:12:43 GMT 49.587891 5.436642 28,625 259 468 1600
2022-05-19 21:12:40 GMT 49.587891 5.436642 28,600 259 469 1472
2022-05-19 21:12:37 GMT 49.589493 5.449070 28,375 259 469 1472
2022-05-19 21:12:34 GMT 49.590729 5.458904 28,425 259 470 1280
2022-05-19 21:12:31 GMT 49.591961 5.468445 28,350 259 471 1280
2022-05-19 21:12:28 GMT 49.593170 5.477947 28,300 259 471 1408
2022-05-19 21:12:25 GMT 49.595821 5.498286 28,175 259 471 1536
2022-05-19 21:12:22 GMT 49.596588 5.504584 28,100 259 474 0
2022-05-19 21:12:20 GMT 49.596588 5.504584 28,100 259 472 1920
2022-05-19 21:12:18 GMT 49.597267 5.509866 28,050 259 472 1920
2022-05-19 21:12:15 GMT 49.598465 5.519112 27,575 259 475 1408
2022-05-19 21:12:12 GMT 49.600060 5.531616 27,825 259 474 1536
2022-05-19 21:12:09 GMT 49.601410 5.541934 27,625 259 475 1408
2022-05-19 21:12:06 GMT 49.604061 5.562794 27,325 259 476 1408
2022-05-19 21:12:02 GMT 49.604061 5.562794 27,500 259 476 1408
2022-05-19 21:11:59 GMT 49.605366 5.573112 27,500 259 476 1408
2022-05-19 21:11:56 GMT 49.606670 5.583430 27,450 259 476 1408
2022-05-19 21:11:53 GMT 49.609043 5.602062 27,350 259 477 1344
2022-05-19 21:11:50 GMT 49.610641 5.614736 27,225 259 477 1344
2022-05-19 21:11:47 GMT 49.610641 5.614736 27,075 259 477 896
2022-05-19 21:11:43 GMT 49.612747 5.631071 27,150 259 478 1152
2022-05-19 21:11:40 GMT 49.613708 5.638805 27,150 259 478 1152
2022-05-19 21:11:36 GMT 49.615234 5.650758 27,025 259 477 832
2022-05-19 21:11:32 GMT 49.617188 5.666126 26,900 259 476 576
2022-05-19 21:11:29 GMT 49.618446 5.676146 26,900 259 476 576
2022-05-19 21:11:26 GMT 49.619705 5.686148 26,900 259 475 640
2022-05-19 21:11:23 GMT 49.620712 5.694098 26,900 259 475 640
2022-05-19 21:11:21 GMT 49.621288 5.698787 26,900 259 475 640
2022-05-19 21:11:19 GMT 49.622498 5.708362 26,875 259 475 704
2022-05-19 21:11:17 GMT 49.622917 5.711703 26,850 260 474 704
2022-05-19 21:11:14 GMT 49.624329 5.722937 26,825 260 474 768
2022-05-19 21:11:11 GMT 49.625568 5.732933 26,750 260 473 832
2022-05-19 21:11:08 GMT 49.626846 5.742814 26,700 260 473 832
2022-05-19 21:11:05 GMT 49.628632 5.757053 26,675 260 473 832
2022-05-19 21:11:01 GMT 49.629948 5.767674 26,550 260 472 768
2022-05-19 21:10:58 GMT 49.631195 5.777580 26,500 260 472 768
2022-05-19 21:10:55 GMT 49.632111 5.784808 26,500 260 472 768
2022-05-19 21:10:52 GMT 49.634556 5.804270 26,450 260 471 768
2022-05-19 21:10:49 GMT 49.634556 5.804270 26,425 260 471 768
2022-05-19 21:10:46 GMT 49.635906 5.815108 26,450 260 471 768
2022-05-19 21:10:44 GMT 49.637558 5.828319 26,350 260 470 832
2022-05-19 21:10:42 GMT 49.638790 5.838120 26,375 260 470 832
2022-05-19 21:10:39 GMT 49.639954 5.847696 26,275 260 470 832
2022-05-19 21:10:36 GMT 49.639954 5.847696 26,325 260 469 832
2022-05-19 21:10:34 GMT 49.640747 5.853931 26,300 260 469 832
2022-05-19 21:10:32 GMT 49.641586 5.860772 26,250 260 469 832
2022-05-19 21:10:30 GMT 49.642593 5.869012 26,200 260 468 704
2022-05-19 21:10:27 GMT 49.643631 5.877166 26,175 260 468 640
2022-05-19 21:10:24 GMT 49.644794 5.886668 26,175 260 468 640
2022-05-19 21:10:22 GMT 49.646053 5.896837 26,100 260 466 704
2022-05-19 21:10:19 GMT 49.647217 5.905946 26,100 260 467 640
2022-05-19 21:10:15 GMT 49.648476 5.916360 26,075 260 466 768
2022-05-19 21:10:13 GMT 49.649689 5.926184 26,000 260 465 896
2022-05-19 21:10:10 GMT 49.651108 5.937532 25,950 260 465 896
2022-05-19 21:10:07 GMT 49.651749 5.942736 25,900 260 465 896
2022-05-19 21:10:04 GMT 49.652893 5.952205 25,900 260 465 896
2022-05-19 21:10:01 GMT 49.655365 5.972009 25,750 260 463 0
2022-05-19 21:09:58 GMT 49.655365 5.972009 25,750 260 463 0
2022-05-19 21:09:56 GMT 49.656296 5.979754 25,750 260 463 704
2022-05-19 21:09:53 GMT 49.657692 5.991112 25,750 260 463 640
2022-05-19 21:09:50 GMT 49.658436 5.996976 25,725 260 463 640
2022-05-19 21:09:48 GMT 49.659412 6.005068 25,700 260 462 576
2022-05-19 21:09:45 GMT 49.661041 6.018281 25,625 260 461 704
2022-05-19 21:09:42 GMT 49.661636 6.023110 25,625 260 461 704
2022-05-19 21:09:39 GMT 49.663330 6.036915 25,525 260 460 1024
2022-05-19 21:09:36 GMT 49.664303 6.044633 25,525 260 460 1024
2022-05-19 21:09:33 GMT 49.665699 6.055916 25,425 260 458 1152
2022-05-19 21:09:30 GMT 49.666946 6.066188 25,425 260 458 1152
2022-05-19 21:09:27 GMT 49.668228 6.076813 25,350 260 458 1152
2022-05-19 21:09:24 GMT 49.670773 6.097635 25,250 260 458 832
2022-05-19 21:09:20 GMT 49.670773 6.097635 25,250 260 458 960
2022-05-19 21:09:17 GMT 49.671753 6.105652 25,100 260 457 768
2022-05-19 21:09:14 GMT 49.672760 6.114325 25,175 260 457 640
2022-05-19 21:09:11 GMT 49.673904 6.123649 25,150 260 457 576
2022-05-19 21:09:09 GMT 49.674683 6.130371 25,000 260 455 704
2022-05-19 21:09:06 GMT 49.676918 6.148855 25,075 260 455 704
2022-05-19 21:09:03 GMT 49.676918 6.148855 25,050 260 454 832
2022-05-19 21:09:00 GMT 49.678619 6.162824 25,000 260 453 832
2022-05-19 21:08:57 GMT 49.679382 6.169194 24,875 260 453 896
2022-05-19 21:08:55 GMT 49.680038 6.174606 24,925 260 453 960
2022-05-19 21:08:52 GMT 49.681229 6.184435 24,900 260 453 960
2022-05-19 21:08:50 GMT 49.682083 6.191390 24,850 260 452 1024
2022-05-19 21:08:47 GMT 49.684177 6.208834 24,750 260 452 1088
2022-05-19 21:08:44 GMT 49.684177 6.208834 24,750 260 452 1088
2022-05-19 21:08:41 GMT 49.685577 6.220563 24,700 260 451 1024
2022-05-19 21:08:39 GMT 49.687626 6.237339 24,575 260 451 1024
2022-05-19 21:08:36 GMT 49.688602 6.245208 24,525 260 450 1024
2022-05-19 21:08:33 GMT 49.688602 6.245208 24,450 260 450 1024
2022-05-19 21:08:30 GMT 49.689880 6.255991 24,425 260 450 1024
2022-05-19 21:08:27 GMT 49.690697 6.262578 24,450 260 450 960
2022-05-19 21:08:25 GMT 49.691620 6.270158 24,425 260 450 960
2022-05-19 21:08:22 GMT 49.693069 6.282175 24,325 260 449 1088
2022-05-19 21:08:19 GMT 49.693817 6.288444 24,325 260 449 1088
2022-05-19 21:08:17 GMT 49.694595 6.294732 24,275 260 449 1152
2022-05-19 21:08:15 GMT 49.695351 6.301030 24,225 260 449 1152
2022-05-19 21:08:12 GMT 49.696426 6.309839 24,175 260 449 1088
2022-05-19 21:08:09 GMT 49.698761 6.329354 23,850 260 449 1088
2022-05-19 21:08:07 GMT 49.698761 6.329354 24,100 260 448 1088
2022-05-19 21:08:03 GMT 49.700134 6.340340 24,025 260 448 1152
2022-05-19 21:08:00 GMT 49.701496 6.351657 23,900 260 447 1280
2022-05-19 21:07:57 GMT 49.702332 6.358554 23,850 260 447 1280
2022-05-19 21:07:54 GMT 49.703266 6.366429 23,750 260 447 0
2022-05-19 21:07:51 GMT 49.704571 6.376747 23,750 260 447 1408
2022-05-19 21:07:48 GMT 49.705856 6.387393 23,600 260 447 1408
2022-05-19 21:07:45 GMT 49.707138 6.397729 23,600 260 447 1280
2022-05-19 21:07:42 GMT 49.708054 6.404957 23,525 260 447 1152
2022-05-19 21:07:39 GMT 49.709225 6.414308 23,500 260 447 1088
2022-05-19 21:07:35 GMT 49.711040 6.429080 23,425 260 446 960
2022-05-19 21:07:32 GMT 49.712082 6.437193 23,400 260 446 960
2022-05-19 21:07:29 GMT 49.714691 6.458443 23,325 260 445 960
2022-05-19 21:07:26 GMT 49.714691 6.458443 23,250 260 445 1024
2022-05-19 21:07:23 GMT 49.716393 6.472135 23,175 260 445 1152
2022-05-19 21:07:20 GMT 49.716393 6.472135 23,175 260 445 1152
2022-05-19 21:07:17 GMT 49.717743 6.482750 23,075 260 445 1152
2022-05-19 21:07:14 GMT 49.719234 6.494850 22,925 262 441 1152
2022-05-19 21:07:10 GMT 49.720642 6.506075 22,975 260 443 1024
2022-05-19 21:07:07 GMT 49.721695 6.514459 22,875 260 442 960
2022-05-19 21:07:04 GMT 49.722816 6.523726 22,875 260 442 960
2022-05-19 21:07:01 GMT 49.724121 6.534638 22,750 261 442 960
2022-05-19 21:06:58 GMT 49.725143 6.544288 22,800 261 442 1024
2022-05-19 21:06:55 GMT 49.725952 6.552044 22,750 262 440 1024
2022-05-19 21:06:53 GMT 49.726448 6.557056 22,700 262 441 1088
2022-05-19 21:06:50 GMT 49.727417 6.567656 22,675 262 441 1088
2022-05-19 21:06:47 GMT 49.728451 6.578509 22,575 262 440 1088
2022-05-19 21:06:44 GMT 49.729195 6.586304 21,450 262 440 1088
2022-05-19 21:06:41 GMT 49.729935 6.594399 22,450 262 440 1024
2022-05-19 21:06:38 GMT 49.731674 6.612685 22,425 262 439 896
2022-05-19 21:06:35 GMT 49.731674 6.612685 22,375 262 437 1024
2022-05-19 21:06:32 GMT 49.732548 6.622009 21,450 262 435 1088
2022-05-19 21:06:29 GMT 49.733505 6.632490 22,275 262 437 1088
2022-05-19 21:06:26 GMT 49.734501 6.643017 22,075 262 436 1344
2022-05-19 21:06:23 GMT 49.735245 6.650993 22,150 262 436 1216
2022-05-19 21:06:20 GMT 49.736435 6.663642 22,125 262 436 1280
2022-05-19 21:06:17 GMT 49.736893 6.668557 22,075 262 436 1344
2022-05-19 21:06:14 GMT 49.737946 6.679688 21,975 262 436 1280
2022-05-19 21:06:11 GMT 49.738644 6.687333 21,950 262 435 1152
2022-05-19 21:06:08 GMT 49.739822 6.699636 21,850 262 435 1216
2022-05-19 21:06:05 GMT 49.740368 6.705520 21,750 262 434 1088
2022-05-19 21:06:02 GMT 49.741287 6.715321 21,800 262 435 1152
2022-05-19 21:05:59 GMT 49.742249 6.726090 21,525 262 434 1088
2022-05-19 21:05:56 GMT 49.743114 6.735287 21,450 262 433 1216
2022-05-19 21:05:53 GMT 49.743904 6.743601 21,475 262 433 1152
2022-05-19 21:05:50 GMT 49.744839 6.753697 21,550 262 433 1216
2022-05-19 21:05:47 GMT 49.745590 6.762230 21,450 262 432 1280
2022-05-19 21:05:43 GMT 49.746826 6.775384 21,350 262 432 1344
2022-05-19 21:05:40 GMT 49.747559 6.783335 21,275 262 432 1280
2022-05-19 21:05:37 GMT 49.748520 6.793960 21,225 262 432 1152
2022-05-19 21:05:34 GMT 49.749260 6.801948 21,225 262 431 1024
2022-05-19 21:05:31 GMT 49.750004 6.809816 21,125 262 431 960
2022-05-19 21:05:28 GMT 49.750992 6.820486 21,125 262 430 832
2022-05-19 21:05:25 GMT 49.751678 6.828364 21,000 262 430 832
2022-05-19 21:05:22 GMT 49.752502 6.837182 21,000 262 428 960
2022-05-19 21:05:19 GMT 49.754150 6.855035 20,900 262 427 1216
2022-05-19 21:05:16 GMT 49.754150 6.855035 20,925 262 427 1216
2022-05-19 21:05:13 GMT 49.755112 6.865226 20,800 262 427 1280
2022-05-19 21:05:10 GMT 49.756241 6.877887 20,775 262 427 1280
2022-05-19 21:05:07 GMT 49.756760 6.883657 20,725 262 426 1152
2022-05-19 21:05:04 GMT 49.757584 6.892403 20,650 262 426 1152
2022-05-19 21:05:01 GMT 49.758499 6.902305 20,600 263 425 1152
2022-05-19 21:04:57 GMT 49.759640 6.914929 20,525 263 425 1216
2022-05-19 21:04:53 GMT 49.760757 6.927251 20,450 263 424 1408
2022-05-19 21:04:50 GMT 49.761314 6.933487 20,400 263 424 1408
2022-05-19 21:04:48 GMT 49.762947 6.951228 20,150 263 424 1280
2022-05-19 21:04:45 GMT 49.762947 6.951228 20,250 263 424 1408
2022-05-19 21:04:42 GMT 49.764065 6.963476 20,175 263 424 1280
2022-05-19 21:04:40 GMT 49.764065 6.963476 20,175 262 423 1216
2022-05-19 21:04:36 GMT 49.765457 6.979065 20,075 262 422 1216
2022-05-19 21:04:33 GMT 49.766144 6.986510 20,000 262 422 1152
2022-05-19 21:04:30 GMT 49.766903 6.994876 19,975 262 422 1216
2022-05-19 21:04:28 GMT 49.767277 6.999033 19,725 263 422 1280
2022-05-19 21:04:25 GMT 49.768997 7.018111 19,575 263 421 1536
2022-05-19 21:04:22 GMT 49.768997 7.018111 19,675 263 421 1536
2022-05-19 21:04:19 GMT 49.769695 7.025534 19,750 263 421 1536
2022-05-19 21:04:17 GMT 49.771271 7.043031 19,500 263 421 1536
2022-05-19 21:04:14 GMT 49.771271 7.043031 19,575 263 421 1536
2022-05-19 21:04:12 GMT 49.771637 7.047224 19,525 263 420 1472
2022-05-19 21:04:09 GMT 49.772488 7.056712 19,475 263 420 1472
2022-05-19 21:04:07 GMT 49.772873 7.061173 19,425 263 420 1408
2022-05-19 21:04:04 GMT 49.774071 7.074230 19,325 263 419 1344
2022-05-19 21:04:01 GMT 49.774841 7.083146 19,250 263 419 1216
2022-05-19 21:03:58 GMT 49.775421 7.089671 19,250 263 419 1216
2022-05-19 21:03:55 GMT 49.776119 7.097391 19,150 263 419 1216
2022-05-19 21:03:53 GMT 49.776672 7.103312 18,875 263 418 1280
2022-05-19 21:03:50 GMT 49.777405 7.111551 19,100 263 417 1280
2022-05-19 21:03:47 GMT 49.778229 7.120731 19,000 263 417 1280
2022-05-19 21:03:44 GMT 49.779144 7.131092 18,900 263 417 1344
2022-05-19 21:03:41 GMT 49.779877 7.139017 18,825 263 416 1344
2022-05-19 21:03:38 GMT 49.780838 7.149931 18,750 263 416 1408
2022-05-19 21:03:35 GMT 49.781521 7.157593 18,725 263 416 1408
2022-05-19 21:03:33 GMT 49.781891 7.161750 18,700 263 416 1408
2022-05-19 21:03:31 GMT 49.782440 7.167639 18,600 263 416 1408
2022-05-19 21:03:28 GMT 49.784180 7.187661 18,525 263 415 1408
2022-05-19 21:03:25 GMT 49.784180 7.187661 18,500 263 415 1344
2022-05-19 21:03:22 GMT 49.784729 7.193515 18,450 263 415 1344
2022-05-19 21:03:20 GMT 49.786240 7.210573 18,250 263 414 1280
2022-05-19 21:03:17 GMT 49.786240 7.210573 18,300 263 412 1408
2022-05-19 21:03:13 GMT 49.787388 7.223733 18,125 263 413 1280
2022-05-19 21:03:10 GMT 49.788025 7.231028 18,150 263 412 1344
2022-05-19 21:03:07 GMT 49.788689 7.238654 18,100 263 412 1344
2022-05-19 21:03:04 GMT 49.789627 7.249170 17,975 263 412 1472
2022-05-19 21:03:01 GMT 49.790226 7.255876 17,950 263 412 1472
2022-05-19 21:02:58 GMT 49.791157 7.266417 17,775 263 412 1536
2022-05-19 21:02:55 GMT 49.791916 7.274828 17,775 263 412 1536
2022-05-19 21:02:52 GMT 49.792645 7.283564 17,700 263 412 1536
2022-05-19 21:02:49 GMT 49.794136 7.300489 17,575 263 411 1472
2022-05-19 21:02:46 GMT 49.794136 7.300489 17,575 263 411 1472
2022-05-19 21:02:43 GMT 49.794834 7.308655 17,475 263 411 1472
2022-05-19 21:02:40 GMT 49.795624 7.317400 17,075 263 410 1536
2022-05-19 21:02:37 GMT 49.797180 7.335470 17,350 263 410 1472
2022-05-19 21:02:34 GMT 49.797180 7.335470 17,300 263 410 1472
2022-05-19 21:02:32 GMT 49.797672 7.340946 17,150 263 410 1536
2022-05-19 21:02:29 GMT 49.798790 7.353788 17,125 263 410 1536
2022-05-19 21:02:26 GMT 49.800064 7.368285 17,075 263 409 1472
2022-05-19 21:02:23 GMT 49.800064 7.368285 17,000 263 409 1472
2022-05-19 21:02:20 GMT 49.800659 7.375223 16,875 263 409 1408
2022-05-19 21:02:17 GMT 49.801632 7.386524 16,850 263 409 1408
2022-05-19 21:02:13 GMT 49.802628 7.398136 16,750 263 408 1472
2022-05-19 21:02:10 GMT 49.803131 7.403918 16,700 263 408 1472
2022-05-19 21:02:08 GMT 49.804413 7.418374 16,625 263 408 1600
2022-05-19 21:02:06 GMT 49.804413 7.418374 16,625 263 408 1600
2022-05-19 21:02:03 GMT 49.805031 7.425570 16,475 263 407 1600
2022-05-19 21:02:00 GMT 49.805679 7.433364 16,450 263 407 1600
2022-05-19 21:01:58 GMT 49.806660 7.444648 16,325 263 407 1600
2022-05-19 21:01:53 GMT 49.807526 7.454440 16,175 263 407 1600
2022-05-19 21:01:50 GMT 49.808212 7.462536 16,150 263 406 1536
2022-05-19 21:01:48 GMT 49.809032 7.472336 16,075 263 406 1536
2022-05-19 21:01:45 GMT 49.809402 7.476052 15,925 263 406 1408
2022-05-19 21:01:42 GMT 49.810287 7.486737 15,900 263 406 1408
2022-05-19 21:01:38 GMT 49.811218 7.497055 15,875 263 405 1344
2022-05-19 21:01:36 GMT 49.811638 7.501955 15,825 263 405 1344
2022-05-19 21:01:34 GMT 49.812241 7.509372 15,750 263 404 1280
2022-05-19 21:01:31 GMT 49.813038 7.518286 15,725 263 404 1216
2022-05-19 21:01:28 GMT 49.813660 7.525707 15,625 263 403 1280
2022-05-19 21:01:25 GMT 49.814438 7.535176 15,600 263 403 1280
2022-05-19 21:01:22 GMT 49.815811 7.550860 15,500 263 402 1408
2022-05-19 21:01:19 GMT 49.815811 7.550860 15,475 263 401 1472
2022-05-19 21:01:16 GMT 49.816620 7.559930 15,175 263 401 1600
2022-05-19 21:01:12 GMT 49.817596 7.571584 15,275 263 401 1600
2022-05-19 21:01:09 GMT 49.819061 7.588372 15,100 263 401 1472
2022-05-19 21:01:06 GMT 49.819061 7.588372 15,100 263 399 1024
2022-05-19 21:01:03 GMT 49.819832 7.597417 15,000 263 400 1280
2022-05-19 21:01:00 GMT 49.820435 7.604563 15,000 263 400 1152
2022-05-19 21:00:57 GMT 49.821899 7.621548 14,925 263 399 1024
2022-05-19 21:00:55 GMT 49.821899 7.621548 14,900 263 398 960
2022-05-19 21:00:52 GMT 49.822720 7.631118 14,825 263 395 1216
2022-05-19 21:00:49 GMT 49.823139 7.636166 14,800 263 395 1216
2022-05-19 21:00:47 GMT 49.823593 7.641786 14,775 263 396 1088
2022-05-19 21:00:44 GMT 49.824394 7.650790 14,675 263 395 1280
2022-05-19 21:00:41 GMT 49.825378 7.662530 14,450 263 394 1728
2022-05-19 21:00:38 GMT 49.825745 7.667011 14,525 263 394 1664
2022-05-19 21:00:35 GMT 49.826477 7.675685 14,525 263 394 1728
2022-05-19 21:00:32 GMT 49.827606 7.688500 14,350 263 394 1920
2022-05-19 21:00:28 GMT 49.828079 7.694116 14,300 263 394 1920
2022-05-19 21:00:25 GMT 49.828812 7.702789 14,200 263 394 1728
2022-05-19 21:00:22 GMT 49.829983 7.716708 14,100 263 393 1280
2022-05-19 21:00:20 GMT 49.829983 7.716708 14,075 263 393 1088
2022-05-19 21:00:18 GMT 49.830540 7.723092 14,050 263 393 896
2022-05-19 21:00:16 GMT 49.831097 7.729773 14,025 263 391 768
2022-05-19 21:00:13 GMT 49.831604 7.735893 13,950 263 390 768
2022-05-19 21:00:10 GMT 49.832355 7.744767 13,950 263 389 832
2022-05-19 21:00:08 GMT 49.832794 7.749987 13,900 263 388 960
2022-05-19 21:00:05 GMT 49.833527 7.759094 13,875 263 387 1088
2022-05-19 21:00:02 GMT 49.834263 7.767854 13,775 264 385 1216
2022-05-19 21:00:00 GMT 49.835037 7.777670 13,700 264 385 1280
2022-05-19 20:59:58 GMT 49.835037 7.777670 13,675 264 384 1280
2022-05-19 20:59:55 GMT 49.835659 7.785892 13,650 264 384 1344
2022-05-19 20:59:52 GMT 49.836407 7.795468 13,550 263 383 1536
2022-05-19 20:59:50 GMT 49.836823 7.800582 13,525 263 383 1536
2022-05-19 20:59:47 GMT 49.837555 7.809545 13,450 263 382 1600
2022-05-19 20:59:45 GMT 49.838791 7.823133 13,375 262 382 1600
2022-05-19 20:59:42 GMT 49.838791 7.823133 13,325 262 381 1536
2022-05-19 20:59:40 GMT 49.839157 7.826891 13,275 263 381 1408
2022-05-19 20:59:36 GMT 49.839981 7.836360 13,200 264 381 1152
2022-05-19 20:59:34 GMT 49.840919 7.850919 13,150 267 378 960
2022-05-19 20:59:31 GMT 49.840919 7.850919 13,100 267 378 960
2022-05-19 20:59:28 GMT 49.841217 7.859055 13,075 269 377 768
2022-05-19 20:59:26 GMT 49.841339 7.864207 13,025 269 377 704
2022-05-19 20:59:24 GMT 49.841385 7.870888 13,025 272 374 512
2022-05-19 20:59:21 GMT 49.841354 7.877848 13,000 272 374 512
2022-05-19 20:59:19 GMT 49.841171 7.884281 12,975 274 371 512
2022-05-19 20:59:15 GMT 49.840084 7.904069 12,925 280 365 384
2022-05-19 20:59:11 GMT 49.840084 7.904069 12,925 278 367 384
2022-05-19 20:59:08 GMT 49.839245 7.912606 12,900 280 365 384
2022-05-19 20:59:05 GMT 49.838379 7.919769 12,875 282 363 512
2022-05-19 20:59:03 GMT 49.837803 7.923815 12,875 283 361 576
2022-05-19 20:59:00 GMT 49.836266 7.934133 12,825 284 359 512
2022-05-19 20:58:56 GMT 49.834217 7.947346 12,775 284 356 576
2022-05-19 20:58:54 GMT 49.834217 7.947346 12,725 284 353 640
2022-05-19 20:58:51 GMT 49.833008 7.954992 12,750 284 354 640
2022-05-19 20:58:48 GMT 49.831749 7.963158 12,675 284 351 704
2022-05-19 20:58:46 GMT 49.830368 7.971882 12,675 284 349 704
2022-05-19 20:58:41 GMT 49.828491 7.984017 12,600 284 347 960
2022-05-19 20:58:37 GMT 49.827713 7.988868 12,550 284 345 1280
2022-05-19 20:58:35 GMT 49.826023 7.999383 12,350 284 345 1664
2022-05-19 20:58:30 GMT 49.824162 8.011112 12,300 284 345 1856
2022-05-19 20:58:28 GMT 49.822811 8.019500 12,275 284 345 1856
2022-05-19 20:58:25 GMT 49.822811 8.019500 12,150 284 345 1792
2022-05-19 20:58:22 GMT 49.821789 8.025958 12,075 284 343 1664
2022-05-19 20:58:19 GMT 49.820904 8.031674 12,000 284 343 1472
2022-05-19 20:58:17 GMT 49.819927 8.037687 12,000 284 342 1344
2022-05-19 20:58:14 GMT 49.818623 8.046001 11,925 284 341 1216
2022-05-19 20:58:11 GMT 49.817688 8.051894 11,875 284 341 1152
2022-05-19 20:58:09 GMT 49.816994 8.056170 11,850 284 341 1088
2022-05-19 20:58:07 GMT 49.816132 8.061580 11,800 284 340 1088
2022-05-19 20:58:04 GMT 49.814896 8.069386 11,750 285 337 960
2022-05-19 20:58:01 GMT 49.813873 8.075397 11,700 285 335 960
2022-05-19 20:57:59 GMT 49.813316 8.078885 11,675 285 334 896
2022-05-19 20:57:57 GMT 49.812664 8.083117 11,650 285 334 896
2022-05-19 20:57:54 GMT 49.810547 8.095767 11,600 285 332 960
2022-05-19 20:57:52 GMT 49.810547 8.095767 11,575 285 330 960
2022-05-19 20:57:49 GMT 49.809311 8.103284 11,525 285 328 960
2022-05-19 20:57:47 GMT 49.808334 8.109469 11,475 285 328 1024
2022-05-19 20:57:44 GMT 49.806145 8.122534 11,425 285 326 1088
2022-05-19 20:57:41 GMT 49.806145 8.122534 11,375 285 325 1088
2022-05-19 20:57:39 GMT 49.805603 8.125907 11,325 285 323 1088
2022-05-19 20:57:35 GMT 49.804001 8.135521 11,275 285 322 1088
2022-05-19 20:57:31 GMT 49.802513 8.144432 11,200 285 320 1152
2022-05-19 20:57:29 GMT 49.801941 8.147952 11,150 285 318 1216
2022-05-19 20:57:27 GMT 49.801258 8.152152 11,125 285 317 1216
2022-05-19 20:57:24 GMT 49.800293 8.157855 10,925 285 317 1216
2022-05-19 20:57:22 GMT 49.798698 8.167518 10,975 285 314 1280
2022-05-19 20:57:20 GMT 49.797955 8.172121 10,925 285 314 1216
2022-05-19 20:57:16 GMT 49.797256 8.176426 10,900 285 313 1024
2022-05-19 20:57:13 GMT 49.796139 8.183181 10,850 284 312 768
2022-05-19 20:57:10 GMT 49.795120 8.189585 10,825 284 308 384
2022-05-19 20:57:08 GMT 49.794662 8.192621 10,825 284 307 320
2022-05-19 20:57:06 GMT 49.793839 8.197969 10,800 284 304 576
2022-05-19 20:57:04 GMT 49.793343 8.201145 10,775 284 303 704
2022-05-19 20:57:02 GMT 49.792694 8.205342 10,775 283 302 1024
2022-05-19 20:56:59 GMT 49.791504 8.213509 10,600 284 300 1472
2022-05-19 20:56:54 GMT 49.790176 8.222327 10,550 284 300 1728
2022-05-19 20:56:52 GMT 49.788437 8.233747 10,425 284 299 2048
2022-05-19 20:56:49 GMT 49.787750 8.237867 10,275 284 300 2240
2022-05-19 20:56:47 GMT 49.786919 8.243309 10,175 284 300 2240
2022-05-19 20:56:44 GMT 49.786919 8.243309 10,175 284 300 2240
2022-05-19 20:56:42 GMT 49.786266 8.247244 10,100 285 300 2240
2022-05-19 20:56:40 GMT 49.785507 8.252106 10,000 284 301 2176
2022-05-19 20:56:38 GMT 49.784920 8.255854 9,975 284 301 2176
2022-05-19 20:56:36 GMT 49.783905 8.262080 9,850 285 302 2112
2022-05-19 20:56:33 GMT 49.783104 8.266915 9,675 285 303 2048
2022-05-19 20:56:30 GMT 49.782032 8.273447 9,675 285 303 1920
2022-05-19 20:56:27 GMT 49.781055 8.279534 9,450 284 297 2368
2022-05-19 20:56:24 GMT 49.779610 8.288516 9,425 284 299 2112
2022-05-19 20:56:20 GMT 49.778595 8.294750 9,325 284 298 2368
2022-05-19 20:56:18 GMT 49.778168 8.297424 9,275 284 297 2368
2022-05-19 20:56:16 GMT 49.777634 8.300677 9,225 285 297 2240
2022-05-19 20:56:14 GMT 49.776817 8.305887 8,975 285 295 1920
2022-05-19 20:56:12 GMT 49.776260 8.309133 8,975 285 295 1920
2022-05-19 20:56:09 GMT 49.774864 8.317244 8,950 286 293 1920
2022-05-19 20:56:06 GMT 49.774025 8.321921 8,875 286 291 2048
2022-05-19 20:56:03 GMT 49.772766 8.328899 8,800 286 290 2304
2022-05-19 20:56:00 GMT 49.771729 8.334865 8,625 286 288 2432
2022-05-19 20:55:58 GMT 49.771187 8.337881 8,575 286 288 2432
2022-05-19 20:55:56 GMT 49.769974 8.344784 8,425 286 286 2496
2022-05-19 20:55:53 GMT 49.769211 8.348887 8,350 286 285 2560
2022-05-19 20:55:51 GMT 49.768661 8.351850 8,275 286 285 2496
2022-05-19 20:55:49 GMT 49.768021 8.355622 8,200 286 284 2368
2022-05-19 20:55:47 GMT 49.767059 8.360668 8,125 286 283 2176
2022-05-19 20:55:44 GMT 49.766018 8.366534 8,000 286 282 2048
2022-05-19 20:55:41 GMT 49.765137 8.371365 7,925 286 280 2048
2022-05-19 20:55:38 GMT 49.764084 8.377364 7,825 286 278 1792
2022-05-19 20:55:34 GMT 49.761875 8.389769 7,675 285 270 512
2022-05-19 20:55:31 GMT 49.761875 8.389769 7,675 286 274 960
2022-05-19 20:55:29 GMT 49.761036 8.394445 7,550 284 268 448
2022-05-19 20:55:27 GMT 49.760284 8.399120 7,600 282 263 448
2022-05-19 20:55:24 GMT 49.759407 8.404689 7,600 282 263 448
2022-05-19 20:55:22 GMT 49.758911 8.408805 7,525 270 253 704
2022-05-19 20:55:18 GMT 49.758244 8.417977 7,525 275 256 768
2022-05-19 20:55:14 GMT 49.758133 8.422683 7,500 269 252 768
2022-05-19 20:55:11 GMT 49.758270 8.427020 7,450 266 250 896
2022-05-19 20:55:08 GMT 49.758728 8.433525 7,400 259 246 704
2022-05-19 20:55:06 GMT 49.759033 8.436312 7,350 248 239 576
2022-05-19 20:55:03 GMT 49.759689 8.440608 7,375 254 242 512
2022-05-19 20:55:01 GMT 49.760513 8.444728 7,350 251 240 512
2022-05-19 20:54:58 GMT 49.761932 8.450293 7,325 246 237 640
2022-05-19 20:54:56 GMT 49.762665 8.452751 7,300 245 237 768
2022-05-19 20:54:54 GMT 49.763596 8.455390 7,275 229 233 1472
2022-05-19 20:54:51 GMT 49.765503 8.460195 7,175 223 232 960
2022-05-19 20:54:48 GMT 49.767647 8.464669 7,075 231 233 1600
2022-05-19 20:54:46 GMT 49.768673 8.466599 7,050 224 232 1088
2022-05-19 20:54:43 GMT 49.770626 8.469717 7,000 224 232 1088
2022-05-19 20:54:39 GMT 49.774490 8.474913 6,925 217 230 1152
2022-05-19 20:54:37 GMT 49.775700 8.476249 6,900 214 229 1600
2022-05-19 20:54:34 GMT 49.779831 8.480289 6,800 202 232 1792
2022-05-19 20:54:32 GMT 49.779831 8.480289 6,725 209 230 2112
2022-05-19 20:54:30 GMT 49.782578 8.482529 6,625 205 232 1920
2022-05-19 20:54:28 GMT 49.784637 8.483975 6,600 204 232 1792
2022-05-19 20:54:25 GMT 49.786919 8.485380 6,350 201 230 1664
2022-05-19 20:54:22 GMT 49.790272 8.487310 6,350 201 231 1792
2022-05-19 20:54:19 GMT 49.793159 8.488943 6,325 201 230 1664
2022-05-19 20:54:17 GMT 49.794662 8.489830 6,275 201 230 1600
2022-05-19 20:54:15 GMT 49.797672 8.491541 6,225 201 229 2624
2022-05-19 20:54:12 GMT 49.800247 8.493010 6,100 201 229 2624
2022-05-19 20:54:09 GMT 49.804916 8.495684 5,825 201 231 2688
2022-05-19 20:54:07 GMT 49.804916 8.495684 5,875 201 231 2624
2022-05-19 20:54:05 GMT 49.806938 8.496886 5,800 201 232 2368
2022-05-19 20:54:03 GMT 49.809265 8.498214 5,725 201 232 2048
2022-05-19 20:54:01 GMT 49.811096 8.499226 5,550 201 232 1728
2022-05-19 20:53:58 GMT 49.816086 8.502117 5,525 201 230 1600
2022-05-19 20:53:53 GMT 49.819153 8.503924 5,425 201 229 1856
2022-05-19 20:53:50 GMT 49.825371 8.507649 4,675 202 228 2048
2022-05-19 20:53:47 GMT 49.825371 8.507649 5,150 202 228 2240
2022-05-19 20:53:45 GMT 49.826843 8.508477 5,100 202 228 2368
2022-05-19 20:53:43 GMT 49.829422 8.510025 5,050 201 229 2304
2022-05-19 20:53:40 GMT 49.831612 8.511287 4,950 201 229 2176
2022-05-19 20:53:37 GMT 49.835239 8.513439 4,850 201 229 1792
2022-05-19 20:53:34 GMT 49.837646 8.514838 4,775 202 228 1792
2022-05-19 20:53:32 GMT 49.839569 8.516067 4,700 202 227 2176
2022-05-19 20:53:30 GMT 49.841858 8.517368 4,600 202 227 2304
2022-05-19 20:53:27 GMT 49.845291 8.519464 4,475 202 228 2240
2022-05-19 20:53:25 GMT 49.846664 8.520259 4,425 202 228 2176
2022-05-19 20:53:23 GMT 49.849136 8.521704 4,325 202 228 2176
2022-05-19 20:53:21 GMT 49.851105 8.522933 3,775 202 227 2432
2022-05-19 20:53:17 GMT 49.854904 8.525174 4,100 202 228 2560
2022-05-19 20:53:15 GMT 49.857010 8.526475 4,000 201 229 2688
2022-05-19 20:53:12 GMT 49.858891 8.527543 3,900 198 231 2816
2022-05-19 20:53:10 GMT 49.861313 8.528788 3,775 197 232 2816
2022-05-19 20:53:07 GMT 49.865219 8.530513 3,625 194 234 2752
2022-05-19 20:53:02 GMT 49.869690 8.531968 3,450 190 236 2752
2022-05-19 20:52:59 GMT 49.872482 8.532740 3,325 188 238 2880
2022-05-19 20:52:56 GMT 49.876877 8.533486 3,125 185 240 2880
2022-05-19 20:52:54 GMT 49.882446 8.533927 3,075 184 241 2816
2022-05-19 20:52:51 GMT 49.882446 8.533927 2,900 181 243 2560
2022-05-19 20:52:48 GMT 49.887177 8.533847 2,750 179 244 2048
2022-05-19 20:52:44 GMT 49.889568 8.533779 2,650 179 243 1600
2022-05-19 20:52:40 GMT 49.894920 8.533630 2,575 178 240 832
2022-05-19 20:52:36 GMT 49.898785 8.533556 2,550 178 235 192
2022-05-19 20:52:34 GMT 49.900742 8.533482 2,550 178 228 256
2022-05-19 20:52:31 GMT 49.903625 8.533408 2,550 178 227 384
2022-05-19 20:52:28 GMT 49.907490 8.533259 2,500 178 221 768
2022-05-19 20:52:26 GMT 49.910934 8.533185 2,450 178 218 960
2022-05-19 20:52:24 GMT 49.910934 8.533185 2,450 178 218 960
2022-05-19 20:52:19 GMT 49.916061 8.533052 2,350 178 212 640
2022-05-19 20:52:16 GMT 49.919083 8.532888 2,350 178 210 640
2022-05-19 20:52:14 GMT 49.921131 8.532888 2,325 178 208 768
2022-05-19 20:52:10 GMT 49.924805 8.532763 2,275 178 205 896
2022-05-19 20:52:07 GMT 49.928020 8.532591 2,200 178 202 1088
2022-05-19 20:52:02 GMT 49.932770 8.532368 2,125 177 200 1088
2022-05-19 20:51:59 GMT 49.935333 8.532185 2,025 177 197 1088
2022-05-19 20:51:56 GMT 49.938076 8.532072 2,025 177 197 1024
2022-05-19 20:51:55 GMT 49.939007 8.531997 2,000 177 196 1024
2022-05-19 20:51:53 GMT 49.941330 8.531823 1,975 177 194 768
2022-05-19 20:51:51 GMT 49.943054 8.531626 1,950 176 192 640
2022-05-19 20:51:50 GMT 49.943939 8.531552 1,925 176 191 576
2022-05-19 20:51:49 GMT 49.944992 8.531462 1,900 176 189 512
2022-05-19 20:51:46 GMT 49.948086 8.531181 1,875 176 186 704
2022-05-19 20:51:44 GMT 49.949017 8.531106 1,875 176 185 768
2022-05-19 20:51:42 GMT 49.950363 8.530958 1,850 176 184 960
2022-05-19 20:51:41 GMT 49.951714 8.530810 1,825 175 183 1280
2022-05-19 20:51:40 GMT 49.953671 8.530661 1,750 175 182 1728
2022-05-19 20:51:37 GMT 49.955017 8.530450 1,725 175 183 1856
2022-05-19 20:51:36 GMT 49.955887 8.530378 1,675 175 183 1792
2022-05-19 20:51:34 GMT 49.958744 8.530067 1,575 176 184 1728
2022-05-19 20:51:32 GMT 49.959629 8.529993 1,550 176 184 1728
2022-05-19 20:51:30 GMT 49.960876 8.529872 1,500 176 185 1664
2022-05-19 20:51:29 GMT 49.961746 8.529800 1,475 176 185 1536
2022-05-19 20:51:27 GMT 49.963531 8.529655 1,450 176 185 1536
2022-05-19 20:51:26 GMT 49.964283 8.529622 1,400 177 184 1472
2022-05-19 20:51:24 GMT 49.966187 8.529438 1,375 177 184 1472
2022-05-19 20:51:23 GMT 49.967010 8.529366 1,325 177 184 1408
2022-05-19 20:51:21 GMT 49.968292 8.529294 1,325 176 183 1408
2022-05-19 20:51:20 GMT 49.969986 8.529149 1,250 176 183 1472
2022-05-19 20:51:17 GMT 49.971687 8.529028 1,225 176 183 1472
2022-05-19 20:51:16 GMT 49.972778 8.528932 1,175 176 182 1536
2022-05-19 20:51:14 GMT 49.974480 8.528731 1,125 176 182 1792
2022-05-19 20:51:13 GMT 49.975315 8.528657 1,075 176 182 1792
2022-05-19 20:51:12 GMT 49.977085 8.528508 1,025 175 182 1984
2022-05-19 20:51:09 GMT 49.978363 8.528354 975 175 183 2048
2022-05-19 20:51:08 GMT 49.979599 8.528211 900 175 184 2112
2022-05-19 20:51:06 GMT 49.981476 8.527993 850 175 184 2112
2022-05-19 20:51:05 GMT 49.982346 8.527920 750 175 185 2048
2022-05-19 20:51:03 GMT 49.983883 8.527692 750 175 186 2048
2022-05-19 20:51:02 GMT 49.984818 8.527631 700 175 187 1856
2022-05-19 20:51:00 GMT 49.986397 8.527395 650 175 187 1728
2022-05-19 20:50:58 GMT 49.988388 8.527198 600 176 187 1536
2022-05-19 20:50:56 GMT 49.990959 8.526949 525 176 187 1408
We lost coverage of the aircraft here for a total of 7 minutes
2022-05-19 20:43:29 GMT 50.035534 8.532016 0 250 15
2022-05-19 20:42:46 GMT 50.036777 8.537101 0 250 19
2022-05-19 20:42:40 GMT 50.036976 8.537917 0 250 19
2022-05-19 20:42:27 GMT 50.037346 8.539467 0 250 18
2022-05-19 20:42:10 GMT 50.037872 8.541726 0 247 21
2022-05-19 20:42:06 GMT 50.038010 8.542241 0 244 21
2022-05-19 20:41:47 GMT 50.038879 8.544671 0 250 23
2022-05-19 20:41:35 GMT 50.039314 8.546514 0 250 23
2022-05-19 20:41:29 GMT 50.039555 8.547526 0 250 23
2022-05-19 20:41:18 GMT 50.039955 8.549188 0 250 22
2022-05-19 20:41:06 GMT 50.040367 8.550923 0 250 21
2022-05-19 20:40:59 GMT 50.040607 8.551917 0 250 22

Making use of Plane Finder data

You are free to use the raw flight data, aircraft information and images provided in this report for your own purposes provided the data is correctly attributed to Plane Finder. We ask that you please credit Plane Finder and link to planefinder.net in close proximity to the content.

Optionally one of the following logos (no smaller then 150x24px) can be used and must link to planefinder.net

Embedding the Plane Finder map

You are welcome to embed the Plane Finder playback map on your website to offer visitors a more interactive experience. We suggest using the following HTML code:

<iframe src="//planefinder.net/data/report/LH506-D-ABYP-7700-squawk-2022-05-19/map" width="800" height="600" seamless="seamless"></iframe>

Where our data comes from

Plane Finder has a global network of data feeds and antenna radars that receive data broadcast directly from aircraft. The primary technologies used are ADS-B and MLAT. We also show feeds from the FAA and a FLARM glider feed.

Click here to find out more about the Plane Finder network.

How we collect our data